<?xml version="1.0" encoding="UTF-8" standalone="no" ?>
<gpx xmlns="http://www.topografix.com/GPX/1/1" xmlns:xsi="http://www.w3.org/2001/XMLSchema-instance" xsi:schemaLocation="http://www.topografix.com/GPX/1/1 http://www.topografix.com/GPX/1/1/gpx.xsd" version="1.1" creator="VisuGPX - https://www.visugpx.com">
  <metadata>
    <name>kelzCdYRz8</name>
    <desc><![CDATA[

]]></desc>
  </metadata>
  <trk>
    <name><![CDATA[kelzCdYRz8_1]]></name>
    <trkseg>
      <trkpt lat="46.11194" lon="4.58864">
        <ele>376.4</ele>
        <time>2020-10-19T11:55:05Z</time>
      </trkpt>
      <trkpt lat="46.11194" lon="4.58864">
        <ele>376.4</ele>
        <time>2020-10-19T11:55:05Z</time>
      </trkpt>
      <trkpt lat="46.11194" lon="4.58864">
        <ele>376.2</ele>
        <time>2020-10-19T11:55:06Z</time>
      </trkpt>
      <trkpt lat="46.11197" lon="4.58865">
        <ele>376.2</ele>
        <time>2020-10-19T11:55:07Z</time>
      </trkpt>
      <trkpt lat="46.11197" lon="4.58865">
        <ele>376.4</ele>
        <time>2020-10-19T11:55:08Z</time>
      </trkpt>
      <trkpt lat="46.11199" lon="4.58865">
        <ele>376.8</ele>
        <time>2020-10-19T11:55:09Z</time>
      </trkpt>
      <trkpt lat="46.11199" lon="4.58865">
        <ele>377.2</ele>
        <time>2020-10-19T11:55:10Z</time>
      </trkpt>
      <trkpt lat="46.11202" lon="4.58864">
        <ele>377.2</ele>
        <time>2020-10-19T11:55:11Z</time>
      </trkpt>
      <trkpt lat="46.11202" lon="4.58864">
        <ele>377.2</ele>
        <time>2020-10-19T11:55:12Z</time>
      </trkpt>
      <trkpt lat="46.11205" lon="4.58863">
        <ele>377.4</ele>
        <time>2020-10-19T11:55:13Z</time>
      </trkpt>
      <trkpt lat="46.11205" lon="4.58863">
        <ele>377.6</ele>
        <time>2020-10-19T11:55:14Z</time>
      </trkpt>
      <trkpt lat="46.11208" lon="4.58861">
        <ele>377.8</ele>
        <time>2020-10-19T11:55:15Z</time>
      </trkpt>
      <trkpt lat="46.11208" lon="4.58861">
        <ele>378.2</ele>
        <time>2020-10-19T11:55:16Z</time>
      </trkpt>
      <trkpt lat="46.1121" lon="4.5886">
        <ele>378</ele>
        <time>2020-10-19T11:55:17Z</time>
      </trkpt>
      <trkpt lat="46.1121" lon="4.5886">
        <ele>378.4</ele>
        <time>2020-10-19T11:55:18Z</time>
      </trkpt>
      <trkpt lat="46.11213" lon="4.58858">
        <ele>378.4</ele>
        <time>2020-10-19T11:55:19Z</time>
      </trkpt>
      <trkpt lat="46.11213" lon="4.58858">
        <ele>378.6</ele>
        <time>2020-10-19T11:55:20Z</time>
      </trkpt>
      <trkpt lat="46.11215" lon="4.58858">
        <ele>378.6</ele>
        <time>2020-10-19T11:55:21Z</time>
      </trkpt>
      <trkpt lat="46.11215" lon="4.58858">
        <ele>378.6</ele>
        <time>2020-10-19T11:55:22Z</time>
      </trkpt>
      <trkpt lat="46.11217" lon="4.58857">
        <ele>378.6</ele>
        <time>2020-10-19T11:55:23Z</time>
      </trkpt>
      <trkpt lat="46.11217" lon="4.58857">
        <ele>378.6</ele>
        <time>2020-10-19T11:55:24Z</time>
      </trkpt>
      <trkpt lat="46.11219" lon="4.58855">
        <ele>378.4</ele>
        <time>2020-10-19T11:55:25Z</time>
      </trkpt>
      <trkpt lat="46.11219" lon="4.58855">
        <ele>378.2</ele>
        <time>2020-10-19T11:55:26Z</time>
      </trkpt>
      <trkpt lat="46.11222" lon="4.58855">
        <ele>378.2</ele>
        <time>2020-10-19T11:55:27Z</time>
      </trkpt>
      <trkpt lat="46.11222" lon="4.58855">
        <ele>378.4</ele>
        <time>2020-10-19T11:55:28Z</time>
      </trkpt>
      <trkpt lat="46.11224" lon="4.58854">
        <ele>378.4</ele>
        <time>2020-10-19T11:55:29Z</time>
      </trkpt>
      <trkpt lat="46.11224" lon="4.58854">
        <ele>378.6</ele>
        <time>2020-10-19T11:55:30Z</time>
      </trkpt>
      <trkpt lat="46.11227" lon="4.58854">
        <ele>378.8</ele>
        <time>2020-10-19T11:55:31Z</time>
      </trkpt>
      <trkpt lat="46.11227" lon="4.58854">
        <ele>378.8</ele>
        <time>2020-10-19T11:55:32Z</time>
      </trkpt>
      <trkpt lat="46.11229" lon="4.58852">
        <ele>379</ele>
        <time>2020-10-19T11:55:33Z</time>
      </trkpt>
      <trkpt lat="46.11231" lon="4.58851">
        <ele>379.2</ele>
        <time>2020-10-19T11:55:34Z</time>
      </trkpt>
      <trkpt lat="46.11233" lon="4.5885">
        <ele>379.2</ele>
        <time>2020-10-19T11:55:35Z</time>
      </trkpt>
      <trkpt lat="46.11233" lon="4.5885">
        <ele>379.6</ele>
        <time>2020-10-19T11:55:36Z</time>
      </trkpt>
      <trkpt lat="46.11236" lon="4.58849">
        <ele>379.6</ele>
        <time>2020-10-19T11:55:37Z</time>
      </trkpt>
      <trkpt lat="46.11236" lon="4.58849">
        <ele>379.8</ele>
        <time>2020-10-19T11:55:38Z</time>
      </trkpt>
      <trkpt lat="46.11239" lon="4.58849">
        <ele>379.6</ele>
        <time>2020-10-19T11:55:39Z</time>
      </trkpt>
      <trkpt lat="46.11239" lon="4.58849">
        <ele>379.8</ele>
        <time>2020-10-19T11:55:40Z</time>
      </trkpt>
      <trkpt lat="46.11241" lon="4.58848">
        <ele>379.8</ele>
        <time>2020-10-19T11:55:41Z</time>
      </trkpt>
      <trkpt lat="46.11241" lon="4.58848">
        <ele>380</ele>
        <time>2020-10-19T11:55:42Z</time>
      </trkpt>
      <trkpt lat="46.11241" lon="4.58848">
        <ele>380</ele>
        <time>2020-10-19T11:55:43Z</time>
      </trkpt>
      <trkpt lat="46.11243" lon="4.58847">
        <ele>380</ele>
        <time>2020-10-19T11:55:44Z</time>
      </trkpt>
      <trkpt lat="46.11243" lon="4.58847">
        <ele>380.2</ele>
        <time>2020-10-19T11:55:45Z</time>
      </trkpt>
      <trkpt lat="46.11243" lon="4.58847">
        <ele>380.4</ele>
        <time>2020-10-19T11:55:46Z</time>
      </trkpt>
      <trkpt lat="46.11243" lon="4.58847">
        <ele>380.2</ele>
        <time>2020-10-19T11:55:47Z</time>
      </trkpt>
      <trkpt lat="46.11243" lon="4.58847">
        <ele>380.2</ele>
        <time>2020-10-19T11:55:48Z</time>
      </trkpt>
      <trkpt lat="46.11243" lon="4.58847">
        <ele>380</ele>
        <time>2020-10-19T11:55:49Z</time>
      </trkpt>
      <trkpt lat="46.11243" lon="4.58847">
        <ele>380</ele>
        <time>2020-10-19T11:55:50Z</time>
      </trkpt>
      <trkpt lat="46.11244" lon="4.5885">
        <ele>380.2</ele>
        <time>2020-10-19T11:55:51Z</time>
      </trkpt>
      <trkpt lat="46.11244" lon="4.5885">
        <ele>380</ele>
        <time>2020-10-19T11:55:52Z</time>
      </trkpt>
      <trkpt lat="46.11244" lon="4.5885">
        <ele>380</ele>
        <time>2020-10-19T11:55:53Z</time>
      </trkpt>
      <trkpt lat="46.11245" lon="4.58853">
        <ele>380.2</ele>
        <time>2020-10-19T11:55:54Z</time>
      </trkpt>
      <trkpt lat="46.11245" lon="4.58853">
        <ele>380.4</ele>
        <time>2020-10-19T11:55:55Z</time>
      </trkpt>
      <trkpt lat="46.11245" lon="4.58853">
        <ele>380.6</ele>
        <time>2020-10-19T11:55:56Z</time>
      </trkpt>
      <trkpt lat="46.11245" lon="4.58853">
        <ele>380.4</ele>
        <time>2020-10-19T11:55:57Z</time>
      </trkpt>
      <trkpt lat="46.11247" lon="4.58853">
        <ele>380.6</ele>
        <time>2020-10-19T11:55:58Z</time>
      </trkpt>
      <trkpt lat="46.11247" lon="4.58853">
        <ele>380.6</ele>
        <time>2020-10-19T11:55:59Z</time>
      </trkpt>
      <trkpt lat="46.11248" lon="4.58851">
        <ele>380.6</ele>
        <time>2020-10-19T11:56:00Z</time>
      </trkpt>
      <trkpt lat="46.11248" lon="4.58851">
        <ele>380.6</ele>
        <time>2020-10-19T11:56:01Z</time>
      </trkpt>
      <trkpt lat="46.1125" lon="4.58848">
        <ele>380.8</ele>
        <time>2020-10-19T11:56:02Z</time>
      </trkpt>
      <trkpt lat="46.1125" lon="4.58848">
        <ele>381</ele>
        <time>2020-10-19T11:56:03Z</time>
      </trkpt>
      <trkpt lat="46.11251" lon="4.58846">
        <ele>381</ele>
        <time>2020-10-19T11:56:04Z</time>
      </trkpt>
      <trkpt lat="46.11251" lon="4.58846">
        <ele>380.8</ele>
        <time>2020-10-19T11:56:05Z</time>
      </trkpt>
      <trkpt lat="46.11251" lon="4.58843">
        <ele>380.8</ele>
        <time>2020-10-19T11:56:06Z</time>
      </trkpt>
      <trkpt lat="46.11251" lon="4.58843">
        <ele>380.8</ele>
        <time>2020-10-19T11:56:07Z</time>
      </trkpt>
      <trkpt lat="46.1125" lon="4.5884">
        <ele>380.8</ele>
        <time>2020-10-19T11:56:08Z</time>
      </trkpt>
      <trkpt lat="46.1125" lon="4.5884">
        <ele>380.8</ele>
        <time>2020-10-19T11:56:09Z</time>
      </trkpt>
      <trkpt lat="46.1125" lon="4.5884">
        <ele>381</ele>
        <time>2020-10-19T11:56:10Z</time>
      </trkpt>
      <trkpt lat="46.11248" lon="4.58838">
        <ele>381</ele>
        <time>2020-10-19T11:56:11Z</time>
      </trkpt>
      <trkpt lat="46.11248" lon="4.58838">
        <ele>380.8</ele>
        <time>2020-10-19T11:56:12Z</time>
      </trkpt>
      <trkpt lat="46.11248" lon="4.58838">
        <ele>380.8</ele>
        <time>2020-10-19T11:56:13Z</time>
      </trkpt>
      <trkpt lat="46.11248" lon="4.58838">
        <ele>381</ele>
        <time>2020-10-19T11:56:14Z</time>
      </trkpt>
      <trkpt lat="46.11248" lon="4.58838">
        <ele>381</ele>
        <time>2020-10-19T11:56:15Z</time>
      </trkpt>
      <trkpt lat="46.11248" lon="4.58838">
        <ele>381</ele>
        <time>2020-10-19T11:56:16Z</time>
      </trkpt>
      <trkpt lat="46.11246" lon="4.58836">
        <ele>381</ele>
        <time>2020-10-19T11:56:17Z</time>
      </trkpt>
      <trkpt lat="46.11246" lon="4.58836">
        <ele>380.6</ele>
        <time>2020-10-19T11:56:18Z</time>
      </trkpt>
      <trkpt lat="46.11247" lon="4.58833">
        <ele>380.6</ele>
        <time>2020-10-19T11:56:19Z</time>
      </trkpt>
      <trkpt lat="46.11247" lon="4.58833">
        <ele>380.8</ele>
        <time>2020-10-19T11:56:20Z</time>
      </trkpt>
      <trkpt lat="46.11248" lon="4.5883">
        <ele>381.4</ele>
        <time>2020-10-19T11:56:21Z</time>
      </trkpt>
      <trkpt lat="46.11248" lon="4.5883">
        <ele>381.6</ele>
        <time>2020-10-19T11:56:22Z</time>
      </trkpt>
      <trkpt lat="46.11248" lon="4.5883">
        <ele>381.8</ele>
        <time>2020-10-19T11:56:23Z</time>
      </trkpt>
      <trkpt lat="46.11248" lon="4.5883">
        <ele>382.2</ele>
        <time>2020-10-19T11:56:24Z</time>
      </trkpt>
      <trkpt lat="46.11248" lon="4.5883">
        <ele>382.4</ele>
        <time>2020-10-19T11:56:25Z</time>
      </trkpt>
      <trkpt lat="46.11248" lon="4.5883">
        <ele>382.4</ele>
        <time>2020-10-19T11:56:26Z</time>
      </trkpt>
      <trkpt lat="46.11248" lon="4.5883">
        <ele>382.4</ele>
        <time>2020-10-19T11:56:27Z</time>
      </trkpt>
      <trkpt lat="46.11248" lon="4.5883">
        <ele>382.6</ele>
        <time>2020-10-19T11:56:28Z</time>
      </trkpt>
      <trkpt lat="46.11248" lon="4.5883">
        <ele>382.6</ele>
        <time>2020-10-19T11:56:29Z</time>
      </trkpt>
      <trkpt lat="46.11248" lon="4.5883">
        <ele>382.6</ele>
        <time>2020-10-19T11:56:30Z</time>
      </trkpt>
      <trkpt lat="46.11248" lon="4.5883">
        <ele>382.4</ele>
        <time>2020-10-19T11:56:31Z</time>
      </trkpt>
      <trkpt lat="46.11248" lon="4.5883">
        <ele>382.4</ele>
        <time>2020-10-19T11:56:32Z</time>
      </trkpt>
      <trkpt lat="46.11248" lon="4.5883">
        <ele>382.2</ele>
        <time>2020-10-19T11:56:33Z</time>
      </trkpt>
      <trkpt lat="46.11248" lon="4.5883">
        <ele>382.2</ele>
        <time>2020-10-19T11:56:34Z</time>
      </trkpt>
      <trkpt lat="46.11248" lon="4.5883">
        <ele>382.2</ele>
        <time>2020-10-19T11:56:35Z</time>
      </trkpt>
      <trkpt lat="46.11248" lon="4.5883">
        <ele>382</ele>
        <time>2020-10-19T11:56:36Z</time>
      </trkpt>
      <trkpt lat="46.11248" lon="4.5883">
        <ele>382</ele>
        <time>2020-10-19T11:56:37Z</time>
      </trkpt>
      <trkpt lat="46.11248" lon="4.5883">
        <ele>382</ele>
        <time>2020-10-19T11:56:38Z</time>
      </trkpt>
      <trkpt lat="46.11248" lon="4.5883">
        <ele>382</ele>
        <time>2020-10-19T11:56:39Z</time>
      </trkpt>
      <trkpt lat="46.11248" lon="4.5883">
        <ele>382</ele>
        <time>2020-10-19T11:56:40Z</time>
      </trkpt>
      <trkpt lat="46.11248" lon="4.5883">
        <ele>382.2</ele>
        <time>2020-10-19T11:56:41Z</time>
      </trkpt>
      <trkpt lat="46.11248" lon="4.5883">
        <ele>382</ele>
        <time>2020-10-19T11:56:42Z</time>
      </trkpt>
      <trkpt lat="46.11248" lon="4.5883">
        <ele>381.8</ele>
        <time>2020-10-19T11:56:43Z</time>
      </trkpt>
      <trkpt lat="46.11248" lon="4.5883">
        <ele>381.8</ele>
        <time>2020-10-19T11:56:44Z</time>
      </trkpt>
      <trkpt lat="46.11248" lon="4.5883">
        <ele>381.8</ele>
        <time>2020-10-19T11:56:45Z</time>
      </trkpt>
      <trkpt lat="46.11248" lon="4.5883">
        <ele>381.6</ele>
        <time>2020-10-19T11:56:46Z</time>
      </trkpt>
      <trkpt lat="46.11248" lon="4.5883">
        <ele>381.4</ele>
        <time>2020-10-19T11:56:47Z</time>
      </trkpt>
      <trkpt lat="46.11248" lon="4.5883">
        <ele>381</ele>
        <time>2020-10-19T11:56:48Z</time>
      </trkpt>
      <trkpt lat="46.11248" lon="4.5883">
        <ele>380.8</ele>
        <time>2020-10-19T11:56:49Z</time>
      </trkpt>
      <trkpt lat="46.11249" lon="4.58827">
        <ele>380.8</ele>
        <time>2020-10-19T11:56:50Z</time>
      </trkpt>
      <trkpt lat="46.11249" lon="4.58827">
        <ele>380.6</ele>
        <time>2020-10-19T11:56:51Z</time>
      </trkpt>
      <trkpt lat="46.11249" lon="4.58827">
        <ele>380.2</ele>
        <time>2020-10-19T11:56:52Z</time>
      </trkpt>
      <trkpt lat="46.11248" lon="4.58824">
        <ele>380.4</ele>
        <time>2020-10-19T11:56:53Z</time>
      </trkpt>
      <trkpt lat="46.11248" lon="4.58824">
        <ele>380.2</ele>
        <time>2020-10-19T11:56:54Z</time>
      </trkpt>
      <trkpt lat="46.11248" lon="4.58824">
        <ele>380.2</ele>
        <time>2020-10-19T11:56:55Z</time>
      </trkpt>
      <trkpt lat="46.11247" lon="4.58827">
        <ele>380.2</ele>
        <time>2020-10-19T11:56:56Z</time>
      </trkpt>
      <trkpt lat="46.11247" lon="4.58827">
        <ele>380.2</ele>
        <time>2020-10-19T11:56:57Z</time>
      </trkpt>
      <trkpt lat="46.11245" lon="4.5883">
        <ele>380.2</ele>
        <time>2020-10-19T11:56:58Z</time>
      </trkpt>
      <trkpt lat="46.11245" lon="4.5883">
        <ele>380</ele>
        <time>2020-10-19T11:56:59Z</time>
      </trkpt>
      <trkpt lat="46.11244" lon="4.58832">
        <ele>379.8</ele>
        <time>2020-10-19T11:57:00Z</time>
      </trkpt>
      <trkpt lat="46.11244" lon="4.58832">
        <ele>379.8</ele>
        <time>2020-10-19T11:57:01Z</time>
      </trkpt>
      <trkpt lat="46.11244" lon="4.58832">
        <ele>380</ele>
        <time>2020-10-19T11:57:02Z</time>
      </trkpt>
      <trkpt lat="46.11243" lon="4.58836">
        <ele>379.8</ele>
        <time>2020-10-19T11:57:03Z</time>
      </trkpt>
      <trkpt lat="46.11243" lon="4.58836">
        <ele>379.6</ele>
        <time>2020-10-19T11:57:04Z</time>
      </trkpt>
      <trkpt lat="46.11243" lon="4.58836">
        <ele>379.6</ele>
        <time>2020-10-19T11:57:05Z</time>
      </trkpt>
      <trkpt lat="46.11243" lon="4.58836">
        <ele>379.4</ele>
        <time>2020-10-19T11:57:06Z</time>
      </trkpt>
      <trkpt lat="46.11243" lon="4.58836">
        <ele>379.4</ele>
        <time>2020-10-19T11:57:07Z</time>
      </trkpt>
      <trkpt lat="46.11243" lon="4.58836">
        <ele>379.4</ele>
        <time>2020-10-19T11:57:08Z</time>
      </trkpt>
      <trkpt lat="46.11243" lon="4.58836">
        <ele>379.4</ele>
        <time>2020-10-19T11:57:09Z</time>
      </trkpt>
      <trkpt lat="46.11243" lon="4.58836">
        <ele>379.6</ele>
        <time>2020-10-19T11:57:10Z</time>
      </trkpt>
      <trkpt lat="46.11245" lon="4.58833">
        <ele>379.8</ele>
        <time>2020-10-19T11:57:11Z</time>
      </trkpt>
      <trkpt lat="46.11245" lon="4.5883">
        <ele>380</ele>
        <time>2020-10-19T11:57:12Z</time>
      </trkpt>
      <trkpt lat="46.11245" lon="4.5883">
        <ele>379.8</ele>
        <time>2020-10-19T11:57:13Z</time>
      </trkpt>
      <trkpt lat="46.11245" lon="4.58826">
        <ele>379.6</ele>
        <time>2020-10-19T11:57:14Z</time>
      </trkpt>
      <trkpt lat="46.11245" lon="4.58823">
        <ele>379.8</ele>
        <time>2020-10-19T11:57:15Z</time>
      </trkpt>
      <trkpt lat="46.11245" lon="4.58823">
        <ele>379.8</ele>
        <time>2020-10-19T11:57:16Z</time>
      </trkpt>
      <trkpt lat="46.11246" lon="4.58819">
        <ele>379.8</ele>
        <time>2020-10-19T11:57:17Z</time>
      </trkpt>
      <trkpt lat="46.11246" lon="4.58819">
        <ele>379.8</ele>
        <time>2020-10-19T11:57:18Z</time>
      </trkpt>
      <trkpt lat="46.11246" lon="4.58815">
        <ele>379.8</ele>
        <time>2020-10-19T11:57:19Z</time>
      </trkpt>
      <trkpt lat="46.11246" lon="4.58815">
        <ele>380.2</ele>
        <time>2020-10-19T11:57:20Z</time>
      </trkpt>
      <trkpt lat="46.11246" lon="4.58811">
        <ele>380.4</ele>
        <time>2020-10-19T11:57:21Z</time>
      </trkpt>
      <trkpt lat="46.11246" lon="4.58811">
        <ele>380.8</ele>
        <time>2020-10-19T11:57:22Z</time>
      </trkpt>
      <trkpt lat="46.11246" lon="4.58807">
        <ele>381</ele>
        <time>2020-10-19T11:57:23Z</time>
      </trkpt>
      <trkpt lat="46.11246" lon="4.58807">
        <ele>380.8</ele>
        <time>2020-10-19T11:57:24Z</time>
      </trkpt>
      <trkpt lat="46.11246" lon="4.58803">
        <ele>380.8</ele>
        <time>2020-10-19T11:57:25Z</time>
      </trkpt>
      <trkpt lat="46.11246" lon="4.58803">
        <ele>380.8</ele>
        <time>2020-10-19T11:57:26Z</time>
      </trkpt>
      <trkpt lat="46.11246" lon="4.58798">
        <ele>380.8</ele>
        <time>2020-10-19T11:57:27Z</time>
      </trkpt>
      <trkpt lat="46.11246" lon="4.58798">
        <ele>380.8</ele>
        <time>2020-10-19T11:57:28Z</time>
      </trkpt>
      <trkpt lat="46.11246" lon="4.58795">
        <ele>380.8</ele>
        <time>2020-10-19T11:57:29Z</time>
      </trkpt>
      <trkpt lat="46.11246" lon="4.58795">
        <ele>380.8</ele>
        <time>2020-10-19T11:57:30Z</time>
      </trkpt>
      <trkpt lat="46.11246" lon="4.58791">
        <ele>381</ele>
        <time>2020-10-19T11:57:31Z</time>
      </trkpt>
      <trkpt lat="46.11246" lon="4.58791">
        <ele>381</ele>
        <time>2020-10-19T11:57:32Z</time>
      </trkpt>
      <trkpt lat="46.11246" lon="4.58787">
        <ele>381</ele>
        <time>2020-10-19T11:57:33Z</time>
      </trkpt>
      <trkpt lat="46.11246" lon="4.58787">
        <ele>381</ele>
        <time>2020-10-19T11:57:34Z</time>
      </trkpt>
      <trkpt lat="46.11246" lon="4.58782">
        <ele>381</ele>
        <time>2020-10-19T11:57:35Z</time>
      </trkpt>
      <trkpt lat="46.11246" lon="4.58782">
        <ele>381.2</ele>
        <time>2020-10-19T11:57:36Z</time>
      </trkpt>
      <trkpt lat="46.11247" lon="4.58778">
        <ele>381.2</ele>
        <time>2020-10-19T11:57:37Z</time>
      </trkpt>
      <trkpt lat="46.11247" lon="4.58778">
        <ele>381.2</ele>
        <time>2020-10-19T11:57:38Z</time>
      </trkpt>
      <trkpt lat="46.11247" lon="4.58778">
        <ele>381.2</ele>
        <time>2020-10-19T11:57:39Z</time>
      </trkpt>
      <trkpt lat="46.11247" lon="4.58778">
        <ele>381</ele>
        <time>2020-10-19T11:57:40Z</time>
      </trkpt>
      <trkpt lat="46.11247" lon="4.58778">
        <ele>381.2</ele>
        <time>2020-10-19T11:57:41Z</time>
      </trkpt>
      <trkpt lat="46.11247" lon="4.58778">
        <ele>381.2</ele>
        <time>2020-10-19T11:57:42Z</time>
      </trkpt>
      <trkpt lat="46.11247" lon="4.58778">
        <ele>381</ele>
        <time>2020-10-19T11:57:43Z</time>
      </trkpt>
      <trkpt lat="46.11245" lon="4.58776">
        <ele>381.2</ele>
        <time>2020-10-19T11:57:44Z</time>
      </trkpt>
      <trkpt lat="46.11245" lon="4.58776">
        <ele>381.2</ele>
        <time>2020-10-19T11:57:45Z</time>
      </trkpt>
      <trkpt lat="46.11243" lon="4.58773">
        <ele>381.2</ele>
        <time>2020-10-19T11:57:46Z</time>
      </trkpt>
      <trkpt lat="46.11243" lon="4.58773">
        <ele>381.2</ele>
        <time>2020-10-19T11:57:47Z</time>
      </trkpt>
      <trkpt lat="46.11242" lon="4.58769">
        <ele>381.4</ele>
        <time>2020-10-19T11:57:48Z</time>
      </trkpt>
      <trkpt lat="46.11242" lon="4.58769">
        <ele>381.6</ele>
        <time>2020-10-19T11:57:49Z</time>
      </trkpt>
      <trkpt lat="46.11242" lon="4.58765">
        <ele>381.4</ele>
        <time>2020-10-19T11:57:50Z</time>
      </trkpt>
      <trkpt lat="46.11242" lon="4.58765">
        <ele>381.4</ele>
        <time>2020-10-19T11:57:51Z</time>
      </trkpt>
      <trkpt lat="46.11241" lon="4.5876">
        <ele>381.4</ele>
        <time>2020-10-19T11:57:52Z</time>
      </trkpt>
      <trkpt lat="46.11241" lon="4.58758">
        <ele>381.4</ele>
        <time>2020-10-19T11:57:53Z</time>
      </trkpt>
      <trkpt lat="46.11241" lon="4.58758">
        <ele>381.6</ele>
        <time>2020-10-19T11:57:54Z</time>
      </trkpt>
      <trkpt lat="46.11241" lon="4.58753">
        <ele>381.8</ele>
        <time>2020-10-19T11:57:55Z</time>
      </trkpt>
      <trkpt lat="46.11241" lon="4.58753">
        <ele>382</ele>
        <time>2020-10-19T11:57:56Z</time>
      </trkpt>
      <trkpt lat="46.11241" lon="4.58748">
        <ele>382.4</ele>
        <time>2020-10-19T11:57:57Z</time>
      </trkpt>
      <trkpt lat="46.11241" lon="4.58748">
        <ele>382.8</ele>
        <time>2020-10-19T11:57:58Z</time>
      </trkpt>
      <trkpt lat="46.11241" lon="4.58744">
        <ele>383</ele>
        <time>2020-10-19T11:57:59Z</time>
      </trkpt>
      <trkpt lat="46.11241" lon="4.58744">
        <ele>383.2</ele>
        <time>2020-10-19T11:58:00Z</time>
      </trkpt>
      <trkpt lat="46.1124" lon="4.5874">
        <ele>383.4</ele>
        <time>2020-10-19T11:58:01Z</time>
      </trkpt>
      <trkpt lat="46.1124" lon="4.5874">
        <ele>383.4</ele>
        <time>2020-10-19T11:58:02Z</time>
      </trkpt>
      <trkpt lat="46.1124" lon="4.58735">
        <ele>383.6</ele>
        <time>2020-10-19T11:58:03Z</time>
      </trkpt>
      <trkpt lat="46.1124" lon="4.58735">
        <ele>383.8</ele>
        <time>2020-10-19T11:58:04Z</time>
      </trkpt>
      <trkpt lat="46.1124" lon="4.5873">
        <ele>384</ele>
        <time>2020-10-19T11:58:05Z</time>
      </trkpt>
      <trkpt lat="46.1124" lon="4.5873">
        <ele>384</ele>
        <time>2020-10-19T11:58:06Z</time>
      </trkpt>
      <trkpt lat="46.1124" lon="4.58726">
        <ele>383.8</ele>
        <time>2020-10-19T11:58:07Z</time>
      </trkpt>
      <trkpt lat="46.1124" lon="4.58726">
        <ele>383.8</ele>
        <time>2020-10-19T11:58:08Z</time>
      </trkpt>
      <trkpt lat="46.11241" lon="4.58722">
        <ele>383.6</ele>
        <time>2020-10-19T11:58:09Z</time>
      </trkpt>
      <trkpt lat="46.11241" lon="4.58722">
        <ele>383.6</ele>
        <time>2020-10-19T11:58:10Z</time>
      </trkpt>
      <trkpt lat="46.11241" lon="4.58718">
        <ele>383.4</ele>
        <time>2020-10-19T11:58:11Z</time>
      </trkpt>
      <trkpt lat="46.11241" lon="4.58718">
        <ele>383.6</ele>
        <time>2020-10-19T11:58:12Z</time>
      </trkpt>
      <trkpt lat="46.11241" lon="4.58715">
        <ele>383.4</ele>
        <time>2020-10-19T11:58:13Z</time>
      </trkpt>
      <trkpt lat="46.11241" lon="4.58715">
        <ele>383.4</ele>
        <time>2020-10-19T11:58:14Z</time>
      </trkpt>
      <trkpt lat="46.1124" lon="4.58711">
        <ele>383.6</ele>
        <time>2020-10-19T11:58:15Z</time>
      </trkpt>
      <trkpt lat="46.1124" lon="4.58711">
        <ele>383.8</ele>
        <time>2020-10-19T11:58:16Z</time>
      </trkpt>
      <trkpt lat="46.11239" lon="4.58707">
        <ele>383.8</ele>
        <time>2020-10-19T11:58:17Z</time>
      </trkpt>
      <trkpt lat="46.11239" lon="4.58707">
        <ele>383.8</ele>
        <time>2020-10-19T11:58:18Z</time>
      </trkpt>
      <trkpt lat="46.11239" lon="4.58703">
        <ele>384.2</ele>
        <time>2020-10-19T11:58:19Z</time>
      </trkpt>
      <trkpt lat="46.11239" lon="4.58703">
        <ele>384</ele>
        <time>2020-10-19T11:58:20Z</time>
      </trkpt>
      <trkpt lat="46.11239" lon="4.58699">
        <ele>384.2</ele>
        <time>2020-10-19T11:58:21Z</time>
      </trkpt>
      <trkpt lat="46.11239" lon="4.58699">
        <ele>384.2</ele>
        <time>2020-10-19T11:58:22Z</time>
      </trkpt>
      <trkpt lat="46.11239" lon="4.58694">
        <ele>384.6</ele>
        <time>2020-10-19T11:58:23Z</time>
      </trkpt>
      <trkpt lat="46.11239" lon="4.58694">
        <ele>384.8</ele>
        <time>2020-10-19T11:58:24Z</time>
      </trkpt>
      <trkpt lat="46.11239" lon="4.58689">
        <ele>385</ele>
        <time>2020-10-19T11:58:25Z</time>
      </trkpt>
      <trkpt lat="46.11239" lon="4.58689">
        <ele>385</ele>
        <time>2020-10-19T11:58:26Z</time>
      </trkpt>
      <trkpt lat="46.11239" lon="4.58685">
        <ele>385.2</ele>
        <time>2020-10-19T11:58:27Z</time>
      </trkpt>
      <trkpt lat="46.11239" lon="4.58685">
        <ele>385.4</ele>
        <time>2020-10-19T11:58:28Z</time>
      </trkpt>
      <trkpt lat="46.11239" lon="4.58681">
        <ele>385.4</ele>
        <time>2020-10-19T11:58:29Z</time>
      </trkpt>
      <trkpt lat="46.11239" lon="4.58681">
        <ele>385.6</ele>
        <time>2020-10-19T11:58:30Z</time>
      </trkpt>
      <trkpt lat="46.11238" lon="4.58677">
        <ele>385.8</ele>
        <time>2020-10-19T11:58:31Z</time>
      </trkpt>
      <trkpt lat="46.11238" lon="4.58677">
        <ele>386</ele>
        <time>2020-10-19T11:58:32Z</time>
      </trkpt>
      <trkpt lat="46.11238" lon="4.58672">
        <ele>386.2</ele>
        <time>2020-10-19T11:58:33Z</time>
      </trkpt>
      <trkpt lat="46.11238" lon="4.58672">
        <ele>386.4</ele>
        <time>2020-10-19T11:58:34Z</time>
      </trkpt>
      <trkpt lat="46.11238" lon="4.58668">
        <ele>386.4</ele>
        <time>2020-10-19T11:58:35Z</time>
      </trkpt>
      <trkpt lat="46.11238" lon="4.58668">
        <ele>386.6</ele>
        <time>2020-10-19T11:58:36Z</time>
      </trkpt>
      <trkpt lat="46.11238" lon="4.58665">
        <ele>386.8</ele>
        <time>2020-10-19T11:58:37Z</time>
      </trkpt>
      <trkpt lat="46.11238" lon="4.58665">
        <ele>386.8</ele>
        <time>2020-10-19T11:58:38Z</time>
      </trkpt>
      <trkpt lat="46.11237" lon="4.58662">
        <ele>387.2</ele>
        <time>2020-10-19T11:58:39Z</time>
      </trkpt>
      <trkpt lat="46.11237" lon="4.58662">
        <ele>387.2</ele>
        <time>2020-10-19T11:58:40Z</time>
      </trkpt>
      <trkpt lat="46.11237" lon="4.58658">
        <ele>387.4</ele>
        <time>2020-10-19T11:58:41Z</time>
      </trkpt>
      <trkpt lat="46.11237" lon="4.58658">
        <ele>387.6</ele>
        <time>2020-10-19T11:58:42Z</time>
      </trkpt>
      <trkpt lat="46.11237" lon="4.58654">
        <ele>387.8</ele>
        <time>2020-10-19T11:58:43Z</time>
      </trkpt>
      <trkpt lat="46.11237" lon="4.58654">
        <ele>387.8</ele>
        <time>2020-10-19T11:58:44Z</time>
      </trkpt>
      <trkpt lat="46.11237" lon="4.58649">
        <ele>388</ele>
        <time>2020-10-19T11:58:45Z</time>
      </trkpt>
      <trkpt lat="46.11237" lon="4.58649">
        <ele>388.2</ele>
        <time>2020-10-19T11:58:46Z</time>
      </trkpt>
      <trkpt lat="46.11236" lon="4.58645">
        <ele>388.4</ele>
        <time>2020-10-19T11:58:47Z</time>
      </trkpt>
      <trkpt lat="46.11236" lon="4.58645">
        <ele>388.6</ele>
        <time>2020-10-19T11:58:48Z</time>
      </trkpt>
      <trkpt lat="46.11236" lon="4.58641">
        <ele>389</ele>
        <time>2020-10-19T11:58:49Z</time>
      </trkpt>
      <trkpt lat="46.11236" lon="4.58641">
        <ele>389.4</ele>
        <time>2020-10-19T11:58:50Z</time>
      </trkpt>
      <trkpt lat="46.11236" lon="4.58637">
        <ele>389.8</ele>
        <time>2020-10-19T11:58:51Z</time>
      </trkpt>
      <trkpt lat="46.11236" lon="4.58637">
        <ele>390.2</ele>
        <time>2020-10-19T11:58:52Z</time>
      </trkpt>
      <trkpt lat="46.11235" lon="4.58633">
        <ele>390.6</ele>
        <time>2020-10-19T11:58:53Z</time>
      </trkpt>
      <trkpt lat="46.11235" lon="4.58633">
        <ele>390.8</ele>
        <time>2020-10-19T11:58:54Z</time>
      </trkpt>
      <trkpt lat="46.11235" lon="4.58629">
        <ele>390.8</ele>
        <time>2020-10-19T11:58:55Z</time>
      </trkpt>
      <trkpt lat="46.11235" lon="4.58629">
        <ele>390.8</ele>
        <time>2020-10-19T11:58:56Z</time>
      </trkpt>
      <trkpt lat="46.11235" lon="4.58624">
        <ele>390.8</ele>
        <time>2020-10-19T11:58:57Z</time>
      </trkpt>
      <trkpt lat="46.11235" lon="4.58624">
        <ele>390.8</ele>
        <time>2020-10-19T11:58:58Z</time>
      </trkpt>
      <trkpt lat="46.11235" lon="4.5862">
        <ele>390.8</ele>
        <time>2020-10-19T11:58:59Z</time>
      </trkpt>
      <trkpt lat="46.11235" lon="4.5862">
        <ele>390.8</ele>
        <time>2020-10-19T11:59:00Z</time>
      </trkpt>
      <trkpt lat="46.11234" lon="4.58616">
        <ele>391</ele>
        <time>2020-10-19T11:59:01Z</time>
      </trkpt>
      <trkpt lat="46.11234" lon="4.58616">
        <ele>391.2</ele>
        <time>2020-10-19T11:59:02Z</time>
      </trkpt>
      <trkpt lat="46.11234" lon="4.58613">
        <ele>391.2</ele>
        <time>2020-10-19T11:59:03Z</time>
      </trkpt>
      <trkpt lat="46.11234" lon="4.58613">
        <ele>391.4</ele>
        <time>2020-10-19T11:59:04Z</time>
      </trkpt>
      <trkpt lat="46.11234" lon="4.58608">
        <ele>391.6</ele>
        <time>2020-10-19T11:59:05Z</time>
      </trkpt>
      <trkpt lat="46.11234" lon="4.58608">
        <ele>391.8</ele>
        <time>2020-10-19T11:59:06Z</time>
      </trkpt>
      <trkpt lat="46.11234" lon="4.58604">
        <ele>392</ele>
        <time>2020-10-19T11:59:07Z</time>
      </trkpt>
      <trkpt lat="46.11234" lon="4.58604">
        <ele>392</ele>
        <time>2020-10-19T11:59:08Z</time>
      </trkpt>
      <trkpt lat="46.11234" lon="4.586">
        <ele>392.2</ele>
        <time>2020-10-19T11:59:09Z</time>
      </trkpt>
      <trkpt lat="46.11234" lon="4.586">
        <ele>392.4</ele>
        <time>2020-10-19T11:59:10Z</time>
      </trkpt>
      <trkpt lat="46.11233" lon="4.58597">
        <ele>392.4</ele>
        <time>2020-10-19T11:59:11Z</time>
      </trkpt>
      <trkpt lat="46.11233" lon="4.58597">
        <ele>392.6</ele>
        <time>2020-10-19T11:59:12Z</time>
      </trkpt>
      <trkpt lat="46.11233" lon="4.58593">
        <ele>392.8</ele>
        <time>2020-10-19T11:59:13Z</time>
      </trkpt>
      <trkpt lat="46.11233" lon="4.58593">
        <ele>392.8</ele>
        <time>2020-10-19T11:59:14Z</time>
      </trkpt>
      <trkpt lat="46.11233" lon="4.58589">
        <ele>393</ele>
        <time>2020-10-19T11:59:15Z</time>
      </trkpt>
      <trkpt lat="46.11233" lon="4.58589">
        <ele>393.2</ele>
        <time>2020-10-19T11:59:16Z</time>
      </trkpt>
      <trkpt lat="46.11232" lon="4.58585">
        <ele>393.4</ele>
        <time>2020-10-19T11:59:17Z</time>
      </trkpt>
      <trkpt lat="46.11232" lon="4.58585">
        <ele>393.6</ele>
        <time>2020-10-19T11:59:18Z</time>
      </trkpt>
      <trkpt lat="46.11232" lon="4.58581">
        <ele>393.6</ele>
        <time>2020-10-19T11:59:19Z</time>
      </trkpt>
      <trkpt lat="46.11232" lon="4.58581">
        <ele>393.6</ele>
        <time>2020-10-19T11:59:20Z</time>
      </trkpt>
      <trkpt lat="46.11232" lon="4.58577">
        <ele>393.8</ele>
        <time>2020-10-19T11:59:21Z</time>
      </trkpt>
      <trkpt lat="46.11232" lon="4.58577">
        <ele>394</ele>
        <time>2020-10-19T11:59:22Z</time>
      </trkpt>
      <trkpt lat="46.11232" lon="4.58573">
        <ele>394.4</ele>
        <time>2020-10-19T11:59:23Z</time>
      </trkpt>
      <trkpt lat="46.11232" lon="4.58573">
        <ele>394.6</ele>
        <time>2020-10-19T11:59:24Z</time>
      </trkpt>
      <trkpt lat="46.11231" lon="4.58569">
        <ele>394.6</ele>
        <time>2020-10-19T11:59:25Z</time>
      </trkpt>
      <trkpt lat="46.11231" lon="4.58569">
        <ele>394.8</ele>
        <time>2020-10-19T11:59:26Z</time>
      </trkpt>
      <trkpt lat="46.11231" lon="4.58565">
        <ele>394.8</ele>
        <time>2020-10-19T11:59:27Z</time>
      </trkpt>
      <trkpt lat="46.11231" lon="4.58565">
        <ele>395.2</ele>
        <time>2020-10-19T11:59:28Z</time>
      </trkpt>
      <trkpt lat="46.11231" lon="4.58565">
        <ele>395.6</ele>
        <time>2020-10-19T11:59:29Z</time>
      </trkpt>
      <trkpt lat="46.11231" lon="4.58565">
        <ele>396</ele>
        <time>2020-10-19T11:59:30Z</time>
      </trkpt>
      <trkpt lat="46.11231" lon="4.58565">
        <ele>396.2</ele>
        <time>2020-10-19T11:59:31Z</time>
      </trkpt>
      <trkpt lat="46.11231" lon="4.58565">
        <ele>396.2</ele>
        <time>2020-10-19T11:59:32Z</time>
      </trkpt>
      <trkpt lat="46.11231" lon="4.58565">
        <ele>396.4</ele>
        <time>2020-10-19T11:59:33Z</time>
      </trkpt>
      <trkpt lat="46.11231" lon="4.58565">
        <ele>396.8</ele>
        <time>2020-10-19T11:59:34Z</time>
      </trkpt>
      <trkpt lat="46.11231" lon="4.58565">
        <ele>396.8</ele>
        <time>2020-10-19T11:59:35Z</time>
      </trkpt>
      <trkpt lat="46.11231" lon="4.58565">
        <ele>397</ele>
        <time>2020-10-19T11:59:36Z</time>
      </trkpt>
      <trkpt lat="46.11231" lon="4.58565">
        <ele>396.8</ele>
        <time>2020-10-19T11:59:37Z</time>
      </trkpt>
      <trkpt lat="46.1123" lon="4.58562">
        <ele>396.8</ele>
        <time>2020-10-19T11:59:38Z</time>
      </trkpt>
      <trkpt lat="46.1123" lon="4.58562">
        <ele>396.4</ele>
        <time>2020-10-19T11:59:39Z</time>
      </trkpt>
      <trkpt lat="46.1123" lon="4.58557">
        <ele>396.4</ele>
        <time>2020-10-19T11:59:40Z</time>
      </trkpt>
      <trkpt lat="46.1123" lon="4.58557">
        <ele>396.2</ele>
        <time>2020-10-19T11:59:41Z</time>
      </trkpt>
      <trkpt lat="46.1123" lon="4.58553">
        <ele>396.2</ele>
        <time>2020-10-19T11:59:42Z</time>
      </trkpt>
      <trkpt lat="46.1123" lon="4.58553">
        <ele>396.2</ele>
        <time>2020-10-19T11:59:43Z</time>
      </trkpt>
      <trkpt lat="46.1123" lon="4.58549">
        <ele>396</ele>
        <time>2020-10-19T11:59:44Z</time>
      </trkpt>
      <trkpt lat="46.1123" lon="4.58549">
        <ele>396.2</ele>
        <time>2020-10-19T11:59:45Z</time>
      </trkpt>
      <trkpt lat="46.1123" lon="4.58546">
        <ele>396.2</ele>
        <time>2020-10-19T11:59:46Z</time>
      </trkpt>
      <trkpt lat="46.1123" lon="4.58546">
        <ele>396.6</ele>
        <time>2020-10-19T11:59:47Z</time>
      </trkpt>
      <trkpt lat="46.1123" lon="4.58542">
        <ele>396.4</ele>
        <time>2020-10-19T11:59:48Z</time>
      </trkpt>
      <trkpt lat="46.1123" lon="4.58542">
        <ele>396.6</ele>
        <time>2020-10-19T11:59:49Z</time>
      </trkpt>
      <trkpt lat="46.1123" lon="4.58538">
        <ele>396.6</ele>
        <time>2020-10-19T11:59:50Z</time>
      </trkpt>
      <trkpt lat="46.1123" lon="4.58538">
        <ele>396.6</ele>
        <time>2020-10-19T11:59:51Z</time>
      </trkpt>
      <trkpt lat="46.1123" lon="4.58534">
        <ele>396.6</ele>
        <time>2020-10-19T11:59:52Z</time>
      </trkpt>
      <trkpt lat="46.1123" lon="4.58534">
        <ele>396.8</ele>
        <time>2020-10-19T11:59:53Z</time>
      </trkpt>
      <trkpt lat="46.1123" lon="4.58531">
        <ele>396.8</ele>
        <time>2020-10-19T11:59:54Z</time>
      </trkpt>
      <trkpt lat="46.1123" lon="4.58531">
        <ele>396.8</ele>
        <time>2020-10-19T11:59:55Z</time>
      </trkpt>
      <trkpt lat="46.1123" lon="4.58527">
        <ele>397</ele>
        <time>2020-10-19T11:59:56Z</time>
      </trkpt>
      <trkpt lat="46.1123" lon="4.58527">
        <ele>397.4</ele>
        <time>2020-10-19T11:59:57Z</time>
      </trkpt>
      <trkpt lat="46.11229" lon="4.58522">
        <ele>397.4</ele>
        <time>2020-10-19T11:59:58Z</time>
      </trkpt>
      <trkpt lat="46.11229" lon="4.58522">
        <ele>397.4</ele>
        <time>2020-10-19T11:59:59Z</time>
      </trkpt>
      <trkpt lat="46.1123" lon="4.58518">
        <ele>397.4</ele>
        <time>2020-10-19T12:00:00Z</time>
      </trkpt>
      <trkpt lat="46.1123" lon="4.58518">
        <ele>398</ele>
        <time>2020-10-19T12:00:01Z</time>
      </trkpt>
      <trkpt lat="46.11229" lon="4.58514">
        <ele>398.4</ele>
        <time>2020-10-19T12:00:02Z</time>
      </trkpt>
      <trkpt lat="46.11229" lon="4.58514">
        <ele>398.6</ele>
        <time>2020-10-19T12:00:03Z</time>
      </trkpt>
      <trkpt lat="46.11229" lon="4.5851">
        <ele>398.8</ele>
        <time>2020-10-19T12:00:04Z</time>
      </trkpt>
      <trkpt lat="46.11229" lon="4.5851">
        <ele>399</ele>
        <time>2020-10-19T12:00:05Z</time>
      </trkpt>
      <trkpt lat="46.1123" lon="4.58506">
        <ele>399.2</ele>
        <time>2020-10-19T12:00:06Z</time>
      </trkpt>
      <trkpt lat="46.1123" lon="4.58506">
        <ele>399.4</ele>
        <time>2020-10-19T12:00:07Z</time>
      </trkpt>
      <trkpt lat="46.1123" lon="4.58502">
        <ele>399.4</ele>
        <time>2020-10-19T12:00:08Z</time>
      </trkpt>
      <trkpt lat="46.1123" lon="4.58502">
        <ele>399.4</ele>
        <time>2020-10-19T12:00:09Z</time>
      </trkpt>
      <trkpt lat="46.11229" lon="4.58497">
        <ele>399.2</ele>
        <time>2020-10-19T12:00:10Z</time>
      </trkpt>
      <trkpt lat="46.11229" lon="4.58497">
        <ele>399.2</ele>
        <time>2020-10-19T12:00:11Z</time>
      </trkpt>
      <trkpt lat="46.11229" lon="4.58493">
        <ele>399.2</ele>
        <time>2020-10-19T12:00:12Z</time>
      </trkpt>
      <trkpt lat="46.11229" lon="4.58493">
        <ele>399.4</ele>
        <time>2020-10-19T12:00:13Z</time>
      </trkpt>
      <trkpt lat="46.11229" lon="4.58489">
        <ele>399.4</ele>
        <time>2020-10-19T12:00:14Z</time>
      </trkpt>
      <trkpt lat="46.11229" lon="4.58489">
        <ele>399.4</ele>
        <time>2020-10-19T12:00:15Z</time>
      </trkpt>
      <trkpt lat="46.11229" lon="4.58485">
        <ele>399.4</ele>
        <time>2020-10-19T12:00:16Z</time>
      </trkpt>
      <trkpt lat="46.11229" lon="4.58485">
        <ele>399.4</ele>
        <time>2020-10-19T12:00:17Z</time>
      </trkpt>
      <trkpt lat="46.11228" lon="4.58481">
        <ele>399.6</ele>
        <time>2020-10-19T12:00:18Z</time>
      </trkpt>
      <trkpt lat="46.11228" lon="4.58481">
        <ele>399.6</ele>
        <time>2020-10-19T12:00:19Z</time>
      </trkpt>
      <trkpt lat="46.11228" lon="4.58476">
        <ele>399.8</ele>
        <time>2020-10-19T12:00:20Z</time>
      </trkpt>
      <trkpt lat="46.11228" lon="4.58476">
        <ele>399.8</ele>
        <time>2020-10-19T12:00:21Z</time>
      </trkpt>
      <trkpt lat="46.11228" lon="4.58472">
        <ele>399.8</ele>
        <time>2020-10-19T12:00:22Z</time>
      </trkpt>
      <trkpt lat="46.11228" lon="4.58472">
        <ele>399.8</ele>
        <time>2020-10-19T12:00:23Z</time>
      </trkpt>
      <trkpt lat="46.11228" lon="4.58468">
        <ele>399.8</ele>
        <time>2020-10-19T12:00:24Z</time>
      </trkpt>
      <trkpt lat="46.11228" lon="4.58468">
        <ele>399.8</ele>
        <time>2020-10-19T12:00:25Z</time>
      </trkpt>
      <trkpt lat="46.11228" lon="4.58464">
        <ele>400</ele>
        <time>2020-10-19T12:00:26Z</time>
      </trkpt>
      <trkpt lat="46.11228" lon="4.58464">
        <ele>400</ele>
        <time>2020-10-19T12:00:27Z</time>
      </trkpt>
      <trkpt lat="46.11228" lon="4.58461">
        <ele>400.2</ele>
        <time>2020-10-19T12:00:28Z</time>
      </trkpt>
      <trkpt lat="46.11228" lon="4.58461">
        <ele>400.2</ele>
        <time>2020-10-19T12:00:29Z</time>
      </trkpt>
      <trkpt lat="46.11228" lon="4.58457">
        <ele>400.4</ele>
        <time>2020-10-19T12:00:30Z</time>
      </trkpt>
      <trkpt lat="46.11228" lon="4.58457">
        <ele>400.4</ele>
        <time>2020-10-19T12:00:31Z</time>
      </trkpt>
      <trkpt lat="46.11228" lon="4.58453">
        <ele>400.2</ele>
        <time>2020-10-19T12:00:32Z</time>
      </trkpt>
      <trkpt lat="46.11228" lon="4.58453">
        <ele>400.4</ele>
        <time>2020-10-19T12:00:33Z</time>
      </trkpt>
      <trkpt lat="46.11229" lon="4.58451">
        <ele>400.4</ele>
        <time>2020-10-19T12:00:34Z</time>
      </trkpt>
      <trkpt lat="46.11229" lon="4.58451">
        <ele>400.6</ele>
        <time>2020-10-19T12:00:35Z</time>
      </trkpt>
      <trkpt lat="46.11231" lon="4.58451">
        <ele>400.6</ele>
        <time>2020-10-19T12:00:36Z</time>
      </trkpt>
      <trkpt lat="46.11231" lon="4.58451">
        <ele>400.4</ele>
        <time>2020-10-19T12:00:37Z</time>
      </trkpt>
      <trkpt lat="46.11233" lon="4.58451">
        <ele>400.6</ele>
        <time>2020-10-19T12:00:38Z</time>
      </trkpt>
      <trkpt lat="46.11233" lon="4.58451">
        <ele>400.8</ele>
        <time>2020-10-19T12:00:39Z</time>
      </trkpt>
      <trkpt lat="46.11233" lon="4.58451">
        <ele>400.8</ele>
        <time>2020-10-19T12:00:40Z</time>
      </trkpt>
      <trkpt lat="46.11233" lon="4.58451">
        <ele>400.8</ele>
        <time>2020-10-19T12:00:41Z</time>
      </trkpt>
      <trkpt lat="46.11233" lon="4.58451">
        <ele>400.8</ele>
        <time>2020-10-19T12:00:42Z</time>
      </trkpt>
      <trkpt lat="46.11233" lon="4.58451">
        <ele>401.2</ele>
        <time>2020-10-19T12:00:43Z</time>
      </trkpt>
      <trkpt lat="46.11233" lon="4.58451">
        <ele>401.6</ele>
        <time>2020-10-19T12:00:44Z</time>
      </trkpt>
      <trkpt lat="46.11233" lon="4.58451">
        <ele>401.6</ele>
        <time>2020-10-19T12:00:45Z</time>
      </trkpt>
      <trkpt lat="46.11233" lon="4.58451">
        <ele>401.8</ele>
        <time>2020-10-19T12:00:46Z</time>
      </trkpt>
      <trkpt lat="46.11233" lon="4.58451">
        <ele>401.8</ele>
        <time>2020-10-19T12:00:47Z</time>
      </trkpt>
      <trkpt lat="46.11233" lon="4.58451">
        <ele>401.6</ele>
        <time>2020-10-19T12:00:48Z</time>
      </trkpt>
      <trkpt lat="46.11234" lon="4.58454">
        <ele>401.6</ele>
        <time>2020-10-19T12:00:49Z</time>
      </trkpt>
      <trkpt lat="46.11234" lon="4.58454">
        <ele>401.2</ele>
        <time>2020-10-19T12:00:50Z</time>
      </trkpt>
      <trkpt lat="46.11234" lon="4.58454">
        <ele>401.2</ele>
        <time>2020-10-19T12:00:51Z</time>
      </trkpt>
      <trkpt lat="46.11234" lon="4.58454">
        <ele>401.2</ele>
        <time>2020-10-19T12:00:52Z</time>
      </trkpt>
      <trkpt lat="46.11234" lon="4.58454">
        <ele>401.2</ele>
        <time>2020-10-19T12:00:53Z</time>
      </trkpt>
      <trkpt lat="46.11234" lon="4.58454">
        <ele>401.2</ele>
        <time>2020-10-19T12:00:54Z</time>
      </trkpt>
      <trkpt lat="46.11234" lon="4.58454">
        <ele>401.2</ele>
        <time>2020-10-19T12:00:55Z</time>
      </trkpt>
      <trkpt lat="46.11234" lon="4.58454">
        <ele>401.2</ele>
        <time>2020-10-19T12:00:56Z</time>
      </trkpt>
      <trkpt lat="46.11234" lon="4.58454">
        <ele>401</ele>
        <time>2020-10-19T12:00:57Z</time>
      </trkpt>
      <trkpt lat="46.11234" lon="4.58454">
        <ele>401.2</ele>
        <time>2020-10-19T12:00:58Z</time>
      </trkpt>
      <trkpt lat="46.11234" lon="4.58454">
        <ele>401.2</ele>
        <time>2020-10-19T12:00:59Z</time>
      </trkpt>
      <trkpt lat="46.11234" lon="4.58454">
        <ele>401.2</ele>
        <time>2020-10-19T12:01:00Z</time>
      </trkpt>
      <trkpt lat="46.11234" lon="4.58454">
        <ele>401.2</ele>
        <time>2020-10-19T12:01:01Z</time>
      </trkpt>
      <trkpt lat="46.11234" lon="4.58454">
        <ele>401.2</ele>
        <time>2020-10-19T12:01:02Z</time>
      </trkpt>
      <trkpt lat="46.11234" lon="4.58454">
        <ele>401.2</ele>
        <time>2020-10-19T12:01:03Z</time>
      </trkpt>
      <trkpt lat="46.11234" lon="4.58454">
        <ele>401.2</ele>
        <time>2020-10-19T12:01:04Z</time>
      </trkpt>
      <trkpt lat="46.11234" lon="4.58454">
        <ele>401.2</ele>
        <time>2020-10-19T12:01:05Z</time>
      </trkpt>
      <trkpt lat="46.11234" lon="4.58454">
        <ele>401.2</ele>
        <time>2020-10-19T12:01:06Z</time>
      </trkpt>
      <trkpt lat="46.11234" lon="4.58454">
        <ele>401.2</ele>
        <time>2020-10-19T12:01:07Z</time>
      </trkpt>
      <trkpt lat="46.11234" lon="4.58454">
        <ele>401.2</ele>
        <time>2020-10-19T12:01:08Z</time>
      </trkpt>
      <trkpt lat="46.11234" lon="4.58454">
        <ele>401.2</ele>
        <time>2020-10-19T12:01:09Z</time>
      </trkpt>
      <trkpt lat="46.11234" lon="4.58454">
        <ele>401</ele>
        <time>2020-10-19T12:01:10Z</time>
      </trkpt>
      <trkpt lat="46.11234" lon="4.58454">
        <ele>401.2</ele>
        <time>2020-10-19T12:01:11Z</time>
      </trkpt>
      <trkpt lat="46.11234" lon="4.58454">
        <ele>401.2</ele>
        <time>2020-10-19T12:01:12Z</time>
      </trkpt>
      <trkpt lat="46.11234" lon="4.58454">
        <ele>401.2</ele>
        <time>2020-10-19T12:01:13Z</time>
      </trkpt>
      <trkpt lat="46.11234" lon="4.58454">
        <ele>401.2</ele>
        <time>2020-10-19T12:01:14Z</time>
      </trkpt>
      <trkpt lat="46.11234" lon="4.58454">
        <ele>401.6</ele>
        <time>2020-10-19T12:01:15Z</time>
      </trkpt>
      <trkpt lat="46.11234" lon="4.58454">
        <ele>401.6</ele>
        <time>2020-10-19T12:01:16Z</time>
      </trkpt>
      <trkpt lat="46.11234" lon="4.58454">
        <ele>401.8</ele>
        <time>2020-10-19T12:01:17Z</time>
      </trkpt>
      <trkpt lat="46.11234" lon="4.58454">
        <ele>402</ele>
        <time>2020-10-19T12:01:18Z</time>
      </trkpt>
      <trkpt lat="46.11234" lon="4.58454">
        <ele>402</ele>
        <time>2020-10-19T12:01:19Z</time>
      </trkpt>
      <trkpt lat="46.11234" lon="4.58454">
        <ele>402</ele>
        <time>2020-10-19T12:01:20Z</time>
      </trkpt>
      <trkpt lat="46.11234" lon="4.58454">
        <ele>402.2</ele>
        <time>2020-10-19T12:01:21Z</time>
      </trkpt>
      <trkpt lat="46.11234" lon="4.58454">
        <ele>402.6</ele>
        <time>2020-10-19T12:01:22Z</time>
      </trkpt>
      <trkpt lat="46.11234" lon="4.58454">
        <ele>402.6</ele>
        <time>2020-10-19T12:01:23Z</time>
      </trkpt>
      <trkpt lat="46.11234" lon="4.58454">
        <ele>402.8</ele>
        <time>2020-10-19T12:01:24Z</time>
      </trkpt>
      <trkpt lat="46.11234" lon="4.58454">
        <ele>402.8</ele>
        <time>2020-10-19T12:01:25Z</time>
      </trkpt>
      <trkpt lat="46.11234" lon="4.58454">
        <ele>402.8</ele>
        <time>2020-10-19T12:01:26Z</time>
      </trkpt>
      <trkpt lat="46.11234" lon="4.58454">
        <ele>402.8</ele>
        <time>2020-10-19T12:01:27Z</time>
      </trkpt>
      <trkpt lat="46.11234" lon="4.58454">
        <ele>402.6</ele>
        <time>2020-10-19T12:01:28Z</time>
      </trkpt>
      <trkpt lat="46.11234" lon="4.58456">
        <ele>402.6</ele>
        <time>2020-10-19T12:01:29Z</time>
      </trkpt>
      <trkpt lat="46.11234" lon="4.58456">
        <ele>402.6</ele>
        <time>2020-10-19T12:01:30Z</time>
      </trkpt>
      <trkpt lat="46.11233" lon="4.58458">
        <ele>402.4</ele>
        <time>2020-10-19T12:01:31Z</time>
      </trkpt>
      <trkpt lat="46.11233" lon="4.58458">
        <ele>402.6</ele>
        <time>2020-10-19T12:01:32Z</time>
      </trkpt>
      <trkpt lat="46.11233" lon="4.58458">
        <ele>402.8</ele>
        <time>2020-10-19T12:01:33Z</time>
      </trkpt>
      <trkpt lat="46.11233" lon="4.58458">
        <ele>402.8</ele>
        <time>2020-10-19T12:01:34Z</time>
      </trkpt>
      <trkpt lat="46.11233" lon="4.58458">
        <ele>403</ele>
        <time>2020-10-19T12:01:35Z</time>
      </trkpt>
      <trkpt lat="46.11233" lon="4.58458">
        <ele>403</ele>
        <time>2020-10-19T12:01:36Z</time>
      </trkpt>
      <trkpt lat="46.11233" lon="4.58458">
        <ele>403</ele>
        <time>2020-10-19T12:01:37Z</time>
      </trkpt>
      <trkpt lat="46.11233" lon="4.58458">
        <ele>403</ele>
        <time>2020-10-19T12:01:38Z</time>
      </trkpt>
      <trkpt lat="46.11233" lon="4.58458">
        <ele>403</ele>
        <time>2020-10-19T12:01:39Z</time>
      </trkpt>
      <trkpt lat="46.11233" lon="4.58458">
        <ele>403.2</ele>
        <time>2020-10-19T12:01:40Z</time>
      </trkpt>
      <trkpt lat="46.11233" lon="4.58458">
        <ele>403</ele>
        <time>2020-10-19T12:01:41Z</time>
      </trkpt>
      <trkpt lat="46.11233" lon="4.58458">
        <ele>403</ele>
        <time>2020-10-19T12:01:42Z</time>
      </trkpt>
      <trkpt lat="46.11233" lon="4.58458">
        <ele>403.2</ele>
        <time>2020-10-19T12:01:43Z</time>
      </trkpt>
      <trkpt lat="46.11233" lon="4.58458">
        <ele>403.2</ele>
        <time>2020-10-19T12:01:44Z</time>
      </trkpt>
      <trkpt lat="46.11233" lon="4.58458">
        <ele>403.4</ele>
        <time>2020-10-19T12:01:45Z</time>
      </trkpt>
      <trkpt lat="46.11233" lon="4.58458">
        <ele>403.2</ele>
        <time>2020-10-19T12:01:46Z</time>
      </trkpt>
      <trkpt lat="46.11233" lon="4.58458">
        <ele>403</ele>
        <time>2020-10-19T12:01:47Z</time>
      </trkpt>
      <trkpt lat="46.11233" lon="4.58458">
        <ele>402.8</ele>
        <time>2020-10-19T12:01:48Z</time>
      </trkpt>
      <trkpt lat="46.11233" lon="4.58458">
        <ele>402.6</ele>
        <time>2020-10-19T12:01:49Z</time>
      </trkpt>
      <trkpt lat="46.11233" lon="4.58458">
        <ele>402.4</ele>
        <time>2020-10-19T12:01:50Z</time>
      </trkpt>
      <trkpt lat="46.11233" lon="4.58458">
        <ele>402.6</ele>
        <time>2020-10-19T12:01:51Z</time>
      </trkpt>
      <trkpt lat="46.11233" lon="4.58458">
        <ele>402.8</ele>
        <time>2020-10-19T12:01:52Z</time>
      </trkpt>
      <trkpt lat="46.11233" lon="4.58458">
        <ele>402.8</ele>
        <time>2020-10-19T12:01:53Z</time>
      </trkpt>
      <trkpt lat="46.11233" lon="4.58458">
        <ele>402.8</ele>
        <time>2020-10-19T12:01:54Z</time>
      </trkpt>
      <trkpt lat="46.11233" lon="4.58458">
        <ele>403</ele>
        <time>2020-10-19T12:01:55Z</time>
      </trkpt>
      <trkpt lat="46.11233" lon="4.58458">
        <ele>403.2</ele>
        <time>2020-10-19T12:01:56Z</time>
      </trkpt>
      <trkpt lat="46.11233" lon="4.58458">
        <ele>403.2</ele>
        <time>2020-10-19T12:01:57Z</time>
      </trkpt>
      <trkpt lat="46.11233" lon="4.58458">
        <ele>403.2</ele>
        <time>2020-10-19T12:01:58Z</time>
      </trkpt>
      <trkpt lat="46.11233" lon="4.58458">
        <ele>403.4</ele>
        <time>2020-10-19T12:01:59Z</time>
      </trkpt>
      <trkpt lat="46.11233" lon="4.58458">
        <ele>403.4</ele>
        <time>2020-10-19T12:02:00Z</time>
      </trkpt>
      <trkpt lat="46.11233" lon="4.58458">
        <ele>403.2</ele>
        <time>2020-10-19T12:02:01Z</time>
      </trkpt>
      <trkpt lat="46.11233" lon="4.58458">
        <ele>403.2</ele>
        <time>2020-10-19T12:02:02Z</time>
      </trkpt>
      <trkpt lat="46.11233" lon="4.58458">
        <ele>403.2</ele>
        <time>2020-10-19T12:02:03Z</time>
      </trkpt>
      <trkpt lat="46.11233" lon="4.58458">
        <ele>403.4</ele>
        <time>2020-10-19T12:02:04Z</time>
      </trkpt>
      <trkpt lat="46.11233" lon="4.58458">
        <ele>403.4</ele>
        <time>2020-10-19T12:02:05Z</time>
      </trkpt>
      <trkpt lat="46.11233" lon="4.58458">
        <ele>403.6</ele>
        <time>2020-10-19T12:02:06Z</time>
      </trkpt>
      <trkpt lat="46.11233" lon="4.58458">
        <ele>403.6</ele>
        <time>2020-10-19T12:02:07Z</time>
      </trkpt>
      <trkpt lat="46.11233" lon="4.58458">
        <ele>403.6</ele>
        <time>2020-10-19T12:02:08Z</time>
      </trkpt>
      <trkpt lat="46.11233" lon="4.58458">
        <ele>403.6</ele>
        <time>2020-10-19T12:02:09Z</time>
      </trkpt>
      <trkpt lat="46.11233" lon="4.58458">
        <ele>403.8</ele>
        <time>2020-10-19T12:02:10Z</time>
      </trkpt>
      <trkpt lat="46.11233" lon="4.58458">
        <ele>403.8</ele>
        <time>2020-10-19T12:02:11Z</time>
      </trkpt>
      <trkpt lat="46.11233" lon="4.58458">
        <ele>403.8</ele>
        <time>2020-10-19T12:02:12Z</time>
      </trkpt>
      <trkpt lat="46.11233" lon="4.58458">
        <ele>403.8</ele>
        <time>2020-10-19T12:02:13Z</time>
      </trkpt>
      <trkpt lat="46.11233" lon="4.58458">
        <ele>404</ele>
        <time>2020-10-19T12:02:14Z</time>
      </trkpt>
      <trkpt lat="46.11233" lon="4.58458">
        <ele>404.2</ele>
        <time>2020-10-19T12:02:15Z</time>
      </trkpt>
      <trkpt lat="46.11233" lon="4.58458">
        <ele>403.8</ele>
        <time>2020-10-19T12:02:16Z</time>
      </trkpt>
      <trkpt lat="46.11233" lon="4.58458">
        <ele>403.6</ele>
        <time>2020-10-19T12:02:17Z</time>
      </trkpt>
      <trkpt lat="46.11233" lon="4.58458">
        <ele>403.4</ele>
        <time>2020-10-19T12:02:18Z</time>
      </trkpt>
      <trkpt lat="46.11233" lon="4.58458">
        <ele>403.4</ele>
        <time>2020-10-19T12:02:19Z</time>
      </trkpt>
      <trkpt lat="46.11234" lon="4.58456">
        <ele>403.4</ele>
        <time>2020-10-19T12:02:20Z</time>
      </trkpt>
      <trkpt lat="46.11234" lon="4.58456">
        <ele>403.6</ele>
        <time>2020-10-19T12:02:21Z</time>
      </trkpt>
      <trkpt lat="46.11234" lon="4.58456">
        <ele>403.6</ele>
        <time>2020-10-19T12:02:22Z</time>
      </trkpt>
      <trkpt lat="46.11234" lon="4.58456">
        <ele>403.4</ele>
        <time>2020-10-19T12:02:23Z</time>
      </trkpt>
      <trkpt lat="46.11234" lon="4.58456">
        <ele>403.6</ele>
        <time>2020-10-19T12:02:24Z</time>
      </trkpt>
      <trkpt lat="46.11234" lon="4.58456">
        <ele>403.2</ele>
        <time>2020-10-19T12:02:25Z</time>
      </trkpt>
      <trkpt lat="46.11234" lon="4.58456">
        <ele>403.2</ele>
        <time>2020-10-19T12:02:26Z</time>
      </trkpt>
      <trkpt lat="46.11234" lon="4.58456">
        <ele>403.2</ele>
        <time>2020-10-19T12:02:27Z</time>
      </trkpt>
      <trkpt lat="46.11234" lon="4.58456">
        <ele>403.2</ele>
        <time>2020-10-19T12:02:28Z</time>
      </trkpt>
      <trkpt lat="46.11234" lon="4.58456">
        <ele>403.4</ele>
        <time>2020-10-19T12:02:29Z</time>
      </trkpt>
      <trkpt lat="46.11234" lon="4.58456">
        <ele>403.4</ele>
        <time>2020-10-19T12:02:30Z</time>
      </trkpt>
      <trkpt lat="46.11234" lon="4.58456">
        <ele>403.4</ele>
        <time>2020-10-19T12:02:31Z</time>
      </trkpt>
      <trkpt lat="46.11234" lon="4.58456">
        <ele>403.6</ele>
        <time>2020-10-19T12:02:32Z</time>
      </trkpt>
      <trkpt lat="46.11234" lon="4.58456">
        <ele>403.8</ele>
        <time>2020-10-19T12:02:33Z</time>
      </trkpt>
      <trkpt lat="46.11234" lon="4.58456">
        <ele>403.8</ele>
        <time>2020-10-19T12:02:34Z</time>
      </trkpt>
      <trkpt lat="46.11234" lon="4.58456">
        <ele>404</ele>
        <time>2020-10-19T12:02:35Z</time>
      </trkpt>
      <trkpt lat="46.11234" lon="4.58456">
        <ele>404</ele>
        <time>2020-10-19T12:02:36Z</time>
      </trkpt>
      <trkpt lat="46.11234" lon="4.58456">
        <ele>404</ele>
        <time>2020-10-19T12:02:37Z</time>
      </trkpt>
      <trkpt lat="46.11234" lon="4.58456">
        <ele>404.2</ele>
        <time>2020-10-19T12:02:38Z</time>
      </trkpt>
      <trkpt lat="46.11234" lon="4.58456">
        <ele>404</ele>
        <time>2020-10-19T12:02:39Z</time>
      </trkpt>
      <trkpt lat="46.11237" lon="4.58454">
        <ele>403.8</ele>
        <time>2020-10-19T12:02:40Z</time>
      </trkpt>
      <trkpt lat="46.11237" lon="4.58454">
        <ele>403.6</ele>
        <time>2020-10-19T12:02:41Z</time>
      </trkpt>
      <trkpt lat="46.11237" lon="4.58454">
        <ele>403.2</ele>
        <time>2020-10-19T12:02:42Z</time>
      </trkpt>
      <trkpt lat="46.11237" lon="4.58454">
        <ele>403.4</ele>
        <time>2020-10-19T12:02:43Z</time>
      </trkpt>
      <trkpt lat="46.11237" lon="4.58454">
        <ele>403.4</ele>
        <time>2020-10-19T12:02:44Z</time>
      </trkpt>
      <trkpt lat="46.11237" lon="4.58454">
        <ele>403.6</ele>
        <time>2020-10-19T12:02:45Z</time>
      </trkpt>
      <trkpt lat="46.11237" lon="4.58454">
        <ele>403.8</ele>
        <time>2020-10-19T12:02:46Z</time>
      </trkpt>
      <trkpt lat="46.11237" lon="4.58454">
        <ele>403.8</ele>
        <time>2020-10-19T12:02:47Z</time>
      </trkpt>
      <trkpt lat="46.11238" lon="4.58452">
        <ele>403.6</ele>
        <time>2020-10-19T12:02:48Z</time>
      </trkpt>
      <trkpt lat="46.11238" lon="4.58452">
        <ele>403.6</ele>
        <time>2020-10-19T12:02:49Z</time>
      </trkpt>
      <trkpt lat="46.11239" lon="4.58448">
        <ele>403.4</ele>
        <time>2020-10-19T12:02:50Z</time>
      </trkpt>
      <trkpt lat="46.11239" lon="4.58448">
        <ele>403.4</ele>
        <time>2020-10-19T12:02:51Z</time>
      </trkpt>
      <trkpt lat="46.11239" lon="4.58444">
        <ele>403.4</ele>
        <time>2020-10-19T12:02:52Z</time>
      </trkpt>
      <trkpt lat="46.11239" lon="4.58444">
        <ele>403.4</ele>
        <time>2020-10-19T12:02:53Z</time>
      </trkpt>
      <trkpt lat="46.11238" lon="4.5844">
        <ele>403.4</ele>
        <time>2020-10-19T12:02:54Z</time>
      </trkpt>
      <trkpt lat="46.11238" lon="4.5844">
        <ele>403.2</ele>
        <time>2020-10-19T12:02:55Z</time>
      </trkpt>
      <trkpt lat="46.11238" lon="4.5844">
        <ele>403</ele>
        <time>2020-10-19T12:02:56Z</time>
      </trkpt>
      <trkpt lat="46.11238" lon="4.58437">
        <ele>402.8</ele>
        <time>2020-10-19T12:02:57Z</time>
      </trkpt>
      <trkpt lat="46.11238" lon="4.58437">
        <ele>402.8</ele>
        <time>2020-10-19T12:02:58Z</time>
      </trkpt>
      <trkpt lat="46.11238" lon="4.58437">
        <ele>403</ele>
        <time>2020-10-19T12:02:59Z</time>
      </trkpt>
      <trkpt lat="46.11238" lon="4.58437">
        <ele>402.8</ele>
        <time>2020-10-19T12:03:00Z</time>
      </trkpt>
      <trkpt lat="46.11238" lon="4.58437">
        <ele>402.8</ele>
        <time>2020-10-19T12:03:01Z</time>
      </trkpt>
      <trkpt lat="46.11238" lon="4.58437">
        <ele>402.8</ele>
        <time>2020-10-19T12:03:02Z</time>
      </trkpt>
      <trkpt lat="46.11238" lon="4.58437">
        <ele>402.6</ele>
        <time>2020-10-19T12:03:03Z</time>
      </trkpt>
      <trkpt lat="46.11238" lon="4.58437">
        <ele>402.8</ele>
        <time>2020-10-19T12:03:04Z</time>
      </trkpt>
      <trkpt lat="46.11238" lon="4.58437">
        <ele>402.8</ele>
        <time>2020-10-19T12:03:05Z</time>
      </trkpt>
      <trkpt lat="46.11238" lon="4.58437">
        <ele>402.8</ele>
        <time>2020-10-19T12:03:06Z</time>
      </trkpt>
      <trkpt lat="46.11238" lon="4.58437">
        <ele>402.6</ele>
        <time>2020-10-19T12:03:07Z</time>
      </trkpt>
      <trkpt lat="46.11238" lon="4.58437">
        <ele>402.8</ele>
        <time>2020-10-19T12:03:08Z</time>
      </trkpt>
      <trkpt lat="46.11238" lon="4.58437">
        <ele>402.8</ele>
        <time>2020-10-19T12:03:09Z</time>
      </trkpt>
      <trkpt lat="46.11238" lon="4.58437">
        <ele>402.6</ele>
        <time>2020-10-19T12:03:10Z</time>
      </trkpt>
      <trkpt lat="46.11238" lon="4.58437">
        <ele>402.6</ele>
        <time>2020-10-19T12:03:11Z</time>
      </trkpt>
      <trkpt lat="46.11238" lon="4.58437">
        <ele>402.6</ele>
        <time>2020-10-19T12:03:12Z</time>
      </trkpt>
      <trkpt lat="46.11238" lon="4.58437">
        <ele>402.6</ele>
        <time>2020-10-19T12:03:13Z</time>
      </trkpt>
      <trkpt lat="46.11238" lon="4.58437">
        <ele>402.6</ele>
        <time>2020-10-19T12:03:14Z</time>
      </trkpt>
      <trkpt lat="46.11239" lon="4.58441">
        <ele>402.8</ele>
        <time>2020-10-19T12:03:15Z</time>
      </trkpt>
      <trkpt lat="46.11239" lon="4.58441">
        <ele>402.6</ele>
        <time>2020-10-19T12:03:16Z</time>
      </trkpt>
      <trkpt lat="46.11239" lon="4.58444">
        <ele>402.8</ele>
        <time>2020-10-19T12:03:17Z</time>
      </trkpt>
      <trkpt lat="46.11239" lon="4.58444">
        <ele>402.8</ele>
        <time>2020-10-19T12:03:18Z</time>
      </trkpt>
      <trkpt lat="46.1124" lon="4.58448">
        <ele>403.2</ele>
        <time>2020-10-19T12:03:19Z</time>
      </trkpt>
      <trkpt lat="46.1124" lon="4.58448">
        <ele>403.4</ele>
        <time>2020-10-19T12:03:20Z</time>
      </trkpt>
      <trkpt lat="46.1124" lon="4.58451">
        <ele>403.4</ele>
        <time>2020-10-19T12:03:21Z</time>
      </trkpt>
      <trkpt lat="46.1124" lon="4.58451">
        <ele>403.2</ele>
        <time>2020-10-19T12:03:22Z</time>
      </trkpt>
      <trkpt lat="46.1124" lon="4.58451">
        <ele>403.2</ele>
        <time>2020-10-19T12:03:23Z</time>
      </trkpt>
      <trkpt lat="46.1124" lon="4.58451">
        <ele>403.4</ele>
        <time>2020-10-19T12:03:24Z</time>
      </trkpt>
      <trkpt lat="46.1124" lon="4.58451">
        <ele>403.4</ele>
        <time>2020-10-19T12:03:25Z</time>
      </trkpt>
      <trkpt lat="46.1124" lon="4.58451">
        <ele>403.4</ele>
        <time>2020-10-19T12:03:26Z</time>
      </trkpt>
      <trkpt lat="46.1124" lon="4.58451">
        <ele>403.2</ele>
        <time>2020-10-19T12:03:27Z</time>
      </trkpt>
      <trkpt lat="46.1124" lon="4.58451">
        <ele>403.4</ele>
        <time>2020-10-19T12:03:28Z</time>
      </trkpt>
      <trkpt lat="46.11238" lon="4.58448">
        <ele>403.6</ele>
        <time>2020-10-19T12:03:29Z</time>
      </trkpt>
      <trkpt lat="46.11238" lon="4.58448">
        <ele>403.6</ele>
        <time>2020-10-19T12:03:30Z</time>
      </trkpt>
      <trkpt lat="46.11239" lon="4.58443">
        <ele>403.4</ele>
        <time>2020-10-19T12:03:31Z</time>
      </trkpt>
      <trkpt lat="46.11239" lon="4.58443">
        <ele>403.4</ele>
        <time>2020-10-19T12:03:32Z</time>
      </trkpt>
      <trkpt lat="46.1124" lon="4.5844">
        <ele>403.2</ele>
        <time>2020-10-19T12:03:33Z</time>
      </trkpt>
      <trkpt lat="46.1124" lon="4.5844">
        <ele>403.2</ele>
        <time>2020-10-19T12:03:34Z</time>
      </trkpt>
      <trkpt lat="46.1124" lon="4.5844">
        <ele>403.2</ele>
        <time>2020-10-19T12:03:35Z</time>
      </trkpt>
      <trkpt lat="46.11242" lon="4.58439">
        <ele>403.4</ele>
        <time>2020-10-19T12:03:36Z</time>
      </trkpt>
      <trkpt lat="46.11242" lon="4.58439">
        <ele>403.4</ele>
        <time>2020-10-19T12:03:37Z</time>
      </trkpt>
      <trkpt lat="46.11244" lon="4.58441">
        <ele>403.6</ele>
        <time>2020-10-19T12:03:38Z</time>
      </trkpt>
      <trkpt lat="46.11244" lon="4.58441">
        <ele>403.8</ele>
        <time>2020-10-19T12:03:39Z</time>
      </trkpt>
      <trkpt lat="46.11244" lon="4.58441">
        <ele>403.8</ele>
        <time>2020-10-19T12:03:40Z</time>
      </trkpt>
      <trkpt lat="46.11244" lon="4.58441">
        <ele>403.6</ele>
        <time>2020-10-19T12:03:41Z</time>
      </trkpt>
      <trkpt lat="46.11244" lon="4.58441">
        <ele>403.6</ele>
        <time>2020-10-19T12:03:42Z</time>
      </trkpt>
      <trkpt lat="46.11244" lon="4.58441">
        <ele>403.6</ele>
        <time>2020-10-19T12:03:43Z</time>
      </trkpt>
      <trkpt lat="46.11246" lon="4.58441">
        <ele>403.6</ele>
        <time>2020-10-19T12:03:44Z</time>
      </trkpt>
      <trkpt lat="46.11246" lon="4.58441">
        <ele>403.6</ele>
        <time>2020-10-19T12:03:45Z</time>
      </trkpt>
      <trkpt lat="46.11249" lon="4.58442">
        <ele>404</ele>
        <time>2020-10-19T12:03:46Z</time>
      </trkpt>
      <trkpt lat="46.11249" lon="4.58442">
        <ele>404.4</ele>
        <time>2020-10-19T12:03:47Z</time>
      </trkpt>
      <trkpt lat="46.11252" lon="4.58443">
        <ele>404.8</ele>
        <time>2020-10-19T12:03:48Z</time>
      </trkpt>
      <trkpt lat="46.11252" lon="4.58443">
        <ele>405.2</ele>
        <time>2020-10-19T12:03:49Z</time>
      </trkpt>
      <trkpt lat="46.11254" lon="4.58444">
        <ele>405.4</ele>
        <time>2020-10-19T12:03:50Z</time>
      </trkpt>
      <trkpt lat="46.11254" lon="4.58444">
        <ele>405.8</ele>
        <time>2020-10-19T12:03:51Z</time>
      </trkpt>
      <trkpt lat="46.11257" lon="4.58446">
        <ele>406</ele>
        <time>2020-10-19T12:03:52Z</time>
      </trkpt>
      <trkpt lat="46.11257" lon="4.58446">
        <ele>406</ele>
        <time>2020-10-19T12:03:53Z</time>
      </trkpt>
      <trkpt lat="46.1126" lon="4.58447">
        <ele>406</ele>
        <time>2020-10-19T12:03:54Z</time>
      </trkpt>
      <trkpt lat="46.1126" lon="4.58447">
        <ele>405.8</ele>
        <time>2020-10-19T12:03:55Z</time>
      </trkpt>
      <trkpt lat="46.11262" lon="4.58448">
        <ele>406</ele>
        <time>2020-10-19T12:03:56Z</time>
      </trkpt>
      <trkpt lat="46.11262" lon="4.58448">
        <ele>406</ele>
        <time>2020-10-19T12:03:57Z</time>
      </trkpt>
      <trkpt lat="46.11264" lon="4.5845">
        <ele>406.2</ele>
        <time>2020-10-19T12:03:58Z</time>
      </trkpt>
      <trkpt lat="46.11264" lon="4.5845">
        <ele>406.6</ele>
        <time>2020-10-19T12:03:59Z</time>
      </trkpt>
      <trkpt lat="46.11267" lon="4.58451">
        <ele>406.6</ele>
        <time>2020-10-19T12:04:00Z</time>
      </trkpt>
      <trkpt lat="46.11267" lon="4.58451">
        <ele>406.6</ele>
        <time>2020-10-19T12:04:01Z</time>
      </trkpt>
      <trkpt lat="46.1127" lon="4.58453">
        <ele>406.6</ele>
        <time>2020-10-19T12:04:02Z</time>
      </trkpt>
      <trkpt lat="46.1127" lon="4.58453">
        <ele>406.6</ele>
        <time>2020-10-19T12:04:03Z</time>
      </trkpt>
      <trkpt lat="46.11272" lon="4.58453">
        <ele>406.8</ele>
        <time>2020-10-19T12:04:04Z</time>
      </trkpt>
      <trkpt lat="46.11272" lon="4.58453">
        <ele>407</ele>
        <time>2020-10-19T12:04:05Z</time>
      </trkpt>
      <trkpt lat="46.11275" lon="4.58454">
        <ele>407.4</ele>
        <time>2020-10-19T12:04:06Z</time>
      </trkpt>
      <trkpt lat="46.11275" lon="4.58454">
        <ele>407.8</ele>
        <time>2020-10-19T12:04:07Z</time>
      </trkpt>
      <trkpt lat="46.11278" lon="4.58455">
        <ele>408</ele>
        <time>2020-10-19T12:04:08Z</time>
      </trkpt>
      <trkpt lat="46.11278" lon="4.58455">
        <ele>408.2</ele>
        <time>2020-10-19T12:04:09Z</time>
      </trkpt>
      <trkpt lat="46.11281" lon="4.58456">
        <ele>408.4</ele>
        <time>2020-10-19T12:04:10Z</time>
      </trkpt>
      <trkpt lat="46.11281" lon="4.58456">
        <ele>408.4</ele>
        <time>2020-10-19T12:04:11Z</time>
      </trkpt>
      <trkpt lat="46.11284" lon="4.58457">
        <ele>408.4</ele>
        <time>2020-10-19T12:04:12Z</time>
      </trkpt>
      <trkpt lat="46.11284" lon="4.58457">
        <ele>408.6</ele>
        <time>2020-10-19T12:04:13Z</time>
      </trkpt>
      <trkpt lat="46.11286" lon="4.58458">
        <ele>409</ele>
        <time>2020-10-19T12:04:14Z</time>
      </trkpt>
      <trkpt lat="46.11286" lon="4.58458">
        <ele>409.2</ele>
        <time>2020-10-19T12:04:15Z</time>
      </trkpt>
      <trkpt lat="46.11289" lon="4.58459">
        <ele>409.4</ele>
        <time>2020-10-19T12:04:16Z</time>
      </trkpt>
      <trkpt lat="46.11289" lon="4.58459">
        <ele>409.8</ele>
        <time>2020-10-19T12:04:17Z</time>
      </trkpt>
      <trkpt lat="46.11291" lon="4.5846">
        <ele>409.8</ele>
        <time>2020-10-19T12:04:18Z</time>
      </trkpt>
      <trkpt lat="46.11291" lon="4.5846">
        <ele>410.2</ele>
        <time>2020-10-19T12:04:19Z</time>
      </trkpt>
      <trkpt lat="46.11294" lon="4.58461">
        <ele>410.4</ele>
        <time>2020-10-19T12:04:20Z</time>
      </trkpt>
      <trkpt lat="46.11294" lon="4.58461">
        <ele>410.6</ele>
        <time>2020-10-19T12:04:21Z</time>
      </trkpt>
      <trkpt lat="46.11296" lon="4.58462">
        <ele>410.8</ele>
        <time>2020-10-19T12:04:22Z</time>
      </trkpt>
      <trkpt lat="46.11296" lon="4.58462">
        <ele>410.6</ele>
        <time>2020-10-19T12:04:23Z</time>
      </trkpt>
      <trkpt lat="46.11299" lon="4.58462">
        <ele>410.8</ele>
        <time>2020-10-19T12:04:24Z</time>
      </trkpt>
      <trkpt lat="46.11299" lon="4.58462">
        <ele>411</ele>
        <time>2020-10-19T12:04:25Z</time>
      </trkpt>
      <trkpt lat="46.11302" lon="4.58463">
        <ele>411.2</ele>
        <time>2020-10-19T12:04:26Z</time>
      </trkpt>
      <trkpt lat="46.11302" lon="4.58463">
        <ele>411.2</ele>
        <time>2020-10-19T12:04:27Z</time>
      </trkpt>
      <trkpt lat="46.11305" lon="4.58463">
        <ele>411.4</ele>
        <time>2020-10-19T12:04:28Z</time>
      </trkpt>
      <trkpt lat="46.11305" lon="4.58463">
        <ele>411.4</ele>
        <time>2020-10-19T12:04:29Z</time>
      </trkpt>
      <trkpt lat="46.11308" lon="4.58463">
        <ele>411.6</ele>
        <time>2020-10-19T12:04:30Z</time>
      </trkpt>
      <trkpt lat="46.11308" lon="4.58463">
        <ele>411.8</ele>
        <time>2020-10-19T12:04:31Z</time>
      </trkpt>
      <trkpt lat="46.11311" lon="4.58464">
        <ele>412</ele>
        <time>2020-10-19T12:04:32Z</time>
      </trkpt>
      <trkpt lat="46.11311" lon="4.58464">
        <ele>412</ele>
        <time>2020-10-19T12:04:33Z</time>
      </trkpt>
      <trkpt lat="46.11313" lon="4.58465">
        <ele>412.2</ele>
        <time>2020-10-19T12:04:34Z</time>
      </trkpt>
      <trkpt lat="46.11313" lon="4.58465">
        <ele>412.4</ele>
        <time>2020-10-19T12:04:35Z</time>
      </trkpt>
      <trkpt lat="46.11316" lon="4.58465">
        <ele>412.6</ele>
        <time>2020-10-19T12:04:36Z</time>
      </trkpt>
      <trkpt lat="46.11316" lon="4.58465">
        <ele>412.6</ele>
        <time>2020-10-19T12:04:37Z</time>
      </trkpt>
      <trkpt lat="46.11318" lon="4.58465">
        <ele>412.4</ele>
        <time>2020-10-19T12:04:38Z</time>
      </trkpt>
      <trkpt lat="46.11318" lon="4.58465">
        <ele>412.8</ele>
        <time>2020-10-19T12:04:39Z</time>
      </trkpt>
      <trkpt lat="46.11322" lon="4.58464">
        <ele>413</ele>
        <time>2020-10-19T12:04:40Z</time>
      </trkpt>
      <trkpt lat="46.11322" lon="4.58464">
        <ele>413</ele>
        <time>2020-10-19T12:04:41Z</time>
      </trkpt>
      <trkpt lat="46.11325" lon="4.58463">
        <ele>412.6</ele>
        <time>2020-10-19T12:04:42Z</time>
      </trkpt>
      <trkpt lat="46.11325" lon="4.58463">
        <ele>412.6</ele>
        <time>2020-10-19T12:04:43Z</time>
      </trkpt>
      <trkpt lat="46.11328" lon="4.58463">
        <ele>412.6</ele>
        <time>2020-10-19T12:04:44Z</time>
      </trkpt>
      <trkpt lat="46.11328" lon="4.58463">
        <ele>412.6</ele>
        <time>2020-10-19T12:04:45Z</time>
      </trkpt>
      <trkpt lat="46.11331" lon="4.58463">
        <ele>412.6</ele>
        <time>2020-10-19T12:04:46Z</time>
      </trkpt>
      <trkpt lat="46.11331" lon="4.58463">
        <ele>412.8</ele>
        <time>2020-10-19T12:04:47Z</time>
      </trkpt>
      <trkpt lat="46.11334" lon="4.58462">
        <ele>412.8</ele>
        <time>2020-10-19T12:04:48Z</time>
      </trkpt>
      <trkpt lat="46.11334" lon="4.58462">
        <ele>413</ele>
        <time>2020-10-19T12:04:49Z</time>
      </trkpt>
      <trkpt lat="46.11337" lon="4.58462">
        <ele>413</ele>
        <time>2020-10-19T12:04:50Z</time>
      </trkpt>
      <trkpt lat="46.11337" lon="4.58462">
        <ele>413</ele>
        <time>2020-10-19T12:04:51Z</time>
      </trkpt>
      <trkpt lat="46.1134" lon="4.58463">
        <ele>413.2</ele>
        <time>2020-10-19T12:04:52Z</time>
      </trkpt>
      <trkpt lat="46.1134" lon="4.58463">
        <ele>413.2</ele>
        <time>2020-10-19T12:04:53Z</time>
      </trkpt>
      <trkpt lat="46.11343" lon="4.58463">
        <ele>413.4</ele>
        <time>2020-10-19T12:04:54Z</time>
      </trkpt>
      <trkpt lat="46.11343" lon="4.58463">
        <ele>413.4</ele>
        <time>2020-10-19T12:04:55Z</time>
      </trkpt>
      <trkpt lat="46.11346" lon="4.58463">
        <ele>413.4</ele>
        <time>2020-10-19T12:04:56Z</time>
      </trkpt>
      <trkpt lat="46.11346" lon="4.58463">
        <ele>413.4</ele>
        <time>2020-10-19T12:04:57Z</time>
      </trkpt>
      <trkpt lat="46.11349" lon="4.58463">
        <ele>413.8</ele>
        <time>2020-10-19T12:04:58Z</time>
      </trkpt>
      <trkpt lat="46.11349" lon="4.58463">
        <ele>414</ele>
        <time>2020-10-19T12:04:59Z</time>
      </trkpt>
      <trkpt lat="46.11352" lon="4.58463">
        <ele>414.2</ele>
        <time>2020-10-19T12:05:00Z</time>
      </trkpt>
      <trkpt lat="46.11352" lon="4.58463">
        <ele>414.2</ele>
        <time>2020-10-19T12:05:01Z</time>
      </trkpt>
      <trkpt lat="46.11355" lon="4.58462">
        <ele>414</ele>
        <time>2020-10-19T12:05:02Z</time>
      </trkpt>
      <trkpt lat="46.11355" lon="4.58462">
        <ele>414.2</ele>
        <time>2020-10-19T12:05:03Z</time>
      </trkpt>
      <trkpt lat="46.11358" lon="4.58462">
        <ele>414</ele>
        <time>2020-10-19T12:05:04Z</time>
      </trkpt>
      <trkpt lat="46.11358" lon="4.58462">
        <ele>414.2</ele>
        <time>2020-10-19T12:05:05Z</time>
      </trkpt>
      <trkpt lat="46.11361" lon="4.58463">
        <ele>414</ele>
        <time>2020-10-19T12:05:06Z</time>
      </trkpt>
      <trkpt lat="46.11361" lon="4.58463">
        <ele>414.2</ele>
        <time>2020-10-19T12:05:07Z</time>
      </trkpt>
      <trkpt lat="46.11363" lon="4.58463">
        <ele>414.2</ele>
        <time>2020-10-19T12:05:08Z</time>
      </trkpt>
      <trkpt lat="46.11363" lon="4.58463">
        <ele>414.4</ele>
        <time>2020-10-19T12:05:09Z</time>
      </trkpt>
      <trkpt lat="46.11366" lon="4.58462">
        <ele>415</ele>
        <time>2020-10-19T12:05:10Z</time>
      </trkpt>
      <trkpt lat="46.11366" lon="4.58462">
        <ele>415.2</ele>
        <time>2020-10-19T12:05:11Z</time>
      </trkpt>
      <trkpt lat="46.11369" lon="4.58462">
        <ele>415.2</ele>
        <time>2020-10-19T12:05:12Z</time>
      </trkpt>
      <trkpt lat="46.11369" lon="4.58462">
        <ele>415.4</ele>
        <time>2020-10-19T12:05:13Z</time>
      </trkpt>
      <trkpt lat="46.11372" lon="4.58462">
        <ele>415.4</ele>
        <time>2020-10-19T12:05:14Z</time>
      </trkpt>
      <trkpt lat="46.11372" lon="4.58462">
        <ele>415.8</ele>
        <time>2020-10-19T12:05:15Z</time>
      </trkpt>
      <trkpt lat="46.11374" lon="4.58462">
        <ele>416</ele>
        <time>2020-10-19T12:05:16Z</time>
      </trkpt>
      <trkpt lat="46.11374" lon="4.58462">
        <ele>416.4</ele>
        <time>2020-10-19T12:05:17Z</time>
      </trkpt>
      <trkpt lat="46.11377" lon="4.58461">
        <ele>416.4</ele>
        <time>2020-10-19T12:05:18Z</time>
      </trkpt>
      <trkpt lat="46.11377" lon="4.58461">
        <ele>416.4</ele>
        <time>2020-10-19T12:05:19Z</time>
      </trkpt>
      <trkpt lat="46.1138" lon="4.58461">
        <ele>416.6</ele>
        <time>2020-10-19T12:05:20Z</time>
      </trkpt>
      <trkpt lat="46.1138" lon="4.58461">
        <ele>416.4</ele>
        <time>2020-10-19T12:05:21Z</time>
      </trkpt>
      <trkpt lat="46.11383" lon="4.58461">
        <ele>416.2</ele>
        <time>2020-10-19T12:05:22Z</time>
      </trkpt>
      <trkpt lat="46.11383" lon="4.58461">
        <ele>416.4</ele>
        <time>2020-10-19T12:05:23Z</time>
      </trkpt>
      <trkpt lat="46.11386" lon="4.58461">
        <ele>416.6</ele>
        <time>2020-10-19T12:05:24Z</time>
      </trkpt>
      <trkpt lat="46.11386" lon="4.58461">
        <ele>416.4</ele>
        <time>2020-10-19T12:05:25Z</time>
      </trkpt>
      <trkpt lat="46.11388" lon="4.5846">
        <ele>416.6</ele>
        <time>2020-10-19T12:05:26Z</time>
      </trkpt>
      <trkpt lat="46.11388" lon="4.5846">
        <ele>416.4</ele>
        <time>2020-10-19T12:05:27Z</time>
      </trkpt>
      <trkpt lat="46.11391" lon="4.5846">
        <ele>416.6</ele>
        <time>2020-10-19T12:05:28Z</time>
      </trkpt>
      <trkpt lat="46.11391" lon="4.5846">
        <ele>416.8</ele>
        <time>2020-10-19T12:05:29Z</time>
      </trkpt>
      <trkpt lat="46.11393" lon="4.5846">
        <ele>417.2</ele>
        <time>2020-10-19T12:05:30Z</time>
      </trkpt>
      <trkpt lat="46.11393" lon="4.5846">
        <ele>417.6</ele>
        <time>2020-10-19T12:05:31Z</time>
      </trkpt>
      <trkpt lat="46.11396" lon="4.58459">
        <ele>417.8</ele>
        <time>2020-10-19T12:05:32Z</time>
      </trkpt>
      <trkpt lat="46.11396" lon="4.58459">
        <ele>418.2</ele>
        <time>2020-10-19T12:05:33Z</time>
      </trkpt>
      <trkpt lat="46.11399" lon="4.58459">
        <ele>418.4</ele>
        <time>2020-10-19T12:05:34Z</time>
      </trkpt>
      <trkpt lat="46.11399" lon="4.58459">
        <ele>418.6</ele>
        <time>2020-10-19T12:05:35Z</time>
      </trkpt>
      <trkpt lat="46.11402" lon="4.58458">
        <ele>418.8</ele>
        <time>2020-10-19T12:05:36Z</time>
      </trkpt>
      <trkpt lat="46.11402" lon="4.58458">
        <ele>418.8</ele>
        <time>2020-10-19T12:05:37Z</time>
      </trkpt>
      <trkpt lat="46.11404" lon="4.58458">
        <ele>419.2</ele>
        <time>2020-10-19T12:05:38Z</time>
      </trkpt>
      <trkpt lat="46.11404" lon="4.58458">
        <ele>419.2</ele>
        <time>2020-10-19T12:05:39Z</time>
      </trkpt>
      <trkpt lat="46.11407" lon="4.58457">
        <ele>419.2</ele>
        <time>2020-10-19T12:05:40Z</time>
      </trkpt>
      <trkpt lat="46.11407" lon="4.58457">
        <ele>419.6</ele>
        <time>2020-10-19T12:05:41Z</time>
      </trkpt>
      <trkpt lat="46.1141" lon="4.58457">
        <ele>419.6</ele>
        <time>2020-10-19T12:05:42Z</time>
      </trkpt>
      <trkpt lat="46.1141" lon="4.58457">
        <ele>419.6</ele>
        <time>2020-10-19T12:05:43Z</time>
      </trkpt>
      <trkpt lat="46.11412" lon="4.58456">
        <ele>419.8</ele>
        <time>2020-10-19T12:05:44Z</time>
      </trkpt>
      <trkpt lat="46.11412" lon="4.58456">
        <ele>420</ele>
        <time>2020-10-19T12:05:45Z</time>
      </trkpt>
      <trkpt lat="46.11415" lon="4.58455">
        <ele>420.2</ele>
        <time>2020-10-19T12:05:46Z</time>
      </trkpt>
      <trkpt lat="46.11415" lon="4.58455">
        <ele>420.4</ele>
        <time>2020-10-19T12:05:47Z</time>
      </trkpt>
      <trkpt lat="46.11418" lon="4.58455">
        <ele>420.6</ele>
        <time>2020-10-19T12:05:48Z</time>
      </trkpt>
      <trkpt lat="46.11418" lon="4.58455">
        <ele>421</ele>
        <time>2020-10-19T12:05:49Z</time>
      </trkpt>
      <trkpt lat="46.11421" lon="4.58454">
        <ele>421.4</ele>
        <time>2020-10-19T12:05:50Z</time>
      </trkpt>
      <trkpt lat="46.11421" lon="4.58454">
        <ele>421.6</ele>
        <time>2020-10-19T12:05:51Z</time>
      </trkpt>
      <trkpt lat="46.11423" lon="4.58453">
        <ele>421.8</ele>
        <time>2020-10-19T12:05:52Z</time>
      </trkpt>
      <trkpt lat="46.11423" lon="4.58453">
        <ele>421.8</ele>
        <time>2020-10-19T12:05:53Z</time>
      </trkpt>
      <trkpt lat="46.11426" lon="4.58452">
        <ele>422</ele>
        <time>2020-10-19T12:05:54Z</time>
      </trkpt>
      <trkpt lat="46.11426" lon="4.58452">
        <ele>422</ele>
        <time>2020-10-19T12:05:55Z</time>
      </trkpt>
      <trkpt lat="46.11429" lon="4.58451">
        <ele>422</ele>
        <time>2020-10-19T12:05:56Z</time>
      </trkpt>
      <trkpt lat="46.11429" lon="4.58451">
        <ele>421.8</ele>
        <time>2020-10-19T12:05:57Z</time>
      </trkpt>
      <trkpt lat="46.11432" lon="4.5845">
        <ele>421.8</ele>
        <time>2020-10-19T12:05:58Z</time>
      </trkpt>
      <trkpt lat="46.11432" lon="4.5845">
        <ele>421.8</ele>
        <time>2020-10-19T12:05:59Z</time>
      </trkpt>
      <trkpt lat="46.11435" lon="4.58448">
        <ele>421.6</ele>
        <time>2020-10-19T12:06:00Z</time>
      </trkpt>
      <trkpt lat="46.11435" lon="4.58448">
        <ele>421.4</ele>
        <time>2020-10-19T12:06:01Z</time>
      </trkpt>
      <trkpt lat="46.11437" lon="4.58446">
        <ele>421.8</ele>
        <time>2020-10-19T12:06:02Z</time>
      </trkpt>
      <trkpt lat="46.11437" lon="4.58446">
        <ele>421.8</ele>
        <time>2020-10-19T12:06:03Z</time>
      </trkpt>
      <trkpt lat="46.1144" lon="4.58445">
        <ele>422</ele>
        <time>2020-10-19T12:06:04Z</time>
      </trkpt>
      <trkpt lat="46.1144" lon="4.58445">
        <ele>422</ele>
        <time>2020-10-19T12:06:05Z</time>
      </trkpt>
      <trkpt lat="46.11442" lon="4.58443">
        <ele>422.2</ele>
        <time>2020-10-19T12:06:06Z</time>
      </trkpt>
      <trkpt lat="46.11442" lon="4.58443">
        <ele>422.2</ele>
        <time>2020-10-19T12:06:07Z</time>
      </trkpt>
      <trkpt lat="46.11445" lon="4.58442">
        <ele>422.4</ele>
        <time>2020-10-19T12:06:08Z</time>
      </trkpt>
      <trkpt lat="46.11445" lon="4.58442">
        <ele>422.4</ele>
        <time>2020-10-19T12:06:09Z</time>
      </trkpt>
      <trkpt lat="46.11447" lon="4.58441">
        <ele>422.6</ele>
        <time>2020-10-19T12:06:10Z</time>
      </trkpt>
      <trkpt lat="46.11447" lon="4.58441">
        <ele>422.6</ele>
        <time>2020-10-19T12:06:11Z</time>
      </trkpt>
      <trkpt lat="46.11449" lon="4.5844">
        <ele>422.8</ele>
        <time>2020-10-19T12:06:12Z</time>
      </trkpt>
      <trkpt lat="46.11449" lon="4.5844">
        <ele>423</ele>
        <time>2020-10-19T12:06:13Z</time>
      </trkpt>
      <trkpt lat="46.11452" lon="4.58438">
        <ele>423.2</ele>
        <time>2020-10-19T12:06:14Z</time>
      </trkpt>
      <trkpt lat="46.11452" lon="4.58438">
        <ele>423.4</ele>
        <time>2020-10-19T12:06:15Z</time>
      </trkpt>
      <trkpt lat="46.11454" lon="4.58436">
        <ele>423.6</ele>
        <time>2020-10-19T12:06:16Z</time>
      </trkpt>
      <trkpt lat="46.11454" lon="4.58436">
        <ele>423.6</ele>
        <time>2020-10-19T12:06:17Z</time>
      </trkpt>
      <trkpt lat="46.11456" lon="4.58435">
        <ele>423.8</ele>
        <time>2020-10-19T12:06:18Z</time>
      </trkpt>
      <trkpt lat="46.11456" lon="4.58435">
        <ele>424</ele>
        <time>2020-10-19T12:06:19Z</time>
      </trkpt>
      <trkpt lat="46.11459" lon="4.58432">
        <ele>424.2</ele>
        <time>2020-10-19T12:06:20Z</time>
      </trkpt>
      <trkpt lat="46.11459" lon="4.58432">
        <ele>424.2</ele>
        <time>2020-10-19T12:06:21Z</time>
      </trkpt>
      <trkpt lat="46.11461" lon="4.5843">
        <ele>424.6</ele>
        <time>2020-10-19T12:06:22Z</time>
      </trkpt>
      <trkpt lat="46.11461" lon="4.5843">
        <ele>425</ele>
        <time>2020-10-19T12:06:23Z</time>
      </trkpt>
      <trkpt lat="46.11463" lon="4.58427">
        <ele>425.2</ele>
        <time>2020-10-19T12:06:24Z</time>
      </trkpt>
      <trkpt lat="46.11463" lon="4.58427">
        <ele>425.6</ele>
        <time>2020-10-19T12:06:25Z</time>
      </trkpt>
      <trkpt lat="46.11465" lon="4.58425">
        <ele>426</ele>
        <time>2020-10-19T12:06:26Z</time>
      </trkpt>
      <trkpt lat="46.11465" lon="4.58425">
        <ele>426.4</ele>
        <time>2020-10-19T12:06:27Z</time>
      </trkpt>
      <trkpt lat="46.11467" lon="4.58423">
        <ele>426.4</ele>
        <time>2020-10-19T12:06:28Z</time>
      </trkpt>
      <trkpt lat="46.11467" lon="4.58423">
        <ele>426.6</ele>
        <time>2020-10-19T12:06:29Z</time>
      </trkpt>
      <trkpt lat="46.11469" lon="4.5842">
        <ele>426.6</ele>
        <time>2020-10-19T12:06:30Z</time>
      </trkpt>
      <trkpt lat="46.11469" lon="4.5842">
        <ele>426.8</ele>
        <time>2020-10-19T12:06:31Z</time>
      </trkpt>
      <trkpt lat="46.11471" lon="4.58418">
        <ele>427</ele>
        <time>2020-10-19T12:06:32Z</time>
      </trkpt>
      <trkpt lat="46.11471" lon="4.58418">
        <ele>427.4</ele>
        <time>2020-10-19T12:06:33Z</time>
      </trkpt>
      <trkpt lat="46.11473" lon="4.58415">
        <ele>427.6</ele>
        <time>2020-10-19T12:06:34Z</time>
      </trkpt>
      <trkpt lat="46.11473" lon="4.58415">
        <ele>427.8</ele>
        <time>2020-10-19T12:06:35Z</time>
      </trkpt>
      <trkpt lat="46.11475" lon="4.58413">
        <ele>428</ele>
        <time>2020-10-19T12:06:36Z</time>
      </trkpt>
      <trkpt lat="46.11475" lon="4.58413">
        <ele>428.2</ele>
        <time>2020-10-19T12:06:37Z</time>
      </trkpt>
      <trkpt lat="46.11477" lon="4.5841">
        <ele>428.4</ele>
        <time>2020-10-19T12:06:38Z</time>
      </trkpt>
      <trkpt lat="46.11477" lon="4.5841">
        <ele>428.2</ele>
        <time>2020-10-19T12:06:39Z</time>
      </trkpt>
      <trkpt lat="46.11479" lon="4.58407">
        <ele>428</ele>
        <time>2020-10-19T12:06:40Z</time>
      </trkpt>
      <trkpt lat="46.11479" lon="4.58407">
        <ele>428</ele>
        <time>2020-10-19T12:06:41Z</time>
      </trkpt>
      <trkpt lat="46.11481" lon="4.58404">
        <ele>428</ele>
        <time>2020-10-19T12:06:42Z</time>
      </trkpt>
      <trkpt lat="46.11481" lon="4.58404">
        <ele>428.4</ele>
        <time>2020-10-19T12:06:43Z</time>
      </trkpt>
      <trkpt lat="46.11483" lon="4.58402">
        <ele>428.4</ele>
        <time>2020-10-19T12:06:44Z</time>
      </trkpt>
      <trkpt lat="46.11483" lon="4.58402">
        <ele>428.6</ele>
        <time>2020-10-19T12:06:45Z</time>
      </trkpt>
      <trkpt lat="46.11485" lon="4.58401">
        <ele>428.8</ele>
        <time>2020-10-19T12:06:46Z</time>
      </trkpt>
      <trkpt lat="46.11485" lon="4.58401">
        <ele>428.8</ele>
        <time>2020-10-19T12:06:47Z</time>
      </trkpt>
      <trkpt lat="46.11487" lon="4.58402">
        <ele>429</ele>
        <time>2020-10-19T12:06:48Z</time>
      </trkpt>
      <trkpt lat="46.11487" lon="4.58402">
        <ele>429</ele>
        <time>2020-10-19T12:06:49Z</time>
      </trkpt>
      <trkpt lat="46.11489" lon="4.58405">
        <ele>429.4</ele>
        <time>2020-10-19T12:06:50Z</time>
      </trkpt>
      <trkpt lat="46.11489" lon="4.58405">
        <ele>429.4</ele>
        <time>2020-10-19T12:06:51Z</time>
      </trkpt>
      <trkpt lat="46.11489" lon="4.58408">
        <ele>429.6</ele>
        <time>2020-10-19T12:06:52Z</time>
      </trkpt>
      <trkpt lat="46.11489" lon="4.58408">
        <ele>429.8</ele>
        <time>2020-10-19T12:06:53Z</time>
      </trkpt>
      <trkpt lat="46.1149" lon="4.58412">
        <ele>429.8</ele>
        <time>2020-10-19T12:06:54Z</time>
      </trkpt>
      <trkpt lat="46.1149" lon="4.58412">
        <ele>430</ele>
        <time>2020-10-19T12:06:55Z</time>
      </trkpt>
      <trkpt lat="46.1149" lon="4.58415">
        <ele>430.2</ele>
        <time>2020-10-19T12:06:56Z</time>
      </trkpt>
      <trkpt lat="46.1149" lon="4.58415">
        <ele>430.2</ele>
        <time>2020-10-19T12:06:57Z</time>
      </trkpt>
      <trkpt lat="46.1149" lon="4.58419">
        <ele>430.2</ele>
        <time>2020-10-19T12:06:58Z</time>
      </trkpt>
      <trkpt lat="46.1149" lon="4.58419">
        <ele>430.6</ele>
        <time>2020-10-19T12:06:59Z</time>
      </trkpt>
      <trkpt lat="46.11491" lon="4.58423">
        <ele>430.6</ele>
        <time>2020-10-19T12:07:00Z</time>
      </trkpt>
      <trkpt lat="46.11491" lon="4.58423">
        <ele>430.6</ele>
        <time>2020-10-19T12:07:01Z</time>
      </trkpt>
      <trkpt lat="46.11491" lon="4.58427">
        <ele>430.8</ele>
        <time>2020-10-19T12:07:02Z</time>
      </trkpt>
      <trkpt lat="46.11491" lon="4.58427">
        <ele>431</ele>
        <time>2020-10-19T12:07:03Z</time>
      </trkpt>
      <trkpt lat="46.11492" lon="4.58431">
        <ele>430.8</ele>
        <time>2020-10-19T12:07:04Z</time>
      </trkpt>
      <trkpt lat="46.11492" lon="4.58431">
        <ele>430.8</ele>
        <time>2020-10-19T12:07:05Z</time>
      </trkpt>
      <trkpt lat="46.11492" lon="4.58436">
        <ele>431.2</ele>
        <time>2020-10-19T12:07:06Z</time>
      </trkpt>
      <trkpt lat="46.11492" lon="4.58436">
        <ele>431.2</ele>
        <time>2020-10-19T12:07:07Z</time>
      </trkpt>
      <trkpt lat="46.11492" lon="4.5844">
        <ele>431.2</ele>
        <time>2020-10-19T12:07:08Z</time>
      </trkpt>
      <trkpt lat="46.11492" lon="4.5844">
        <ele>431.2</ele>
        <time>2020-10-19T12:07:09Z</time>
      </trkpt>
      <trkpt lat="46.11491" lon="4.58444">
        <ele>431.2</ele>
        <time>2020-10-19T12:07:10Z</time>
      </trkpt>
      <trkpt lat="46.11491" lon="4.58444">
        <ele>431.2</ele>
        <time>2020-10-19T12:07:11Z</time>
      </trkpt>
      <trkpt lat="46.11492" lon="4.58448">
        <ele>431.4</ele>
        <time>2020-10-19T12:07:12Z</time>
      </trkpt>
      <trkpt lat="46.11492" lon="4.58448">
        <ele>431.6</ele>
        <time>2020-10-19T12:07:13Z</time>
      </trkpt>
      <trkpt lat="46.11492" lon="4.58452">
        <ele>431.8</ele>
        <time>2020-10-19T12:07:14Z</time>
      </trkpt>
      <trkpt lat="46.11492" lon="4.58452">
        <ele>431.8</ele>
        <time>2020-10-19T12:07:15Z</time>
      </trkpt>
      <trkpt lat="46.11492" lon="4.58456">
        <ele>431.8</ele>
        <time>2020-10-19T12:07:16Z</time>
      </trkpt>
      <trkpt lat="46.11492" lon="4.58456">
        <ele>432</ele>
        <time>2020-10-19T12:07:17Z</time>
      </trkpt>
      <trkpt lat="46.11493" lon="4.5846">
        <ele>432</ele>
        <time>2020-10-19T12:07:18Z</time>
      </trkpt>
      <trkpt lat="46.11493" lon="4.5846">
        <ele>432</ele>
        <time>2020-10-19T12:07:19Z</time>
      </trkpt>
      <trkpt lat="46.11493" lon="4.58464">
        <ele>432.2</ele>
        <time>2020-10-19T12:07:20Z</time>
      </trkpt>
      <trkpt lat="46.11493" lon="4.58464">
        <ele>432.2</ele>
        <time>2020-10-19T12:07:21Z</time>
      </trkpt>
      <trkpt lat="46.11494" lon="4.58469">
        <ele>432.2</ele>
        <time>2020-10-19T12:07:22Z</time>
      </trkpt>
      <trkpt lat="46.11494" lon="4.58469">
        <ele>432.4</ele>
        <time>2020-10-19T12:07:23Z</time>
      </trkpt>
      <trkpt lat="46.11495" lon="4.58472">
        <ele>432.6</ele>
        <time>2020-10-19T12:07:24Z</time>
      </trkpt>
      <trkpt lat="46.11495" lon="4.58472">
        <ele>432.6</ele>
        <time>2020-10-19T12:07:25Z</time>
      </trkpt>
      <trkpt lat="46.11496" lon="4.58476">
        <ele>432.8</ele>
        <time>2020-10-19T12:07:26Z</time>
      </trkpt>
      <trkpt lat="46.11496" lon="4.58476">
        <ele>433</ele>
        <time>2020-10-19T12:07:27Z</time>
      </trkpt>
      <trkpt lat="46.11496" lon="4.58479">
        <ele>432.8</ele>
        <time>2020-10-19T12:07:28Z</time>
      </trkpt>
      <trkpt lat="46.11496" lon="4.58479">
        <ele>432.8</ele>
        <time>2020-10-19T12:07:29Z</time>
      </trkpt>
      <trkpt lat="46.11498" lon="4.58482">
        <ele>433.2</ele>
        <time>2020-10-19T12:07:30Z</time>
      </trkpt>
      <trkpt lat="46.11498" lon="4.58482">
        <ele>433.2</ele>
        <time>2020-10-19T12:07:31Z</time>
      </trkpt>
      <trkpt lat="46.115" lon="4.58484">
        <ele>433.4</ele>
        <time>2020-10-19T12:07:32Z</time>
      </trkpt>
      <trkpt lat="46.115" lon="4.58484">
        <ele>433.6</ele>
        <time>2020-10-19T12:07:33Z</time>
      </trkpt>
      <trkpt lat="46.11502" lon="4.58486">
        <ele>433.8</ele>
        <time>2020-10-19T12:07:34Z</time>
      </trkpt>
      <trkpt lat="46.11502" lon="4.58486">
        <ele>434</ele>
        <time>2020-10-19T12:07:35Z</time>
      </trkpt>
      <trkpt lat="46.11504" lon="4.58488">
        <ele>434.2</ele>
        <time>2020-10-19T12:07:36Z</time>
      </trkpt>
      <trkpt lat="46.11504" lon="4.58488">
        <ele>434.4</ele>
        <time>2020-10-19T12:07:37Z</time>
      </trkpt>
      <trkpt lat="46.11506" lon="4.5849">
        <ele>434.6</ele>
        <time>2020-10-19T12:07:38Z</time>
      </trkpt>
      <trkpt lat="46.11506" lon="4.5849">
        <ele>435</ele>
        <time>2020-10-19T12:07:39Z</time>
      </trkpt>
      <trkpt lat="46.11507" lon="4.58492">
        <ele>435</ele>
        <time>2020-10-19T12:07:40Z</time>
      </trkpt>
      <trkpt lat="46.11507" lon="4.58492">
        <ele>435.2</ele>
        <time>2020-10-19T12:07:41Z</time>
      </trkpt>
      <trkpt lat="46.11507" lon="4.58492">
        <ele>435.4</ele>
        <time>2020-10-19T12:07:42Z</time>
      </trkpt>
      <trkpt lat="46.11507" lon="4.58492">
        <ele>435.6</ele>
        <time>2020-10-19T12:07:43Z</time>
      </trkpt>
      <trkpt lat="46.11507" lon="4.58492">
        <ele>435.4</ele>
        <time>2020-10-19T12:07:44Z</time>
      </trkpt>
      <trkpt lat="46.11507" lon="4.58492">
        <ele>435.4</ele>
        <time>2020-10-19T12:07:45Z</time>
      </trkpt>
      <trkpt lat="46.11507" lon="4.58492">
        <ele>435.4</ele>
        <time>2020-10-19T12:07:46Z</time>
      </trkpt>
      <trkpt lat="46.11507" lon="4.58492">
        <ele>435.4</ele>
        <time>2020-10-19T12:07:47Z</time>
      </trkpt>
      <trkpt lat="46.11507" lon="4.58492">
        <ele>435.4</ele>
        <time>2020-10-19T12:07:48Z</time>
      </trkpt>
      <trkpt lat="46.11507" lon="4.58492">
        <ele>435.4</ele>
        <time>2020-10-19T12:07:49Z</time>
      </trkpt>
      <trkpt lat="46.11507" lon="4.58492">
        <ele>435.4</ele>
        <time>2020-10-19T12:07:50Z</time>
      </trkpt>
      <trkpt lat="46.11507" lon="4.58492">
        <ele>435.6</ele>
        <time>2020-10-19T12:07:51Z</time>
      </trkpt>
      <trkpt lat="46.11507" lon="4.58492">
        <ele>435.6</ele>
        <time>2020-10-19T12:07:52Z</time>
      </trkpt>
      <trkpt lat="46.11507" lon="4.58492">
        <ele>435.4</ele>
        <time>2020-10-19T12:07:53Z</time>
      </trkpt>
      <trkpt lat="46.11507" lon="4.58492">
        <ele>435.6</ele>
        <time>2020-10-19T12:07:54Z</time>
      </trkpt>
      <trkpt lat="46.11509" lon="4.58493">
        <ele>435.6</ele>
        <time>2020-10-19T12:07:55Z</time>
      </trkpt>
      <trkpt lat="46.11509" lon="4.58493">
        <ele>435.6</ele>
        <time>2020-10-19T12:07:56Z</time>
      </trkpt>
      <trkpt lat="46.11511" lon="4.58495">
        <ele>436</ele>
        <time>2020-10-19T12:07:57Z</time>
      </trkpt>
      <trkpt lat="46.11511" lon="4.58495">
        <ele>436.2</ele>
        <time>2020-10-19T12:07:58Z</time>
      </trkpt>
      <trkpt lat="46.11513" lon="4.58498">
        <ele>436.4</ele>
        <time>2020-10-19T12:07:59Z</time>
      </trkpt>
      <trkpt lat="46.11513" lon="4.58498">
        <ele>436.8</ele>
        <time>2020-10-19T12:08:00Z</time>
      </trkpt>
      <trkpt lat="46.11514" lon="4.585">
        <ele>437</ele>
        <time>2020-10-19T12:08:01Z</time>
      </trkpt>
      <trkpt lat="46.11514" lon="4.585">
        <ele>437.2</ele>
        <time>2020-10-19T12:08:02Z</time>
      </trkpt>
      <trkpt lat="46.11516" lon="4.58502">
        <ele>437.4</ele>
        <time>2020-10-19T12:08:03Z</time>
      </trkpt>
      <trkpt lat="46.11516" lon="4.58502">
        <ele>437.8</ele>
        <time>2020-10-19T12:08:04Z</time>
      </trkpt>
      <trkpt lat="46.11518" lon="4.58504">
        <ele>438.2</ele>
        <time>2020-10-19T12:08:05Z</time>
      </trkpt>
      <trkpt lat="46.11518" lon="4.58504">
        <ele>438.2</ele>
        <time>2020-10-19T12:08:06Z</time>
      </trkpt>
      <trkpt lat="46.1152" lon="4.58507">
        <ele>438.4</ele>
        <time>2020-10-19T12:08:07Z</time>
      </trkpt>
      <trkpt lat="46.1152" lon="4.58507">
        <ele>439</ele>
        <time>2020-10-19T12:08:08Z</time>
      </trkpt>
      <trkpt lat="46.11521" lon="4.58508">
        <ele>439.4</ele>
        <time>2020-10-19T12:08:09Z</time>
      </trkpt>
      <trkpt lat="46.11521" lon="4.58508">
        <ele>440</ele>
        <time>2020-10-19T12:08:10Z</time>
      </trkpt>
      <trkpt lat="46.11523" lon="4.5851">
        <ele>440.4</ele>
        <time>2020-10-19T12:08:11Z</time>
      </trkpt>
      <trkpt lat="46.11523" lon="4.5851">
        <ele>440.6</ele>
        <time>2020-10-19T12:08:12Z</time>
      </trkpt>
      <trkpt lat="46.11524" lon="4.58512">
        <ele>440.8</ele>
        <time>2020-10-19T12:08:13Z</time>
      </trkpt>
      <trkpt lat="46.11524" lon="4.58512">
        <ele>441</ele>
        <time>2020-10-19T12:08:14Z</time>
      </trkpt>
      <trkpt lat="46.11524" lon="4.58512">
        <ele>441.2</ele>
        <time>2020-10-19T12:08:15Z</time>
      </trkpt>
      <trkpt lat="46.11527" lon="4.58514">
        <ele>441.4</ele>
        <time>2020-10-19T12:08:16Z</time>
      </trkpt>
      <trkpt lat="46.11527" lon="4.58514">
        <ele>441.4</ele>
        <time>2020-10-19T12:08:17Z</time>
      </trkpt>
      <trkpt lat="46.11528" lon="4.58516">
        <ele>441.6</ele>
        <time>2020-10-19T12:08:18Z</time>
      </trkpt>
      <trkpt lat="46.11528" lon="4.58516">
        <ele>441.8</ele>
        <time>2020-10-19T12:08:19Z</time>
      </trkpt>
      <trkpt lat="46.1153" lon="4.58518">
        <ele>442</ele>
        <time>2020-10-19T12:08:20Z</time>
      </trkpt>
      <trkpt lat="46.1153" lon="4.58518">
        <ele>442.2</ele>
        <time>2020-10-19T12:08:21Z</time>
      </trkpt>
      <trkpt lat="46.11532" lon="4.58519">
        <ele>442.4</ele>
        <time>2020-10-19T12:08:22Z</time>
      </trkpt>
      <trkpt lat="46.11532" lon="4.58519">
        <ele>442.2</ele>
        <time>2020-10-19T12:08:23Z</time>
      </trkpt>
      <trkpt lat="46.11534" lon="4.58521">
        <ele>442.2</ele>
        <time>2020-10-19T12:08:24Z</time>
      </trkpt>
      <trkpt lat="46.11534" lon="4.58521">
        <ele>442.6</ele>
        <time>2020-10-19T12:08:25Z</time>
      </trkpt>
      <trkpt lat="46.11536" lon="4.58523">
        <ele>442.4</ele>
        <time>2020-10-19T12:08:26Z</time>
      </trkpt>
      <trkpt lat="46.11536" lon="4.58523">
        <ele>442.6</ele>
        <time>2020-10-19T12:08:27Z</time>
      </trkpt>
      <trkpt lat="46.11536" lon="4.58523">
        <ele>442.8</ele>
        <time>2020-10-19T12:08:28Z</time>
      </trkpt>
      <trkpt lat="46.11536" lon="4.58523">
        <ele>443</ele>
        <time>2020-10-19T12:08:29Z</time>
      </trkpt>
      <trkpt lat="46.11536" lon="4.58523">
        <ele>443</ele>
        <time>2020-10-19T12:08:30Z</time>
      </trkpt>
      <trkpt lat="46.11536" lon="4.58523">
        <ele>443</ele>
        <time>2020-10-19T12:08:31Z</time>
      </trkpt>
      <trkpt lat="46.11536" lon="4.58523">
        <ele>443.2</ele>
        <time>2020-10-19T12:08:32Z</time>
      </trkpt>
      <trkpt lat="46.11536" lon="4.58523">
        <ele>443.2</ele>
        <time>2020-10-19T12:08:33Z</time>
      </trkpt>
      <trkpt lat="46.11536" lon="4.58523">
        <ele>443.4</ele>
        <time>2020-10-19T12:08:34Z</time>
      </trkpt>
      <trkpt lat="46.11538" lon="4.58523">
        <ele>443.4</ele>
        <time>2020-10-19T12:08:35Z</time>
      </trkpt>
      <trkpt lat="46.11538" lon="4.58523">
        <ele>443.6</ele>
        <time>2020-10-19T12:08:36Z</time>
      </trkpt>
      <trkpt lat="46.11538" lon="4.58523">
        <ele>443.8</ele>
        <time>2020-10-19T12:08:37Z</time>
      </trkpt>
      <trkpt lat="46.11538" lon="4.58523">
        <ele>443.6</ele>
        <time>2020-10-19T12:08:38Z</time>
      </trkpt>
      <trkpt lat="46.11538" lon="4.58523">
        <ele>443.6</ele>
        <time>2020-10-19T12:08:39Z</time>
      </trkpt>
      <trkpt lat="46.11538" lon="4.58523">
        <ele>443.8</ele>
        <time>2020-10-19T12:08:40Z</time>
      </trkpt>
      <trkpt lat="46.11538" lon="4.58523">
        <ele>443.8</ele>
        <time>2020-10-19T12:08:41Z</time>
      </trkpt>
      <trkpt lat="46.11538" lon="4.58523">
        <ele>443.6</ele>
        <time>2020-10-19T12:08:42Z</time>
      </trkpt>
      <trkpt lat="46.11538" lon="4.58523">
        <ele>443.6</ele>
        <time>2020-10-19T12:08:43Z</time>
      </trkpt>
      <trkpt lat="46.11538" lon="4.58523">
        <ele>443.8</ele>
        <time>2020-10-19T12:08:44Z</time>
      </trkpt>
      <trkpt lat="46.11538" lon="4.58523">
        <ele>444</ele>
        <time>2020-10-19T12:08:45Z</time>
      </trkpt>
      <trkpt lat="46.1154" lon="4.58525">
        <ele>444.2</ele>
        <time>2020-10-19T12:08:46Z</time>
      </trkpt>
      <trkpt lat="46.1154" lon="4.58525">
        <ele>444.6</ele>
        <time>2020-10-19T12:08:47Z</time>
      </trkpt>
      <trkpt lat="46.11543" lon="4.58528">
        <ele>444.8</ele>
        <time>2020-10-19T12:08:48Z</time>
      </trkpt>
      <trkpt lat="46.11543" lon="4.58528">
        <ele>445</ele>
        <time>2020-10-19T12:08:49Z</time>
      </trkpt>
      <trkpt lat="46.11545" lon="4.5853">
        <ele>445.2</ele>
        <time>2020-10-19T12:08:50Z</time>
      </trkpt>
      <trkpt lat="46.11545" lon="4.5853">
        <ele>445.4</ele>
        <time>2020-10-19T12:08:51Z</time>
      </trkpt>
      <trkpt lat="46.11547" lon="4.58533">
        <ele>445.4</ele>
        <time>2020-10-19T12:08:52Z</time>
      </trkpt>
      <trkpt lat="46.11547" lon="4.58533">
        <ele>445.6</ele>
        <time>2020-10-19T12:08:53Z</time>
      </trkpt>
      <trkpt lat="46.11549" lon="4.58535">
        <ele>446</ele>
        <time>2020-10-19T12:08:54Z</time>
      </trkpt>
      <trkpt lat="46.11549" lon="4.58535">
        <ele>446.2</ele>
        <time>2020-10-19T12:08:55Z</time>
      </trkpt>
      <trkpt lat="46.11552" lon="4.58537">
        <ele>446.4</ele>
        <time>2020-10-19T12:08:56Z</time>
      </trkpt>
      <trkpt lat="46.11552" lon="4.58537">
        <ele>446.4</ele>
        <time>2020-10-19T12:08:57Z</time>
      </trkpt>
      <trkpt lat="46.11554" lon="4.5854">
        <ele>446.6</ele>
        <time>2020-10-19T12:08:58Z</time>
      </trkpt>
      <trkpt lat="46.11554" lon="4.5854">
        <ele>446.8</ele>
        <time>2020-10-19T12:08:59Z</time>
      </trkpt>
      <trkpt lat="46.11556" lon="4.58542">
        <ele>447</ele>
        <time>2020-10-19T12:09:00Z</time>
      </trkpt>
      <trkpt lat="46.11556" lon="4.58542">
        <ele>447.2</ele>
        <time>2020-10-19T12:09:01Z</time>
      </trkpt>
      <trkpt lat="46.11558" lon="4.58545">
        <ele>447.2</ele>
        <time>2020-10-19T12:09:02Z</time>
      </trkpt>
      <trkpt lat="46.11558" lon="4.58545">
        <ele>447.6</ele>
        <time>2020-10-19T12:09:03Z</time>
      </trkpt>
      <trkpt lat="46.11559" lon="4.58548">
        <ele>448</ele>
        <time>2020-10-19T12:09:04Z</time>
      </trkpt>
      <trkpt lat="46.11559" lon="4.58548">
        <ele>448.2</ele>
        <time>2020-10-19T12:09:05Z</time>
      </trkpt>
      <trkpt lat="46.11561" lon="4.5855">
        <ele>448.4</ele>
        <time>2020-10-19T12:09:06Z</time>
      </trkpt>
      <trkpt lat="46.11561" lon="4.5855">
        <ele>448.4</ele>
        <time>2020-10-19T12:09:07Z</time>
      </trkpt>
      <trkpt lat="46.11564" lon="4.58552">
        <ele>448.6</ele>
        <time>2020-10-19T12:09:08Z</time>
      </trkpt>
      <trkpt lat="46.11564" lon="4.58552">
        <ele>448.8</ele>
        <time>2020-10-19T12:09:09Z</time>
      </trkpt>
      <trkpt lat="46.11566" lon="4.58554">
        <ele>449.2</ele>
        <time>2020-10-19T12:09:10Z</time>
      </trkpt>
      <trkpt lat="46.11566" lon="4.58554">
        <ele>449.2</ele>
        <time>2020-10-19T12:09:11Z</time>
      </trkpt>
      <trkpt lat="46.11568" lon="4.58556">
        <ele>449.4</ele>
        <time>2020-10-19T12:09:12Z</time>
      </trkpt>
      <trkpt lat="46.11568" lon="4.58556">
        <ele>449.6</ele>
        <time>2020-10-19T12:09:13Z</time>
      </trkpt>
      <trkpt lat="46.1157" lon="4.58558">
        <ele>450</ele>
        <time>2020-10-19T12:09:14Z</time>
      </trkpt>
      <trkpt lat="46.1157" lon="4.58558">
        <ele>450.4</ele>
        <time>2020-10-19T12:09:15Z</time>
      </trkpt>
      <trkpt lat="46.11572" lon="4.58559">
        <ele>450.6</ele>
        <time>2020-10-19T12:09:16Z</time>
      </trkpt>
      <trkpt lat="46.11572" lon="4.58559">
        <ele>450.6</ele>
        <time>2020-10-19T12:09:17Z</time>
      </trkpt>
      <trkpt lat="46.11574" lon="4.58561">
        <ele>450.8</ele>
        <time>2020-10-19T12:09:18Z</time>
      </trkpt>
      <trkpt lat="46.11574" lon="4.58561">
        <ele>450.8</ele>
        <time>2020-10-19T12:09:19Z</time>
      </trkpt>
      <trkpt lat="46.11577" lon="4.58563">
        <ele>451</ele>
        <time>2020-10-19T12:09:20Z</time>
      </trkpt>
      <trkpt lat="46.11577" lon="4.58563">
        <ele>451</ele>
        <time>2020-10-19T12:09:21Z</time>
      </trkpt>
      <trkpt lat="46.11579" lon="4.58565">
        <ele>451</ele>
        <time>2020-10-19T12:09:22Z</time>
      </trkpt>
      <trkpt lat="46.11579" lon="4.58565">
        <ele>451.4</ele>
        <time>2020-10-19T12:09:23Z</time>
      </trkpt>
      <trkpt lat="46.11581" lon="4.58568">
        <ele>451.6</ele>
        <time>2020-10-19T12:09:24Z</time>
      </trkpt>
      <trkpt lat="46.11581" lon="4.58568">
        <ele>451.8</ele>
        <time>2020-10-19T12:09:25Z</time>
      </trkpt>
      <trkpt lat="46.11583" lon="4.58571">
        <ele>452</ele>
        <time>2020-10-19T12:09:26Z</time>
      </trkpt>
      <trkpt lat="46.11583" lon="4.58571">
        <ele>452</ele>
        <time>2020-10-19T12:09:27Z</time>
      </trkpt>
      <trkpt lat="46.11585" lon="4.58573">
        <ele>452.2</ele>
        <time>2020-10-19T12:09:28Z</time>
      </trkpt>
      <trkpt lat="46.11585" lon="4.58573">
        <ele>452.2</ele>
        <time>2020-10-19T12:09:29Z</time>
      </trkpt>
      <trkpt lat="46.11587" lon="4.58576">
        <ele>452.2</ele>
        <time>2020-10-19T12:09:30Z</time>
      </trkpt>
      <trkpt lat="46.11587" lon="4.58576">
        <ele>452.4</ele>
        <time>2020-10-19T12:09:31Z</time>
      </trkpt>
      <trkpt lat="46.11589" lon="4.58579">
        <ele>452.4</ele>
        <time>2020-10-19T12:09:32Z</time>
      </trkpt>
      <trkpt lat="46.11589" lon="4.58579">
        <ele>452.6</ele>
        <time>2020-10-19T12:09:33Z</time>
      </trkpt>
      <trkpt lat="46.11591" lon="4.58581">
        <ele>452.8</ele>
        <time>2020-10-19T12:09:34Z</time>
      </trkpt>
      <trkpt lat="46.11591" lon="4.58581">
        <ele>453</ele>
        <time>2020-10-19T12:09:35Z</time>
      </trkpt>
      <trkpt lat="46.11593" lon="4.58584">
        <ele>453.2</ele>
        <time>2020-10-19T12:09:36Z</time>
      </trkpt>
      <trkpt lat="46.11593" lon="4.58584">
        <ele>453.2</ele>
        <time>2020-10-19T12:09:37Z</time>
      </trkpt>
      <trkpt lat="46.11595" lon="4.58586">
        <ele>453.4</ele>
        <time>2020-10-19T12:09:38Z</time>
      </trkpt>
      <trkpt lat="46.11595" lon="4.58586">
        <ele>453.6</ele>
        <time>2020-10-19T12:09:39Z</time>
      </trkpt>
      <trkpt lat="46.11597" lon="4.58589">
        <ele>453.6</ele>
        <time>2020-10-19T12:09:40Z</time>
      </trkpt>
      <trkpt lat="46.11597" lon="4.58589">
        <ele>453.8</ele>
        <time>2020-10-19T12:09:41Z</time>
      </trkpt>
      <trkpt lat="46.11599" lon="4.58591">
        <ele>454</ele>
        <time>2020-10-19T12:09:42Z</time>
      </trkpt>
      <trkpt lat="46.11599" lon="4.58591">
        <ele>454.2</ele>
        <time>2020-10-19T12:09:43Z</time>
      </trkpt>
      <trkpt lat="46.11601" lon="4.58592">
        <ele>454.2</ele>
        <time>2020-10-19T12:09:44Z</time>
      </trkpt>
      <trkpt lat="46.11601" lon="4.58592">
        <ele>454.6</ele>
        <time>2020-10-19T12:09:45Z</time>
      </trkpt>
      <trkpt lat="46.11603" lon="4.58593">
        <ele>454.6</ele>
        <time>2020-10-19T12:09:46Z</time>
      </trkpt>
      <trkpt lat="46.11603" lon="4.58593">
        <ele>454.8</ele>
        <time>2020-10-19T12:09:47Z</time>
      </trkpt>
      <trkpt lat="46.11604" lon="4.58595">
        <ele>454.6</ele>
        <time>2020-10-19T12:09:48Z</time>
      </trkpt>
      <trkpt lat="46.11604" lon="4.58595">
        <ele>454.6</ele>
        <time>2020-10-19T12:09:49Z</time>
      </trkpt>
      <trkpt lat="46.11604" lon="4.58595">
        <ele>455</ele>
        <time>2020-10-19T12:09:50Z</time>
      </trkpt>
      <trkpt lat="46.11604" lon="4.58595">
        <ele>455.2</ele>
        <time>2020-10-19T12:09:51Z</time>
      </trkpt>
      <trkpt lat="46.11604" lon="4.58595">
        <ele>455.2</ele>
        <time>2020-10-19T12:09:52Z</time>
      </trkpt>
      <trkpt lat="46.11604" lon="4.58595">
        <ele>455.2</ele>
        <time>2020-10-19T12:09:53Z</time>
      </trkpt>
      <trkpt lat="46.11604" lon="4.58595">
        <ele>455.2</ele>
        <time>2020-10-19T12:09:54Z</time>
      </trkpt>
      <trkpt lat="46.11604" lon="4.58595">
        <ele>455.2</ele>
        <time>2020-10-19T12:09:55Z</time>
      </trkpt>
      <trkpt lat="46.11606" lon="4.58597">
        <ele>455.2</ele>
        <time>2020-10-19T12:09:56Z</time>
      </trkpt>
      <trkpt lat="46.11606" lon="4.58597">
        <ele>455</ele>
        <time>2020-10-19T12:09:57Z</time>
      </trkpt>
      <trkpt lat="46.11608" lon="4.58599">
        <ele>455.2</ele>
        <time>2020-10-19T12:09:58Z</time>
      </trkpt>
      <trkpt lat="46.11608" lon="4.58599">
        <ele>455.2</ele>
        <time>2020-10-19T12:09:59Z</time>
      </trkpt>
      <trkpt lat="46.1161" lon="4.586">
        <ele>455.2</ele>
        <time>2020-10-19T12:10:00Z</time>
      </trkpt>
      <trkpt lat="46.1161" lon="4.586">
        <ele>455.4</ele>
        <time>2020-10-19T12:10:01Z</time>
      </trkpt>
      <trkpt lat="46.11612" lon="4.58602">
        <ele>455.2</ele>
        <time>2020-10-19T12:10:02Z</time>
      </trkpt>
      <trkpt lat="46.11612" lon="4.58602">
        <ele>455.2</ele>
        <time>2020-10-19T12:10:03Z</time>
      </trkpt>
      <trkpt lat="46.11614" lon="4.58604">
        <ele>455.4</ele>
        <time>2020-10-19T12:10:04Z</time>
      </trkpt>
      <trkpt lat="46.11614" lon="4.58604">
        <ele>455.4</ele>
        <time>2020-10-19T12:10:05Z</time>
      </trkpt>
      <trkpt lat="46.11616" lon="4.58607">
        <ele>455.6</ele>
        <time>2020-10-19T12:10:06Z</time>
      </trkpt>
      <trkpt lat="46.11616" lon="4.58607">
        <ele>455.8</ele>
        <time>2020-10-19T12:10:07Z</time>
      </trkpt>
      <trkpt lat="46.11618" lon="4.58608">
        <ele>456</ele>
        <time>2020-10-19T12:10:08Z</time>
      </trkpt>
      <trkpt lat="46.11618" lon="4.58608">
        <ele>456.2</ele>
        <time>2020-10-19T12:10:09Z</time>
      </trkpt>
      <trkpt lat="46.1162" lon="4.5861">
        <ele>456.2</ele>
        <time>2020-10-19T12:10:10Z</time>
      </trkpt>
      <trkpt lat="46.1162" lon="4.5861">
        <ele>456.2</ele>
        <time>2020-10-19T12:10:11Z</time>
      </trkpt>
      <trkpt lat="46.11622" lon="4.58612">
        <ele>456.4</ele>
        <time>2020-10-19T12:10:12Z</time>
      </trkpt>
      <trkpt lat="46.11622" lon="4.58612">
        <ele>456.4</ele>
        <time>2020-10-19T12:10:13Z</time>
      </trkpt>
      <trkpt lat="46.11624" lon="4.58615">
        <ele>456.6</ele>
        <time>2020-10-19T12:10:14Z</time>
      </trkpt>
      <trkpt lat="46.11624" lon="4.58615">
        <ele>456.6</ele>
        <time>2020-10-19T12:10:15Z</time>
      </trkpt>
      <trkpt lat="46.11627" lon="4.58618">
        <ele>457.2</ele>
        <time>2020-10-19T12:10:16Z</time>
      </trkpt>
      <trkpt lat="46.11627" lon="4.58618">
        <ele>457.6</ele>
        <time>2020-10-19T12:10:17Z</time>
      </trkpt>
      <trkpt lat="46.11629" lon="4.58621">
        <ele>457.8</ele>
        <time>2020-10-19T12:10:18Z</time>
      </trkpt>
      <trkpt lat="46.11629" lon="4.58621">
        <ele>457.6</ele>
        <time>2020-10-19T12:10:19Z</time>
      </trkpt>
      <trkpt lat="46.11632" lon="4.58623">
        <ele>458</ele>
        <time>2020-10-19T12:10:20Z</time>
      </trkpt>
      <trkpt lat="46.11632" lon="4.58623">
        <ele>458</ele>
        <time>2020-10-19T12:10:21Z</time>
      </trkpt>
      <trkpt lat="46.11634" lon="4.58626">
        <ele>458.4</ele>
        <time>2020-10-19T12:10:22Z</time>
      </trkpt>
      <trkpt lat="46.11634" lon="4.58626">
        <ele>458.4</ele>
        <time>2020-10-19T12:10:23Z</time>
      </trkpt>
      <trkpt lat="46.11637" lon="4.58628">
        <ele>458.4</ele>
        <time>2020-10-19T12:10:24Z</time>
      </trkpt>
      <trkpt lat="46.11637" lon="4.58628">
        <ele>458.6</ele>
        <time>2020-10-19T12:10:25Z</time>
      </trkpt>
      <trkpt lat="46.1164" lon="4.5863">
        <ele>458.2</ele>
        <time>2020-10-19T12:10:26Z</time>
      </trkpt>
      <trkpt lat="46.1164" lon="4.5863">
        <ele>458</ele>
        <time>2020-10-19T12:10:27Z</time>
      </trkpt>
      <trkpt lat="46.11643" lon="4.58632">
        <ele>458.2</ele>
        <time>2020-10-19T12:10:28Z</time>
      </trkpt>
      <trkpt lat="46.11643" lon="4.58632">
        <ele>458.2</ele>
        <time>2020-10-19T12:10:29Z</time>
      </trkpt>
      <trkpt lat="46.11645" lon="4.58634">
        <ele>458.4</ele>
        <time>2020-10-19T12:10:30Z</time>
      </trkpt>
      <trkpt lat="46.11645" lon="4.58634">
        <ele>458.4</ele>
        <time>2020-10-19T12:10:31Z</time>
      </trkpt>
      <trkpt lat="46.11647" lon="4.58635">
        <ele>458.6</ele>
        <time>2020-10-19T12:10:32Z</time>
      </trkpt>
      <trkpt lat="46.11647" lon="4.58635">
        <ele>458.6</ele>
        <time>2020-10-19T12:10:33Z</time>
      </trkpt>
      <trkpt lat="46.1165" lon="4.58635">
        <ele>458.6</ele>
        <time>2020-10-19T12:10:34Z</time>
      </trkpt>
      <trkpt lat="46.1165" lon="4.58635">
        <ele>458.6</ele>
        <time>2020-10-19T12:10:35Z</time>
      </trkpt>
      <trkpt lat="46.11653" lon="4.58636">
        <ele>459</ele>
        <time>2020-10-19T12:10:36Z</time>
      </trkpt>
      <trkpt lat="46.11653" lon="4.58636">
        <ele>459</ele>
        <time>2020-10-19T12:10:37Z</time>
      </trkpt>
      <trkpt lat="46.11656" lon="4.58637">
        <ele>459.2</ele>
        <time>2020-10-19T12:10:38Z</time>
      </trkpt>
      <trkpt lat="46.11656" lon="4.58637">
        <ele>459.4</ele>
        <time>2020-10-19T12:10:39Z</time>
      </trkpt>
      <trkpt lat="46.11659" lon="4.58638">
        <ele>459.6</ele>
        <time>2020-10-19T12:10:40Z</time>
      </trkpt>
      <trkpt lat="46.11659" lon="4.58638">
        <ele>459.6</ele>
        <time>2020-10-19T12:10:41Z</time>
      </trkpt>
      <trkpt lat="46.11662" lon="4.58639">
        <ele>459.6</ele>
        <time>2020-10-19T12:10:42Z</time>
      </trkpt>
      <trkpt lat="46.11662" lon="4.58639">
        <ele>459.8</ele>
        <time>2020-10-19T12:10:43Z</time>
      </trkpt>
      <trkpt lat="46.11664" lon="4.58639">
        <ele>459.8</ele>
        <time>2020-10-19T12:10:44Z</time>
      </trkpt>
      <trkpt lat="46.11664" lon="4.58639">
        <ele>459.8</ele>
        <time>2020-10-19T12:10:45Z</time>
      </trkpt>
      <trkpt lat="46.11667" lon="4.5864">
        <ele>460</ele>
        <time>2020-10-19T12:10:46Z</time>
      </trkpt>
      <trkpt lat="46.11667" lon="4.5864">
        <ele>460.2</ele>
        <time>2020-10-19T12:10:47Z</time>
      </trkpt>
      <trkpt lat="46.11669" lon="4.5864">
        <ele>460.6</ele>
        <time>2020-10-19T12:10:48Z</time>
      </trkpt>
      <trkpt lat="46.11669" lon="4.5864">
        <ele>460.2</ele>
        <time>2020-10-19T12:10:49Z</time>
      </trkpt>
      <trkpt lat="46.11672" lon="4.5864">
        <ele>460.6</ele>
        <time>2020-10-19T12:10:50Z</time>
      </trkpt>
      <trkpt lat="46.11672" lon="4.5864">
        <ele>460.8</ele>
        <time>2020-10-19T12:10:51Z</time>
      </trkpt>
      <trkpt lat="46.11675" lon="4.58639">
        <ele>460.8</ele>
        <time>2020-10-19T12:10:52Z</time>
      </trkpt>
      <trkpt lat="46.11675" lon="4.58639">
        <ele>461</ele>
        <time>2020-10-19T12:10:53Z</time>
      </trkpt>
      <trkpt lat="46.11678" lon="4.58638">
        <ele>461</ele>
        <time>2020-10-19T12:10:54Z</time>
      </trkpt>
      <trkpt lat="46.11678" lon="4.58638">
        <ele>461.4</ele>
        <time>2020-10-19T12:10:55Z</time>
      </trkpt>
      <trkpt lat="46.11681" lon="4.58636">
        <ele>461.4</ele>
        <time>2020-10-19T12:10:56Z</time>
      </trkpt>
      <trkpt lat="46.11681" lon="4.58636">
        <ele>461.6</ele>
        <time>2020-10-19T12:10:57Z</time>
      </trkpt>
      <trkpt lat="46.11683" lon="4.58635">
        <ele>462</ele>
        <time>2020-10-19T12:10:58Z</time>
      </trkpt>
      <trkpt lat="46.11683" lon="4.58635">
        <ele>461.8</ele>
        <time>2020-10-19T12:10:59Z</time>
      </trkpt>
      <trkpt lat="46.11685" lon="4.58634">
        <ele>462.2</ele>
        <time>2020-10-19T12:11:00Z</time>
      </trkpt>
      <trkpt lat="46.11685" lon="4.58634">
        <ele>462.4</ele>
        <time>2020-10-19T12:11:01Z</time>
      </trkpt>
      <trkpt lat="46.11688" lon="4.58632">
        <ele>462.6</ele>
        <time>2020-10-19T12:11:02Z</time>
      </trkpt>
      <trkpt lat="46.11688" lon="4.58632">
        <ele>462.8</ele>
        <time>2020-10-19T12:11:03Z</time>
      </trkpt>
      <trkpt lat="46.11691" lon="4.5863">
        <ele>463</ele>
        <time>2020-10-19T12:11:04Z</time>
      </trkpt>
      <trkpt lat="46.11691" lon="4.5863">
        <ele>463.4</ele>
        <time>2020-10-19T12:11:05Z</time>
      </trkpt>
      <trkpt lat="46.11693" lon="4.58629">
        <ele>463.4</ele>
        <time>2020-10-19T12:11:06Z</time>
      </trkpt>
      <trkpt lat="46.11693" lon="4.58629">
        <ele>463.4</ele>
        <time>2020-10-19T12:11:07Z</time>
      </trkpt>
      <trkpt lat="46.11696" lon="4.58628">
        <ele>464</ele>
        <time>2020-10-19T12:11:08Z</time>
      </trkpt>
      <trkpt lat="46.11696" lon="4.58628">
        <ele>464.2</ele>
        <time>2020-10-19T12:11:09Z</time>
      </trkpt>
      <trkpt lat="46.11698" lon="4.58627">
        <ele>464.2</ele>
        <time>2020-10-19T12:11:10Z</time>
      </trkpt>
      <trkpt lat="46.11698" lon="4.58627">
        <ele>464.6</ele>
        <time>2020-10-19T12:11:11Z</time>
      </trkpt>
      <trkpt lat="46.11701" lon="4.58626">
        <ele>464.8</ele>
        <time>2020-10-19T12:11:12Z</time>
      </trkpt>
      <trkpt lat="46.11701" lon="4.58626">
        <ele>465.2</ele>
        <time>2020-10-19T12:11:13Z</time>
      </trkpt>
      <trkpt lat="46.11703" lon="4.58625">
        <ele>465.2</ele>
        <time>2020-10-19T12:11:14Z</time>
      </trkpt>
      <trkpt lat="46.11703" lon="4.58625">
        <ele>465.2</ele>
        <time>2020-10-19T12:11:15Z</time>
      </trkpt>
      <trkpt lat="46.11706" lon="4.58624">
        <ele>465.6</ele>
        <time>2020-10-19T12:11:16Z</time>
      </trkpt>
      <trkpt lat="46.11706" lon="4.58624">
        <ele>465.8</ele>
        <time>2020-10-19T12:11:17Z</time>
      </trkpt>
      <trkpt lat="46.11708" lon="4.58623">
        <ele>465.8</ele>
        <time>2020-10-19T12:11:18Z</time>
      </trkpt>
      <trkpt lat="46.11708" lon="4.58623">
        <ele>466.2</ele>
        <time>2020-10-19T12:11:19Z</time>
      </trkpt>
      <trkpt lat="46.1171" lon="4.58622">
        <ele>466.2</ele>
        <time>2020-10-19T12:11:20Z</time>
      </trkpt>
      <trkpt lat="46.1171" lon="4.58622">
        <ele>466.4</ele>
        <time>2020-10-19T12:11:21Z</time>
      </trkpt>
      <trkpt lat="46.11713" lon="4.58621">
        <ele>466.6</ele>
        <time>2020-10-19T12:11:22Z</time>
      </trkpt>
      <trkpt lat="46.11713" lon="4.58621">
        <ele>466.6</ele>
        <time>2020-10-19T12:11:23Z</time>
      </trkpt>
      <trkpt lat="46.11716" lon="4.5862">
        <ele>466.8</ele>
        <time>2020-10-19T12:11:24Z</time>
      </trkpt>
      <trkpt lat="46.11718" lon="4.58619">
        <ele>467.2</ele>
        <time>2020-10-19T12:11:25Z</time>
      </trkpt>
      <trkpt lat="46.11718" lon="4.58619">
        <ele>467.2</ele>
        <time>2020-10-19T12:11:26Z</time>
      </trkpt>
      <trkpt lat="46.1172" lon="4.58618">
        <ele>467.2</ele>
        <time>2020-10-19T12:11:27Z</time>
      </trkpt>
      <trkpt lat="46.1172" lon="4.58618">
        <ele>467.2</ele>
        <time>2020-10-19T12:11:28Z</time>
      </trkpt>
      <trkpt lat="46.1172" lon="4.58618">
        <ele>467.6</ele>
        <time>2020-10-19T12:11:29Z</time>
      </trkpt>
      <trkpt lat="46.11723" lon="4.58617">
        <ele>467.6</ele>
        <time>2020-10-19T12:11:30Z</time>
      </trkpt>
      <trkpt lat="46.11723" lon="4.58617">
        <ele>467.8</ele>
        <time>2020-10-19T12:11:31Z</time>
      </trkpt>
      <trkpt lat="46.11725" lon="4.58616">
        <ele>468.2</ele>
        <time>2020-10-19T12:11:32Z</time>
      </trkpt>
      <trkpt lat="46.11725" lon="4.58616">
        <ele>468.2</ele>
        <time>2020-10-19T12:11:33Z</time>
      </trkpt>
      <trkpt lat="46.11727" lon="4.58615">
        <ele>468.6</ele>
        <time>2020-10-19T12:11:34Z</time>
      </trkpt>
      <trkpt lat="46.11727" lon="4.58615">
        <ele>468.8</ele>
        <time>2020-10-19T12:11:35Z</time>
      </trkpt>
      <trkpt lat="46.1173" lon="4.58613">
        <ele>469</ele>
        <time>2020-10-19T12:11:36Z</time>
      </trkpt>
      <trkpt lat="46.1173" lon="4.58613">
        <ele>469.4</ele>
        <time>2020-10-19T12:11:37Z</time>
      </trkpt>
      <trkpt lat="46.11732" lon="4.58613">
        <ele>469.6</ele>
        <time>2020-10-19T12:11:38Z</time>
      </trkpt>
      <trkpt lat="46.11732" lon="4.58613">
        <ele>469.8</ele>
        <time>2020-10-19T12:11:39Z</time>
      </trkpt>
      <trkpt lat="46.11734" lon="4.58612">
        <ele>470</ele>
        <time>2020-10-19T12:11:40Z</time>
      </trkpt>
      <trkpt lat="46.11734" lon="4.58612">
        <ele>470</ele>
        <time>2020-10-19T12:11:41Z</time>
      </trkpt>
      <trkpt lat="46.11734" lon="4.58612">
        <ele>470.4</ele>
        <time>2020-10-19T12:11:42Z</time>
      </trkpt>
      <trkpt lat="46.11737" lon="4.58612">
        <ele>470.4</ele>
        <time>2020-10-19T12:11:43Z</time>
      </trkpt>
      <trkpt lat="46.11737" lon="4.58612">
        <ele>470.6</ele>
        <time>2020-10-19T12:11:44Z</time>
      </trkpt>
      <trkpt lat="46.11739" lon="4.58612">
        <ele>470.8</ele>
        <time>2020-10-19T12:11:45Z</time>
      </trkpt>
      <trkpt lat="46.11739" lon="4.58612">
        <ele>471.2</ele>
        <time>2020-10-19T12:11:46Z</time>
      </trkpt>
      <trkpt lat="46.11743" lon="4.58611">
        <ele>471.4</ele>
        <time>2020-10-19T12:11:47Z</time>
      </trkpt>
      <trkpt lat="46.11745" lon="4.58611">
        <ele>471.4</ele>
        <time>2020-10-19T12:11:48Z</time>
      </trkpt>
      <trkpt lat="46.11745" lon="4.58611">
        <ele>471.6</ele>
        <time>2020-10-19T12:11:49Z</time>
      </trkpt>
      <trkpt lat="46.11747" lon="4.58611">
        <ele>471.8</ele>
        <time>2020-10-19T12:11:50Z</time>
      </trkpt>
      <trkpt lat="46.11747" lon="4.58611">
        <ele>472.2</ele>
        <time>2020-10-19T12:11:51Z</time>
      </trkpt>
      <trkpt lat="46.1175" lon="4.58611">
        <ele>472.4</ele>
        <time>2020-10-19T12:11:52Z</time>
      </trkpt>
      <trkpt lat="46.1175" lon="4.58611">
        <ele>472.6</ele>
        <time>2020-10-19T12:11:53Z</time>
      </trkpt>
      <trkpt lat="46.11752" lon="4.58611">
        <ele>472.6</ele>
        <time>2020-10-19T12:11:54Z</time>
      </trkpt>
      <trkpt lat="46.11752" lon="4.58611">
        <ele>472.8</ele>
        <time>2020-10-19T12:11:55Z</time>
      </trkpt>
      <trkpt lat="46.11752" lon="4.58611">
        <ele>473</ele>
        <time>2020-10-19T12:11:56Z</time>
      </trkpt>
      <trkpt lat="46.11755" lon="4.58611">
        <ele>473.2</ele>
        <time>2020-10-19T12:11:57Z</time>
      </trkpt>
      <trkpt lat="46.11755" lon="4.58611">
        <ele>473.2</ele>
        <time>2020-10-19T12:11:58Z</time>
      </trkpt>
      <trkpt lat="46.11756" lon="4.58611">
        <ele>473.2</ele>
        <time>2020-10-19T12:11:59Z</time>
      </trkpt>
      <trkpt lat="46.11756" lon="4.58611">
        <ele>473.2</ele>
        <time>2020-10-19T12:12:00Z</time>
      </trkpt>
      <trkpt lat="46.11759" lon="4.58611">
        <ele>473.2</ele>
        <time>2020-10-19T12:12:01Z</time>
      </trkpt>
      <trkpt lat="46.11759" lon="4.58611">
        <ele>473.2</ele>
        <time>2020-10-19T12:12:02Z</time>
      </trkpt>
      <trkpt lat="46.11762" lon="4.58611">
        <ele>473.4</ele>
        <time>2020-10-19T12:12:03Z</time>
      </trkpt>
      <trkpt lat="46.11762" lon="4.58611">
        <ele>473.4</ele>
        <time>2020-10-19T12:12:04Z</time>
      </trkpt>
      <trkpt lat="46.11764" lon="4.5861">
        <ele>473.4</ele>
        <time>2020-10-19T12:12:05Z</time>
      </trkpt>
      <trkpt lat="46.11764" lon="4.5861">
        <ele>473.6</ele>
        <time>2020-10-19T12:12:06Z</time>
      </trkpt>
      <trkpt lat="46.11767" lon="4.5861">
        <ele>473.8</ele>
        <time>2020-10-19T12:12:07Z</time>
      </trkpt>
      <trkpt lat="46.11767" lon="4.5861">
        <ele>474</ele>
        <time>2020-10-19T12:12:08Z</time>
      </trkpt>
      <trkpt lat="46.11769" lon="4.58611">
        <ele>474.2</ele>
        <time>2020-10-19T12:12:09Z</time>
      </trkpt>
      <trkpt lat="46.11769" lon="4.58611">
        <ele>474.2</ele>
        <time>2020-10-19T12:12:10Z</time>
      </trkpt>
      <trkpt lat="46.11772" lon="4.58611">
        <ele>474.2</ele>
        <time>2020-10-19T12:12:11Z</time>
      </trkpt>
      <trkpt lat="46.11772" lon="4.58611">
        <ele>474.4</ele>
        <time>2020-10-19T12:12:12Z</time>
      </trkpt>
      <trkpt lat="46.11775" lon="4.5861">
        <ele>474.6</ele>
        <time>2020-10-19T12:12:13Z</time>
      </trkpt>
      <trkpt lat="46.11775" lon="4.5861">
        <ele>474.8</ele>
        <time>2020-10-19T12:12:14Z</time>
      </trkpt>
      <trkpt lat="46.11777" lon="4.58609">
        <ele>475</ele>
        <time>2020-10-19T12:12:15Z</time>
      </trkpt>
      <trkpt lat="46.11777" lon="4.58609">
        <ele>475</ele>
        <time>2020-10-19T12:12:16Z</time>
      </trkpt>
      <trkpt lat="46.11779" lon="4.58608">
        <ele>475</ele>
        <time>2020-10-19T12:12:17Z</time>
      </trkpt>
      <trkpt lat="46.11779" lon="4.58608">
        <ele>475</ele>
        <time>2020-10-19T12:12:18Z</time>
      </trkpt>
      <trkpt lat="46.11782" lon="4.58606">
        <ele>475</ele>
        <time>2020-10-19T12:12:19Z</time>
      </trkpt>
      <trkpt lat="46.11782" lon="4.58606">
        <ele>475.2</ele>
        <time>2020-10-19T12:12:20Z</time>
      </trkpt>
      <trkpt lat="46.11785" lon="4.58606">
        <ele>475.4</ele>
        <time>2020-10-19T12:12:21Z</time>
      </trkpt>
      <trkpt lat="46.11785" lon="4.58606">
        <ele>475.4</ele>
        <time>2020-10-19T12:12:22Z</time>
      </trkpt>
      <trkpt lat="46.11787" lon="4.58605">
        <ele>475.6</ele>
        <time>2020-10-19T12:12:23Z</time>
      </trkpt>
      <trkpt lat="46.11787" lon="4.58605">
        <ele>475.6</ele>
        <time>2020-10-19T12:12:24Z</time>
      </trkpt>
      <trkpt lat="46.1179" lon="4.58605">
        <ele>476</ele>
        <time>2020-10-19T12:12:25Z</time>
      </trkpt>
      <trkpt lat="46.1179" lon="4.58605">
        <ele>476.2</ele>
        <time>2020-10-19T12:12:26Z</time>
      </trkpt>
      <trkpt lat="46.11794" lon="4.58603">
        <ele>476.2</ele>
        <time>2020-10-19T12:12:27Z</time>
      </trkpt>
      <trkpt lat="46.11794" lon="4.58603">
        <ele>476.2</ele>
        <time>2020-10-19T12:12:28Z</time>
      </trkpt>
      <trkpt lat="46.11797" lon="4.58602">
        <ele>476.4</ele>
        <time>2020-10-19T12:12:29Z</time>
      </trkpt>
      <trkpt lat="46.11797" lon="4.58602">
        <ele>476.6</ele>
        <time>2020-10-19T12:12:30Z</time>
      </trkpt>
      <trkpt lat="46.118" lon="4.586">
        <ele>476.4</ele>
        <time>2020-10-19T12:12:31Z</time>
      </trkpt>
      <trkpt lat="46.118" lon="4.586">
        <ele>476.8</ele>
        <time>2020-10-19T12:12:32Z</time>
      </trkpt>
      <trkpt lat="46.11802" lon="4.58598">
        <ele>476.6</ele>
        <time>2020-10-19T12:12:33Z</time>
      </trkpt>
      <trkpt lat="46.11802" lon="4.58598">
        <ele>476.6</ele>
        <time>2020-10-19T12:12:34Z</time>
      </trkpt>
      <trkpt lat="46.11806" lon="4.58596">
        <ele>476.6</ele>
        <time>2020-10-19T12:12:35Z</time>
      </trkpt>
      <trkpt lat="46.11806" lon="4.58596">
        <ele>476.8</ele>
        <time>2020-10-19T12:12:36Z</time>
      </trkpt>
      <trkpt lat="46.11809" lon="4.58595">
        <ele>476.8</ele>
        <time>2020-10-19T12:12:37Z</time>
      </trkpt>
      <trkpt lat="46.11811" lon="4.58595">
        <ele>476.6</ele>
        <time>2020-10-19T12:12:38Z</time>
      </trkpt>
      <trkpt lat="46.11813" lon="4.58594">
        <ele>476.6</ele>
        <time>2020-10-19T12:12:39Z</time>
      </trkpt>
      <trkpt lat="46.11813" lon="4.58594">
        <ele>476.6</ele>
        <time>2020-10-19T12:12:40Z</time>
      </trkpt>
      <trkpt lat="46.11816" lon="4.58593">
        <ele>476.8</ele>
        <time>2020-10-19T12:12:41Z</time>
      </trkpt>
      <trkpt lat="46.11816" lon="4.58593">
        <ele>476.6</ele>
        <time>2020-10-19T12:12:42Z</time>
      </trkpt>
      <trkpt lat="46.11819" lon="4.58592">
        <ele>476.8</ele>
        <time>2020-10-19T12:12:43Z</time>
      </trkpt>
      <trkpt lat="46.11819" lon="4.58592">
        <ele>476.8</ele>
        <time>2020-10-19T12:12:44Z</time>
      </trkpt>
      <trkpt lat="46.11822" lon="4.5859">
        <ele>476.8</ele>
        <time>2020-10-19T12:12:45Z</time>
      </trkpt>
      <trkpt lat="46.11822" lon="4.5859">
        <ele>476.6</ele>
        <time>2020-10-19T12:12:46Z</time>
      </trkpt>
      <trkpt lat="46.11825" lon="4.58589">
        <ele>476.6</ele>
        <time>2020-10-19T12:12:47Z</time>
      </trkpt>
      <trkpt lat="46.11825" lon="4.58589">
        <ele>476.4</ele>
        <time>2020-10-19T12:12:48Z</time>
      </trkpt>
      <trkpt lat="46.11828" lon="4.58587">
        <ele>476.4</ele>
        <time>2020-10-19T12:12:49Z</time>
      </trkpt>
      <trkpt lat="46.11828" lon="4.58587">
        <ele>476.4</ele>
        <time>2020-10-19T12:12:50Z</time>
      </trkpt>
      <trkpt lat="46.1183" lon="4.58586">
        <ele>476.4</ele>
        <time>2020-10-19T12:12:51Z</time>
      </trkpt>
      <trkpt lat="46.1183" lon="4.58586">
        <ele>476.4</ele>
        <time>2020-10-19T12:12:52Z</time>
      </trkpt>
      <trkpt lat="46.11832" lon="4.58585">
        <ele>476.4</ele>
        <time>2020-10-19T12:12:53Z</time>
      </trkpt>
      <trkpt lat="46.11832" lon="4.58585">
        <ele>476.6</ele>
        <time>2020-10-19T12:12:54Z</time>
      </trkpt>
      <trkpt lat="46.11835" lon="4.58585">
        <ele>476.6</ele>
        <time>2020-10-19T12:12:55Z</time>
      </trkpt>
      <trkpt lat="46.11835" lon="4.58585">
        <ele>477</ele>
        <time>2020-10-19T12:12:56Z</time>
      </trkpt>
      <trkpt lat="46.11835" lon="4.58585">
        <ele>477.4</ele>
        <time>2020-10-19T12:12:57Z</time>
      </trkpt>
      <trkpt lat="46.11835" lon="4.58585">
        <ele>477.6</ele>
        <time>2020-10-19T12:12:58Z</time>
      </trkpt>
      <trkpt lat="46.11835" lon="4.58585">
        <ele>477.8</ele>
        <time>2020-10-19T12:12:59Z</time>
      </trkpt>
      <trkpt lat="46.11836" lon="4.58584">
        <ele>477.8</ele>
        <time>2020-10-19T12:13:00Z</time>
      </trkpt>
      <trkpt lat="46.11836" lon="4.58584">
        <ele>477.4</ele>
        <time>2020-10-19T12:13:01Z</time>
      </trkpt>
      <trkpt lat="46.11838" lon="4.58582">
        <ele>477.4</ele>
        <time>2020-10-19T12:13:02Z</time>
      </trkpt>
      <trkpt lat="46.11838" lon="4.58582">
        <ele>477.2</ele>
        <time>2020-10-19T12:13:03Z</time>
      </trkpt>
      <trkpt lat="46.11841" lon="4.5858">
        <ele>476.8</ele>
        <time>2020-10-19T12:13:04Z</time>
      </trkpt>
      <trkpt lat="46.11841" lon="4.5858">
        <ele>476.8</ele>
        <time>2020-10-19T12:13:05Z</time>
      </trkpt>
      <trkpt lat="46.11843" lon="4.58578">
        <ele>476.6</ele>
        <time>2020-10-19T12:13:06Z</time>
      </trkpt>
      <trkpt lat="46.11843" lon="4.58578">
        <ele>476.6</ele>
        <time>2020-10-19T12:13:07Z</time>
      </trkpt>
      <trkpt lat="46.11846" lon="4.58576">
        <ele>476.4</ele>
        <time>2020-10-19T12:13:08Z</time>
      </trkpt>
      <trkpt lat="46.11846" lon="4.58576">
        <ele>476.4</ele>
        <time>2020-10-19T12:13:09Z</time>
      </trkpt>
      <trkpt lat="46.11848" lon="4.58574">
        <ele>476.4</ele>
        <time>2020-10-19T12:13:10Z</time>
      </trkpt>
      <trkpt lat="46.11848" lon="4.58574">
        <ele>476.4</ele>
        <time>2020-10-19T12:13:11Z</time>
      </trkpt>
      <trkpt lat="46.11851" lon="4.58571">
        <ele>476.6</ele>
        <time>2020-10-19T12:13:12Z</time>
      </trkpt>
      <trkpt lat="46.11851" lon="4.58571">
        <ele>476.6</ele>
        <time>2020-10-19T12:13:13Z</time>
      </trkpt>
      <trkpt lat="46.11853" lon="4.58568">
        <ele>476.8</ele>
        <time>2020-10-19T12:13:14Z</time>
      </trkpt>
      <trkpt lat="46.11853" lon="4.58568">
        <ele>477</ele>
        <time>2020-10-19T12:13:15Z</time>
      </trkpt>
      <trkpt lat="46.11855" lon="4.58566">
        <ele>477</ele>
        <time>2020-10-19T12:13:16Z</time>
      </trkpt>
      <trkpt lat="46.11855" lon="4.58566">
        <ele>477</ele>
        <time>2020-10-19T12:13:17Z</time>
      </trkpt>
      <trkpt lat="46.11858" lon="4.58562">
        <ele>477</ele>
        <time>2020-10-19T12:13:18Z</time>
      </trkpt>
      <trkpt lat="46.11858" lon="4.58562">
        <ele>477</ele>
        <time>2020-10-19T12:13:19Z</time>
      </trkpt>
      <trkpt lat="46.1186" lon="4.5856">
        <ele>476.8</ele>
        <time>2020-10-19T12:13:20Z</time>
      </trkpt>
      <trkpt lat="46.1186" lon="4.5856">
        <ele>476.8</ele>
        <time>2020-10-19T12:13:21Z</time>
      </trkpt>
      <trkpt lat="46.11862" lon="4.58557">
        <ele>476.8</ele>
        <time>2020-10-19T12:13:22Z</time>
      </trkpt>
      <trkpt lat="46.11862" lon="4.58557">
        <ele>477</ele>
        <time>2020-10-19T12:13:23Z</time>
      </trkpt>
      <trkpt lat="46.11864" lon="4.58554">
        <ele>477.2</ele>
        <time>2020-10-19T12:13:24Z</time>
      </trkpt>
      <trkpt lat="46.11864" lon="4.58554">
        <ele>477</ele>
        <time>2020-10-19T12:13:25Z</time>
      </trkpt>
      <trkpt lat="46.11866" lon="4.58551">
        <ele>477</ele>
        <time>2020-10-19T12:13:26Z</time>
      </trkpt>
      <trkpt lat="46.11866" lon="4.58551">
        <ele>477</ele>
        <time>2020-10-19T12:13:27Z</time>
      </trkpt>
      <trkpt lat="46.11868" lon="4.58548">
        <ele>477</ele>
        <time>2020-10-19T12:13:28Z</time>
      </trkpt>
      <trkpt lat="46.11868" lon="4.58548">
        <ele>477</ele>
        <time>2020-10-19T12:13:29Z</time>
      </trkpt>
      <trkpt lat="46.11871" lon="4.58545">
        <ele>477.2</ele>
        <time>2020-10-19T12:13:30Z</time>
      </trkpt>
      <trkpt lat="46.11871" lon="4.58545">
        <ele>477.2</ele>
        <time>2020-10-19T12:13:31Z</time>
      </trkpt>
      <trkpt lat="46.11873" lon="4.58541">
        <ele>477.4</ele>
        <time>2020-10-19T12:13:32Z</time>
      </trkpt>
      <trkpt lat="46.11873" lon="4.58541">
        <ele>477.6</ele>
        <time>2020-10-19T12:13:33Z</time>
      </trkpt>
      <trkpt lat="46.11875" lon="4.58539">
        <ele>477.8</ele>
        <time>2020-10-19T12:13:34Z</time>
      </trkpt>
      <trkpt lat="46.11875" lon="4.58539">
        <ele>477.6</ele>
        <time>2020-10-19T12:13:35Z</time>
      </trkpt>
      <trkpt lat="46.11877" lon="4.58535">
        <ele>477.8</ele>
        <time>2020-10-19T12:13:36Z</time>
      </trkpt>
      <trkpt lat="46.11877" lon="4.58535">
        <ele>477.6</ele>
        <time>2020-10-19T12:13:37Z</time>
      </trkpt>
      <trkpt lat="46.11879" lon="4.58533">
        <ele>477.6</ele>
        <time>2020-10-19T12:13:38Z</time>
      </trkpt>
      <trkpt lat="46.11879" lon="4.58533">
        <ele>477.6</ele>
        <time>2020-10-19T12:13:39Z</time>
      </trkpt>
      <trkpt lat="46.11881" lon="4.5853">
        <ele>477.8</ele>
        <time>2020-10-19T12:13:40Z</time>
      </trkpt>
      <trkpt lat="46.11881" lon="4.5853">
        <ele>478</ele>
        <time>2020-10-19T12:13:41Z</time>
      </trkpt>
      <trkpt lat="46.11883" lon="4.58527">
        <ele>478</ele>
        <time>2020-10-19T12:13:42Z</time>
      </trkpt>
      <trkpt lat="46.11883" lon="4.58527">
        <ele>478.2</ele>
        <time>2020-10-19T12:13:43Z</time>
      </trkpt>
      <trkpt lat="46.11884" lon="4.58523">
        <ele>478.4</ele>
        <time>2020-10-19T12:13:44Z</time>
      </trkpt>
      <trkpt lat="46.11884" lon="4.58523">
        <ele>478.2</ele>
        <time>2020-10-19T12:13:45Z</time>
      </trkpt>
      <trkpt lat="46.11886" lon="4.58519">
        <ele>478.4</ele>
        <time>2020-10-19T12:13:46Z</time>
      </trkpt>
      <trkpt lat="46.11886" lon="4.58519">
        <ele>478.4</ele>
        <time>2020-10-19T12:13:47Z</time>
      </trkpt>
      <trkpt lat="46.11888" lon="4.58516">
        <ele>478.4</ele>
        <time>2020-10-19T12:13:48Z</time>
      </trkpt>
      <trkpt lat="46.11888" lon="4.58516">
        <ele>478.4</ele>
        <time>2020-10-19T12:13:49Z</time>
      </trkpt>
      <trkpt lat="46.11889" lon="4.58512">
        <ele>478.4</ele>
        <time>2020-10-19T12:13:50Z</time>
      </trkpt>
      <trkpt lat="46.11889" lon="4.58512">
        <ele>478.6</ele>
        <time>2020-10-19T12:13:51Z</time>
      </trkpt>
      <trkpt lat="46.11891" lon="4.58508">
        <ele>478.8</ele>
        <time>2020-10-19T12:13:52Z</time>
      </trkpt>
      <trkpt lat="46.11891" lon="4.58508">
        <ele>478.6</ele>
        <time>2020-10-19T12:13:53Z</time>
      </trkpt>
      <trkpt lat="46.11892" lon="4.58504">
        <ele>478.8</ele>
        <time>2020-10-19T12:13:54Z</time>
      </trkpt>
      <trkpt lat="46.11892" lon="4.58504">
        <ele>478.8</ele>
        <time>2020-10-19T12:13:55Z</time>
      </trkpt>
      <trkpt lat="46.11892" lon="4.58501">
        <ele>479</ele>
        <time>2020-10-19T12:13:56Z</time>
      </trkpt>
      <trkpt lat="46.11892" lon="4.58501">
        <ele>479.4</ele>
        <time>2020-10-19T12:13:57Z</time>
      </trkpt>
      <trkpt lat="46.11892" lon="4.58501">
        <ele>479.6</ele>
        <time>2020-10-19T12:13:58Z</time>
      </trkpt>
      <trkpt lat="46.11892" lon="4.58501">
        <ele>479.8</ele>
        <time>2020-10-19T12:13:59Z</time>
      </trkpt>
      <trkpt lat="46.11892" lon="4.58501">
        <ele>479.8</ele>
        <time>2020-10-19T12:14:00Z</time>
      </trkpt>
      <trkpt lat="46.11892" lon="4.58501">
        <ele>480</ele>
        <time>2020-10-19T12:14:01Z</time>
      </trkpt>
      <trkpt lat="46.11892" lon="4.58501">
        <ele>480.2</ele>
        <time>2020-10-19T12:14:02Z</time>
      </trkpt>
      <trkpt lat="46.11892" lon="4.58499">
        <ele>480</ele>
        <time>2020-10-19T12:14:03Z</time>
      </trkpt>
      <trkpt lat="46.11892" lon="4.58499">
        <ele>480.2</ele>
        <time>2020-10-19T12:14:04Z</time>
      </trkpt>
      <trkpt lat="46.11892" lon="4.58499">
        <ele>480.4</ele>
        <time>2020-10-19T12:14:05Z</time>
      </trkpt>
      <trkpt lat="46.11893" lon="4.58496">
        <ele>480.6</ele>
        <time>2020-10-19T12:14:06Z</time>
      </trkpt>
      <trkpt lat="46.11893" lon="4.58496">
        <ele>480.6</ele>
        <time>2020-10-19T12:14:07Z</time>
      </trkpt>
      <trkpt lat="46.11895" lon="4.58493">
        <ele>480.6</ele>
        <time>2020-10-19T12:14:08Z</time>
      </trkpt>
      <trkpt lat="46.11895" lon="4.58493">
        <ele>480.8</ele>
        <time>2020-10-19T12:14:09Z</time>
      </trkpt>
      <trkpt lat="46.11897" lon="4.58489">
        <ele>480.8</ele>
        <time>2020-10-19T12:14:10Z</time>
      </trkpt>
      <trkpt lat="46.11897" lon="4.58489">
        <ele>480.8</ele>
        <time>2020-10-19T12:14:11Z</time>
      </trkpt>
      <trkpt lat="46.119" lon="4.58487">
        <ele>481</ele>
        <time>2020-10-19T12:14:12Z</time>
      </trkpt>
      <trkpt lat="46.119" lon="4.58487">
        <ele>481.2</ele>
        <time>2020-10-19T12:14:13Z</time>
      </trkpt>
      <trkpt lat="46.11901" lon="4.58484">
        <ele>481.2</ele>
        <time>2020-10-19T12:14:14Z</time>
      </trkpt>
      <trkpt lat="46.11903" lon="4.58482">
        <ele>481.4</ele>
        <time>2020-10-19T12:14:15Z</time>
      </trkpt>
      <trkpt lat="46.11903" lon="4.58482">
        <ele>481.2</ele>
        <time>2020-10-19T12:14:16Z</time>
      </trkpt>
      <trkpt lat="46.11905" lon="4.58479">
        <ele>481.4</ele>
        <time>2020-10-19T12:14:17Z</time>
      </trkpt>
      <trkpt lat="46.11905" lon="4.58479">
        <ele>481.6</ele>
        <time>2020-10-19T12:14:18Z</time>
      </trkpt>
      <trkpt lat="46.11906" lon="4.58477">
        <ele>481.6</ele>
        <time>2020-10-19T12:14:19Z</time>
      </trkpt>
      <trkpt lat="46.11906" lon="4.58475">
        <ele>481.8</ele>
        <time>2020-10-19T12:14:20Z</time>
      </trkpt>
      <trkpt lat="46.11907" lon="4.58474">
        <ele>482</ele>
        <time>2020-10-19T12:14:21Z</time>
      </trkpt>
      <trkpt lat="46.11908" lon="4.58472">
        <ele>482.2</ele>
        <time>2020-10-19T12:14:22Z</time>
      </trkpt>
      <trkpt lat="46.11908" lon="4.5847">
        <ele>482.4</ele>
        <time>2020-10-19T12:14:23Z</time>
      </trkpt>
      <trkpt lat="46.11909" lon="4.58469">
        <ele>482.4</ele>
        <time>2020-10-19T12:14:24Z</time>
      </trkpt>
      <trkpt lat="46.11909" lon="4.58467">
        <ele>482.6</ele>
        <time>2020-10-19T12:14:25Z</time>
      </trkpt>
      <trkpt lat="46.1191" lon="4.58465">
        <ele>482.8</ele>
        <time>2020-10-19T12:14:26Z</time>
      </trkpt>
      <trkpt lat="46.1191" lon="4.58464">
        <ele>483</ele>
        <time>2020-10-19T12:14:27Z</time>
      </trkpt>
      <trkpt lat="46.11911" lon="4.58461">
        <ele>483</ele>
        <time>2020-10-19T12:14:28Z</time>
      </trkpt>
      <trkpt lat="46.11912" lon="4.58459">
        <ele>483.2</ele>
        <time>2020-10-19T12:14:29Z</time>
      </trkpt>
      <trkpt lat="46.11913" lon="4.58457">
        <ele>483.4</ele>
        <time>2020-10-19T12:14:30Z</time>
      </trkpt>
      <trkpt lat="46.11913" lon="4.58454">
        <ele>483.4</ele>
        <time>2020-10-19T12:14:31Z</time>
      </trkpt>
      <trkpt lat="46.11914" lon="4.58452">
        <ele>483.6</ele>
        <time>2020-10-19T12:14:32Z</time>
      </trkpt>
      <trkpt lat="46.11915" lon="4.58451">
        <ele>483.8</ele>
        <time>2020-10-19T12:14:33Z</time>
      </trkpt>
      <trkpt lat="46.11916" lon="4.58449">
        <ele>484.2</ele>
        <time>2020-10-19T12:14:34Z</time>
      </trkpt>
      <trkpt lat="46.11916" lon="4.58448">
        <ele>484.4</ele>
        <time>2020-10-19T12:14:35Z</time>
      </trkpt>
      <trkpt lat="46.11917" lon="4.58446">
        <ele>484.8</ele>
        <time>2020-10-19T12:14:36Z</time>
      </trkpt>
      <trkpt lat="46.11918" lon="4.58445">
        <ele>484.8</ele>
        <time>2020-10-19T12:14:37Z</time>
      </trkpt>
      <trkpt lat="46.11919" lon="4.58443">
        <ele>485</ele>
        <time>2020-10-19T12:14:38Z</time>
      </trkpt>
      <trkpt lat="46.11919" lon="4.58442">
        <ele>485.2</ele>
        <time>2020-10-19T12:14:39Z</time>
      </trkpt>
      <trkpt lat="46.1192" lon="4.58441">
        <ele>485.4</ele>
        <time>2020-10-19T12:14:40Z</time>
      </trkpt>
      <trkpt lat="46.1192" lon="4.58439">
        <ele>485.6</ele>
        <time>2020-10-19T12:14:41Z</time>
      </trkpt>
      <trkpt lat="46.11921" lon="4.58438">
        <ele>485.6</ele>
        <time>2020-10-19T12:14:42Z</time>
      </trkpt>
      <trkpt lat="46.11921" lon="4.58436">
        <ele>485.8</ele>
        <time>2020-10-19T12:14:43Z</time>
      </trkpt>
      <trkpt lat="46.11921" lon="4.58435">
        <ele>486</ele>
        <time>2020-10-19T12:14:44Z</time>
      </trkpt>
      <trkpt lat="46.11922" lon="4.58434">
        <ele>486.2</ele>
        <time>2020-10-19T12:14:45Z</time>
      </trkpt>
      <trkpt lat="46.11922" lon="4.58432">
        <ele>486.4</ele>
        <time>2020-10-19T12:14:46Z</time>
      </trkpt>
      <trkpt lat="46.11923" lon="4.58431">
        <ele>486.6</ele>
        <time>2020-10-19T12:14:47Z</time>
      </trkpt>
      <trkpt lat="46.11923" lon="4.58429">
        <ele>486.6</ele>
        <time>2020-10-19T12:14:48Z</time>
      </trkpt>
      <trkpt lat="46.11923" lon="4.58428">
        <ele>487</ele>
        <time>2020-10-19T12:14:49Z</time>
      </trkpt>
      <trkpt lat="46.11923" lon="4.58428">
        <ele>487</ele>
        <time>2020-10-19T12:14:50Z</time>
      </trkpt>
      <trkpt lat="46.11923" lon="4.58428">
        <ele>487.2</ele>
        <time>2020-10-19T12:14:51Z</time>
      </trkpt>
      <trkpt lat="46.11925" lon="4.58426">
        <ele>487.4</ele>
        <time>2020-10-19T12:14:52Z</time>
      </trkpt>
      <trkpt lat="46.11926" lon="4.58424">
        <ele>487.6</ele>
        <time>2020-10-19T12:14:53Z</time>
      </trkpt>
      <trkpt lat="46.11928" lon="4.58423">
        <ele>487.8</ele>
        <time>2020-10-19T12:14:54Z</time>
      </trkpt>
      <trkpt lat="46.11929" lon="4.58422">
        <ele>488.2</ele>
        <time>2020-10-19T12:14:55Z</time>
      </trkpt>
      <trkpt lat="46.11929" lon="4.58422">
        <ele>488.2</ele>
        <time>2020-10-19T12:14:56Z</time>
      </trkpt>
      <trkpt lat="46.11932" lon="4.58419">
        <ele>488.4</ele>
        <time>2020-10-19T12:14:57Z</time>
      </trkpt>
      <trkpt lat="46.11932" lon="4.58419">
        <ele>488.4</ele>
        <time>2020-10-19T12:14:58Z</time>
      </trkpt>
      <trkpt lat="46.11933" lon="4.58416">
        <ele>488.6</ele>
        <time>2020-10-19T12:14:59Z</time>
      </trkpt>
      <trkpt lat="46.11935" lon="4.58414">
        <ele>489</ele>
        <time>2020-10-19T12:15:00Z</time>
      </trkpt>
      <trkpt lat="46.11936" lon="4.58412">
        <ele>489.2</ele>
        <time>2020-10-19T12:15:01Z</time>
      </trkpt>
      <trkpt lat="46.11938" lon="4.58411">
        <ele>489.2</ele>
        <time>2020-10-19T12:15:02Z</time>
      </trkpt>
      <trkpt lat="46.11938" lon="4.58411">
        <ele>489.2</ele>
        <time>2020-10-19T12:15:03Z</time>
      </trkpt>
      <trkpt lat="46.11941" lon="4.58408">
        <ele>489.6</ele>
        <time>2020-10-19T12:15:04Z</time>
      </trkpt>
      <trkpt lat="46.11942" lon="4.58406">
        <ele>489.6</ele>
        <time>2020-10-19T12:15:05Z</time>
      </trkpt>
      <trkpt lat="46.11944" lon="4.58405">
        <ele>489.8</ele>
        <time>2020-10-19T12:15:06Z</time>
      </trkpt>
      <trkpt lat="46.11947" lon="4.58404">
        <ele>490</ele>
        <time>2020-10-19T12:15:07Z</time>
      </trkpt>
      <trkpt lat="46.11947" lon="4.58404">
        <ele>490</ele>
        <time>2020-10-19T12:15:08Z</time>
      </trkpt>
      <trkpt lat="46.11949" lon="4.58402">
        <ele>490</ele>
        <time>2020-10-19T12:15:09Z</time>
      </trkpt>
      <trkpt lat="46.11949" lon="4.58402">
        <ele>490.2</ele>
        <time>2020-10-19T12:15:10Z</time>
      </trkpt>
      <trkpt lat="46.11951" lon="4.58399">
        <ele>490.4</ele>
        <time>2020-10-19T12:15:11Z</time>
      </trkpt>
      <trkpt lat="46.11951" lon="4.58399">
        <ele>490.8</ele>
        <time>2020-10-19T12:15:12Z</time>
      </trkpt>
      <trkpt lat="46.11954" lon="4.58398">
        <ele>491</ele>
        <time>2020-10-19T12:15:13Z</time>
      </trkpt>
      <trkpt lat="46.11954" lon="4.58398">
        <ele>491</ele>
        <time>2020-10-19T12:15:14Z</time>
      </trkpt>
      <trkpt lat="46.11956" lon="4.58397">
        <ele>491.4</ele>
        <time>2020-10-19T12:15:15Z</time>
      </trkpt>
      <trkpt lat="46.11956" lon="4.58397">
        <ele>491.6</ele>
        <time>2020-10-19T12:15:16Z</time>
      </trkpt>
      <trkpt lat="46.11958" lon="4.58395">
        <ele>491.8</ele>
        <time>2020-10-19T12:15:17Z</time>
      </trkpt>
      <trkpt lat="46.11958" lon="4.58395">
        <ele>491.6</ele>
        <time>2020-10-19T12:15:18Z</time>
      </trkpt>
      <trkpt lat="46.1196" lon="4.58394">
        <ele>492.2</ele>
        <time>2020-10-19T12:15:19Z</time>
      </trkpt>
      <trkpt lat="46.1196" lon="4.58394">
        <ele>492.2</ele>
        <time>2020-10-19T12:15:20Z</time>
      </trkpt>
      <trkpt lat="46.11963" lon="4.58394">
        <ele>492.4</ele>
        <time>2020-10-19T12:15:21Z</time>
      </trkpt>
      <trkpt lat="46.11963" lon="4.58394">
        <ele>492.6</ele>
        <time>2020-10-19T12:15:22Z</time>
      </trkpt>
      <trkpt lat="46.11966" lon="4.58391">
        <ele>492.6</ele>
        <time>2020-10-19T12:15:23Z</time>
      </trkpt>
      <trkpt lat="46.11968" lon="4.5839">
        <ele>492.8</ele>
        <time>2020-10-19T12:15:24Z</time>
      </trkpt>
      <trkpt lat="46.11968" lon="4.5839">
        <ele>493</ele>
        <time>2020-10-19T12:15:25Z</time>
      </trkpt>
      <trkpt lat="46.11971" lon="4.58389">
        <ele>493.2</ele>
        <time>2020-10-19T12:15:26Z</time>
      </trkpt>
      <trkpt lat="46.11971" lon="4.58389">
        <ele>493.4</ele>
        <time>2020-10-19T12:15:27Z</time>
      </trkpt>
      <trkpt lat="46.11974" lon="4.58387">
        <ele>493.6</ele>
        <time>2020-10-19T12:15:28Z</time>
      </trkpt>
      <trkpt lat="46.11976" lon="4.58386">
        <ele>493.8</ele>
        <time>2020-10-19T12:15:29Z</time>
      </trkpt>
      <trkpt lat="46.11976" lon="4.58386">
        <ele>493.8</ele>
        <time>2020-10-19T12:15:30Z</time>
      </trkpt>
      <trkpt lat="46.11979" lon="4.58384">
        <ele>494.2</ele>
        <time>2020-10-19T12:15:31Z</time>
      </trkpt>
      <trkpt lat="46.11979" lon="4.58384">
        <ele>494.4</ele>
        <time>2020-10-19T12:15:32Z</time>
      </trkpt>
      <trkpt lat="46.11982" lon="4.58383">
        <ele>494.4</ele>
        <time>2020-10-19T12:15:33Z</time>
      </trkpt>
      <trkpt lat="46.11983" lon="4.58382">
        <ele>494.8</ele>
        <time>2020-10-19T12:15:34Z</time>
      </trkpt>
      <trkpt lat="46.11983" lon="4.58382">
        <ele>494.8</ele>
        <time>2020-10-19T12:15:35Z</time>
      </trkpt>
      <trkpt lat="46.11986" lon="4.5838">
        <ele>495.2</ele>
        <time>2020-10-19T12:15:36Z</time>
      </trkpt>
      <trkpt lat="46.11988" lon="4.58379">
        <ele>495.2</ele>
        <time>2020-10-19T12:15:37Z</time>
      </trkpt>
      <trkpt lat="46.1199" lon="4.58378">
        <ele>495.4</ele>
        <time>2020-10-19T12:15:38Z</time>
      </trkpt>
      <trkpt lat="46.1199" lon="4.58378">
        <ele>495.4</ele>
        <time>2020-10-19T12:15:39Z</time>
      </trkpt>
      <trkpt lat="46.11993" lon="4.58376">
        <ele>495.6</ele>
        <time>2020-10-19T12:15:40Z</time>
      </trkpt>
      <trkpt lat="46.11993" lon="4.58376">
        <ele>496</ele>
        <time>2020-10-19T12:15:41Z</time>
      </trkpt>
      <trkpt lat="46.11996" lon="4.58376">
        <ele>496.4</ele>
        <time>2020-10-19T12:15:42Z</time>
      </trkpt>
      <trkpt lat="46.11996" lon="4.58376">
        <ele>496.6</ele>
        <time>2020-10-19T12:15:43Z</time>
      </trkpt>
      <trkpt lat="46.11999" lon="4.58377">
        <ele>496.8</ele>
        <time>2020-10-19T12:15:44Z</time>
      </trkpt>
      <trkpt lat="46.11999" lon="4.58377">
        <ele>497</ele>
        <time>2020-10-19T12:15:45Z</time>
      </trkpt>
      <trkpt lat="46.12003" lon="4.58377">
        <ele>496.8</ele>
        <time>2020-10-19T12:15:46Z</time>
      </trkpt>
      <trkpt lat="46.12003" lon="4.58377">
        <ele>497</ele>
        <time>2020-10-19T12:15:47Z</time>
      </trkpt>
      <trkpt lat="46.12006" lon="4.58376">
        <ele>497.2</ele>
        <time>2020-10-19T12:15:48Z</time>
      </trkpt>
      <trkpt lat="46.12006" lon="4.58376">
        <ele>497.4</ele>
        <time>2020-10-19T12:15:49Z</time>
      </trkpt>
      <trkpt lat="46.12009" lon="4.58374">
        <ele>497.8</ele>
        <time>2020-10-19T12:15:50Z</time>
      </trkpt>
      <trkpt lat="46.12011" lon="4.58374">
        <ele>497.8</ele>
        <time>2020-10-19T12:15:51Z</time>
      </trkpt>
      <trkpt lat="46.12011" lon="4.58374">
        <ele>498</ele>
        <time>2020-10-19T12:15:52Z</time>
      </trkpt>
      <trkpt lat="46.12014" lon="4.58372">
        <ele>498.4</ele>
        <time>2020-10-19T12:15:53Z</time>
      </trkpt>
      <trkpt lat="46.12014" lon="4.58372">
        <ele>498.6</ele>
        <time>2020-10-19T12:15:54Z</time>
      </trkpt>
      <trkpt lat="46.12017" lon="4.58371">
        <ele>498.8</ele>
        <time>2020-10-19T12:15:55Z</time>
      </trkpt>
      <trkpt lat="46.12017" lon="4.58371">
        <ele>498.8</ele>
        <time>2020-10-19T12:15:56Z</time>
      </trkpt>
      <trkpt lat="46.1202" lon="4.58371">
        <ele>499.2</ele>
        <time>2020-10-19T12:15:57Z</time>
      </trkpt>
      <trkpt lat="46.1202" lon="4.58371">
        <ele>499.2</ele>
        <time>2020-10-19T12:15:58Z</time>
      </trkpt>
      <trkpt lat="46.12023" lon="4.5837">
        <ele>499.4</ele>
        <time>2020-10-19T12:15:59Z</time>
      </trkpt>
      <trkpt lat="46.12025" lon="4.58371">
        <ele>499.8</ele>
        <time>2020-10-19T12:16:00Z</time>
      </trkpt>
      <trkpt lat="46.12025" lon="4.58371">
        <ele>500</ele>
        <time>2020-10-19T12:16:01Z</time>
      </trkpt>
      <trkpt lat="46.12029" lon="4.58371">
        <ele>500.4</ele>
        <time>2020-10-19T12:16:02Z</time>
      </trkpt>
      <trkpt lat="46.12029" lon="4.58371">
        <ele>500.6</ele>
        <time>2020-10-19T12:16:03Z</time>
      </trkpt>
      <trkpt lat="46.12032" lon="4.58371">
        <ele>500.8</ele>
        <time>2020-10-19T12:16:04Z</time>
      </trkpt>
      <trkpt lat="46.12033" lon="4.58371">
        <ele>501.2</ele>
        <time>2020-10-19T12:16:05Z</time>
      </trkpt>
      <trkpt lat="46.12033" lon="4.58371">
        <ele>501.2</ele>
        <time>2020-10-19T12:16:06Z</time>
      </trkpt>
      <trkpt lat="46.12036" lon="4.5837">
        <ele>501.2</ele>
        <time>2020-10-19T12:16:07Z</time>
      </trkpt>
      <trkpt lat="46.12036" lon="4.5837">
        <ele>501.2</ele>
        <time>2020-10-19T12:16:08Z</time>
      </trkpt>
      <trkpt lat="46.12039" lon="4.58369">
        <ele>501.2</ele>
        <time>2020-10-19T12:16:09Z</time>
      </trkpt>
      <trkpt lat="46.12039" lon="4.58369">
        <ele>501.4</ele>
        <time>2020-10-19T12:16:10Z</time>
      </trkpt>
      <trkpt lat="46.12042" lon="4.58369">
        <ele>501.8</ele>
        <time>2020-10-19T12:16:11Z</time>
      </trkpt>
      <trkpt lat="46.12042" lon="4.58369">
        <ele>502</ele>
        <time>2020-10-19T12:16:12Z</time>
      </trkpt>
      <trkpt lat="46.12045" lon="4.58368">
        <ele>502</ele>
        <time>2020-10-19T12:16:13Z</time>
      </trkpt>
      <trkpt lat="46.12045" lon="4.58368">
        <ele>502.2</ele>
        <time>2020-10-19T12:16:14Z</time>
      </trkpt>
      <trkpt lat="46.12048" lon="4.58368">
        <ele>502.2</ele>
        <time>2020-10-19T12:16:15Z</time>
      </trkpt>
      <trkpt lat="46.12048" lon="4.58368">
        <ele>502.8</ele>
        <time>2020-10-19T12:16:16Z</time>
      </trkpt>
      <trkpt lat="46.1205" lon="4.58367">
        <ele>503</ele>
        <time>2020-10-19T12:16:17Z</time>
      </trkpt>
      <trkpt lat="46.1205" lon="4.58367">
        <ele>503</ele>
        <time>2020-10-19T12:16:18Z</time>
      </trkpt>
      <trkpt lat="46.12052" lon="4.58366">
        <ele>502.8</ele>
        <time>2020-10-19T12:16:19Z</time>
      </trkpt>
      <trkpt lat="46.12052" lon="4.58366">
        <ele>503</ele>
        <time>2020-10-19T12:16:20Z</time>
      </trkpt>
      <trkpt lat="46.12054" lon="4.58365">
        <ele>503.2</ele>
        <time>2020-10-19T12:16:21Z</time>
      </trkpt>
      <trkpt lat="46.12054" lon="4.58365">
        <ele>503.4</ele>
        <time>2020-10-19T12:16:22Z</time>
      </trkpt>
      <trkpt lat="46.12056" lon="4.58365">
        <ele>503.8</ele>
        <time>2020-10-19T12:16:23Z</time>
      </trkpt>
      <trkpt lat="46.12056" lon="4.58365">
        <ele>503.8</ele>
        <time>2020-10-19T12:16:24Z</time>
      </trkpt>
      <trkpt lat="46.1206" lon="4.58365">
        <ele>504.2</ele>
        <time>2020-10-19T12:16:25Z</time>
      </trkpt>
      <trkpt lat="46.12062" lon="4.58365">
        <ele>504.2</ele>
        <time>2020-10-19T12:16:26Z</time>
      </trkpt>
      <trkpt lat="46.12064" lon="4.58366">
        <ele>504.2</ele>
        <time>2020-10-19T12:16:27Z</time>
      </trkpt>
      <trkpt lat="46.12064" lon="4.58366">
        <ele>504.2</ele>
        <time>2020-10-19T12:16:28Z</time>
      </trkpt>
      <trkpt lat="46.12067" lon="4.58367">
        <ele>504.4</ele>
        <time>2020-10-19T12:16:29Z</time>
      </trkpt>
      <trkpt lat="46.12067" lon="4.58367">
        <ele>504.4</ele>
        <time>2020-10-19T12:16:30Z</time>
      </trkpt>
      <trkpt lat="46.12069" lon="4.58369">
        <ele>504.4</ele>
        <time>2020-10-19T12:16:31Z</time>
      </trkpt>
      <trkpt lat="46.12069" lon="4.58369">
        <ele>504.4</ele>
        <time>2020-10-19T12:16:32Z</time>
      </trkpt>
      <trkpt lat="46.12073" lon="4.5837">
        <ele>504.2</ele>
        <time>2020-10-19T12:16:33Z</time>
      </trkpt>
      <trkpt lat="46.12073" lon="4.5837">
        <ele>504</ele>
        <time>2020-10-19T12:16:34Z</time>
      </trkpt>
      <trkpt lat="46.12076" lon="4.58372">
        <ele>504</ele>
        <time>2020-10-19T12:16:35Z</time>
      </trkpt>
      <trkpt lat="46.12076" lon="4.58372">
        <ele>504.4</ele>
        <time>2020-10-19T12:16:36Z</time>
      </trkpt>
      <trkpt lat="46.12079" lon="4.58373">
        <ele>504.6</ele>
        <time>2020-10-19T12:16:37Z</time>
      </trkpt>
      <trkpt lat="46.12079" lon="4.58373">
        <ele>504.4</ele>
        <time>2020-10-19T12:16:38Z</time>
      </trkpt>
      <trkpt lat="46.12083" lon="4.58374">
        <ele>504.4</ele>
        <time>2020-10-19T12:16:39Z</time>
      </trkpt>
      <trkpt lat="46.12083" lon="4.58374">
        <ele>504.2</ele>
        <time>2020-10-19T12:16:40Z</time>
      </trkpt>
      <trkpt lat="46.12086" lon="4.58376">
        <ele>504.2</ele>
        <time>2020-10-19T12:16:41Z</time>
      </trkpt>
      <trkpt lat="46.12086" lon="4.58376">
        <ele>504.2</ele>
        <time>2020-10-19T12:16:42Z</time>
      </trkpt>
      <trkpt lat="46.12088" lon="4.58378">
        <ele>504</ele>
        <time>2020-10-19T12:16:43Z</time>
      </trkpt>
      <trkpt lat="46.12088" lon="4.58378">
        <ele>504</ele>
        <time>2020-10-19T12:16:44Z</time>
      </trkpt>
      <trkpt lat="46.12092" lon="4.58381">
        <ele>504</ele>
        <time>2020-10-19T12:16:45Z</time>
      </trkpt>
      <trkpt lat="46.12092" lon="4.58381">
        <ele>503.8</ele>
        <time>2020-10-19T12:16:46Z</time>
      </trkpt>
      <trkpt lat="46.12094" lon="4.58383">
        <ele>503.6</ele>
        <time>2020-10-19T12:16:47Z</time>
      </trkpt>
      <trkpt lat="46.12095" lon="4.58386">
        <ele>504</ele>
        <time>2020-10-19T12:16:48Z</time>
      </trkpt>
      <trkpt lat="46.12096" lon="4.58388">
        <ele>503.8</ele>
        <time>2020-10-19T12:16:49Z</time>
      </trkpt>
      <trkpt lat="46.12096" lon="4.58388">
        <ele>504</ele>
        <time>2020-10-19T12:16:50Z</time>
      </trkpt>
      <trkpt lat="46.12097" lon="4.58392">
        <ele>504</ele>
        <time>2020-10-19T12:16:51Z</time>
      </trkpt>
      <trkpt lat="46.12097" lon="4.58392">
        <ele>504</ele>
        <time>2020-10-19T12:16:52Z</time>
      </trkpt>
      <trkpt lat="46.12099" lon="4.58396">
        <ele>504</ele>
        <time>2020-10-19T12:16:53Z</time>
      </trkpt>
      <trkpt lat="46.12099" lon="4.58396">
        <ele>503.8</ele>
        <time>2020-10-19T12:16:54Z</time>
      </trkpt>
      <trkpt lat="46.121" lon="4.584">
        <ele>503.4</ele>
        <time>2020-10-19T12:16:55Z</time>
      </trkpt>
      <trkpt lat="46.121" lon="4.584">
        <ele>503.4</ele>
        <time>2020-10-19T12:16:56Z</time>
      </trkpt>
      <trkpt lat="46.12101" lon="4.58404">
        <ele>503</ele>
        <time>2020-10-19T12:16:57Z</time>
      </trkpt>
      <trkpt lat="46.12102" lon="4.58407">
        <ele>503.2</ele>
        <time>2020-10-19T12:16:58Z</time>
      </trkpt>
      <trkpt lat="46.12102" lon="4.58407">
        <ele>502.8</ele>
        <time>2020-10-19T12:16:59Z</time>
      </trkpt>
      <trkpt lat="46.12103" lon="4.58411">
        <ele>502.8</ele>
        <time>2020-10-19T12:17:00Z</time>
      </trkpt>
      <trkpt lat="46.12103" lon="4.58411">
        <ele>502.4</ele>
        <time>2020-10-19T12:17:01Z</time>
      </trkpt>
      <trkpt lat="46.12105" lon="4.58415">
        <ele>502.6</ele>
        <time>2020-10-19T12:17:02Z</time>
      </trkpt>
      <trkpt lat="46.12105" lon="4.58415">
        <ele>502.4</ele>
        <time>2020-10-19T12:17:03Z</time>
      </trkpt>
      <trkpt lat="46.12106" lon="4.58418">
        <ele>502.4</ele>
        <time>2020-10-19T12:17:04Z</time>
      </trkpt>
      <trkpt lat="46.12106" lon="4.58418">
        <ele>502.4</ele>
        <time>2020-10-19T12:17:05Z</time>
      </trkpt>
      <trkpt lat="46.12107" lon="4.58422">
        <ele>502.2</ele>
        <time>2020-10-19T12:17:06Z</time>
      </trkpt>
      <trkpt lat="46.12107" lon="4.58422">
        <ele>502</ele>
        <time>2020-10-19T12:17:07Z</time>
      </trkpt>
      <trkpt lat="46.12109" lon="4.58426">
        <ele>502</ele>
        <time>2020-10-19T12:17:08Z</time>
      </trkpt>
      <trkpt lat="46.12109" lon="4.58426">
        <ele>502</ele>
        <time>2020-10-19T12:17:09Z</time>
      </trkpt>
      <trkpt lat="46.12111" lon="4.58429">
        <ele>501.8</ele>
        <time>2020-10-19T12:17:10Z</time>
      </trkpt>
      <trkpt lat="46.12112" lon="4.58432">
        <ele>501.8</ele>
        <time>2020-10-19T12:17:11Z</time>
      </trkpt>
      <trkpt lat="46.12113" lon="4.58434">
        <ele>501.6</ele>
        <time>2020-10-19T12:17:12Z</time>
      </trkpt>
      <trkpt lat="46.12114" lon="4.58436">
        <ele>501.4</ele>
        <time>2020-10-19T12:17:13Z</time>
      </trkpt>
      <trkpt lat="46.12114" lon="4.58436">
        <ele>501.4</ele>
        <time>2020-10-19T12:17:14Z</time>
      </trkpt>
      <trkpt lat="46.12116" lon="4.5844">
        <ele>501.4</ele>
        <time>2020-10-19T12:17:15Z</time>
      </trkpt>
      <trkpt lat="46.12116" lon="4.5844">
        <ele>501.4</ele>
        <time>2020-10-19T12:17:16Z</time>
      </trkpt>
      <trkpt lat="46.12116" lon="4.58444">
        <ele>501.2</ele>
        <time>2020-10-19T12:17:17Z</time>
      </trkpt>
      <trkpt lat="46.12116" lon="4.58444">
        <ele>501</ele>
        <time>2020-10-19T12:17:18Z</time>
      </trkpt>
      <trkpt lat="46.12116" lon="4.58447">
        <ele>501</ele>
        <time>2020-10-19T12:17:19Z</time>
      </trkpt>
      <trkpt lat="46.12116" lon="4.58447">
        <ele>500.8</ele>
        <time>2020-10-19T12:17:20Z</time>
      </trkpt>
      <trkpt lat="46.12118" lon="4.58449">
        <ele>500.8</ele>
        <time>2020-10-19T12:17:21Z</time>
      </trkpt>
      <trkpt lat="46.12118" lon="4.58449">
        <ele>500.6</ele>
        <time>2020-10-19T12:17:22Z</time>
      </trkpt>
      <trkpt lat="46.12121" lon="4.58452">
        <ele>500.4</ele>
        <time>2020-10-19T12:17:23Z</time>
      </trkpt>
      <trkpt lat="46.12121" lon="4.58452">
        <ele>500.4</ele>
        <time>2020-10-19T12:17:24Z</time>
      </trkpt>
      <trkpt lat="46.12123" lon="4.58454">
        <ele>500.4</ele>
        <time>2020-10-19T12:17:25Z</time>
      </trkpt>
      <trkpt lat="46.12123" lon="4.58454">
        <ele>500.2</ele>
        <time>2020-10-19T12:17:26Z</time>
      </trkpt>
      <trkpt lat="46.12126" lon="4.58456">
        <ele>500.4</ele>
        <time>2020-10-19T12:17:27Z</time>
      </trkpt>
      <trkpt lat="46.12126" lon="4.58456">
        <ele>500.6</ele>
        <time>2020-10-19T12:17:28Z</time>
      </trkpt>
      <trkpt lat="46.12128" lon="4.58457">
        <ele>500.6</ele>
        <time>2020-10-19T12:17:29Z</time>
      </trkpt>
      <trkpt lat="46.12128" lon="4.58457">
        <ele>501</ele>
        <time>2020-10-19T12:17:30Z</time>
      </trkpt>
      <trkpt lat="46.1213" lon="4.58459">
        <ele>501</ele>
        <time>2020-10-19T12:17:31Z</time>
      </trkpt>
      <trkpt lat="46.12131" lon="4.5846">
        <ele>501</ele>
        <time>2020-10-19T12:17:32Z</time>
      </trkpt>
      <trkpt lat="46.12131" lon="4.5846">
        <ele>501.2</ele>
        <time>2020-10-19T12:17:33Z</time>
      </trkpt>
      <trkpt lat="46.12134" lon="4.58463">
        <ele>501.2</ele>
        <time>2020-10-19T12:17:34Z</time>
      </trkpt>
      <trkpt lat="46.12135" lon="4.58466">
        <ele>501.4</ele>
        <time>2020-10-19T12:17:35Z</time>
      </trkpt>
      <trkpt lat="46.12136" lon="4.58468">
        <ele>501.4</ele>
        <time>2020-10-19T12:17:36Z</time>
      </trkpt>
      <trkpt lat="46.12137" lon="4.58471">
        <ele>501.4</ele>
        <time>2020-10-19T12:17:37Z</time>
      </trkpt>
      <trkpt lat="46.12137" lon="4.58471">
        <ele>501.6</ele>
        <time>2020-10-19T12:17:38Z</time>
      </trkpt>
      <trkpt lat="46.12139" lon="4.58474">
        <ele>501.6</ele>
        <time>2020-10-19T12:17:39Z</time>
      </trkpt>
      <trkpt lat="46.12139" lon="4.58474">
        <ele>502</ele>
        <time>2020-10-19T12:17:40Z</time>
      </trkpt>
      <trkpt lat="46.12141" lon="4.58478">
        <ele>502.2</ele>
        <time>2020-10-19T12:17:41Z</time>
      </trkpt>
      <trkpt lat="46.12141" lon="4.58478">
        <ele>502.4</ele>
        <time>2020-10-19T12:17:42Z</time>
      </trkpt>
      <trkpt lat="46.12144" lon="4.58481">
        <ele>502.6</ele>
        <time>2020-10-19T12:17:43Z</time>
      </trkpt>
      <trkpt lat="46.12144" lon="4.58481">
        <ele>502.6</ele>
        <time>2020-10-19T12:17:44Z</time>
      </trkpt>
      <trkpt lat="46.12146" lon="4.58483">
        <ele>502.4</ele>
        <time>2020-10-19T12:17:45Z</time>
      </trkpt>
      <trkpt lat="46.12146" lon="4.58483">
        <ele>502.4</ele>
        <time>2020-10-19T12:17:46Z</time>
      </trkpt>
      <trkpt lat="46.12149" lon="4.58486">
        <ele>502.4</ele>
        <time>2020-10-19T12:17:47Z</time>
      </trkpt>
      <trkpt lat="46.12149" lon="4.58486">
        <ele>502.6</ele>
        <time>2020-10-19T12:17:48Z</time>
      </trkpt>
      <trkpt lat="46.12151" lon="4.58489">
        <ele>502.6</ele>
        <time>2020-10-19T12:17:49Z</time>
      </trkpt>
      <trkpt lat="46.12151" lon="4.58489">
        <ele>502.6</ele>
        <time>2020-10-19T12:17:50Z</time>
      </trkpt>
      <trkpt lat="46.12152" lon="4.58493">
        <ele>502.8</ele>
        <time>2020-10-19T12:17:51Z</time>
      </trkpt>
      <trkpt lat="46.12153" lon="4.58496">
        <ele>502.8</ele>
        <time>2020-10-19T12:17:52Z</time>
      </trkpt>
      <trkpt lat="46.12153" lon="4.58496">
        <ele>502.8</ele>
        <time>2020-10-19T12:17:53Z</time>
      </trkpt>
      <trkpt lat="46.12154" lon="4.585">
        <ele>502.8</ele>
        <time>2020-10-19T12:17:54Z</time>
      </trkpt>
      <trkpt lat="46.12155" lon="4.58503">
        <ele>502.8</ele>
        <time>2020-10-19T12:17:55Z</time>
      </trkpt>
      <trkpt lat="46.12155" lon="4.58505">
        <ele>502.8</ele>
        <time>2020-10-19T12:17:56Z</time>
      </trkpt>
      <trkpt lat="46.12156" lon="4.58508">
        <ele>503</ele>
        <time>2020-10-19T12:17:57Z</time>
      </trkpt>
      <trkpt lat="46.12156" lon="4.58508">
        <ele>503.4</ele>
        <time>2020-10-19T12:17:58Z</time>
      </trkpt>
      <trkpt lat="46.12157" lon="4.58512">
        <ele>503.6</ele>
        <time>2020-10-19T12:17:59Z</time>
      </trkpt>
      <trkpt lat="46.12158" lon="4.58514">
        <ele>503.4</ele>
        <time>2020-10-19T12:18:00Z</time>
      </trkpt>
      <trkpt lat="46.12158" lon="4.58514">
        <ele>503.6</ele>
        <time>2020-10-19T12:18:01Z</time>
      </trkpt>
      <trkpt lat="46.12159" lon="4.58519">
        <ele>503.8</ele>
        <time>2020-10-19T12:18:02Z</time>
      </trkpt>
      <trkpt lat="46.12159" lon="4.58519">
        <ele>503.6</ele>
        <time>2020-10-19T12:18:03Z</time>
      </trkpt>
      <trkpt lat="46.12159" lon="4.58523">
        <ele>503.4</ele>
        <time>2020-10-19T12:18:04Z</time>
      </trkpt>
      <trkpt lat="46.12159" lon="4.58523">
        <ele>503.2</ele>
        <time>2020-10-19T12:18:05Z</time>
      </trkpt>
      <trkpt lat="46.1216" lon="4.58527">
        <ele>503.4</ele>
        <time>2020-10-19T12:18:06Z</time>
      </trkpt>
      <trkpt lat="46.1216" lon="4.58527">
        <ele>503.2</ele>
        <time>2020-10-19T12:18:07Z</time>
      </trkpt>
      <trkpt lat="46.12161" lon="4.58531">
        <ele>503.2</ele>
        <time>2020-10-19T12:18:08Z</time>
      </trkpt>
      <trkpt lat="46.12161" lon="4.58531">
        <ele>503.4</ele>
        <time>2020-10-19T12:18:09Z</time>
      </trkpt>
      <trkpt lat="46.12161" lon="4.58536">
        <ele>503.2</ele>
        <time>2020-10-19T12:18:10Z</time>
      </trkpt>
      <trkpt lat="46.12161" lon="4.58536">
        <ele>503.4</ele>
        <time>2020-10-19T12:18:11Z</time>
      </trkpt>
      <trkpt lat="46.12162" lon="4.5854">
        <ele>503.4</ele>
        <time>2020-10-19T12:18:12Z</time>
      </trkpt>
      <trkpt lat="46.12162" lon="4.5854">
        <ele>503.4</ele>
        <time>2020-10-19T12:18:13Z</time>
      </trkpt>
      <trkpt lat="46.12162" lon="4.58544">
        <ele>503.6</ele>
        <time>2020-10-19T12:18:14Z</time>
      </trkpt>
      <trkpt lat="46.12162" lon="4.58544">
        <ele>503.6</ele>
        <time>2020-10-19T12:18:15Z</time>
      </trkpt>
      <trkpt lat="46.12161" lon="4.58548">
        <ele>503.6</ele>
        <time>2020-10-19T12:18:16Z</time>
      </trkpt>
      <trkpt lat="46.12161" lon="4.58548">
        <ele>503.6</ele>
        <time>2020-10-19T12:18:17Z</time>
      </trkpt>
      <trkpt lat="46.12161" lon="4.58548">
        <ele>503.6</ele>
        <time>2020-10-19T12:18:18Z</time>
      </trkpt>
      <trkpt lat="46.12161" lon="4.58551">
        <ele>503.4</ele>
        <time>2020-10-19T12:18:19Z</time>
      </trkpt>
      <trkpt lat="46.12161" lon="4.58551">
        <ele>503.4</ele>
        <time>2020-10-19T12:18:20Z</time>
      </trkpt>
      <trkpt lat="46.12161" lon="4.58554">
        <ele>503.4</ele>
        <time>2020-10-19T12:18:21Z</time>
      </trkpt>
      <trkpt lat="46.12161" lon="4.58554">
        <ele>503.4</ele>
        <time>2020-10-19T12:18:22Z</time>
      </trkpt>
      <trkpt lat="46.12161" lon="4.58558">
        <ele>503.2</ele>
        <time>2020-10-19T12:18:23Z</time>
      </trkpt>
      <trkpt lat="46.12161" lon="4.58558">
        <ele>503.4</ele>
        <time>2020-10-19T12:18:24Z</time>
      </trkpt>
      <trkpt lat="46.12161" lon="4.58562">
        <ele>503.4</ele>
        <time>2020-10-19T12:18:25Z</time>
      </trkpt>
      <trkpt lat="46.12161" lon="4.58562">
        <ele>503.4</ele>
        <time>2020-10-19T12:18:26Z</time>
      </trkpt>
      <trkpt lat="46.12161" lon="4.58567">
        <ele>503.6</ele>
        <time>2020-10-19T12:18:27Z</time>
      </trkpt>
      <trkpt lat="46.12161" lon="4.58567">
        <ele>504</ele>
        <time>2020-10-19T12:18:28Z</time>
      </trkpt>
      <trkpt lat="46.12161" lon="4.58571">
        <ele>503.8</ele>
        <time>2020-10-19T12:18:29Z</time>
      </trkpt>
      <trkpt lat="46.12161" lon="4.58571">
        <ele>503.8</ele>
        <time>2020-10-19T12:18:30Z</time>
      </trkpt>
      <trkpt lat="46.1216" lon="4.58575">
        <ele>503.8</ele>
        <time>2020-10-19T12:18:31Z</time>
      </trkpt>
      <trkpt lat="46.1216" lon="4.58575">
        <ele>503.6</ele>
        <time>2020-10-19T12:18:32Z</time>
      </trkpt>
      <trkpt lat="46.1216" lon="4.58579">
        <ele>503.6</ele>
        <time>2020-10-19T12:18:33Z</time>
      </trkpt>
      <trkpt lat="46.1216" lon="4.58579">
        <ele>503.6</ele>
        <time>2020-10-19T12:18:34Z</time>
      </trkpt>
      <trkpt lat="46.1216" lon="4.58584">
        <ele>503.4</ele>
        <time>2020-10-19T12:18:35Z</time>
      </trkpt>
      <trkpt lat="46.1216" lon="4.58584">
        <ele>503.6</ele>
        <time>2020-10-19T12:18:36Z</time>
      </trkpt>
      <trkpt lat="46.1216" lon="4.58588">
        <ele>503.6</ele>
        <time>2020-10-19T12:18:37Z</time>
      </trkpt>
      <trkpt lat="46.1216" lon="4.58588">
        <ele>503.6</ele>
        <time>2020-10-19T12:18:38Z</time>
      </trkpt>
      <trkpt lat="46.1216" lon="4.58592">
        <ele>503.6</ele>
        <time>2020-10-19T12:18:39Z</time>
      </trkpt>
      <trkpt lat="46.1216" lon="4.58592">
        <ele>503.4</ele>
        <time>2020-10-19T12:18:40Z</time>
      </trkpt>
      <trkpt lat="46.12161" lon="4.58597">
        <ele>503.6</ele>
        <time>2020-10-19T12:18:41Z</time>
      </trkpt>
      <trkpt lat="46.12161" lon="4.58597">
        <ele>503.6</ele>
        <time>2020-10-19T12:18:42Z</time>
      </trkpt>
      <trkpt lat="46.1216" lon="4.58602">
        <ele>504</ele>
        <time>2020-10-19T12:18:43Z</time>
      </trkpt>
      <trkpt lat="46.1216" lon="4.58602">
        <ele>504</ele>
        <time>2020-10-19T12:18:44Z</time>
      </trkpt>
      <trkpt lat="46.1216" lon="4.58606">
        <ele>504.4</ele>
        <time>2020-10-19T12:18:45Z</time>
      </trkpt>
      <trkpt lat="46.1216" lon="4.58606">
        <ele>504.2</ele>
        <time>2020-10-19T12:18:46Z</time>
      </trkpt>
      <trkpt lat="46.12159" lon="4.5861">
        <ele>504.2</ele>
        <time>2020-10-19T12:18:47Z</time>
      </trkpt>
      <trkpt lat="46.12159" lon="4.5861">
        <ele>504.2</ele>
        <time>2020-10-19T12:18:48Z</time>
      </trkpt>
      <trkpt lat="46.12158" lon="4.58613">
        <ele>504</ele>
        <time>2020-10-19T12:18:49Z</time>
      </trkpt>
      <trkpt lat="46.12158" lon="4.58613">
        <ele>504</ele>
        <time>2020-10-19T12:18:50Z</time>
      </trkpt>
      <trkpt lat="46.12158" lon="4.58617">
        <ele>504</ele>
        <time>2020-10-19T12:18:51Z</time>
      </trkpt>
      <trkpt lat="46.12158" lon="4.58617">
        <ele>504.2</ele>
        <time>2020-10-19T12:18:52Z</time>
      </trkpt>
      <trkpt lat="46.12157" lon="4.58621">
        <ele>504.2</ele>
        <time>2020-10-19T12:18:53Z</time>
      </trkpt>
      <trkpt lat="46.12157" lon="4.58621">
        <ele>504.2</ele>
        <time>2020-10-19T12:18:54Z</time>
      </trkpt>
      <trkpt lat="46.12157" lon="4.58625">
        <ele>504.4</ele>
        <time>2020-10-19T12:18:55Z</time>
      </trkpt>
      <trkpt lat="46.12157" lon="4.58625">
        <ele>504.6</ele>
        <time>2020-10-19T12:18:56Z</time>
      </trkpt>
      <trkpt lat="46.12156" lon="4.5863">
        <ele>504.6</ele>
        <time>2020-10-19T12:18:57Z</time>
      </trkpt>
      <trkpt lat="46.12156" lon="4.5863">
        <ele>504.6</ele>
        <time>2020-10-19T12:18:58Z</time>
      </trkpt>
      <trkpt lat="46.12155" lon="4.58633">
        <ele>504.6</ele>
        <time>2020-10-19T12:18:59Z</time>
      </trkpt>
      <trkpt lat="46.12155" lon="4.58633">
        <ele>504.8</ele>
        <time>2020-10-19T12:19:00Z</time>
      </trkpt>
      <trkpt lat="46.12155" lon="4.58633">
        <ele>504.8</ele>
        <time>2020-10-19T12:19:01Z</time>
      </trkpt>
      <trkpt lat="46.12155" lon="4.58633">
        <ele>504.8</ele>
        <time>2020-10-19T12:19:02Z</time>
      </trkpt>
      <trkpt lat="46.12155" lon="4.58633">
        <ele>504.8</ele>
        <time>2020-10-19T12:19:03Z</time>
      </trkpt>
      <trkpt lat="46.12155" lon="4.58633">
        <ele>504.8</ele>
        <time>2020-10-19T12:19:04Z</time>
      </trkpt>
      <trkpt lat="46.12155" lon="4.58633">
        <ele>504.8</ele>
        <time>2020-10-19T12:19:05Z</time>
      </trkpt>
      <trkpt lat="46.12155" lon="4.58633">
        <ele>504.6</ele>
        <time>2020-10-19T12:19:06Z</time>
      </trkpt>
      <trkpt lat="46.12155" lon="4.58633">
        <ele>504.4</ele>
        <time>2020-10-19T12:19:07Z</time>
      </trkpt>
      <trkpt lat="46.12155" lon="4.58633">
        <ele>504.4</ele>
        <time>2020-10-19T12:19:08Z</time>
      </trkpt>
      <trkpt lat="46.12155" lon="4.58633">
        <ele>504.4</ele>
        <time>2020-10-19T12:19:09Z</time>
      </trkpt>
      <trkpt lat="46.12155" lon="4.58633">
        <ele>504.6</ele>
        <time>2020-10-19T12:19:10Z</time>
      </trkpt>
      <trkpt lat="46.12155" lon="4.58633">
        <ele>504.4</ele>
        <time>2020-10-19T12:19:11Z</time>
      </trkpt>
      <trkpt lat="46.12155" lon="4.58633">
        <ele>504.4</ele>
        <time>2020-10-19T12:19:12Z</time>
      </trkpt>
      <trkpt lat="46.12155" lon="4.58633">
        <ele>504.2</ele>
        <time>2020-10-19T12:19:13Z</time>
      </trkpt>
      <trkpt lat="46.12155" lon="4.58633">
        <ele>504</ele>
        <time>2020-10-19T12:19:14Z</time>
      </trkpt>
      <trkpt lat="46.12155" lon="4.58633">
        <ele>504</ele>
        <time>2020-10-19T12:19:15Z</time>
      </trkpt>
      <trkpt lat="46.12155" lon="4.58633">
        <ele>504.4</ele>
        <time>2020-10-19T12:19:16Z</time>
      </trkpt>
      <trkpt lat="46.12155" lon="4.58637">
        <ele>504.4</ele>
        <time>2020-10-19T12:19:17Z</time>
      </trkpt>
      <trkpt lat="46.12155" lon="4.58637">
        <ele>504.2</ele>
        <time>2020-10-19T12:19:18Z</time>
      </trkpt>
      <trkpt lat="46.12155" lon="4.5864">
        <ele>504.2</ele>
        <time>2020-10-19T12:19:19Z</time>
      </trkpt>
      <trkpt lat="46.12155" lon="4.5864">
        <ele>504.4</ele>
        <time>2020-10-19T12:19:20Z</time>
      </trkpt>
      <trkpt lat="46.12154" lon="4.58644">
        <ele>504.4</ele>
        <time>2020-10-19T12:19:21Z</time>
      </trkpt>
      <trkpt lat="46.12154" lon="4.58644">
        <ele>504.4</ele>
        <time>2020-10-19T12:19:22Z</time>
      </trkpt>
      <trkpt lat="46.12154" lon="4.58648">
        <ele>504.4</ele>
        <time>2020-10-19T12:19:23Z</time>
      </trkpt>
      <trkpt lat="46.12154" lon="4.58648">
        <ele>504.4</ele>
        <time>2020-10-19T12:19:24Z</time>
      </trkpt>
      <trkpt lat="46.12156" lon="4.58651">
        <ele>504.4</ele>
        <time>2020-10-19T12:19:25Z</time>
      </trkpt>
      <trkpt lat="46.12156" lon="4.58651">
        <ele>504.6</ele>
        <time>2020-10-19T12:19:26Z</time>
      </trkpt>
      <trkpt lat="46.12157" lon="4.58654">
        <ele>504.6</ele>
        <time>2020-10-19T12:19:27Z</time>
      </trkpt>
      <trkpt lat="46.12157" lon="4.58654">
        <ele>504.8</ele>
        <time>2020-10-19T12:19:28Z</time>
      </trkpt>
      <trkpt lat="46.12158" lon="4.58658">
        <ele>504.8</ele>
        <time>2020-10-19T12:19:29Z</time>
      </trkpt>
      <trkpt lat="46.12158" lon="4.58658">
        <ele>505</ele>
        <time>2020-10-19T12:19:30Z</time>
      </trkpt>
      <trkpt lat="46.12159" lon="4.58662">
        <ele>505.4</ele>
        <time>2020-10-19T12:19:31Z</time>
      </trkpt>
      <trkpt lat="46.12159" lon="4.58662">
        <ele>505.4</ele>
        <time>2020-10-19T12:19:32Z</time>
      </trkpt>
      <trkpt lat="46.1216" lon="4.58665">
        <ele>505.6</ele>
        <time>2020-10-19T12:19:33Z</time>
      </trkpt>
      <trkpt lat="46.1216" lon="4.58665">
        <ele>505.8</ele>
        <time>2020-10-19T12:19:34Z</time>
      </trkpt>
      <trkpt lat="46.1216" lon="4.58669">
        <ele>505.8</ele>
        <time>2020-10-19T12:19:35Z</time>
      </trkpt>
      <trkpt lat="46.1216" lon="4.58669">
        <ele>506.2</ele>
        <time>2020-10-19T12:19:36Z</time>
      </trkpt>
      <trkpt lat="46.12161" lon="4.58674">
        <ele>506.2</ele>
        <time>2020-10-19T12:19:37Z</time>
      </trkpt>
      <trkpt lat="46.12161" lon="4.58674">
        <ele>506.4</ele>
        <time>2020-10-19T12:19:38Z</time>
      </trkpt>
      <trkpt lat="46.12161" lon="4.58678">
        <ele>506.4</ele>
        <time>2020-10-19T12:19:39Z</time>
      </trkpt>
      <trkpt lat="46.12161" lon="4.58678">
        <ele>506.8</ele>
        <time>2020-10-19T12:19:40Z</time>
      </trkpt>
      <trkpt lat="46.12162" lon="4.58681">
        <ele>507.2</ele>
        <time>2020-10-19T12:19:41Z</time>
      </trkpt>
      <trkpt lat="46.12162" lon="4.58681">
        <ele>507.4</ele>
        <time>2020-10-19T12:19:42Z</time>
      </trkpt>
      <trkpt lat="46.12163" lon="4.58685">
        <ele>507.8</ele>
        <time>2020-10-19T12:19:43Z</time>
      </trkpt>
      <trkpt lat="46.12163" lon="4.58685">
        <ele>508.2</ele>
        <time>2020-10-19T12:19:44Z</time>
      </trkpt>
      <trkpt lat="46.12164" lon="4.58688">
        <ele>508.6</ele>
        <time>2020-10-19T12:19:45Z</time>
      </trkpt>
      <trkpt lat="46.12164" lon="4.58688">
        <ele>508.8</ele>
        <time>2020-10-19T12:19:46Z</time>
      </trkpt>
      <trkpt lat="46.12165" lon="4.58692">
        <ele>509.2</ele>
        <time>2020-10-19T12:19:47Z</time>
      </trkpt>
      <trkpt lat="46.12165" lon="4.58692">
        <ele>509.4</ele>
        <time>2020-10-19T12:19:48Z</time>
      </trkpt>
      <trkpt lat="46.12166" lon="4.58695">
        <ele>509.6</ele>
        <time>2020-10-19T12:19:49Z</time>
      </trkpt>
      <trkpt lat="46.12166" lon="4.58695">
        <ele>509.8</ele>
        <time>2020-10-19T12:19:50Z</time>
      </trkpt>
      <trkpt lat="46.12167" lon="4.58699">
        <ele>510</ele>
        <time>2020-10-19T12:19:51Z</time>
      </trkpt>
      <trkpt lat="46.12167" lon="4.58699">
        <ele>510.2</ele>
        <time>2020-10-19T12:19:52Z</time>
      </trkpt>
      <trkpt lat="46.12168" lon="4.58702">
        <ele>510.2</ele>
        <time>2020-10-19T12:19:53Z</time>
      </trkpt>
      <trkpt lat="46.12168" lon="4.58702">
        <ele>510.4</ele>
        <time>2020-10-19T12:19:54Z</time>
      </trkpt>
      <trkpt lat="46.12168" lon="4.58705">
        <ele>510.6</ele>
        <time>2020-10-19T12:19:55Z</time>
      </trkpt>
      <trkpt lat="46.12168" lon="4.58705">
        <ele>510.6</ele>
        <time>2020-10-19T12:19:56Z</time>
      </trkpt>
      <trkpt lat="46.12169" lon="4.58708">
        <ele>510.6</ele>
        <time>2020-10-19T12:19:57Z</time>
      </trkpt>
      <trkpt lat="46.12169" lon="4.58708">
        <ele>510.6</ele>
        <time>2020-10-19T12:19:58Z</time>
      </trkpt>
      <trkpt lat="46.12169" lon="4.58712">
        <ele>510.6</ele>
        <time>2020-10-19T12:19:59Z</time>
      </trkpt>
      <trkpt lat="46.1217" lon="4.58715">
        <ele>510.6</ele>
        <time>2020-10-19T12:20:01Z</time>
      </trkpt>
      <trkpt lat="46.1217" lon="4.58715">
        <ele>510.6</ele>
        <time>2020-10-19T12:20:02Z</time>
      </trkpt>
      <trkpt lat="46.12171" lon="4.58719">
        <ele>510.8</ele>
        <time>2020-10-19T12:20:03Z</time>
      </trkpt>
      <trkpt lat="46.12171" lon="4.58719">
        <ele>511</ele>
        <time>2020-10-19T12:20:04Z</time>
      </trkpt>
      <trkpt lat="46.12172" lon="4.58722">
        <ele>511.2</ele>
        <time>2020-10-19T12:20:05Z</time>
      </trkpt>
      <trkpt lat="46.12172" lon="4.58722">
        <ele>511.4</ele>
        <time>2020-10-19T12:20:06Z</time>
      </trkpt>
      <trkpt lat="46.12173" lon="4.58725">
        <ele>511.4</ele>
        <time>2020-10-19T12:20:07Z</time>
      </trkpt>
      <trkpt lat="46.12173" lon="4.58725">
        <ele>511.6</ele>
        <time>2020-10-19T12:20:08Z</time>
      </trkpt>
      <trkpt lat="46.12174" lon="4.58729">
        <ele>511.8</ele>
        <time>2020-10-19T12:20:09Z</time>
      </trkpt>
      <trkpt lat="46.12174" lon="4.58729">
        <ele>511.8</ele>
        <time>2020-10-19T12:20:10Z</time>
      </trkpt>
      <trkpt lat="46.12174" lon="4.58732">
        <ele>512</ele>
        <time>2020-10-19T12:20:11Z</time>
      </trkpt>
      <trkpt lat="46.12174" lon="4.58732">
        <ele>512</ele>
        <time>2020-10-19T12:20:12Z</time>
      </trkpt>
      <trkpt lat="46.12174" lon="4.58732">
        <ele>512.2</ele>
        <time>2020-10-19T12:20:13Z</time>
      </trkpt>
      <trkpt lat="46.12174" lon="4.58732">
        <ele>512.2</ele>
        <time>2020-10-19T12:20:14Z</time>
      </trkpt>
      <trkpt lat="46.12174" lon="4.58732">
        <ele>512</ele>
        <time>2020-10-19T12:20:15Z</time>
      </trkpt>
      <trkpt lat="46.12174" lon="4.58732">
        <ele>512</ele>
        <time>2020-10-19T12:20:16Z</time>
      </trkpt>
      <trkpt lat="46.12174" lon="4.58735">
        <ele>512.2</ele>
        <time>2020-10-19T12:20:17Z</time>
      </trkpt>
      <trkpt lat="46.12174" lon="4.58735">
        <ele>512.2</ele>
        <time>2020-10-19T12:20:18Z</time>
      </trkpt>
      <trkpt lat="46.12174" lon="4.58735">
        <ele>512.2</ele>
        <time>2020-10-19T12:20:19Z</time>
      </trkpt>
      <trkpt lat="46.12174" lon="4.58735">
        <ele>512</ele>
        <time>2020-10-19T12:20:20Z</time>
      </trkpt>
      <trkpt lat="46.12174" lon="4.58735">
        <ele>511.8</ele>
        <time>2020-10-19T12:20:21Z</time>
      </trkpt>
      <trkpt lat="46.12174" lon="4.58735">
        <ele>511.8</ele>
        <time>2020-10-19T12:20:22Z</time>
      </trkpt>
      <trkpt lat="46.12174" lon="4.58735">
        <ele>511.6</ele>
        <time>2020-10-19T12:20:23Z</time>
      </trkpt>
      <trkpt lat="46.12174" lon="4.58735">
        <ele>511.6</ele>
        <time>2020-10-19T12:20:24Z</time>
      </trkpt>
      <trkpt lat="46.12174" lon="4.58735">
        <ele>511.6</ele>
        <time>2020-10-19T12:20:25Z</time>
      </trkpt>
      <trkpt lat="46.12174" lon="4.58735">
        <ele>511.4</ele>
        <time>2020-10-19T12:20:26Z</time>
      </trkpt>
      <trkpt lat="46.12174" lon="4.58735">
        <ele>511.4</ele>
        <time>2020-10-19T12:20:27Z</time>
      </trkpt>
      <trkpt lat="46.12174" lon="4.58735">
        <ele>511.4</ele>
        <time>2020-10-19T12:20:28Z</time>
      </trkpt>
      <trkpt lat="46.12176" lon="4.58738">
        <ele>511.6</ele>
        <time>2020-10-19T12:20:29Z</time>
      </trkpt>
      <trkpt lat="46.12176" lon="4.58738">
        <ele>511.8</ele>
        <time>2020-10-19T12:20:30Z</time>
      </trkpt>
      <trkpt lat="46.12177" lon="4.5874">
        <ele>512</ele>
        <time>2020-10-19T12:20:31Z</time>
      </trkpt>
      <trkpt lat="46.12177" lon="4.5874">
        <ele>512.2</ele>
        <time>2020-10-19T12:20:32Z</time>
      </trkpt>
      <trkpt lat="46.12178" lon="4.58743">
        <ele>512.4</ele>
        <time>2020-10-19T12:20:33Z</time>
      </trkpt>
      <trkpt lat="46.12178" lon="4.58743">
        <ele>512.6</ele>
        <time>2020-10-19T12:20:34Z</time>
      </trkpt>
      <trkpt lat="46.12179" lon="4.58746">
        <ele>512.8</ele>
        <time>2020-10-19T12:20:35Z</time>
      </trkpt>
      <trkpt lat="46.12179" lon="4.58746">
        <ele>512.8</ele>
        <time>2020-10-19T12:20:36Z</time>
      </trkpt>
      <trkpt lat="46.1218" lon="4.58748">
        <ele>513</ele>
        <time>2020-10-19T12:20:37Z</time>
      </trkpt>
      <trkpt lat="46.1218" lon="4.58748">
        <ele>513.2</ele>
        <time>2020-10-19T12:20:38Z</time>
      </trkpt>
      <trkpt lat="46.12182" lon="4.58751">
        <ele>513.4</ele>
        <time>2020-10-19T12:20:39Z</time>
      </trkpt>
      <trkpt lat="46.12182" lon="4.58751">
        <ele>513.6</ele>
        <time>2020-10-19T12:20:40Z</time>
      </trkpt>
      <trkpt lat="46.12183" lon="4.58754">
        <ele>513.6</ele>
        <time>2020-10-19T12:20:41Z</time>
      </trkpt>
      <trkpt lat="46.12183" lon="4.58754">
        <ele>513.8</ele>
        <time>2020-10-19T12:20:42Z</time>
      </trkpt>
      <trkpt lat="46.12184" lon="4.58758">
        <ele>513.8</ele>
        <time>2020-10-19T12:20:43Z</time>
      </trkpt>
      <trkpt lat="46.12184" lon="4.58758">
        <ele>514</ele>
        <time>2020-10-19T12:20:44Z</time>
      </trkpt>
      <trkpt lat="46.12185" lon="4.5876">
        <ele>514.2</ele>
        <time>2020-10-19T12:20:45Z</time>
      </trkpt>
      <trkpt lat="46.12185" lon="4.5876">
        <ele>514.4</ele>
        <time>2020-10-19T12:20:46Z</time>
      </trkpt>
      <trkpt lat="46.12186" lon="4.58763">
        <ele>514.8</ele>
        <time>2020-10-19T12:20:47Z</time>
      </trkpt>
      <trkpt lat="46.12186" lon="4.58763">
        <ele>514.8</ele>
        <time>2020-10-19T12:20:48Z</time>
      </trkpt>
      <trkpt lat="46.12187" lon="4.58766">
        <ele>515</ele>
        <time>2020-10-19T12:20:49Z</time>
      </trkpt>
      <trkpt lat="46.12187" lon="4.58766">
        <ele>515.2</ele>
        <time>2020-10-19T12:20:50Z</time>
      </trkpt>
      <trkpt lat="46.12188" lon="4.58769">
        <ele>515.2</ele>
        <time>2020-10-19T12:20:51Z</time>
      </trkpt>
      <trkpt lat="46.12188" lon="4.58769">
        <ele>515.6</ele>
        <time>2020-10-19T12:20:52Z</time>
      </trkpt>
      <trkpt lat="46.12188" lon="4.58773">
        <ele>515.6</ele>
        <time>2020-10-19T12:20:53Z</time>
      </trkpt>
      <trkpt lat="46.12188" lon="4.58773">
        <ele>516</ele>
        <time>2020-10-19T12:20:54Z</time>
      </trkpt>
      <trkpt lat="46.12189" lon="4.58776">
        <ele>516.2</ele>
        <time>2020-10-19T12:20:55Z</time>
      </trkpt>
      <trkpt lat="46.12189" lon="4.58776">
        <ele>516.4</ele>
        <time>2020-10-19T12:20:56Z</time>
      </trkpt>
      <trkpt lat="46.12191" lon="4.58779">
        <ele>516.6</ele>
        <time>2020-10-19T12:20:57Z</time>
      </trkpt>
      <trkpt lat="46.12191" lon="4.58779">
        <ele>517</ele>
        <time>2020-10-19T12:20:58Z</time>
      </trkpt>
      <trkpt lat="46.12192" lon="4.58781">
        <ele>517</ele>
        <time>2020-10-19T12:20:59Z</time>
      </trkpt>
      <trkpt lat="46.12192" lon="4.58781">
        <ele>517.2</ele>
        <time>2020-10-19T12:21:00Z</time>
      </trkpt>
      <trkpt lat="46.12193" lon="4.58784">
        <ele>517.2</ele>
        <time>2020-10-19T12:21:01Z</time>
      </trkpt>
      <trkpt lat="46.12193" lon="4.58784">
        <ele>517.6</ele>
        <time>2020-10-19T12:21:02Z</time>
      </trkpt>
      <trkpt lat="46.12194" lon="4.58787">
        <ele>517.6</ele>
        <time>2020-10-19T12:21:03Z</time>
      </trkpt>
      <trkpt lat="46.12194" lon="4.58787">
        <ele>517.6</ele>
        <time>2020-10-19T12:21:04Z</time>
      </trkpt>
      <trkpt lat="46.12195" lon="4.5879">
        <ele>517.8</ele>
        <time>2020-10-19T12:21:05Z</time>
      </trkpt>
      <trkpt lat="46.12195" lon="4.5879">
        <ele>518</ele>
        <time>2020-10-19T12:21:06Z</time>
      </trkpt>
      <trkpt lat="46.12197" lon="4.58793">
        <ele>518.2</ele>
        <time>2020-10-19T12:21:07Z</time>
      </trkpt>
      <trkpt lat="46.12197" lon="4.58793">
        <ele>518.6</ele>
        <time>2020-10-19T12:21:08Z</time>
      </trkpt>
      <trkpt lat="46.12198" lon="4.58795">
        <ele>518.6</ele>
        <time>2020-10-19T12:21:09Z</time>
      </trkpt>
      <trkpt lat="46.12198" lon="4.58795">
        <ele>518.8</ele>
        <time>2020-10-19T12:21:10Z</time>
      </trkpt>
      <trkpt lat="46.12199" lon="4.58798">
        <ele>519</ele>
        <time>2020-10-19T12:21:11Z</time>
      </trkpt>
      <trkpt lat="46.12199" lon="4.58798">
        <ele>519.2</ele>
        <time>2020-10-19T12:21:12Z</time>
      </trkpt>
      <trkpt lat="46.122" lon="4.58801">
        <ele>519.4</ele>
        <time>2020-10-19T12:21:13Z</time>
      </trkpt>
      <trkpt lat="46.122" lon="4.58801">
        <ele>519.6</ele>
        <time>2020-10-19T12:21:14Z</time>
      </trkpt>
      <trkpt lat="46.12201" lon="4.58803">
        <ele>519.6</ele>
        <time>2020-10-19T12:21:15Z</time>
      </trkpt>
      <trkpt lat="46.12201" lon="4.58803">
        <ele>519.8</ele>
        <time>2020-10-19T12:21:16Z</time>
      </trkpt>
      <trkpt lat="46.12202" lon="4.58807">
        <ele>520</ele>
        <time>2020-10-19T12:21:17Z</time>
      </trkpt>
      <trkpt lat="46.12202" lon="4.58807">
        <ele>520.2</ele>
        <time>2020-10-19T12:21:18Z</time>
      </trkpt>
      <trkpt lat="46.12203" lon="4.58811">
        <ele>520.4</ele>
        <time>2020-10-19T12:21:19Z</time>
      </trkpt>
      <trkpt lat="46.12203" lon="4.58811">
        <ele>520.6</ele>
        <time>2020-10-19T12:21:20Z</time>
      </trkpt>
      <trkpt lat="46.12205" lon="4.58814">
        <ele>520.8</ele>
        <time>2020-10-19T12:21:21Z</time>
      </trkpt>
      <trkpt lat="46.12205" lon="4.58814">
        <ele>521</ele>
        <time>2020-10-19T12:21:22Z</time>
      </trkpt>
      <trkpt lat="46.12207" lon="4.58818">
        <ele>520.8</ele>
        <time>2020-10-19T12:21:23Z</time>
      </trkpt>
      <trkpt lat="46.12207" lon="4.58818">
        <ele>521</ele>
        <time>2020-10-19T12:21:24Z</time>
      </trkpt>
      <trkpt lat="46.12208" lon="4.58821">
        <ele>521</ele>
        <time>2020-10-19T12:21:25Z</time>
      </trkpt>
      <trkpt lat="46.12208" lon="4.58821">
        <ele>521.2</ele>
        <time>2020-10-19T12:21:26Z</time>
      </trkpt>
      <trkpt lat="46.1221" lon="4.58825">
        <ele>521.4</ele>
        <time>2020-10-19T12:21:27Z</time>
      </trkpt>
      <trkpt lat="46.1221" lon="4.58825">
        <ele>521.6</ele>
        <time>2020-10-19T12:21:28Z</time>
      </trkpt>
      <trkpt lat="46.12211" lon="4.58828">
        <ele>521.6</ele>
        <time>2020-10-19T12:21:29Z</time>
      </trkpt>
      <trkpt lat="46.12211" lon="4.58828">
        <ele>521.8</ele>
        <time>2020-10-19T12:21:30Z</time>
      </trkpt>
      <trkpt lat="46.12212" lon="4.58831">
        <ele>521.6</ele>
        <time>2020-10-19T12:21:31Z</time>
      </trkpt>
      <trkpt lat="46.12212" lon="4.58831">
        <ele>521.6</ele>
        <time>2020-10-19T12:21:32Z</time>
      </trkpt>
      <trkpt lat="46.12214" lon="4.58834">
        <ele>521.4</ele>
        <time>2020-10-19T12:21:33Z</time>
      </trkpt>
      <trkpt lat="46.12214" lon="4.58834">
        <ele>521.6</ele>
        <time>2020-10-19T12:21:34Z</time>
      </trkpt>
      <trkpt lat="46.12216" lon="4.58837">
        <ele>522</ele>
        <time>2020-10-19T12:21:35Z</time>
      </trkpt>
      <trkpt lat="46.12216" lon="4.58837">
        <ele>522.2</ele>
        <time>2020-10-19T12:21:36Z</time>
      </trkpt>
      <trkpt lat="46.12218" lon="4.5884">
        <ele>522.2</ele>
        <time>2020-10-19T12:21:37Z</time>
      </trkpt>
      <trkpt lat="46.12218" lon="4.5884">
        <ele>522.2</ele>
        <time>2020-10-19T12:21:38Z</time>
      </trkpt>
      <trkpt lat="46.1222" lon="4.58842">
        <ele>522.2</ele>
        <time>2020-10-19T12:21:39Z</time>
      </trkpt>
      <trkpt lat="46.1222" lon="4.58842">
        <ele>522</ele>
        <time>2020-10-19T12:21:40Z</time>
      </trkpt>
      <trkpt lat="46.12222" lon="4.58844">
        <ele>522.2</ele>
        <time>2020-10-19T12:21:41Z</time>
      </trkpt>
      <trkpt lat="46.12222" lon="4.58844">
        <ele>522.4</ele>
        <time>2020-10-19T12:21:42Z</time>
      </trkpt>
      <trkpt lat="46.12223" lon="4.58847">
        <ele>522.4</ele>
        <time>2020-10-19T12:21:43Z</time>
      </trkpt>
      <trkpt lat="46.12223" lon="4.58847">
        <ele>522.4</ele>
        <time>2020-10-19T12:21:44Z</time>
      </trkpt>
      <trkpt lat="46.12225" lon="4.58851">
        <ele>522.6</ele>
        <time>2020-10-19T12:21:45Z</time>
      </trkpt>
      <trkpt lat="46.12225" lon="4.58851">
        <ele>522.8</ele>
        <time>2020-10-19T12:21:46Z</time>
      </trkpt>
      <trkpt lat="46.12227" lon="4.58853">
        <ele>523</ele>
        <time>2020-10-19T12:21:47Z</time>
      </trkpt>
      <trkpt lat="46.12227" lon="4.58853">
        <ele>522.8</ele>
        <time>2020-10-19T12:21:48Z</time>
      </trkpt>
      <trkpt lat="46.12228" lon="4.58856">
        <ele>522.8</ele>
        <time>2020-10-19T12:21:49Z</time>
      </trkpt>
      <trkpt lat="46.12228" lon="4.58856">
        <ele>523</ele>
        <time>2020-10-19T12:21:50Z</time>
      </trkpt>
      <trkpt lat="46.1223" lon="4.58859">
        <ele>523.2</ele>
        <time>2020-10-19T12:21:51Z</time>
      </trkpt>
      <trkpt lat="46.1223" lon="4.58859">
        <ele>523.4</ele>
        <time>2020-10-19T12:21:52Z</time>
      </trkpt>
      <trkpt lat="46.12232" lon="4.58861">
        <ele>523.6</ele>
        <time>2020-10-19T12:21:53Z</time>
      </trkpt>
      <trkpt lat="46.12232" lon="4.58861">
        <ele>523.6</ele>
        <time>2020-10-19T12:21:54Z</time>
      </trkpt>
      <trkpt lat="46.12233" lon="4.58864">
        <ele>523.6</ele>
        <time>2020-10-19T12:21:55Z</time>
      </trkpt>
      <trkpt lat="46.12233" lon="4.58864">
        <ele>524</ele>
        <time>2020-10-19T12:21:56Z</time>
      </trkpt>
      <trkpt lat="46.12235" lon="4.58866">
        <ele>524</ele>
        <time>2020-10-19T12:21:57Z</time>
      </trkpt>
      <trkpt lat="46.12235" lon="4.58866">
        <ele>524.4</ele>
        <time>2020-10-19T12:21:58Z</time>
      </trkpt>
      <trkpt lat="46.12238" lon="4.58868">
        <ele>524.4</ele>
        <time>2020-10-19T12:21:59Z</time>
      </trkpt>
      <trkpt lat="46.12238" lon="4.58868">
        <ele>524.6</ele>
        <time>2020-10-19T12:22:00Z</time>
      </trkpt>
      <trkpt lat="46.1224" lon="4.58871">
        <ele>524.8</ele>
        <time>2020-10-19T12:22:01Z</time>
      </trkpt>
      <trkpt lat="46.1224" lon="4.58871">
        <ele>524.8</ele>
        <time>2020-10-19T12:22:02Z</time>
      </trkpt>
      <trkpt lat="46.12242" lon="4.58873">
        <ele>524.8</ele>
        <time>2020-10-19T12:22:03Z</time>
      </trkpt>
      <trkpt lat="46.12242" lon="4.58873">
        <ele>525</ele>
        <time>2020-10-19T12:22:04Z</time>
      </trkpt>
      <trkpt lat="46.12244" lon="4.58876">
        <ele>525.2</ele>
        <time>2020-10-19T12:22:05Z</time>
      </trkpt>
      <trkpt lat="46.12244" lon="4.58876">
        <ele>525.2</ele>
        <time>2020-10-19T12:22:06Z</time>
      </trkpt>
      <trkpt lat="46.12245" lon="4.58878">
        <ele>525.4</ele>
        <time>2020-10-19T12:22:07Z</time>
      </trkpt>
      <trkpt lat="46.12245" lon="4.58878">
        <ele>525.6</ele>
        <time>2020-10-19T12:22:08Z</time>
      </trkpt>
      <trkpt lat="46.12247" lon="4.5888">
        <ele>525.6</ele>
        <time>2020-10-19T12:22:09Z</time>
      </trkpt>
      <trkpt lat="46.12247" lon="4.5888">
        <ele>526</ele>
        <time>2020-10-19T12:22:10Z</time>
      </trkpt>
      <trkpt lat="46.12249" lon="4.58883">
        <ele>526</ele>
        <time>2020-10-19T12:22:11Z</time>
      </trkpt>
      <trkpt lat="46.12249" lon="4.58883">
        <ele>526.2</ele>
        <time>2020-10-19T12:22:12Z</time>
      </trkpt>
      <trkpt lat="46.12251" lon="4.58885">
        <ele>526.6</ele>
        <time>2020-10-19T12:22:13Z</time>
      </trkpt>
      <trkpt lat="46.12251" lon="4.58885">
        <ele>526.6</ele>
        <time>2020-10-19T12:22:14Z</time>
      </trkpt>
      <trkpt lat="46.12254" lon="4.58888">
        <ele>526.8</ele>
        <time>2020-10-19T12:22:15Z</time>
      </trkpt>
      <trkpt lat="46.12254" lon="4.58888">
        <ele>526.8</ele>
        <time>2020-10-19T12:22:16Z</time>
      </trkpt>
      <trkpt lat="46.12256" lon="4.5889">
        <ele>526.8</ele>
        <time>2020-10-19T12:22:17Z</time>
      </trkpt>
      <trkpt lat="46.12256" lon="4.5889">
        <ele>527.2</ele>
        <time>2020-10-19T12:22:18Z</time>
      </trkpt>
      <trkpt lat="46.12258" lon="4.58892">
        <ele>527.2</ele>
        <time>2020-10-19T12:22:19Z</time>
      </trkpt>
      <trkpt lat="46.12258" lon="4.58892">
        <ele>527.4</ele>
        <time>2020-10-19T12:22:20Z</time>
      </trkpt>
      <trkpt lat="46.1226" lon="4.58896">
        <ele>527.4</ele>
        <time>2020-10-19T12:22:21Z</time>
      </trkpt>
      <trkpt lat="46.1226" lon="4.58896">
        <ele>527.6</ele>
        <time>2020-10-19T12:22:22Z</time>
      </trkpt>
      <trkpt lat="46.12262" lon="4.58898">
        <ele>528</ele>
        <time>2020-10-19T12:22:23Z</time>
      </trkpt>
      <trkpt lat="46.12262" lon="4.58898">
        <ele>528.2</ele>
        <time>2020-10-19T12:22:24Z</time>
      </trkpt>
      <trkpt lat="46.12264" lon="4.58901">
        <ele>528.2</ele>
        <time>2020-10-19T12:22:25Z</time>
      </trkpt>
      <trkpt lat="46.12264" lon="4.58901">
        <ele>528.2</ele>
        <time>2020-10-19T12:22:26Z</time>
      </trkpt>
      <trkpt lat="46.12266" lon="4.58903">
        <ele>528.6</ele>
        <time>2020-10-19T12:22:27Z</time>
      </trkpt>
      <trkpt lat="46.12266" lon="4.58903">
        <ele>528.6</ele>
        <time>2020-10-19T12:22:28Z</time>
      </trkpt>
      <trkpt lat="46.12268" lon="4.58905">
        <ele>528.6</ele>
        <time>2020-10-19T12:22:29Z</time>
      </trkpt>
      <trkpt lat="46.12268" lon="4.58905">
        <ele>528.8</ele>
        <time>2020-10-19T12:22:30Z</time>
      </trkpt>
      <trkpt lat="46.12269" lon="4.58908">
        <ele>528.8</ele>
        <time>2020-10-19T12:22:31Z</time>
      </trkpt>
      <trkpt lat="46.12269" lon="4.58908">
        <ele>528.8</ele>
        <time>2020-10-19T12:22:32Z</time>
      </trkpt>
      <trkpt lat="46.12272" lon="4.5891">
        <ele>529.2</ele>
        <time>2020-10-19T12:22:33Z</time>
      </trkpt>
      <trkpt lat="46.12272" lon="4.5891">
        <ele>529.4</ele>
        <time>2020-10-19T12:22:34Z</time>
      </trkpt>
      <trkpt lat="46.12274" lon="4.58913">
        <ele>529.4</ele>
        <time>2020-10-19T12:22:35Z</time>
      </trkpt>
      <trkpt lat="46.12274" lon="4.58913">
        <ele>529.4</ele>
        <time>2020-10-19T12:22:36Z</time>
      </trkpt>
      <trkpt lat="46.12277" lon="4.58915">
        <ele>529.8</ele>
        <time>2020-10-19T12:22:37Z</time>
      </trkpt>
      <trkpt lat="46.12277" lon="4.58915">
        <ele>529.8</ele>
        <time>2020-10-19T12:22:38Z</time>
      </trkpt>
      <trkpt lat="46.12279" lon="4.58918">
        <ele>530.2</ele>
        <time>2020-10-19T12:22:39Z</time>
      </trkpt>
      <trkpt lat="46.12279" lon="4.58918">
        <ele>530.4</ele>
        <time>2020-10-19T12:22:40Z</time>
      </trkpt>
      <trkpt lat="46.12281" lon="4.5892">
        <ele>530.4</ele>
        <time>2020-10-19T12:22:41Z</time>
      </trkpt>
      <trkpt lat="46.12281" lon="4.5892">
        <ele>530.4</ele>
        <time>2020-10-19T12:22:42Z</time>
      </trkpt>
      <trkpt lat="46.12283" lon="4.58923">
        <ele>530.6</ele>
        <time>2020-10-19T12:22:43Z</time>
      </trkpt>
      <trkpt lat="46.12283" lon="4.58923">
        <ele>530.6</ele>
        <time>2020-10-19T12:22:44Z</time>
      </trkpt>
      <trkpt lat="46.12285" lon="4.58926">
        <ele>530.8</ele>
        <time>2020-10-19T12:22:45Z</time>
      </trkpt>
      <trkpt lat="46.12285" lon="4.58926">
        <ele>531</ele>
        <time>2020-10-19T12:22:46Z</time>
      </trkpt>
      <trkpt lat="46.12288" lon="4.58929">
        <ele>531.2</ele>
        <time>2020-10-19T12:22:47Z</time>
      </trkpt>
      <trkpt lat="46.12288" lon="4.58929">
        <ele>531</ele>
        <time>2020-10-19T12:22:48Z</time>
      </trkpt>
      <trkpt lat="46.1229" lon="4.58932">
        <ele>531.2</ele>
        <time>2020-10-19T12:22:49Z</time>
      </trkpt>
      <trkpt lat="46.1229" lon="4.58932">
        <ele>531.4</ele>
        <time>2020-10-19T12:22:50Z</time>
      </trkpt>
      <trkpt lat="46.12291" lon="4.58935">
        <ele>531.4</ele>
        <time>2020-10-19T12:22:51Z</time>
      </trkpt>
      <trkpt lat="46.12291" lon="4.58935">
        <ele>531.6</ele>
        <time>2020-10-19T12:22:52Z</time>
      </trkpt>
      <trkpt lat="46.12293" lon="4.58938">
        <ele>531.6</ele>
        <time>2020-10-19T12:22:53Z</time>
      </trkpt>
      <trkpt lat="46.12293" lon="4.58938">
        <ele>531.6</ele>
        <time>2020-10-19T12:22:54Z</time>
      </trkpt>
      <trkpt lat="46.12295" lon="4.5894">
        <ele>531.6</ele>
        <time>2020-10-19T12:22:55Z</time>
      </trkpt>
      <trkpt lat="46.12295" lon="4.5894">
        <ele>531.6</ele>
        <time>2020-10-19T12:22:56Z</time>
      </trkpt>
      <trkpt lat="46.12297" lon="4.58943">
        <ele>531.6</ele>
        <time>2020-10-19T12:22:57Z</time>
      </trkpt>
      <trkpt lat="46.12297" lon="4.58943">
        <ele>531.8</ele>
        <time>2020-10-19T12:22:58Z</time>
      </trkpt>
      <trkpt lat="46.123" lon="4.58946">
        <ele>532</ele>
        <time>2020-10-19T12:22:59Z</time>
      </trkpt>
      <trkpt lat="46.123" lon="4.58946">
        <ele>532</ele>
        <time>2020-10-19T12:23:00Z</time>
      </trkpt>
      <trkpt lat="46.12302" lon="4.58948">
        <ele>532.2</ele>
        <time>2020-10-19T12:23:01Z</time>
      </trkpt>
      <trkpt lat="46.12302" lon="4.58948">
        <ele>532.2</ele>
        <time>2020-10-19T12:23:02Z</time>
      </trkpt>
      <trkpt lat="46.12304" lon="4.5895">
        <ele>532.4</ele>
        <time>2020-10-19T12:23:03Z</time>
      </trkpt>
      <trkpt lat="46.12304" lon="4.5895">
        <ele>532.6</ele>
        <time>2020-10-19T12:23:04Z</time>
      </trkpt>
      <trkpt lat="46.12307" lon="4.58953">
        <ele>532.8</ele>
        <time>2020-10-19T12:23:05Z</time>
      </trkpt>
      <trkpt lat="46.12307" lon="4.58953">
        <ele>533</ele>
        <time>2020-10-19T12:23:06Z</time>
      </trkpt>
      <trkpt lat="46.12309" lon="4.58956">
        <ele>533.2</ele>
        <time>2020-10-19T12:23:07Z</time>
      </trkpt>
      <trkpt lat="46.12309" lon="4.58956">
        <ele>533.2</ele>
        <time>2020-10-19T12:23:08Z</time>
      </trkpt>
      <trkpt lat="46.12312" lon="4.58959">
        <ele>533</ele>
        <time>2020-10-19T12:23:09Z</time>
      </trkpt>
      <trkpt lat="46.12312" lon="4.58959">
        <ele>533</ele>
        <time>2020-10-19T12:23:10Z</time>
      </trkpt>
      <trkpt lat="46.12313" lon="4.58961">
        <ele>533</ele>
        <time>2020-10-19T12:23:11Z</time>
      </trkpt>
      <trkpt lat="46.12313" lon="4.58961">
        <ele>533</ele>
        <time>2020-10-19T12:23:12Z</time>
      </trkpt>
      <trkpt lat="46.12313" lon="4.58961">
        <ele>532.6</ele>
        <time>2020-10-19T12:23:13Z</time>
      </trkpt>
      <trkpt lat="46.12313" lon="4.58961">
        <ele>532.6</ele>
        <time>2020-10-19T12:23:14Z</time>
      </trkpt>
      <trkpt lat="46.12313" lon="4.58961">
        <ele>532.6</ele>
        <time>2020-10-19T12:23:15Z</time>
      </trkpt>
      <trkpt lat="46.12313" lon="4.58961">
        <ele>532.6</ele>
        <time>2020-10-19T12:23:16Z</time>
      </trkpt>
      <trkpt lat="46.12313" lon="4.58961">
        <ele>532.2</ele>
        <time>2020-10-19T12:23:17Z</time>
      </trkpt>
      <trkpt lat="46.12313" lon="4.58961">
        <ele>532.4</ele>
        <time>2020-10-19T12:23:18Z</time>
      </trkpt>
      <trkpt lat="46.12313" lon="4.58961">
        <ele>532.2</ele>
        <time>2020-10-19T12:23:19Z</time>
      </trkpt>
      <trkpt lat="46.12313" lon="4.58961">
        <ele>532.2</ele>
        <time>2020-10-19T12:23:20Z</time>
      </trkpt>
      <trkpt lat="46.12313" lon="4.58961">
        <ele>532.2</ele>
        <time>2020-10-19T12:23:21Z</time>
      </trkpt>
      <trkpt lat="46.12313" lon="4.58961">
        <ele>532.2</ele>
        <time>2020-10-19T12:23:22Z</time>
      </trkpt>
      <trkpt lat="46.12313" lon="4.58961">
        <ele>532.2</ele>
        <time>2020-10-19T12:23:23Z</time>
      </trkpt>
      <trkpt lat="46.12313" lon="4.58961">
        <ele>532.2</ele>
        <time>2020-10-19T12:23:24Z</time>
      </trkpt>
      <trkpt lat="46.12313" lon="4.58961">
        <ele>532.2</ele>
        <time>2020-10-19T12:23:25Z</time>
      </trkpt>
      <trkpt lat="46.12313" lon="4.58961">
        <ele>532.2</ele>
        <time>2020-10-19T12:23:26Z</time>
      </trkpt>
      <trkpt lat="46.12313" lon="4.58961">
        <ele>532.2</ele>
        <time>2020-10-19T12:23:27Z</time>
      </trkpt>
      <trkpt lat="46.12313" lon="4.58961">
        <ele>532.2</ele>
        <time>2020-10-19T12:23:28Z</time>
      </trkpt>
      <trkpt lat="46.12313" lon="4.58961">
        <ele>532.2</ele>
        <time>2020-10-19T12:23:29Z</time>
      </trkpt>
      <trkpt lat="46.12313" lon="4.58961">
        <ele>532.2</ele>
        <time>2020-10-19T12:23:30Z</time>
      </trkpt>
      <trkpt lat="46.12315" lon="4.58963">
        <ele>532</ele>
        <time>2020-10-19T12:23:31Z</time>
      </trkpt>
      <trkpt lat="46.12315" lon="4.58963">
        <ele>532</ele>
        <time>2020-10-19T12:23:32Z</time>
      </trkpt>
      <trkpt lat="46.12316" lon="4.58965">
        <ele>532</ele>
        <time>2020-10-19T12:23:33Z</time>
      </trkpt>
      <trkpt lat="46.12316" lon="4.58965">
        <ele>532.2</ele>
        <time>2020-10-19T12:23:34Z</time>
      </trkpt>
      <trkpt lat="46.12319" lon="4.58968">
        <ele>532</ele>
        <time>2020-10-19T12:23:35Z</time>
      </trkpt>
      <trkpt lat="46.12319" lon="4.58968">
        <ele>532</ele>
        <time>2020-10-19T12:23:36Z</time>
      </trkpt>
      <trkpt lat="46.12321" lon="4.5897">
        <ele>531.8</ele>
        <time>2020-10-19T12:23:37Z</time>
      </trkpt>
      <trkpt lat="46.12321" lon="4.5897">
        <ele>532</ele>
        <time>2020-10-19T12:23:38Z</time>
      </trkpt>
      <trkpt lat="46.12323" lon="4.58972">
        <ele>532</ele>
        <time>2020-10-19T12:23:39Z</time>
      </trkpt>
      <trkpt lat="46.12323" lon="4.58972">
        <ele>532</ele>
        <time>2020-10-19T12:23:40Z</time>
      </trkpt>
      <trkpt lat="46.12326" lon="4.58975">
        <ele>532</ele>
        <time>2020-10-19T12:23:41Z</time>
      </trkpt>
      <trkpt lat="46.12326" lon="4.58975">
        <ele>532.2</ele>
        <time>2020-10-19T12:23:42Z</time>
      </trkpt>
      <trkpt lat="46.12328" lon="4.58978">
        <ele>532</ele>
        <time>2020-10-19T12:23:43Z</time>
      </trkpt>
      <trkpt lat="46.12328" lon="4.58978">
        <ele>532.2</ele>
        <time>2020-10-19T12:23:44Z</time>
      </trkpt>
      <trkpt lat="46.12331" lon="4.5898">
        <ele>532.4</ele>
        <time>2020-10-19T12:23:45Z</time>
      </trkpt>
      <trkpt lat="46.12331" lon="4.5898">
        <ele>532.6</ele>
        <time>2020-10-19T12:23:46Z</time>
      </trkpt>
      <trkpt lat="46.12333" lon="4.58983">
        <ele>532.6</ele>
        <time>2020-10-19T12:23:47Z</time>
      </trkpt>
      <trkpt lat="46.12333" lon="4.58983">
        <ele>532.6</ele>
        <time>2020-10-19T12:23:48Z</time>
      </trkpt>
      <trkpt lat="46.12335" lon="4.58985">
        <ele>532.8</ele>
        <time>2020-10-19T12:23:49Z</time>
      </trkpt>
      <trkpt lat="46.12335" lon="4.58985">
        <ele>532.8</ele>
        <time>2020-10-19T12:23:50Z</time>
      </trkpt>
      <trkpt lat="46.12338" lon="4.58986">
        <ele>532.8</ele>
        <time>2020-10-19T12:23:51Z</time>
      </trkpt>
      <trkpt lat="46.12338" lon="4.58986">
        <ele>533.2</ele>
        <time>2020-10-19T12:23:52Z</time>
      </trkpt>
      <trkpt lat="46.12341" lon="4.58988">
        <ele>533.4</ele>
        <time>2020-10-19T12:23:53Z</time>
      </trkpt>
      <trkpt lat="46.12341" lon="4.58988">
        <ele>533.6</ele>
        <time>2020-10-19T12:23:54Z</time>
      </trkpt>
      <trkpt lat="46.12343" lon="4.58991">
        <ele>533.8</ele>
        <time>2020-10-19T12:23:55Z</time>
      </trkpt>
      <trkpt lat="46.12343" lon="4.58991">
        <ele>533.8</ele>
        <time>2020-10-19T12:23:56Z</time>
      </trkpt>
      <trkpt lat="46.12346" lon="4.58994">
        <ele>533.8</ele>
        <time>2020-10-19T12:23:57Z</time>
      </trkpt>
      <trkpt lat="46.12348" lon="4.58995">
        <ele>534</ele>
        <time>2020-10-19T12:23:58Z</time>
      </trkpt>
      <trkpt lat="46.12348" lon="4.58995">
        <ele>534</ele>
        <time>2020-10-19T12:23:59Z</time>
      </trkpt>
      <trkpt lat="46.1235" lon="4.58998">
        <ele>534</ele>
        <time>2020-10-19T12:24:00Z</time>
      </trkpt>
      <trkpt lat="46.1235" lon="4.58998">
        <ele>534</ele>
        <time>2020-10-19T12:24:01Z</time>
      </trkpt>
      <trkpt lat="46.12353" lon="4.59">
        <ele>534.2</ele>
        <time>2020-10-19T12:24:02Z</time>
      </trkpt>
      <trkpt lat="46.12353" lon="4.59">
        <ele>534.2</ele>
        <time>2020-10-19T12:24:03Z</time>
      </trkpt>
      <trkpt lat="46.12355" lon="4.59003">
        <ele>534.4</ele>
        <time>2020-10-19T12:24:04Z</time>
      </trkpt>
      <trkpt lat="46.12355" lon="4.59003">
        <ele>534.4</ele>
        <time>2020-10-19T12:24:05Z</time>
      </trkpt>
      <trkpt lat="46.12357" lon="4.59004">
        <ele>534.6</ele>
        <time>2020-10-19T12:24:06Z</time>
      </trkpt>
      <trkpt lat="46.12357" lon="4.59004">
        <ele>534.6</ele>
        <time>2020-10-19T12:24:07Z</time>
      </trkpt>
      <trkpt lat="46.1236" lon="4.59006">
        <ele>534.6</ele>
        <time>2020-10-19T12:24:08Z</time>
      </trkpt>
      <trkpt lat="46.1236" lon="4.59006">
        <ele>534.6</ele>
        <time>2020-10-19T12:24:09Z</time>
      </trkpt>
      <trkpt lat="46.12363" lon="4.59008">
        <ele>534.6</ele>
        <time>2020-10-19T12:24:10Z</time>
      </trkpt>
      <trkpt lat="46.12363" lon="4.59008">
        <ele>534.6</ele>
        <time>2020-10-19T12:24:11Z</time>
      </trkpt>
      <trkpt lat="46.12365" lon="4.5901">
        <ele>534.6</ele>
        <time>2020-10-19T12:24:12Z</time>
      </trkpt>
      <trkpt lat="46.12365" lon="4.5901">
        <ele>534.4</ele>
        <time>2020-10-19T12:24:13Z</time>
      </trkpt>
      <trkpt lat="46.12367" lon="4.59013">
        <ele>534.4</ele>
        <time>2020-10-19T12:24:14Z</time>
      </trkpt>
      <trkpt lat="46.12367" lon="4.59013">
        <ele>534.2</ele>
        <time>2020-10-19T12:24:15Z</time>
      </trkpt>
      <trkpt lat="46.12369" lon="4.59014">
        <ele>534</ele>
        <time>2020-10-19T12:24:16Z</time>
      </trkpt>
      <trkpt lat="46.12369" lon="4.59014">
        <ele>534</ele>
        <time>2020-10-19T12:24:17Z</time>
      </trkpt>
      <trkpt lat="46.12372" lon="4.59016">
        <ele>533.8</ele>
        <time>2020-10-19T12:24:18Z</time>
      </trkpt>
      <trkpt lat="46.12372" lon="4.59016">
        <ele>533.8</ele>
        <time>2020-10-19T12:24:19Z</time>
      </trkpt>
      <trkpt lat="46.12375" lon="4.59018">
        <ele>534</ele>
        <time>2020-10-19T12:24:20Z</time>
      </trkpt>
      <trkpt lat="46.12375" lon="4.59018">
        <ele>534</ele>
        <time>2020-10-19T12:24:21Z</time>
      </trkpt>
      <trkpt lat="46.12377" lon="4.5902">
        <ele>534.2</ele>
        <time>2020-10-19T12:24:22Z</time>
      </trkpt>
      <trkpt lat="46.12377" lon="4.5902">
        <ele>534.4</ele>
        <time>2020-10-19T12:24:23Z</time>
      </trkpt>
      <trkpt lat="46.12377" lon="4.5902">
        <ele>534.4</ele>
        <time>2020-10-19T12:24:24Z</time>
      </trkpt>
      <trkpt lat="46.12377" lon="4.5902">
        <ele>534.6</ele>
        <time>2020-10-19T12:24:25Z</time>
      </trkpt>
      <trkpt lat="46.12377" lon="4.5902">
        <ele>534.6</ele>
        <time>2020-10-19T12:24:26Z</time>
      </trkpt>
      <trkpt lat="46.12377" lon="4.5902">
        <ele>534.8</ele>
        <time>2020-10-19T12:24:27Z</time>
      </trkpt>
      <trkpt lat="46.12377" lon="4.5902">
        <ele>534.8</ele>
        <time>2020-10-19T12:24:28Z</time>
      </trkpt>
      <trkpt lat="46.12377" lon="4.5902">
        <ele>535</ele>
        <time>2020-10-19T12:24:29Z</time>
      </trkpt>
      <trkpt lat="46.12377" lon="4.5902">
        <ele>535</ele>
        <time>2020-10-19T12:24:30Z</time>
      </trkpt>
      <trkpt lat="46.12377" lon="4.5902">
        <ele>535</ele>
        <time>2020-10-19T12:24:31Z</time>
      </trkpt>
      <trkpt lat="46.12377" lon="4.5902">
        <ele>535.2</ele>
        <time>2020-10-19T12:24:32Z</time>
      </trkpt>
      <trkpt lat="46.12379" lon="4.59022">
        <ele>534.8</ele>
        <time>2020-10-19T12:24:33Z</time>
      </trkpt>
      <trkpt lat="46.12379" lon="4.59022">
        <ele>534.6</ele>
        <time>2020-10-19T12:24:34Z</time>
      </trkpt>
      <trkpt lat="46.12381" lon="4.59023">
        <ele>534.4</ele>
        <time>2020-10-19T12:24:35Z</time>
      </trkpt>
      <trkpt lat="46.12381" lon="4.59023">
        <ele>534</ele>
        <time>2020-10-19T12:24:36Z</time>
      </trkpt>
      <trkpt lat="46.12384" lon="4.59024">
        <ele>534</ele>
        <time>2020-10-19T12:24:37Z</time>
      </trkpt>
      <trkpt lat="46.12384" lon="4.59024">
        <ele>533.8</ele>
        <time>2020-10-19T12:24:38Z</time>
      </trkpt>
      <trkpt lat="46.12387" lon="4.59024">
        <ele>533.8</ele>
        <time>2020-10-19T12:24:39Z</time>
      </trkpt>
      <trkpt lat="46.12387" lon="4.59024">
        <ele>533.8</ele>
        <time>2020-10-19T12:24:40Z</time>
      </trkpt>
      <trkpt lat="46.1239" lon="4.59025">
        <ele>533.8</ele>
        <time>2020-10-19T12:24:41Z</time>
      </trkpt>
      <trkpt lat="46.1239" lon="4.59025">
        <ele>533.8</ele>
        <time>2020-10-19T12:24:42Z</time>
      </trkpt>
      <trkpt lat="46.12393" lon="4.59027">
        <ele>533.4</ele>
        <time>2020-10-19T12:24:43Z</time>
      </trkpt>
      <trkpt lat="46.12393" lon="4.59027">
        <ele>533.4</ele>
        <time>2020-10-19T12:24:44Z</time>
      </trkpt>
      <trkpt lat="46.12396" lon="4.59028">
        <ele>533.2</ele>
        <time>2020-10-19T12:24:45Z</time>
      </trkpt>
      <trkpt lat="46.12396" lon="4.59028">
        <ele>533.4</ele>
        <time>2020-10-19T12:24:46Z</time>
      </trkpt>
      <trkpt lat="46.12399" lon="4.59029">
        <ele>533.2</ele>
        <time>2020-10-19T12:24:47Z</time>
      </trkpt>
      <trkpt lat="46.124" lon="4.59029">
        <ele>533.4</ele>
        <time>2020-10-19T12:24:48Z</time>
      </trkpt>
      <trkpt lat="46.12402" lon="4.5903">
        <ele>533.6</ele>
        <time>2020-10-19T12:24:49Z</time>
      </trkpt>
      <trkpt lat="46.12404" lon="4.59031">
        <ele>533.4</ele>
        <time>2020-10-19T12:24:50Z</time>
      </trkpt>
      <trkpt lat="46.12406" lon="4.59032">
        <ele>533.6</ele>
        <time>2020-10-19T12:24:51Z</time>
      </trkpt>
      <trkpt lat="46.12408" lon="4.59034">
        <ele>533.8</ele>
        <time>2020-10-19T12:24:52Z</time>
      </trkpt>
      <trkpt lat="46.12409" lon="4.59037">
        <ele>533.6</ele>
        <time>2020-10-19T12:24:53Z</time>
      </trkpt>
      <trkpt lat="46.1241" lon="4.59041">
        <ele>533.2</ele>
        <time>2020-10-19T12:24:54Z</time>
      </trkpt>
      <trkpt lat="46.12412" lon="4.59045">
        <ele>533.2</ele>
        <time>2020-10-19T12:24:55Z</time>
      </trkpt>
      <trkpt lat="46.12413" lon="4.59049">
        <ele>532.4</ele>
        <time>2020-10-19T12:24:56Z</time>
      </trkpt>
      <trkpt lat="46.12415" lon="4.59053">
        <ele>532.6</ele>
        <time>2020-10-19T12:24:57Z</time>
      </trkpt>
      <trkpt lat="46.12417" lon="4.59056">
        <ele>531.8</ele>
        <time>2020-10-19T12:24:58Z</time>
      </trkpt>
      <trkpt lat="46.12419" lon="4.59059">
        <ele>531.8</ele>
        <time>2020-10-19T12:24:59Z</time>
      </trkpt>
      <trkpt lat="46.1242" lon="4.59062">
        <ele>531.2</ele>
        <time>2020-10-19T12:25:00Z</time>
      </trkpt>
      <trkpt lat="46.1242" lon="4.59062">
        <ele>531</ele>
        <time>2020-10-19T12:25:01Z</time>
      </trkpt>
      <trkpt lat="46.12422" lon="4.59066">
        <ele>530.8</ele>
        <time>2020-10-19T12:25:02Z</time>
      </trkpt>
      <trkpt lat="46.12422" lon="4.59066">
        <ele>530.6</ele>
        <time>2020-10-19T12:25:03Z</time>
      </trkpt>
      <trkpt lat="46.12424" lon="4.59069">
        <ele>530.6</ele>
        <time>2020-10-19T12:25:04Z</time>
      </trkpt>
      <trkpt lat="46.12424" lon="4.59069">
        <ele>530.8</ele>
        <time>2020-10-19T12:25:05Z</time>
      </trkpt>
      <trkpt lat="46.12424" lon="4.59072">
        <ele>530.8</ele>
        <time>2020-10-19T12:25:06Z</time>
      </trkpt>
      <trkpt lat="46.12424" lon="4.59072">
        <ele>531</ele>
        <time>2020-10-19T12:25:07Z</time>
      </trkpt>
      <trkpt lat="46.12424" lon="4.59072">
        <ele>531.2</ele>
        <time>2020-10-19T12:25:08Z</time>
      </trkpt>
      <trkpt lat="46.12424" lon="4.59072">
        <ele>531.4</ele>
        <time>2020-10-19T12:25:09Z</time>
      </trkpt>
      <trkpt lat="46.12424" lon="4.59072">
        <ele>531.4</ele>
        <time>2020-10-19T12:25:10Z</time>
      </trkpt>
      <trkpt lat="46.12424" lon="4.59072">
        <ele>531.6</ele>
        <time>2020-10-19T12:25:11Z</time>
      </trkpt>
      <trkpt lat="46.12424" lon="4.59072">
        <ele>531.8</ele>
        <time>2020-10-19T12:25:12Z</time>
      </trkpt>
      <trkpt lat="46.12424" lon="4.59072">
        <ele>532</ele>
        <time>2020-10-19T12:25:13Z</time>
      </trkpt>
      <trkpt lat="46.12424" lon="4.59072">
        <ele>531.8</ele>
        <time>2020-10-19T12:25:14Z</time>
      </trkpt>
      <trkpt lat="46.12424" lon="4.59072">
        <ele>531.8</ele>
        <time>2020-10-19T12:25:15Z</time>
      </trkpt>
      <trkpt lat="46.12424" lon="4.59072">
        <ele>531.8</ele>
        <time>2020-10-19T12:25:16Z</time>
      </trkpt>
      <trkpt lat="46.12424" lon="4.59072">
        <ele>531.8</ele>
        <time>2020-10-19T12:25:17Z</time>
      </trkpt>
      <trkpt lat="46.12424" lon="4.59072">
        <ele>531.8</ele>
        <time>2020-10-19T12:25:18Z</time>
      </trkpt>
      <trkpt lat="46.12424" lon="4.59072">
        <ele>531.8</ele>
        <time>2020-10-19T12:25:19Z</time>
      </trkpt>
      <trkpt lat="46.12424" lon="4.59072">
        <ele>531.8</ele>
        <time>2020-10-19T12:25:20Z</time>
      </trkpt>
      <trkpt lat="46.12426" lon="4.59075">
        <ele>531.8</ele>
        <time>2020-10-19T12:25:21Z</time>
      </trkpt>
      <trkpt lat="46.12426" lon="4.59075">
        <ele>531.8</ele>
        <time>2020-10-19T12:25:22Z</time>
      </trkpt>
      <trkpt lat="46.12428" lon="4.59078">
        <ele>532</ele>
        <time>2020-10-19T12:25:23Z</time>
      </trkpt>
      <trkpt lat="46.12428" lon="4.59078">
        <ele>531.8</ele>
        <time>2020-10-19T12:25:24Z</time>
      </trkpt>
      <trkpt lat="46.12429" lon="4.59082">
        <ele>531.8</ele>
        <time>2020-10-19T12:25:25Z</time>
      </trkpt>
      <trkpt lat="46.12429" lon="4.59082">
        <ele>531.8</ele>
        <time>2020-10-19T12:25:26Z</time>
      </trkpt>
      <trkpt lat="46.1243" lon="4.59085">
        <ele>532</ele>
        <time>2020-10-19T12:25:27Z</time>
      </trkpt>
      <trkpt lat="46.1243" lon="4.59085">
        <ele>532.4</ele>
        <time>2020-10-19T12:25:28Z</time>
      </trkpt>
      <trkpt lat="46.12431" lon="4.59089">
        <ele>532.4</ele>
        <time>2020-10-19T12:25:29Z</time>
      </trkpt>
      <trkpt lat="46.12431" lon="4.59089">
        <ele>532.4</ele>
        <time>2020-10-19T12:25:30Z</time>
      </trkpt>
      <trkpt lat="46.12432" lon="4.59093">
        <ele>532.6</ele>
        <time>2020-10-19T12:25:31Z</time>
      </trkpt>
      <trkpt lat="46.12432" lon="4.59093">
        <ele>532.8</ele>
        <time>2020-10-19T12:25:32Z</time>
      </trkpt>
      <trkpt lat="46.12433" lon="4.59097">
        <ele>533</ele>
        <time>2020-10-19T12:25:33Z</time>
      </trkpt>
      <trkpt lat="46.12433" lon="4.59097">
        <ele>533</ele>
        <time>2020-10-19T12:25:34Z</time>
      </trkpt>
      <trkpt lat="46.12435" lon="4.59101">
        <ele>533.2</ele>
        <time>2020-10-19T12:25:35Z</time>
      </trkpt>
      <trkpt lat="46.12435" lon="4.59101">
        <ele>533.4</ele>
        <time>2020-10-19T12:25:36Z</time>
      </trkpt>
      <trkpt lat="46.12436" lon="4.59105">
        <ele>533.4</ele>
        <time>2020-10-19T12:25:37Z</time>
      </trkpt>
      <trkpt lat="46.12436" lon="4.59105">
        <ele>533.4</ele>
        <time>2020-10-19T12:25:38Z</time>
      </trkpt>
      <trkpt lat="46.12437" lon="4.59108">
        <ele>533.4</ele>
        <time>2020-10-19T12:25:39Z</time>
      </trkpt>
      <trkpt lat="46.12437" lon="4.59108">
        <ele>533.4</ele>
        <time>2020-10-19T12:25:40Z</time>
      </trkpt>
      <trkpt lat="46.12438" lon="4.59112">
        <ele>533.6</ele>
        <time>2020-10-19T12:25:41Z</time>
      </trkpt>
      <trkpt lat="46.12438" lon="4.59112">
        <ele>533.6</ele>
        <time>2020-10-19T12:25:42Z</time>
      </trkpt>
      <trkpt lat="46.12438" lon="4.59116">
        <ele>533.6</ele>
        <time>2020-10-19T12:25:43Z</time>
      </trkpt>
      <trkpt lat="46.12438" lon="4.59116">
        <ele>533.8</ele>
        <time>2020-10-19T12:25:44Z</time>
      </trkpt>
      <trkpt lat="46.12439" lon="4.5912">
        <ele>534</ele>
        <time>2020-10-19T12:25:45Z</time>
      </trkpt>
      <trkpt lat="46.12439" lon="4.5912">
        <ele>534.2</ele>
        <time>2020-10-19T12:25:46Z</time>
      </trkpt>
      <trkpt lat="46.1244" lon="4.59123">
        <ele>534.4</ele>
        <time>2020-10-19T12:25:47Z</time>
      </trkpt>
      <trkpt lat="46.1244" lon="4.59123">
        <ele>534.6</ele>
        <time>2020-10-19T12:25:48Z</time>
      </trkpt>
      <trkpt lat="46.12441" lon="4.59125">
        <ele>534.8</ele>
        <time>2020-10-19T12:25:49Z</time>
      </trkpt>
      <trkpt lat="46.12441" lon="4.59125">
        <ele>534.6</ele>
        <time>2020-10-19T12:25:50Z</time>
      </trkpt>
      <trkpt lat="46.12443" lon="4.59129">
        <ele>534.6</ele>
        <time>2020-10-19T12:25:51Z</time>
      </trkpt>
      <trkpt lat="46.12443" lon="4.59129">
        <ele>535</ele>
        <time>2020-10-19T12:25:52Z</time>
      </trkpt>
      <trkpt lat="46.12443" lon="4.59132">
        <ele>535.2</ele>
        <time>2020-10-19T12:25:53Z</time>
      </trkpt>
      <trkpt lat="46.12443" lon="4.59132">
        <ele>535.4</ele>
        <time>2020-10-19T12:25:54Z</time>
      </trkpt>
      <trkpt lat="46.12445" lon="4.59135">
        <ele>535.4</ele>
        <time>2020-10-19T12:25:55Z</time>
      </trkpt>
      <trkpt lat="46.12445" lon="4.59135">
        <ele>535.4</ele>
        <time>2020-10-19T12:25:56Z</time>
      </trkpt>
      <trkpt lat="46.12446" lon="4.59138">
        <ele>535.8</ele>
        <time>2020-10-19T12:25:57Z</time>
      </trkpt>
      <trkpt lat="46.12446" lon="4.59138">
        <ele>536.2</ele>
        <time>2020-10-19T12:25:58Z</time>
      </trkpt>
      <trkpt lat="46.12447" lon="4.59141">
        <ele>536.4</ele>
        <time>2020-10-19T12:25:59Z</time>
      </trkpt>
      <trkpt lat="46.12447" lon="4.59141">
        <ele>536.6</ele>
        <time>2020-10-19T12:26:00Z</time>
      </trkpt>
      <trkpt lat="46.12449" lon="4.59144">
        <ele>536.6</ele>
        <time>2020-10-19T12:26:01Z</time>
      </trkpt>
      <trkpt lat="46.12449" lon="4.59144">
        <ele>537</ele>
        <time>2020-10-19T12:26:02Z</time>
      </trkpt>
      <trkpt lat="46.12451" lon="4.59148">
        <ele>537.2</ele>
        <time>2020-10-19T12:26:03Z</time>
      </trkpt>
      <trkpt lat="46.12451" lon="4.59148">
        <ele>537.2</ele>
        <time>2020-10-19T12:26:04Z</time>
      </trkpt>
      <trkpt lat="46.12452" lon="4.59151">
        <ele>537.6</ele>
        <time>2020-10-19T12:26:05Z</time>
      </trkpt>
      <trkpt lat="46.12452" lon="4.59151">
        <ele>537.8</ele>
        <time>2020-10-19T12:26:06Z</time>
      </trkpt>
      <trkpt lat="46.12453" lon="4.59153">
        <ele>538.2</ele>
        <time>2020-10-19T12:26:07Z</time>
      </trkpt>
      <trkpt lat="46.12453" lon="4.59153">
        <ele>538.4</ele>
        <time>2020-10-19T12:26:08Z</time>
      </trkpt>
      <trkpt lat="46.12453" lon="4.59156">
        <ele>538.4</ele>
        <time>2020-10-19T12:26:09Z</time>
      </trkpt>
      <trkpt lat="46.12453" lon="4.59156">
        <ele>538.8</ele>
        <time>2020-10-19T12:26:10Z</time>
      </trkpt>
      <trkpt lat="46.12455" lon="4.5916">
        <ele>539.2</ele>
        <time>2020-10-19T12:26:11Z</time>
      </trkpt>
      <trkpt lat="46.12455" lon="4.5916">
        <ele>539.4</ele>
        <time>2020-10-19T12:26:12Z</time>
      </trkpt>
      <trkpt lat="46.12456" lon="4.59164">
        <ele>539.4</ele>
        <time>2020-10-19T12:26:13Z</time>
      </trkpt>
      <trkpt lat="46.12456" lon="4.59164">
        <ele>539.4</ele>
        <time>2020-10-19T12:26:14Z</time>
      </trkpt>
      <trkpt lat="46.12458" lon="4.59167">
        <ele>539.8</ele>
        <time>2020-10-19T12:26:15Z</time>
      </trkpt>
      <trkpt lat="46.12458" lon="4.59167">
        <ele>539.8</ele>
        <time>2020-10-19T12:26:16Z</time>
      </trkpt>
      <trkpt lat="46.1246" lon="4.59169">
        <ele>540</ele>
        <time>2020-10-19T12:26:17Z</time>
      </trkpt>
      <trkpt lat="46.1246" lon="4.59169">
        <ele>540.4</ele>
        <time>2020-10-19T12:26:18Z</time>
      </trkpt>
      <trkpt lat="46.12462" lon="4.59172">
        <ele>540.6</ele>
        <time>2020-10-19T12:26:19Z</time>
      </trkpt>
      <trkpt lat="46.12462" lon="4.59172">
        <ele>540.6</ele>
        <time>2020-10-19T12:26:20Z</time>
      </trkpt>
      <trkpt lat="46.12464" lon="4.59175">
        <ele>540.6</ele>
        <time>2020-10-19T12:26:21Z</time>
      </trkpt>
      <trkpt lat="46.12464" lon="4.59175">
        <ele>540.8</ele>
        <time>2020-10-19T12:26:22Z</time>
      </trkpt>
      <trkpt lat="46.12466" lon="4.59178">
        <ele>541</ele>
        <time>2020-10-19T12:26:23Z</time>
      </trkpt>
      <trkpt lat="46.12466" lon="4.59178">
        <ele>541.2</ele>
        <time>2020-10-19T12:26:24Z</time>
      </trkpt>
      <trkpt lat="46.12469" lon="4.5918">
        <ele>541.2</ele>
        <time>2020-10-19T12:26:25Z</time>
      </trkpt>
      <trkpt lat="46.12469" lon="4.5918">
        <ele>541.6</ele>
        <time>2020-10-19T12:26:26Z</time>
      </trkpt>
      <trkpt lat="46.12471" lon="4.59183">
        <ele>541.8</ele>
        <time>2020-10-19T12:26:27Z</time>
      </trkpt>
      <trkpt lat="46.12471" lon="4.59183">
        <ele>542.2</ele>
        <time>2020-10-19T12:26:28Z</time>
      </trkpt>
      <trkpt lat="46.12472" lon="4.59186">
        <ele>542.6</ele>
        <time>2020-10-19T12:26:29Z</time>
      </trkpt>
      <trkpt lat="46.12472" lon="4.59186">
        <ele>542.8</ele>
        <time>2020-10-19T12:26:30Z</time>
      </trkpt>
      <trkpt lat="46.12475" lon="4.59188">
        <ele>542.8</ele>
        <time>2020-10-19T12:26:31Z</time>
      </trkpt>
      <trkpt lat="46.12475" lon="4.59188">
        <ele>543</ele>
        <time>2020-10-19T12:26:32Z</time>
      </trkpt>
      <trkpt lat="46.12477" lon="4.59191">
        <ele>542.8</ele>
        <time>2020-10-19T12:26:33Z</time>
      </trkpt>
      <trkpt lat="46.12477" lon="4.59191">
        <ele>543</ele>
        <time>2020-10-19T12:26:34Z</time>
      </trkpt>
      <trkpt lat="46.12478" lon="4.59195">
        <ele>543.2</ele>
        <time>2020-10-19T12:26:35Z</time>
      </trkpt>
      <trkpt lat="46.12478" lon="4.59195">
        <ele>543.4</ele>
        <time>2020-10-19T12:26:36Z</time>
      </trkpt>
      <trkpt lat="46.1248" lon="4.59198">
        <ele>543.4</ele>
        <time>2020-10-19T12:26:37Z</time>
      </trkpt>
      <trkpt lat="46.1248" lon="4.59198">
        <ele>543.4</ele>
        <time>2020-10-19T12:26:38Z</time>
      </trkpt>
      <trkpt lat="46.12482" lon="4.59201">
        <ele>543.4</ele>
        <time>2020-10-19T12:26:39Z</time>
      </trkpt>
      <trkpt lat="46.12482" lon="4.59201">
        <ele>543.8</ele>
        <time>2020-10-19T12:26:40Z</time>
      </trkpt>
      <trkpt lat="46.12484" lon="4.59204">
        <ele>544</ele>
        <time>2020-10-19T12:26:41Z</time>
      </trkpt>
      <trkpt lat="46.12484" lon="4.59204">
        <ele>544.2</ele>
        <time>2020-10-19T12:26:42Z</time>
      </trkpt>
      <trkpt lat="46.12485" lon="4.59207">
        <ele>544.2</ele>
        <time>2020-10-19T12:26:43Z</time>
      </trkpt>
      <trkpt lat="46.12485" lon="4.59207">
        <ele>544.4</ele>
        <time>2020-10-19T12:26:44Z</time>
      </trkpt>
      <trkpt lat="46.12487" lon="4.5921">
        <ele>544.6</ele>
        <time>2020-10-19T12:26:45Z</time>
      </trkpt>
      <trkpt lat="46.12487" lon="4.5921">
        <ele>545</ele>
        <time>2020-10-19T12:26:46Z</time>
      </trkpt>
      <trkpt lat="46.12488" lon="4.59213">
        <ele>545.2</ele>
        <time>2020-10-19T12:26:47Z</time>
      </trkpt>
      <trkpt lat="46.12488" lon="4.59213">
        <ele>545.4</ele>
        <time>2020-10-19T12:26:48Z</time>
      </trkpt>
      <trkpt lat="46.12489" lon="4.59216">
        <ele>545.4</ele>
        <time>2020-10-19T12:26:49Z</time>
      </trkpt>
      <trkpt lat="46.12489" lon="4.59216">
        <ele>545.8</ele>
        <time>2020-10-19T12:26:50Z</time>
      </trkpt>
      <trkpt lat="46.1249" lon="4.59219">
        <ele>545.8</ele>
        <time>2020-10-19T12:26:51Z</time>
      </trkpt>
      <trkpt lat="46.1249" lon="4.59219">
        <ele>546</ele>
        <time>2020-10-19T12:26:52Z</time>
      </trkpt>
      <trkpt lat="46.12491" lon="4.59222">
        <ele>546.4</ele>
        <time>2020-10-19T12:26:53Z</time>
      </trkpt>
      <trkpt lat="46.12491" lon="4.59222">
        <ele>546.4</ele>
        <time>2020-10-19T12:26:54Z</time>
      </trkpt>
      <trkpt lat="46.12492" lon="4.59225">
        <ele>546.6</ele>
        <time>2020-10-19T12:26:55Z</time>
      </trkpt>
      <trkpt lat="46.12492" lon="4.59225">
        <ele>546.8</ele>
        <time>2020-10-19T12:26:56Z</time>
      </trkpt>
      <trkpt lat="46.12493" lon="4.59228">
        <ele>547.2</ele>
        <time>2020-10-19T12:26:57Z</time>
      </trkpt>
      <trkpt lat="46.12493" lon="4.59228">
        <ele>547.6</ele>
        <time>2020-10-19T12:26:58Z</time>
      </trkpt>
      <trkpt lat="46.12494" lon="4.59231">
        <ele>547.6</ele>
        <time>2020-10-19T12:26:59Z</time>
      </trkpt>
      <trkpt lat="46.12494" lon="4.59231">
        <ele>547.6</ele>
        <time>2020-10-19T12:27:00Z</time>
      </trkpt>
      <trkpt lat="46.12496" lon="4.59235">
        <ele>547.6</ele>
        <time>2020-10-19T12:27:01Z</time>
      </trkpt>
      <trkpt lat="46.12496" lon="4.59235">
        <ele>548</ele>
        <time>2020-10-19T12:27:02Z</time>
      </trkpt>
      <trkpt lat="46.12497" lon="4.59238">
        <ele>548</ele>
        <time>2020-10-19T12:27:03Z</time>
      </trkpt>
      <trkpt lat="46.12497" lon="4.59238">
        <ele>548</ele>
        <time>2020-10-19T12:27:04Z</time>
      </trkpt>
      <trkpt lat="46.12498" lon="4.59241">
        <ele>548.4</ele>
        <time>2020-10-19T12:27:05Z</time>
      </trkpt>
      <trkpt lat="46.12498" lon="4.59241">
        <ele>548.6</ele>
        <time>2020-10-19T12:27:06Z</time>
      </trkpt>
      <trkpt lat="46.12499" lon="4.59243">
        <ele>548.8</ele>
        <time>2020-10-19T12:27:07Z</time>
      </trkpt>
      <trkpt lat="46.12499" lon="4.59243">
        <ele>548.8</ele>
        <time>2020-10-19T12:27:08Z</time>
      </trkpt>
      <trkpt lat="46.12501" lon="4.59246">
        <ele>549</ele>
        <time>2020-10-19T12:27:09Z</time>
      </trkpt>
      <trkpt lat="46.12501" lon="4.59246">
        <ele>549.4</ele>
        <time>2020-10-19T12:27:10Z</time>
      </trkpt>
      <trkpt lat="46.12502" lon="4.5925">
        <ele>549.8</ele>
        <time>2020-10-19T12:27:11Z</time>
      </trkpt>
      <trkpt lat="46.12502" lon="4.5925">
        <ele>549.8</ele>
        <time>2020-10-19T12:27:12Z</time>
      </trkpt>
      <trkpt lat="46.12504" lon="4.59254">
        <ele>550</ele>
        <time>2020-10-19T12:27:13Z</time>
      </trkpt>
      <trkpt lat="46.12504" lon="4.59254">
        <ele>550.2</ele>
        <time>2020-10-19T12:27:14Z</time>
      </trkpt>
      <trkpt lat="46.12505" lon="4.59257">
        <ele>550.4</ele>
        <time>2020-10-19T12:27:15Z</time>
      </trkpt>
      <trkpt lat="46.12505" lon="4.59257">
        <ele>550.6</ele>
        <time>2020-10-19T12:27:16Z</time>
      </trkpt>
      <trkpt lat="46.12506" lon="4.5926">
        <ele>550.8</ele>
        <time>2020-10-19T12:27:17Z</time>
      </trkpt>
      <trkpt lat="46.12506" lon="4.5926">
        <ele>550.8</ele>
        <time>2020-10-19T12:27:18Z</time>
      </trkpt>
      <trkpt lat="46.12507" lon="4.59263">
        <ele>551.2</ele>
        <time>2020-10-19T12:27:19Z</time>
      </trkpt>
      <trkpt lat="46.12507" lon="4.59263">
        <ele>551.6</ele>
        <time>2020-10-19T12:27:20Z</time>
      </trkpt>
      <trkpt lat="46.12507" lon="4.59266">
        <ele>551.8</ele>
        <time>2020-10-19T12:27:21Z</time>
      </trkpt>
      <trkpt lat="46.12507" lon="4.59266">
        <ele>551.8</ele>
        <time>2020-10-19T12:27:22Z</time>
      </trkpt>
      <trkpt lat="46.12509" lon="4.59269">
        <ele>552.4</ele>
        <time>2020-10-19T12:27:23Z</time>
      </trkpt>
      <trkpt lat="46.12509" lon="4.59269">
        <ele>552.6</ele>
        <time>2020-10-19T12:27:24Z</time>
      </trkpt>
      <trkpt lat="46.12509" lon="4.59269">
        <ele>553</ele>
        <time>2020-10-19T12:27:25Z</time>
      </trkpt>
      <trkpt lat="46.12509" lon="4.59269">
        <ele>553.2</ele>
        <time>2020-10-19T12:27:26Z</time>
      </trkpt>
      <trkpt lat="46.12509" lon="4.59269">
        <ele>553.4</ele>
        <time>2020-10-19T12:27:27Z</time>
      </trkpt>
      <trkpt lat="46.12509" lon="4.59269">
        <ele>553.8</ele>
        <time>2020-10-19T12:27:28Z</time>
      </trkpt>
      <trkpt lat="46.12509" lon="4.59269">
        <ele>554</ele>
        <time>2020-10-19T12:27:29Z</time>
      </trkpt>
      <trkpt lat="46.12509" lon="4.59269">
        <ele>554</ele>
        <time>2020-10-19T12:27:30Z</time>
      </trkpt>
      <trkpt lat="46.12509" lon="4.59269">
        <ele>554</ele>
        <time>2020-10-19T12:27:31Z</time>
      </trkpt>
      <trkpt lat="46.12509" lon="4.59269">
        <ele>554.2</ele>
        <time>2020-10-19T12:27:32Z</time>
      </trkpt>
      <trkpt lat="46.12509" lon="4.59269">
        <ele>554.4</ele>
        <time>2020-10-19T12:27:33Z</time>
      </trkpt>
      <trkpt lat="46.12509" lon="4.59269">
        <ele>554.4</ele>
        <time>2020-10-19T12:27:34Z</time>
      </trkpt>
      <trkpt lat="46.12509" lon="4.59269">
        <ele>554.2</ele>
        <time>2020-10-19T12:27:35Z</time>
      </trkpt>
      <trkpt lat="46.12509" lon="4.59269">
        <ele>554.4</ele>
        <time>2020-10-19T12:27:36Z</time>
      </trkpt>
      <trkpt lat="46.12509" lon="4.59269">
        <ele>554.2</ele>
        <time>2020-10-19T12:27:37Z</time>
      </trkpt>
      <trkpt lat="46.1251" lon="4.59272">
        <ele>553.8</ele>
        <time>2020-10-19T12:27:38Z</time>
      </trkpt>
      <trkpt lat="46.1251" lon="4.59272">
        <ele>553.4</ele>
        <time>2020-10-19T12:27:39Z</time>
      </trkpt>
      <trkpt lat="46.12511" lon="4.59275">
        <ele>553.4</ele>
        <time>2020-10-19T12:27:40Z</time>
      </trkpt>
      <trkpt lat="46.12511" lon="4.59275">
        <ele>553.4</ele>
        <time>2020-10-19T12:27:41Z</time>
      </trkpt>
      <trkpt lat="46.12511" lon="4.59278">
        <ele>553.2</ele>
        <time>2020-10-19T12:27:42Z</time>
      </trkpt>
      <trkpt lat="46.12511" lon="4.59278">
        <ele>553</ele>
        <time>2020-10-19T12:27:43Z</time>
      </trkpt>
      <trkpt lat="46.12512" lon="4.59281">
        <ele>553.2</ele>
        <time>2020-10-19T12:27:44Z</time>
      </trkpt>
      <trkpt lat="46.12512" lon="4.59281">
        <ele>553</ele>
        <time>2020-10-19T12:27:45Z</time>
      </trkpt>
      <trkpt lat="46.12512" lon="4.59281">
        <ele>553.2</ele>
        <time>2020-10-19T12:27:46Z</time>
      </trkpt>
      <trkpt lat="46.12513" lon="4.59284">
        <ele>553.4</ele>
        <time>2020-10-19T12:27:47Z</time>
      </trkpt>
      <trkpt lat="46.12513" lon="4.59284">
        <ele>553.4</ele>
        <time>2020-10-19T12:27:48Z</time>
      </trkpt>
      <trkpt lat="46.12513" lon="4.59284">
        <ele>553.6</ele>
        <time>2020-10-19T12:27:49Z</time>
      </trkpt>
      <trkpt lat="46.12513" lon="4.59284">
        <ele>553.8</ele>
        <time>2020-10-19T12:27:50Z</time>
      </trkpt>
      <trkpt lat="46.12513" lon="4.59284">
        <ele>553.8</ele>
        <time>2020-10-19T12:27:51Z</time>
      </trkpt>
      <trkpt lat="46.12513" lon="4.59284">
        <ele>554</ele>
        <time>2020-10-19T12:27:52Z</time>
      </trkpt>
      <trkpt lat="46.12513" lon="4.59288">
        <ele>553.8</ele>
        <time>2020-10-19T12:27:53Z</time>
      </trkpt>
      <trkpt lat="46.12513" lon="4.59288">
        <ele>554</ele>
        <time>2020-10-19T12:27:54Z</time>
      </trkpt>
      <trkpt lat="46.12513" lon="4.59288">
        <ele>554.2</ele>
        <time>2020-10-19T12:27:55Z</time>
      </trkpt>
      <trkpt lat="46.12513" lon="4.59288">
        <ele>554.4</ele>
        <time>2020-10-19T12:27:56Z</time>
      </trkpt>
      <trkpt lat="46.12513" lon="4.59288">
        <ele>554.4</ele>
        <time>2020-10-19T12:27:57Z</time>
      </trkpt>
      <trkpt lat="46.12513" lon="4.59288">
        <ele>554.2</ele>
        <time>2020-10-19T12:27:58Z</time>
      </trkpt>
      <trkpt lat="46.12513" lon="4.59288">
        <ele>554.2</ele>
        <time>2020-10-19T12:27:59Z</time>
      </trkpt>
      <trkpt lat="46.12513" lon="4.59288">
        <ele>554.2</ele>
        <time>2020-10-19T12:28:00Z</time>
      </trkpt>
      <trkpt lat="46.12513" lon="4.59288">
        <ele>554.6</ele>
        <time>2020-10-19T12:28:01Z</time>
      </trkpt>
      <trkpt lat="46.12513" lon="4.59288">
        <ele>554.8</ele>
        <time>2020-10-19T12:28:02Z</time>
      </trkpt>
      <trkpt lat="46.12513" lon="4.59288">
        <ele>554.8</ele>
        <time>2020-10-19T12:28:03Z</time>
      </trkpt>
      <trkpt lat="46.12513" lon="4.59288">
        <ele>554.6</ele>
        <time>2020-10-19T12:28:04Z</time>
      </trkpt>
      <trkpt lat="46.12513" lon="4.5929">
        <ele>554.6</ele>
        <time>2020-10-19T12:28:05Z</time>
      </trkpt>
      <trkpt lat="46.12513" lon="4.5929">
        <ele>555</ele>
        <time>2020-10-19T12:28:06Z</time>
      </trkpt>
      <trkpt lat="46.12513" lon="4.5929">
        <ele>555.2</ele>
        <time>2020-10-19T12:28:07Z</time>
      </trkpt>
      <trkpt lat="46.12513" lon="4.5929">
        <ele>555.2</ele>
        <time>2020-10-19T12:28:08Z</time>
      </trkpt>
      <trkpt lat="46.12513" lon="4.5929">
        <ele>555.2</ele>
        <time>2020-10-19T12:28:09Z</time>
      </trkpt>
      <trkpt lat="46.12513" lon="4.5929">
        <ele>555.2</ele>
        <time>2020-10-19T12:28:10Z</time>
      </trkpt>
      <trkpt lat="46.12513" lon="4.5929">
        <ele>555.4</ele>
        <time>2020-10-19T12:28:11Z</time>
      </trkpt>
      <trkpt lat="46.12513" lon="4.5929">
        <ele>555.4</ele>
        <time>2020-10-19T12:28:12Z</time>
      </trkpt>
      <trkpt lat="46.12513" lon="4.5929">
        <ele>555.2</ele>
        <time>2020-10-19T12:28:13Z</time>
      </trkpt>
      <trkpt lat="46.12513" lon="4.5929">
        <ele>555.2</ele>
        <time>2020-10-19T12:28:14Z</time>
      </trkpt>
      <trkpt lat="46.12513" lon="4.5929">
        <ele>555.2</ele>
        <time>2020-10-19T12:28:15Z</time>
      </trkpt>
      <trkpt lat="46.12513" lon="4.5929">
        <ele>555.2</ele>
        <time>2020-10-19T12:28:16Z</time>
      </trkpt>
      <trkpt lat="46.12513" lon="4.5929">
        <ele>555.2</ele>
        <time>2020-10-19T12:28:17Z</time>
      </trkpt>
      <trkpt lat="46.12513" lon="4.5929">
        <ele>555.2</ele>
        <time>2020-10-19T12:28:18Z</time>
      </trkpt>
      <trkpt lat="46.12513" lon="4.5929">
        <ele>555.2</ele>
        <time>2020-10-19T12:28:19Z</time>
      </trkpt>
      <trkpt lat="46.12513" lon="4.5929">
        <ele>555</ele>
        <time>2020-10-19T12:28:20Z</time>
      </trkpt>
      <trkpt lat="46.12513" lon="4.5929">
        <ele>555</ele>
        <time>2020-10-19T12:28:21Z</time>
      </trkpt>
      <trkpt lat="46.12513" lon="4.5929">
        <ele>555</ele>
        <time>2020-10-19T12:28:22Z</time>
      </trkpt>
      <trkpt lat="46.12513" lon="4.5929">
        <ele>555</ele>
        <time>2020-10-19T12:28:23Z</time>
      </trkpt>
      <trkpt lat="46.12513" lon="4.5929">
        <ele>555</ele>
        <time>2020-10-19T12:28:24Z</time>
      </trkpt>
      <trkpt lat="46.12513" lon="4.5929">
        <ele>555</ele>
        <time>2020-10-19T12:28:25Z</time>
      </trkpt>
      <trkpt lat="46.12513" lon="4.5929">
        <ele>555</ele>
        <time>2020-10-19T12:28:26Z</time>
      </trkpt>
      <trkpt lat="46.12513" lon="4.5929">
        <ele>555</ele>
        <time>2020-10-19T12:28:27Z</time>
      </trkpt>
      <trkpt lat="46.12513" lon="4.5929">
        <ele>555</ele>
        <time>2020-10-19T12:28:28Z</time>
      </trkpt>
      <trkpt lat="46.12513" lon="4.5929">
        <ele>554.8</ele>
        <time>2020-10-19T12:28:29Z</time>
      </trkpt>
      <trkpt lat="46.12513" lon="4.5929">
        <ele>555</ele>
        <time>2020-10-19T12:28:30Z</time>
      </trkpt>
      <trkpt lat="46.12513" lon="4.5929">
        <ele>555</ele>
        <time>2020-10-19T12:28:31Z</time>
      </trkpt>
      <trkpt lat="46.12513" lon="4.5929">
        <ele>554.8</ele>
        <time>2020-10-19T12:28:32Z</time>
      </trkpt>
      <trkpt lat="46.12515" lon="4.5929">
        <ele>554.6</ele>
        <time>2020-10-19T12:28:33Z</time>
      </trkpt>
      <trkpt lat="46.12515" lon="4.5929">
        <ele>554.4</ele>
        <time>2020-10-19T12:28:34Z</time>
      </trkpt>
      <trkpt lat="46.12517" lon="4.59289">
        <ele>554.2</ele>
        <time>2020-10-19T12:28:35Z</time>
      </trkpt>
      <trkpt lat="46.12517" lon="4.59289">
        <ele>554.4</ele>
        <time>2020-10-19T12:28:36Z</time>
      </trkpt>
      <trkpt lat="46.12519" lon="4.59287">
        <ele>554.4</ele>
        <time>2020-10-19T12:28:37Z</time>
      </trkpt>
      <trkpt lat="46.12519" lon="4.59287">
        <ele>554.4</ele>
        <time>2020-10-19T12:28:38Z</time>
      </trkpt>
      <trkpt lat="46.12521" lon="4.59285">
        <ele>554.8</ele>
        <time>2020-10-19T12:28:39Z</time>
      </trkpt>
      <trkpt lat="46.12521" lon="4.59285">
        <ele>555.2</ele>
        <time>2020-10-19T12:28:40Z</time>
      </trkpt>
      <trkpt lat="46.12524" lon="4.59285">
        <ele>555.4</ele>
        <time>2020-10-19T12:28:41Z</time>
      </trkpt>
      <trkpt lat="46.12524" lon="4.59285">
        <ele>555.8</ele>
        <time>2020-10-19T12:28:42Z</time>
      </trkpt>
      <trkpt lat="46.12526" lon="4.59286">
        <ele>556.2</ele>
        <time>2020-10-19T12:28:43Z</time>
      </trkpt>
      <trkpt lat="46.12526" lon="4.59286">
        <ele>556.2</ele>
        <time>2020-10-19T12:28:44Z</time>
      </trkpt>
      <trkpt lat="46.12529" lon="4.59286">
        <ele>556.2</ele>
        <time>2020-10-19T12:28:45Z</time>
      </trkpt>
      <trkpt lat="46.12529" lon="4.59286">
        <ele>556.2</ele>
        <time>2020-10-19T12:28:46Z</time>
      </trkpt>
      <trkpt lat="46.12531" lon="4.59285">
        <ele>556.6</ele>
        <time>2020-10-19T12:28:47Z</time>
      </trkpt>
      <trkpt lat="46.12531" lon="4.59285">
        <ele>556.6</ele>
        <time>2020-10-19T12:28:48Z</time>
      </trkpt>
      <trkpt lat="46.12532" lon="4.59282">
        <ele>556.8</ele>
        <time>2020-10-19T12:28:49Z</time>
      </trkpt>
      <trkpt lat="46.12532" lon="4.59282">
        <ele>556.8</ele>
        <time>2020-10-19T12:28:50Z</time>
      </trkpt>
      <trkpt lat="46.12534" lon="4.59279">
        <ele>556.8</ele>
        <time>2020-10-19T12:28:51Z</time>
      </trkpt>
      <trkpt lat="46.12534" lon="4.59279">
        <ele>557.2</ele>
        <time>2020-10-19T12:28:52Z</time>
      </trkpt>
      <trkpt lat="46.12536" lon="4.59276">
        <ele>557.2</ele>
        <time>2020-10-19T12:28:53Z</time>
      </trkpt>
      <trkpt lat="46.12536" lon="4.59276">
        <ele>557.6</ele>
        <time>2020-10-19T12:28:54Z</time>
      </trkpt>
      <trkpt lat="46.12538" lon="4.59273">
        <ele>557.8</ele>
        <time>2020-10-19T12:28:55Z</time>
      </trkpt>
      <trkpt lat="46.12538" lon="4.59273">
        <ele>558</ele>
        <time>2020-10-19T12:28:56Z</time>
      </trkpt>
      <trkpt lat="46.1254" lon="4.59271">
        <ele>558</ele>
        <time>2020-10-19T12:28:57Z</time>
      </trkpt>
      <trkpt lat="46.1254" lon="4.59271">
        <ele>558.2</ele>
        <time>2020-10-19T12:28:58Z</time>
      </trkpt>
      <trkpt lat="46.12541" lon="4.59269">
        <ele>558.8</ele>
        <time>2020-10-19T12:28:59Z</time>
      </trkpt>
      <trkpt lat="46.12541" lon="4.59269">
        <ele>559</ele>
        <time>2020-10-19T12:29:00Z</time>
      </trkpt>
      <trkpt lat="46.12541" lon="4.59269">
        <ele>559.2</ele>
        <time>2020-10-19T12:29:01Z</time>
      </trkpt>
      <trkpt lat="46.12541" lon="4.59269">
        <ele>559.6</ele>
        <time>2020-10-19T12:29:02Z</time>
      </trkpt>
      <trkpt lat="46.12541" lon="4.59269">
        <ele>559.6</ele>
        <time>2020-10-19T12:29:03Z</time>
      </trkpt>
      <trkpt lat="46.12541" lon="4.59269">
        <ele>559.8</ele>
        <time>2020-10-19T12:29:04Z</time>
      </trkpt>
      <trkpt lat="46.12541" lon="4.59269">
        <ele>559.6</ele>
        <time>2020-10-19T12:29:05Z</time>
      </trkpt>
      <trkpt lat="46.12541" lon="4.59269">
        <ele>559.6</ele>
        <time>2020-10-19T12:29:06Z</time>
      </trkpt>
      <trkpt lat="46.12541" lon="4.59269">
        <ele>559.6</ele>
        <time>2020-10-19T12:29:07Z</time>
      </trkpt>
      <trkpt lat="46.12541" lon="4.59269">
        <ele>559.6</ele>
        <time>2020-10-19T12:29:08Z</time>
      </trkpt>
      <trkpt lat="46.12541" lon="4.59269">
        <ele>559.4</ele>
        <time>2020-10-19T12:29:09Z</time>
      </trkpt>
      <trkpt lat="46.12541" lon="4.59269">
        <ele>559.4</ele>
        <time>2020-10-19T12:29:10Z</time>
      </trkpt>
      <trkpt lat="46.12539" lon="4.59269">
        <ele>559.4</ele>
        <time>2020-10-19T12:29:11Z</time>
      </trkpt>
      <trkpt lat="46.12539" lon="4.59269">
        <ele>559.4</ele>
        <time>2020-10-19T12:29:12Z</time>
      </trkpt>
      <trkpt lat="46.12539" lon="4.59269">
        <ele>559.4</ele>
        <time>2020-10-19T12:29:13Z</time>
      </trkpt>
      <trkpt lat="46.12539" lon="4.59269">
        <ele>559.4</ele>
        <time>2020-10-19T12:29:14Z</time>
      </trkpt>
      <trkpt lat="46.12539" lon="4.59269">
        <ele>559.6</ele>
        <time>2020-10-19T12:29:15Z</time>
      </trkpt>
      <trkpt lat="46.12539" lon="4.59269">
        <ele>559.6</ele>
        <time>2020-10-19T12:29:16Z</time>
      </trkpt>
      <trkpt lat="46.12539" lon="4.59269">
        <ele>559.4</ele>
        <time>2020-10-19T12:29:17Z</time>
      </trkpt>
      <trkpt lat="46.12539" lon="4.59269">
        <ele>559.6</ele>
        <time>2020-10-19T12:29:18Z</time>
      </trkpt>
      <trkpt lat="46.12539" lon="4.59269">
        <ele>559.6</ele>
        <time>2020-10-19T12:29:19Z</time>
      </trkpt>
      <trkpt lat="46.12539" lon="4.59269">
        <ele>559.8</ele>
        <time>2020-10-19T12:29:20Z</time>
      </trkpt>
      <trkpt lat="46.12539" lon="4.59269">
        <ele>559.8</ele>
        <time>2020-10-19T12:29:21Z</time>
      </trkpt>
      <trkpt lat="46.12539" lon="4.59269">
        <ele>559.4</ele>
        <time>2020-10-19T12:29:22Z</time>
      </trkpt>
      <trkpt lat="46.12539" lon="4.59269">
        <ele>559.2</ele>
        <time>2020-10-19T12:29:23Z</time>
      </trkpt>
      <trkpt lat="46.12539" lon="4.59269">
        <ele>559</ele>
        <time>2020-10-19T12:29:24Z</time>
      </trkpt>
      <trkpt lat="46.12539" lon="4.59269">
        <ele>558.8</ele>
        <time>2020-10-19T12:29:25Z</time>
      </trkpt>
      <trkpt lat="46.12539" lon="4.59269">
        <ele>558.6</ele>
        <time>2020-10-19T12:29:26Z</time>
      </trkpt>
      <trkpt lat="46.12539" lon="4.59269">
        <ele>558.4</ele>
        <time>2020-10-19T12:29:27Z</time>
      </trkpt>
      <trkpt lat="46.12539" lon="4.59269">
        <ele>558.4</ele>
        <time>2020-10-19T12:29:28Z</time>
      </trkpt>
      <trkpt lat="46.12539" lon="4.59267">
        <ele>558.2</ele>
        <time>2020-10-19T12:29:29Z</time>
      </trkpt>
      <trkpt lat="46.12539" lon="4.59267">
        <ele>558.2</ele>
        <time>2020-10-19T12:29:30Z</time>
      </trkpt>
      <trkpt lat="46.12541" lon="4.59263">
        <ele>558.4</ele>
        <time>2020-10-19T12:29:31Z</time>
      </trkpt>
      <trkpt lat="46.12541" lon="4.59263">
        <ele>558.4</ele>
        <time>2020-10-19T12:29:32Z</time>
      </trkpt>
      <trkpt lat="46.12542" lon="4.5926">
        <ele>558.6</ele>
        <time>2020-10-19T12:29:33Z</time>
      </trkpt>
      <trkpt lat="46.12542" lon="4.5926">
        <ele>558.8</ele>
        <time>2020-10-19T12:29:34Z</time>
      </trkpt>
      <trkpt lat="46.12543" lon="4.59257">
        <ele>559</ele>
        <time>2020-10-19T12:29:35Z</time>
      </trkpt>
      <trkpt lat="46.12543" lon="4.59257">
        <ele>559.2</ele>
        <time>2020-10-19T12:29:36Z</time>
      </trkpt>
      <trkpt lat="46.12545" lon="4.59255">
        <ele>559.2</ele>
        <time>2020-10-19T12:29:37Z</time>
      </trkpt>
      <trkpt lat="46.12545" lon="4.59255">
        <ele>559.6</ele>
        <time>2020-10-19T12:29:38Z</time>
      </trkpt>
      <trkpt lat="46.12546" lon="4.59251">
        <ele>559.8</ele>
        <time>2020-10-19T12:29:39Z</time>
      </trkpt>
      <trkpt lat="46.12546" lon="4.59251">
        <ele>559.8</ele>
        <time>2020-10-19T12:29:40Z</time>
      </trkpt>
      <trkpt lat="46.12548" lon="4.59249">
        <ele>560</ele>
        <time>2020-10-19T12:29:41Z</time>
      </trkpt>
      <trkpt lat="46.12548" lon="4.59249">
        <ele>560.4</ele>
        <time>2020-10-19T12:29:42Z</time>
      </trkpt>
      <trkpt lat="46.12548" lon="4.59249">
        <ele>560.8</ele>
        <time>2020-10-19T12:29:43Z</time>
      </trkpt>
      <trkpt lat="46.12548" lon="4.59249">
        <ele>561</ele>
        <time>2020-10-19T12:29:44Z</time>
      </trkpt>
      <trkpt lat="46.12547" lon="4.59246">
        <ele>561</ele>
        <time>2020-10-19T12:29:45Z</time>
      </trkpt>
      <trkpt lat="46.12547" lon="4.59246">
        <ele>561.2</ele>
        <time>2020-10-19T12:29:46Z</time>
      </trkpt>
      <trkpt lat="46.12548" lon="4.59242">
        <ele>561.4</ele>
        <time>2020-10-19T12:29:47Z</time>
      </trkpt>
      <trkpt lat="46.12548" lon="4.59242">
        <ele>561.4</ele>
        <time>2020-10-19T12:29:48Z</time>
      </trkpt>
      <trkpt lat="46.12549" lon="4.59239">
        <ele>561.6</ele>
        <time>2020-10-19T12:29:49Z</time>
      </trkpt>
      <trkpt lat="46.12549" lon="4.59239">
        <ele>561.8</ele>
        <time>2020-10-19T12:29:50Z</time>
      </trkpt>
      <trkpt lat="46.1255" lon="4.59236">
        <ele>562</ele>
        <time>2020-10-19T12:29:51Z</time>
      </trkpt>
      <trkpt lat="46.1255" lon="4.59236">
        <ele>562.4</ele>
        <time>2020-10-19T12:29:52Z</time>
      </trkpt>
      <trkpt lat="46.12551" lon="4.59232">
        <ele>562.6</ele>
        <time>2020-10-19T12:29:53Z</time>
      </trkpt>
      <trkpt lat="46.12551" lon="4.59232">
        <ele>562.8</ele>
        <time>2020-10-19T12:29:54Z</time>
      </trkpt>
      <trkpt lat="46.12553" lon="4.5923">
        <ele>563</ele>
        <time>2020-10-19T12:29:55Z</time>
      </trkpt>
      <trkpt lat="46.12553" lon="4.5923">
        <ele>563</ele>
        <time>2020-10-19T12:29:56Z</time>
      </trkpt>
      <trkpt lat="46.12554" lon="4.59227">
        <ele>563.2</ele>
        <time>2020-10-19T12:29:57Z</time>
      </trkpt>
      <trkpt lat="46.12554" lon="4.59227">
        <ele>563.6</ele>
        <time>2020-10-19T12:29:58Z</time>
      </trkpt>
      <trkpt lat="46.12555" lon="4.59223">
        <ele>563.8</ele>
        <time>2020-10-19T12:29:59Z</time>
      </trkpt>
      <trkpt lat="46.12555" lon="4.59219">
        <ele>564.4</ele>
        <time>2020-10-19T12:30:01Z</time>
      </trkpt>
      <trkpt lat="46.12555" lon="4.59219">
        <ele>564.6</ele>
        <time>2020-10-19T12:30:02Z</time>
      </trkpt>
      <trkpt lat="46.12556" lon="4.59216">
        <ele>565</ele>
        <time>2020-10-19T12:30:03Z</time>
      </trkpt>
      <trkpt lat="46.12556" lon="4.59216">
        <ele>565.2</ele>
        <time>2020-10-19T12:30:04Z</time>
      </trkpt>
      <trkpt lat="46.12556" lon="4.59213">
        <ele>565.4</ele>
        <time>2020-10-19T12:30:05Z</time>
      </trkpt>
      <trkpt lat="46.12556" lon="4.59213">
        <ele>565.6</ele>
        <time>2020-10-19T12:30:06Z</time>
      </trkpt>
      <trkpt lat="46.12556" lon="4.59213">
        <ele>565.8</ele>
        <time>2020-10-19T12:30:07Z</time>
      </trkpt>
      <trkpt lat="46.12556" lon="4.5921">
        <ele>566</ele>
        <time>2020-10-19T12:30:08Z</time>
      </trkpt>
      <trkpt lat="46.12556" lon="4.5921">
        <ele>566.2</ele>
        <time>2020-10-19T12:30:09Z</time>
      </trkpt>
      <trkpt lat="46.12556" lon="4.5921">
        <ele>566.4</ele>
        <time>2020-10-19T12:30:10Z</time>
      </trkpt>
      <trkpt lat="46.12556" lon="4.5921">
        <ele>566.4</ele>
        <time>2020-10-19T12:30:11Z</time>
      </trkpt>
      <trkpt lat="46.12556" lon="4.5921">
        <ele>566.8</ele>
        <time>2020-10-19T12:30:12Z</time>
      </trkpt>
      <trkpt lat="46.12556" lon="4.5921">
        <ele>566.8</ele>
        <time>2020-10-19T12:30:13Z</time>
      </trkpt>
      <trkpt lat="46.12556" lon="4.5921">
        <ele>567</ele>
        <time>2020-10-19T12:30:14Z</time>
      </trkpt>
      <trkpt lat="46.12556" lon="4.5921">
        <ele>567.2</ele>
        <time>2020-10-19T12:30:15Z</time>
      </trkpt>
      <trkpt lat="46.12556" lon="4.5921">
        <ele>567.2</ele>
        <time>2020-10-19T12:30:16Z</time>
      </trkpt>
      <trkpt lat="46.12556" lon="4.5921">
        <ele>567.8</ele>
        <time>2020-10-19T12:30:17Z</time>
      </trkpt>
      <trkpt lat="46.12556" lon="4.5921">
        <ele>567.6</ele>
        <time>2020-10-19T12:30:18Z</time>
      </trkpt>
      <trkpt lat="46.12556" lon="4.5921">
        <ele>567.6</ele>
        <time>2020-10-19T12:30:19Z</time>
      </trkpt>
      <trkpt lat="46.12556" lon="4.5921">
        <ele>568</ele>
        <time>2020-10-19T12:30:20Z</time>
      </trkpt>
      <trkpt lat="46.12556" lon="4.5921">
        <ele>568</ele>
        <time>2020-10-19T12:30:21Z</time>
      </trkpt>
      <trkpt lat="46.12556" lon="4.5921">
        <ele>568.2</ele>
        <time>2020-10-19T12:30:22Z</time>
      </trkpt>
      <trkpt lat="46.12556" lon="4.5921">
        <ele>568.2</ele>
        <time>2020-10-19T12:30:23Z</time>
      </trkpt>
      <trkpt lat="46.12556" lon="4.5921">
        <ele>568.2</ele>
        <time>2020-10-19T12:30:24Z</time>
      </trkpt>
      <trkpt lat="46.12556" lon="4.5921">
        <ele>568.4</ele>
        <time>2020-10-19T12:30:25Z</time>
      </trkpt>
      <trkpt lat="46.12556" lon="4.5921">
        <ele>568.6</ele>
        <time>2020-10-19T12:30:26Z</time>
      </trkpt>
      <trkpt lat="46.12556" lon="4.5921">
        <ele>568.6</ele>
        <time>2020-10-19T12:30:27Z</time>
      </trkpt>
      <trkpt lat="46.12556" lon="4.5921">
        <ele>568.8</ele>
        <time>2020-10-19T12:30:28Z</time>
      </trkpt>
      <trkpt lat="46.12556" lon="4.5921">
        <ele>568.8</ele>
        <time>2020-10-19T12:30:29Z</time>
      </trkpt>
      <trkpt lat="46.12556" lon="4.5921">
        <ele>568.6</ele>
        <time>2020-10-19T12:30:30Z</time>
      </trkpt>
      <trkpt lat="46.12556" lon="4.5921">
        <ele>568.6</ele>
        <time>2020-10-19T12:30:31Z</time>
      </trkpt>
      <trkpt lat="46.12556" lon="4.5921">
        <ele>568.8</ele>
        <time>2020-10-19T12:30:32Z</time>
      </trkpt>
      <trkpt lat="46.12556" lon="4.5921">
        <ele>568.6</ele>
        <time>2020-10-19T12:30:33Z</time>
      </trkpt>
      <trkpt lat="46.12556" lon="4.5921">
        <ele>568.4</ele>
        <time>2020-10-19T12:30:34Z</time>
      </trkpt>
      <trkpt lat="46.12556" lon="4.5921">
        <ele>568.2</ele>
        <time>2020-10-19T12:30:35Z</time>
      </trkpt>
      <trkpt lat="46.12556" lon="4.5921">
        <ele>568.4</ele>
        <time>2020-10-19T12:30:36Z</time>
      </trkpt>
      <trkpt lat="46.12556" lon="4.5921">
        <ele>568.2</ele>
        <time>2020-10-19T12:30:37Z</time>
      </trkpt>
      <trkpt lat="46.12556" lon="4.5921">
        <ele>568.2</ele>
        <time>2020-10-19T12:30:38Z</time>
      </trkpt>
      <trkpt lat="46.12556" lon="4.5921">
        <ele>568.2</ele>
        <time>2020-10-19T12:30:39Z</time>
      </trkpt>
      <trkpt lat="46.12556" lon="4.5921">
        <ele>568</ele>
        <time>2020-10-19T12:30:40Z</time>
      </trkpt>
      <trkpt lat="46.12556" lon="4.5921">
        <ele>568</ele>
        <time>2020-10-19T12:30:41Z</time>
      </trkpt>
      <trkpt lat="46.12556" lon="4.5921">
        <ele>567.8</ele>
        <time>2020-10-19T12:30:42Z</time>
      </trkpt>
      <trkpt lat="46.12556" lon="4.5921">
        <ele>568</ele>
        <time>2020-10-19T12:30:43Z</time>
      </trkpt>
      <trkpt lat="46.12556" lon="4.5921">
        <ele>567.8</ele>
        <time>2020-10-19T12:30:44Z</time>
      </trkpt>
      <trkpt lat="46.12556" lon="4.5921">
        <ele>567.8</ele>
        <time>2020-10-19T12:30:45Z</time>
      </trkpt>
      <trkpt lat="46.12556" lon="4.5921">
        <ele>567.8</ele>
        <time>2020-10-19T12:30:46Z</time>
      </trkpt>
      <trkpt lat="46.12556" lon="4.5921">
        <ele>567.6</ele>
        <time>2020-10-19T12:30:47Z</time>
      </trkpt>
      <trkpt lat="46.12556" lon="4.5921">
        <ele>567.6</ele>
        <time>2020-10-19T12:30:48Z</time>
      </trkpt>
      <trkpt lat="46.12556" lon="4.5921">
        <ele>567.6</ele>
        <time>2020-10-19T12:30:49Z</time>
      </trkpt>
      <trkpt lat="46.12556" lon="4.5921">
        <ele>567.6</ele>
        <time>2020-10-19T12:30:50Z</time>
      </trkpt>
      <trkpt lat="46.12556" lon="4.5921">
        <ele>567.4</ele>
        <time>2020-10-19T12:30:51Z</time>
      </trkpt>
      <trkpt lat="46.12556" lon="4.5921">
        <ele>567.4</ele>
        <time>2020-10-19T12:30:52Z</time>
      </trkpt>
      <trkpt lat="46.12556" lon="4.5921">
        <ele>567.4</ele>
        <time>2020-10-19T12:30:53Z</time>
      </trkpt>
      <trkpt lat="46.12556" lon="4.5921">
        <ele>567.4</ele>
        <time>2020-10-19T12:30:54Z</time>
      </trkpt>
      <trkpt lat="46.12556" lon="4.5921">
        <ele>567.4</ele>
        <time>2020-10-19T12:30:55Z</time>
      </trkpt>
      <trkpt lat="46.12556" lon="4.5921">
        <ele>567.6</ele>
        <time>2020-10-19T12:30:56Z</time>
      </trkpt>
      <trkpt lat="46.12556" lon="4.5921">
        <ele>567.6</ele>
        <time>2020-10-19T12:30:57Z</time>
      </trkpt>
      <trkpt lat="46.12556" lon="4.5921">
        <ele>567.6</ele>
        <time>2020-10-19T12:30:58Z</time>
      </trkpt>
      <trkpt lat="46.12556" lon="4.5921">
        <ele>567.4</ele>
        <time>2020-10-19T12:30:59Z</time>
      </trkpt>
      <trkpt lat="46.12556" lon="4.5921">
        <ele>567.4</ele>
        <time>2020-10-19T12:31:00Z</time>
      </trkpt>
      <trkpt lat="46.12556" lon="4.5921">
        <ele>567.4</ele>
        <time>2020-10-19T12:31:01Z</time>
      </trkpt>
      <trkpt lat="46.12556" lon="4.5921">
        <ele>567.2</ele>
        <time>2020-10-19T12:31:02Z</time>
      </trkpt>
      <trkpt lat="46.12556" lon="4.5921">
        <ele>567</ele>
        <time>2020-10-19T12:31:03Z</time>
      </trkpt>
      <trkpt lat="46.12556" lon="4.5921">
        <ele>567.2</ele>
        <time>2020-10-19T12:31:04Z</time>
      </trkpt>
      <trkpt lat="46.12556" lon="4.5921">
        <ele>567</ele>
        <time>2020-10-19T12:31:05Z</time>
      </trkpt>
      <trkpt lat="46.12556" lon="4.5921">
        <ele>567</ele>
        <time>2020-10-19T12:31:06Z</time>
      </trkpt>
      <trkpt lat="46.12556" lon="4.5921">
        <ele>566.8</ele>
        <time>2020-10-19T12:31:07Z</time>
      </trkpt>
      <trkpt lat="46.12556" lon="4.5921">
        <ele>566.8</ele>
        <time>2020-10-19T12:31:08Z</time>
      </trkpt>
      <trkpt lat="46.12556" lon="4.5921">
        <ele>566.6</ele>
        <time>2020-10-19T12:31:09Z</time>
      </trkpt>
      <trkpt lat="46.12556" lon="4.5921">
        <ele>566.6</ele>
        <time>2020-10-19T12:31:10Z</time>
      </trkpt>
      <trkpt lat="46.12556" lon="4.5921">
        <ele>567</ele>
        <time>2020-10-19T12:31:11Z</time>
      </trkpt>
      <trkpt lat="46.12556" lon="4.5921">
        <ele>566.8</ele>
        <time>2020-10-19T12:31:12Z</time>
      </trkpt>
      <trkpt lat="46.12556" lon="4.5921">
        <ele>567</ele>
        <time>2020-10-19T12:31:13Z</time>
      </trkpt>
      <trkpt lat="46.12556" lon="4.5921">
        <ele>567</ele>
        <time>2020-10-19T12:31:14Z</time>
      </trkpt>
      <trkpt lat="46.12556" lon="4.5921">
        <ele>567.2</ele>
        <time>2020-10-19T12:31:15Z</time>
      </trkpt>
      <trkpt lat="46.12556" lon="4.5921">
        <ele>567</ele>
        <time>2020-10-19T12:31:16Z</time>
      </trkpt>
      <trkpt lat="46.12556" lon="4.5921">
        <ele>567</ele>
        <time>2020-10-19T12:31:17Z</time>
      </trkpt>
      <trkpt lat="46.12556" lon="4.5921">
        <ele>566.8</ele>
        <time>2020-10-19T12:31:18Z</time>
      </trkpt>
      <trkpt lat="46.12556" lon="4.5921">
        <ele>566.8</ele>
        <time>2020-10-19T12:31:19Z</time>
      </trkpt>
      <trkpt lat="46.12556" lon="4.5921">
        <ele>566.8</ele>
        <time>2020-10-19T12:31:20Z</time>
      </trkpt>
      <trkpt lat="46.12556" lon="4.5921">
        <ele>567</ele>
        <time>2020-10-19T12:31:21Z</time>
      </trkpt>
      <trkpt lat="46.12556" lon="4.5921">
        <ele>566.8</ele>
        <time>2020-10-19T12:31:22Z</time>
      </trkpt>
      <trkpt lat="46.12556" lon="4.5921">
        <ele>566.8</ele>
        <time>2020-10-19T12:31:23Z</time>
      </trkpt>
      <trkpt lat="46.12556" lon="4.5921">
        <ele>566.6</ele>
        <time>2020-10-19T12:31:24Z</time>
      </trkpt>
      <trkpt lat="46.12556" lon="4.5921">
        <ele>566.4</ele>
        <time>2020-10-19T12:31:25Z</time>
      </trkpt>
      <trkpt lat="46.12556" lon="4.5921">
        <ele>566.2</ele>
        <time>2020-10-19T12:31:26Z</time>
      </trkpt>
      <trkpt lat="46.12555" lon="4.59213">
        <ele>566.2</ele>
        <time>2020-10-19T12:31:27Z</time>
      </trkpt>
      <trkpt lat="46.12555" lon="4.59213">
        <ele>566</ele>
        <time>2020-10-19T12:31:28Z</time>
      </trkpt>
      <trkpt lat="46.12555" lon="4.59213">
        <ele>566</ele>
        <time>2020-10-19T12:31:29Z</time>
      </trkpt>
      <trkpt lat="46.12555" lon="4.59213">
        <ele>566</ele>
        <time>2020-10-19T12:31:30Z</time>
      </trkpt>
      <trkpt lat="46.12555" lon="4.59213">
        <ele>566.2</ele>
        <time>2020-10-19T12:31:31Z</time>
      </trkpt>
      <trkpt lat="46.12555" lon="4.59213">
        <ele>566.2</ele>
        <time>2020-10-19T12:31:32Z</time>
      </trkpt>
      <trkpt lat="46.12555" lon="4.59213">
        <ele>566.4</ele>
        <time>2020-10-19T12:31:33Z</time>
      </trkpt>
      <trkpt lat="46.12555" lon="4.59213">
        <ele>566.6</ele>
        <time>2020-10-19T12:31:34Z</time>
      </trkpt>
      <trkpt lat="46.12555" lon="4.59213">
        <ele>566.8</ele>
        <time>2020-10-19T12:31:35Z</time>
      </trkpt>
      <trkpt lat="46.12555" lon="4.59213">
        <ele>567</ele>
        <time>2020-10-19T12:31:36Z</time>
      </trkpt>
      <trkpt lat="46.12555" lon="4.59213">
        <ele>567</ele>
        <time>2020-10-19T12:31:37Z</time>
      </trkpt>
      <trkpt lat="46.12555" lon="4.59213">
        <ele>567</ele>
        <time>2020-10-19T12:31:38Z</time>
      </trkpt>
      <trkpt lat="46.12555" lon="4.59213">
        <ele>566.8</ele>
        <time>2020-10-19T12:31:39Z</time>
      </trkpt>
      <trkpt lat="46.12555" lon="4.59213">
        <ele>566.8</ele>
        <time>2020-10-19T12:31:40Z</time>
      </trkpt>
      <trkpt lat="46.12555" lon="4.59213">
        <ele>566.8</ele>
        <time>2020-10-19T12:31:41Z</time>
      </trkpt>
      <trkpt lat="46.12555" lon="4.59213">
        <ele>566.8</ele>
        <time>2020-10-19T12:31:42Z</time>
      </trkpt>
      <trkpt lat="46.12555" lon="4.59213">
        <ele>566.8</ele>
        <time>2020-10-19T12:31:43Z</time>
      </trkpt>
      <trkpt lat="46.12555" lon="4.59213">
        <ele>567</ele>
        <time>2020-10-19T12:31:44Z</time>
      </trkpt>
      <trkpt lat="46.12555" lon="4.59213">
        <ele>567.2</ele>
        <time>2020-10-19T12:31:45Z</time>
      </trkpt>
      <trkpt lat="46.12555" lon="4.59213">
        <ele>567.2</ele>
        <time>2020-10-19T12:31:46Z</time>
      </trkpt>
      <trkpt lat="46.12555" lon="4.59213">
        <ele>567.2</ele>
        <time>2020-10-19T12:31:47Z</time>
      </trkpt>
      <trkpt lat="46.12555" lon="4.59213">
        <ele>567</ele>
        <time>2020-10-19T12:31:48Z</time>
      </trkpt>
      <trkpt lat="46.12555" lon="4.59213">
        <ele>567.2</ele>
        <time>2020-10-19T12:31:49Z</time>
      </trkpt>
      <trkpt lat="46.12555" lon="4.59213">
        <ele>567.2</ele>
        <time>2020-10-19T12:31:50Z</time>
      </trkpt>
      <trkpt lat="46.12555" lon="4.59213">
        <ele>567.2</ele>
        <time>2020-10-19T12:31:51Z</time>
      </trkpt>
      <trkpt lat="46.12555" lon="4.59213">
        <ele>567.4</ele>
        <time>2020-10-19T12:31:52Z</time>
      </trkpt>
      <trkpt lat="46.12555" lon="4.59213">
        <ele>567.6</ele>
        <time>2020-10-19T12:31:53Z</time>
      </trkpt>
      <trkpt lat="46.12555" lon="4.59213">
        <ele>567.8</ele>
        <time>2020-10-19T12:31:54Z</time>
      </trkpt>
      <trkpt lat="46.12555" lon="4.59213">
        <ele>567.8</ele>
        <time>2020-10-19T12:31:55Z</time>
      </trkpt>
      <trkpt lat="46.12555" lon="4.59213">
        <ele>567.8</ele>
        <time>2020-10-19T12:31:56Z</time>
      </trkpt>
      <trkpt lat="46.12555" lon="4.59213">
        <ele>567.8</ele>
        <time>2020-10-19T12:31:57Z</time>
      </trkpt>
      <trkpt lat="46.12555" lon="4.59213">
        <ele>568</ele>
        <time>2020-10-19T12:31:58Z</time>
      </trkpt>
      <trkpt lat="46.12555" lon="4.59213">
        <ele>568</ele>
        <time>2020-10-19T12:31:59Z</time>
      </trkpt>
      <trkpt lat="46.12555" lon="4.59213">
        <ele>568</ele>
        <time>2020-10-19T12:32:00Z</time>
      </trkpt>
      <trkpt lat="46.12555" lon="4.59213">
        <ele>568.2</ele>
        <time>2020-10-19T12:32:01Z</time>
      </trkpt>
      <trkpt lat="46.12555" lon="4.59213">
        <ele>568.2</ele>
        <time>2020-10-19T12:32:02Z</time>
      </trkpt>
      <trkpt lat="46.12555" lon="4.59213">
        <ele>568.2</ele>
        <time>2020-10-19T12:32:03Z</time>
      </trkpt>
      <trkpt lat="46.12555" lon="4.59213">
        <ele>568.2</ele>
        <time>2020-10-19T12:32:04Z</time>
      </trkpt>
      <trkpt lat="46.12555" lon="4.59213">
        <ele>568.2</ele>
        <time>2020-10-19T12:32:05Z</time>
      </trkpt>
      <trkpt lat="46.12555" lon="4.59213">
        <ele>568.2</ele>
        <time>2020-10-19T12:32:06Z</time>
      </trkpt>
      <trkpt lat="46.12555" lon="4.59213">
        <ele>568.2</ele>
        <time>2020-10-19T12:32:07Z</time>
      </trkpt>
      <trkpt lat="46.12557" lon="4.59211">
        <ele>568</ele>
        <time>2020-10-19T12:32:08Z</time>
      </trkpt>
      <trkpt lat="46.12557" lon="4.59211">
        <ele>568</ele>
        <time>2020-10-19T12:32:09Z</time>
      </trkpt>
      <trkpt lat="46.12557" lon="4.59211">
        <ele>568.2</ele>
        <time>2020-10-19T12:32:10Z</time>
      </trkpt>
      <trkpt lat="46.12559" lon="4.59209">
        <ele>568.4</ele>
        <time>2020-10-19T12:32:11Z</time>
      </trkpt>
      <trkpt lat="46.12559" lon="4.59209">
        <ele>568.6</ele>
        <time>2020-10-19T12:32:12Z</time>
      </trkpt>
      <trkpt lat="46.12559" lon="4.59209">
        <ele>568.6</ele>
        <time>2020-10-19T12:32:13Z</time>
      </trkpt>
      <trkpt lat="46.12559" lon="4.59209">
        <ele>568.6</ele>
        <time>2020-10-19T12:32:14Z</time>
      </trkpt>
      <trkpt lat="46.12559" lon="4.59209">
        <ele>568.8</ele>
        <time>2020-10-19T12:32:15Z</time>
      </trkpt>
      <trkpt lat="46.12559" lon="4.59209">
        <ele>568.6</ele>
        <time>2020-10-19T12:32:16Z</time>
      </trkpt>
      <trkpt lat="46.12559" lon="4.59209">
        <ele>568.6</ele>
        <time>2020-10-19T12:32:17Z</time>
      </trkpt>
      <trkpt lat="46.12559" lon="4.59209">
        <ele>568.4</ele>
        <time>2020-10-19T12:32:18Z</time>
      </trkpt>
      <trkpt lat="46.12559" lon="4.59209">
        <ele>568.2</ele>
        <time>2020-10-19T12:32:19Z</time>
      </trkpt>
      <trkpt lat="46.12559" lon="4.59209">
        <ele>568.2</ele>
        <time>2020-10-19T12:32:20Z</time>
      </trkpt>
      <trkpt lat="46.12559" lon="4.59209">
        <ele>568.2</ele>
        <time>2020-10-19T12:32:21Z</time>
      </trkpt>
      <trkpt lat="46.12559" lon="4.59209">
        <ele>568.2</ele>
        <time>2020-10-19T12:32:22Z</time>
      </trkpt>
      <trkpt lat="46.12559" lon="4.59209">
        <ele>568.2</ele>
        <time>2020-10-19T12:32:23Z</time>
      </trkpt>
      <trkpt lat="46.12559" lon="4.59209">
        <ele>568.2</ele>
        <time>2020-10-19T12:32:24Z</time>
      </trkpt>
      <trkpt lat="46.12558" lon="4.59207">
        <ele>568</ele>
        <time>2020-10-19T12:32:25Z</time>
      </trkpt>
      <trkpt lat="46.12557" lon="4.59204">
        <ele>568</ele>
        <time>2020-10-19T12:32:26Z</time>
      </trkpt>
      <trkpt lat="46.12557" lon="4.59204">
        <ele>568</ele>
        <time>2020-10-19T12:32:27Z</time>
      </trkpt>
      <trkpt lat="46.12557" lon="4.59199">
        <ele>568.2</ele>
        <time>2020-10-19T12:32:28Z</time>
      </trkpt>
      <trkpt lat="46.12557" lon="4.59199">
        <ele>568.2</ele>
        <time>2020-10-19T12:32:29Z</time>
      </trkpt>
      <trkpt lat="46.12557" lon="4.59195">
        <ele>568.4</ele>
        <time>2020-10-19T12:32:30Z</time>
      </trkpt>
      <trkpt lat="46.12557" lon="4.59195">
        <ele>568.4</ele>
        <time>2020-10-19T12:32:31Z</time>
      </trkpt>
      <trkpt lat="46.12557" lon="4.59192">
        <ele>568.4</ele>
        <time>2020-10-19T12:32:32Z</time>
      </trkpt>
      <trkpt lat="46.12557" lon="4.59192">
        <ele>568.4</ele>
        <time>2020-10-19T12:32:33Z</time>
      </trkpt>
      <trkpt lat="46.12556" lon="4.59187">
        <ele>568.6</ele>
        <time>2020-10-19T12:32:34Z</time>
      </trkpt>
      <trkpt lat="46.12556" lon="4.59187">
        <ele>568.6</ele>
        <time>2020-10-19T12:32:35Z</time>
      </trkpt>
      <trkpt lat="46.12556" lon="4.59183">
        <ele>568.6</ele>
        <time>2020-10-19T12:32:36Z</time>
      </trkpt>
      <trkpt lat="46.12556" lon="4.59183">
        <ele>568.6</ele>
        <time>2020-10-19T12:32:37Z</time>
      </trkpt>
      <trkpt lat="46.12556" lon="4.59179">
        <ele>568.6</ele>
        <time>2020-10-19T12:32:38Z</time>
      </trkpt>
      <trkpt lat="46.12556" lon="4.59179">
        <ele>568.6</ele>
        <time>2020-10-19T12:32:39Z</time>
      </trkpt>
      <trkpt lat="46.12556" lon="4.59176">
        <ele>568.6</ele>
        <time>2020-10-19T12:32:40Z</time>
      </trkpt>
      <trkpt lat="46.12556" lon="4.59176">
        <ele>568.6</ele>
        <time>2020-10-19T12:32:41Z</time>
      </trkpt>
      <trkpt lat="46.12555" lon="4.59172">
        <ele>568.6</ele>
        <time>2020-10-19T12:32:42Z</time>
      </trkpt>
      <trkpt lat="46.12555" lon="4.59172">
        <ele>568.6</ele>
        <time>2020-10-19T12:32:43Z</time>
      </trkpt>
      <trkpt lat="46.12554" lon="4.59168">
        <ele>568.2</ele>
        <time>2020-10-19T12:32:44Z</time>
      </trkpt>
      <trkpt lat="46.12554" lon="4.59168">
        <ele>568</ele>
        <time>2020-10-19T12:32:45Z</time>
      </trkpt>
      <trkpt lat="46.12553" lon="4.59164">
        <ele>567.6</ele>
        <time>2020-10-19T12:32:46Z</time>
      </trkpt>
      <trkpt lat="46.12553" lon="4.59164">
        <ele>567.6</ele>
        <time>2020-10-19T12:32:47Z</time>
      </trkpt>
      <trkpt lat="46.12551" lon="4.5916">
        <ele>567.4</ele>
        <time>2020-10-19T12:32:48Z</time>
      </trkpt>
      <trkpt lat="46.12551" lon="4.5916">
        <ele>567.2</ele>
        <time>2020-10-19T12:32:49Z</time>
      </trkpt>
      <trkpt lat="46.1255" lon="4.59156">
        <ele>567</ele>
        <time>2020-10-19T12:32:50Z</time>
      </trkpt>
      <trkpt lat="46.1255" lon="4.59156">
        <ele>566.8</ele>
        <time>2020-10-19T12:32:51Z</time>
      </trkpt>
      <trkpt lat="46.12549" lon="4.59152">
        <ele>566.4</ele>
        <time>2020-10-19T12:32:52Z</time>
      </trkpt>
      <trkpt lat="46.12549" lon="4.59152">
        <ele>566.4</ele>
        <time>2020-10-19T12:32:53Z</time>
      </trkpt>
      <trkpt lat="46.12548" lon="4.59148">
        <ele>566.2</ele>
        <time>2020-10-19T12:32:54Z</time>
      </trkpt>
      <trkpt lat="46.12548" lon="4.59148">
        <ele>566.2</ele>
        <time>2020-10-19T12:32:55Z</time>
      </trkpt>
      <trkpt lat="46.12548" lon="4.59148">
        <ele>566.2</ele>
        <time>2020-10-19T12:32:56Z</time>
      </trkpt>
      <trkpt lat="46.12548" lon="4.59148">
        <ele>566.2</ele>
        <time>2020-10-19T12:32:57Z</time>
      </trkpt>
      <trkpt lat="46.12548" lon="4.59148">
        <ele>565.8</ele>
        <time>2020-10-19T12:32:58Z</time>
      </trkpt>
      <trkpt lat="46.12547" lon="4.59144">
        <ele>565.6</ele>
        <time>2020-10-19T12:32:59Z</time>
      </trkpt>
      <trkpt lat="46.12546" lon="4.59141">
        <ele>565.4</ele>
        <time>2020-10-19T12:33:00Z</time>
      </trkpt>
      <trkpt lat="46.12546" lon="4.59141">
        <ele>565.2</ele>
        <time>2020-10-19T12:33:01Z</time>
      </trkpt>
      <trkpt lat="46.12546" lon="4.59141">
        <ele>565</ele>
        <time>2020-10-19T12:33:02Z</time>
      </trkpt>
      <trkpt lat="46.12546" lon="4.59141">
        <ele>565.2</ele>
        <time>2020-10-19T12:33:03Z</time>
      </trkpt>
      <trkpt lat="46.12546" lon="4.59137">
        <ele>565.2</ele>
        <time>2020-10-19T12:33:04Z</time>
      </trkpt>
      <trkpt lat="46.12545" lon="4.59134">
        <ele>565.2</ele>
        <time>2020-10-19T12:33:05Z</time>
      </trkpt>
      <trkpt lat="46.12545" lon="4.59131">
        <ele>565.2</ele>
        <time>2020-10-19T12:33:06Z</time>
      </trkpt>
      <trkpt lat="46.12544" lon="4.59128">
        <ele>565.2</ele>
        <time>2020-10-19T12:33:07Z</time>
      </trkpt>
      <trkpt lat="46.12544" lon="4.59125">
        <ele>565</ele>
        <time>2020-10-19T12:33:08Z</time>
      </trkpt>
      <trkpt lat="46.12544" lon="4.59122">
        <ele>565</ele>
        <time>2020-10-19T12:33:09Z</time>
      </trkpt>
      <trkpt lat="46.12543" lon="4.59119">
        <ele>565</ele>
        <time>2020-10-19T12:33:10Z</time>
      </trkpt>
      <trkpt lat="46.12543" lon="4.59119">
        <ele>565</ele>
        <time>2020-10-19T12:33:11Z</time>
      </trkpt>
      <trkpt lat="46.12543" lon="4.59115">
        <ele>564.8</ele>
        <time>2020-10-19T12:33:12Z</time>
      </trkpt>
      <trkpt lat="46.12543" lon="4.59115">
        <ele>564.8</ele>
        <time>2020-10-19T12:33:13Z</time>
      </trkpt>
      <trkpt lat="46.12543" lon="4.5911">
        <ele>565</ele>
        <time>2020-10-19T12:33:14Z</time>
      </trkpt>
      <trkpt lat="46.12543" lon="4.5911">
        <ele>565.2</ele>
        <time>2020-10-19T12:33:15Z</time>
      </trkpt>
      <trkpt lat="46.12542" lon="4.59105">
        <ele>565.4</ele>
        <time>2020-10-19T12:33:16Z</time>
      </trkpt>
      <trkpt lat="46.12542" lon="4.59105">
        <ele>565.2</ele>
        <time>2020-10-19T12:33:17Z</time>
      </trkpt>
      <trkpt lat="46.12542" lon="4.59101">
        <ele>565.4</ele>
        <time>2020-10-19T12:33:18Z</time>
      </trkpt>
      <trkpt lat="46.12542" lon="4.59101">
        <ele>565.2</ele>
        <time>2020-10-19T12:33:19Z</time>
      </trkpt>
      <trkpt lat="46.12541" lon="4.59096">
        <ele>565.4</ele>
        <time>2020-10-19T12:33:20Z</time>
      </trkpt>
      <trkpt lat="46.12541" lon="4.59096">
        <ele>565.4</ele>
        <time>2020-10-19T12:33:21Z</time>
      </trkpt>
      <trkpt lat="46.12541" lon="4.59091">
        <ele>565.6</ele>
        <time>2020-10-19T12:33:22Z</time>
      </trkpt>
      <trkpt lat="46.12541" lon="4.59091">
        <ele>565.6</ele>
        <time>2020-10-19T12:33:23Z</time>
      </trkpt>
      <trkpt lat="46.1254" lon="4.59087">
        <ele>566</ele>
        <time>2020-10-19T12:33:24Z</time>
      </trkpt>
      <trkpt lat="46.1254" lon="4.59087">
        <ele>566</ele>
        <time>2020-10-19T12:33:25Z</time>
      </trkpt>
      <trkpt lat="46.1254" lon="4.59084">
        <ele>565.8</ele>
        <time>2020-10-19T12:33:26Z</time>
      </trkpt>
      <trkpt lat="46.1254" lon="4.59084">
        <ele>565.6</ele>
        <time>2020-10-19T12:33:27Z</time>
      </trkpt>
      <trkpt lat="46.12539" lon="4.59081">
        <ele>565.8</ele>
        <time>2020-10-19T12:33:28Z</time>
      </trkpt>
      <trkpt lat="46.12539" lon="4.59081">
        <ele>565.8</ele>
        <time>2020-10-19T12:33:29Z</time>
      </trkpt>
      <trkpt lat="46.12538" lon="4.59077">
        <ele>566.2</ele>
        <time>2020-10-19T12:33:30Z</time>
      </trkpt>
      <trkpt lat="46.12538" lon="4.59077">
        <ele>566.4</ele>
        <time>2020-10-19T12:33:31Z</time>
      </trkpt>
      <trkpt lat="46.12538" lon="4.59073">
        <ele>566.4</ele>
        <time>2020-10-19T12:33:32Z</time>
      </trkpt>
      <trkpt lat="46.12538" lon="4.59073">
        <ele>566.6</ele>
        <time>2020-10-19T12:33:33Z</time>
      </trkpt>
      <trkpt lat="46.12537" lon="4.5907">
        <ele>566.6</ele>
        <time>2020-10-19T12:33:34Z</time>
      </trkpt>
      <trkpt lat="46.12537" lon="4.5907">
        <ele>567</ele>
        <time>2020-10-19T12:33:35Z</time>
      </trkpt>
      <trkpt lat="46.12537" lon="4.59066">
        <ele>567</ele>
        <time>2020-10-19T12:33:36Z</time>
      </trkpt>
      <trkpt lat="46.12537" lon="4.59066">
        <ele>567.4</ele>
        <time>2020-10-19T12:33:37Z</time>
      </trkpt>
      <trkpt lat="46.12536" lon="4.59062">
        <ele>567.4</ele>
        <time>2020-10-19T12:33:38Z</time>
      </trkpt>
      <trkpt lat="46.12536" lon="4.59062">
        <ele>567.6</ele>
        <time>2020-10-19T12:33:39Z</time>
      </trkpt>
      <trkpt lat="46.12535" lon="4.59058">
        <ele>567.6</ele>
        <time>2020-10-19T12:33:40Z</time>
      </trkpt>
      <trkpt lat="46.12535" lon="4.59058">
        <ele>568</ele>
        <time>2020-10-19T12:33:41Z</time>
      </trkpt>
      <trkpt lat="46.12535" lon="4.59055">
        <ele>568.2</ele>
        <time>2020-10-19T12:33:42Z</time>
      </trkpt>
      <trkpt lat="46.12535" lon="4.59055">
        <ele>568.2</ele>
        <time>2020-10-19T12:33:43Z</time>
      </trkpt>
      <trkpt lat="46.12535" lon="4.59052">
        <ele>568.4</ele>
        <time>2020-10-19T12:33:44Z</time>
      </trkpt>
      <trkpt lat="46.12535" lon="4.59052">
        <ele>568.4</ele>
        <time>2020-10-19T12:33:45Z</time>
      </trkpt>
      <trkpt lat="46.12535" lon="4.59049">
        <ele>568.8</ele>
        <time>2020-10-19T12:33:46Z</time>
      </trkpt>
      <trkpt lat="46.12535" lon="4.59049">
        <ele>569</ele>
        <time>2020-10-19T12:33:47Z</time>
      </trkpt>
      <trkpt lat="46.12535" lon="4.59045">
        <ele>569.4</ele>
        <time>2020-10-19T12:33:48Z</time>
      </trkpt>
      <trkpt lat="46.12535" lon="4.59045">
        <ele>569.6</ele>
        <time>2020-10-19T12:33:49Z</time>
      </trkpt>
      <trkpt lat="46.12534" lon="4.59041">
        <ele>570</ele>
        <time>2020-10-19T12:33:50Z</time>
      </trkpt>
      <trkpt lat="46.12534" lon="4.59041">
        <ele>570.4</ele>
        <time>2020-10-19T12:33:51Z</time>
      </trkpt>
      <trkpt lat="46.12534" lon="4.59038">
        <ele>570.6</ele>
        <time>2020-10-19T12:33:52Z</time>
      </trkpt>
      <trkpt lat="46.12534" lon="4.59038">
        <ele>571.2</ele>
        <time>2020-10-19T12:33:53Z</time>
      </trkpt>
      <trkpt lat="46.12534" lon="4.59034">
        <ele>571.4</ele>
        <time>2020-10-19T12:33:54Z</time>
      </trkpt>
      <trkpt lat="46.12534" lon="4.59034">
        <ele>571.8</ele>
        <time>2020-10-19T12:33:55Z</time>
      </trkpt>
      <trkpt lat="46.12534" lon="4.59031">
        <ele>571.8</ele>
        <time>2020-10-19T12:33:56Z</time>
      </trkpt>
      <trkpt lat="46.12534" lon="4.59031">
        <ele>572</ele>
        <time>2020-10-19T12:33:57Z</time>
      </trkpt>
      <trkpt lat="46.12533" lon="4.59027">
        <ele>572.4</ele>
        <time>2020-10-19T12:33:58Z</time>
      </trkpt>
      <trkpt lat="46.12533" lon="4.59027">
        <ele>572.6</ele>
        <time>2020-10-19T12:33:59Z</time>
      </trkpt>
      <trkpt lat="46.12532" lon="4.59024">
        <ele>573</ele>
        <time>2020-10-19T12:34:00Z</time>
      </trkpt>
      <trkpt lat="46.12532" lon="4.59024">
        <ele>573.2</ele>
        <time>2020-10-19T12:34:01Z</time>
      </trkpt>
      <trkpt lat="46.12531" lon="4.59021">
        <ele>573.4</ele>
        <time>2020-10-19T12:34:02Z</time>
      </trkpt>
      <trkpt lat="46.12531" lon="4.59021">
        <ele>573.6</ele>
        <time>2020-10-19T12:34:03Z</time>
      </trkpt>
      <trkpt lat="46.12531" lon="4.59018">
        <ele>574</ele>
        <time>2020-10-19T12:34:04Z</time>
      </trkpt>
      <trkpt lat="46.12531" lon="4.59018">
        <ele>574</ele>
        <time>2020-10-19T12:34:05Z</time>
      </trkpt>
      <trkpt lat="46.1253" lon="4.59014">
        <ele>574.4</ele>
        <time>2020-10-19T12:34:06Z</time>
      </trkpt>
      <trkpt lat="46.1253" lon="4.59014">
        <ele>574.4</ele>
        <time>2020-10-19T12:34:07Z</time>
      </trkpt>
      <trkpt lat="46.12529" lon="4.59011">
        <ele>575</ele>
        <time>2020-10-19T12:34:08Z</time>
      </trkpt>
      <trkpt lat="46.12529" lon="4.59011">
        <ele>575.2</ele>
        <time>2020-10-19T12:34:09Z</time>
      </trkpt>
      <trkpt lat="46.12529" lon="4.59007">
        <ele>575.4</ele>
        <time>2020-10-19T12:34:10Z</time>
      </trkpt>
      <trkpt lat="46.12529" lon="4.59007">
        <ele>575.8</ele>
        <time>2020-10-19T12:34:11Z</time>
      </trkpt>
      <trkpt lat="46.12528" lon="4.59004">
        <ele>575.8</ele>
        <time>2020-10-19T12:34:12Z</time>
      </trkpt>
      <trkpt lat="46.12528" lon="4.59004">
        <ele>576.4</ele>
        <time>2020-10-19T12:34:13Z</time>
      </trkpt>
      <trkpt lat="46.12527" lon="4.59">
        <ele>576.6</ele>
        <time>2020-10-19T12:34:14Z</time>
      </trkpt>
      <trkpt lat="46.12527" lon="4.59">
        <ele>577</ele>
        <time>2020-10-19T12:34:15Z</time>
      </trkpt>
      <trkpt lat="46.12526" lon="4.58997">
        <ele>577.2</ele>
        <time>2020-10-19T12:34:16Z</time>
      </trkpt>
      <trkpt lat="46.12526" lon="4.58997">
        <ele>577.6</ele>
        <time>2020-10-19T12:34:17Z</time>
      </trkpt>
      <trkpt lat="46.12526" lon="4.58994">
        <ele>577.8</ele>
        <time>2020-10-19T12:34:18Z</time>
      </trkpt>
      <trkpt lat="46.12526" lon="4.58994">
        <ele>578</ele>
        <time>2020-10-19T12:34:19Z</time>
      </trkpt>
      <trkpt lat="46.12526" lon="4.58994">
        <ele>578.8</ele>
        <time>2020-10-19T12:34:20Z</time>
      </trkpt>
      <trkpt lat="46.12526" lon="4.5899">
        <ele>579</ele>
        <time>2020-10-19T12:34:21Z</time>
      </trkpt>
      <trkpt lat="46.12526" lon="4.5899">
        <ele>579</ele>
        <time>2020-10-19T12:34:22Z</time>
      </trkpt>
      <trkpt lat="46.12526" lon="4.5899">
        <ele>579.6</ele>
        <time>2020-10-19T12:34:23Z</time>
      </trkpt>
      <trkpt lat="46.12526" lon="4.58986">
        <ele>579.8</ele>
        <time>2020-10-19T12:34:24Z</time>
      </trkpt>
      <trkpt lat="46.12526" lon="4.58986">
        <ele>580</ele>
        <time>2020-10-19T12:34:25Z</time>
      </trkpt>
      <trkpt lat="46.12526" lon="4.58983">
        <ele>580.4</ele>
        <time>2020-10-19T12:34:26Z</time>
      </trkpt>
      <trkpt lat="46.12526" lon="4.58983">
        <ele>580.8</ele>
        <time>2020-10-19T12:34:27Z</time>
      </trkpt>
      <trkpt lat="46.12526" lon="4.5898">
        <ele>581.2</ele>
        <time>2020-10-19T12:34:28Z</time>
      </trkpt>
      <trkpt lat="46.12526" lon="4.5898">
        <ele>581.4</ele>
        <time>2020-10-19T12:34:29Z</time>
      </trkpt>
      <trkpt lat="46.12526" lon="4.58977">
        <ele>581.6</ele>
        <time>2020-10-19T12:34:30Z</time>
      </trkpt>
      <trkpt lat="46.12526" lon="4.58977">
        <ele>582.2</ele>
        <time>2020-10-19T12:34:31Z</time>
      </trkpt>
      <trkpt lat="46.12526" lon="4.58977">
        <ele>582.4</ele>
        <time>2020-10-19T12:34:32Z</time>
      </trkpt>
      <trkpt lat="46.12526" lon="4.58973">
        <ele>582.4</ele>
        <time>2020-10-19T12:34:33Z</time>
      </trkpt>
      <trkpt lat="46.12526" lon="4.58973">
        <ele>583.2</ele>
        <time>2020-10-19T12:34:34Z</time>
      </trkpt>
      <trkpt lat="46.12525" lon="4.58971">
        <ele>583.4</ele>
        <time>2020-10-19T12:34:35Z</time>
      </trkpt>
      <trkpt lat="46.12525" lon="4.58971">
        <ele>583.4</ele>
        <time>2020-10-19T12:34:36Z</time>
      </trkpt>
      <trkpt lat="46.12525" lon="4.58968">
        <ele>583.8</ele>
        <time>2020-10-19T12:34:37Z</time>
      </trkpt>
      <trkpt lat="46.12525" lon="4.58968">
        <ele>584</ele>
        <time>2020-10-19T12:34:38Z</time>
      </trkpt>
      <trkpt lat="46.12525" lon="4.58968">
        <ele>584.6</ele>
        <time>2020-10-19T12:34:39Z</time>
      </trkpt>
      <trkpt lat="46.12524" lon="4.58965">
        <ele>585.2</ele>
        <time>2020-10-19T12:34:40Z</time>
      </trkpt>
      <trkpt lat="46.12524" lon="4.58965">
        <ele>585.4</ele>
        <time>2020-10-19T12:34:41Z</time>
      </trkpt>
      <trkpt lat="46.12524" lon="4.58962">
        <ele>585.4</ele>
        <time>2020-10-19T12:34:42Z</time>
      </trkpt>
      <trkpt lat="46.12524" lon="4.58962">
        <ele>585.8</ele>
        <time>2020-10-19T12:34:43Z</time>
      </trkpt>
      <trkpt lat="46.12524" lon="4.5896">
        <ele>586.2</ele>
        <time>2020-10-19T12:34:44Z</time>
      </trkpt>
      <trkpt lat="46.12524" lon="4.5896">
        <ele>586.2</ele>
        <time>2020-10-19T12:34:45Z</time>
      </trkpt>
      <trkpt lat="46.12524" lon="4.58957">
        <ele>586.8</ele>
        <time>2020-10-19T12:34:46Z</time>
      </trkpt>
      <trkpt lat="46.12524" lon="4.58957">
        <ele>587</ele>
        <time>2020-10-19T12:34:47Z</time>
      </trkpt>
      <trkpt lat="46.12524" lon="4.58957">
        <ele>587.2</ele>
        <time>2020-10-19T12:34:48Z</time>
      </trkpt>
      <trkpt lat="46.12524" lon="4.58954">
        <ele>587.8</ele>
        <time>2020-10-19T12:34:49Z</time>
      </trkpt>
      <trkpt lat="46.12524" lon="4.58954">
        <ele>588</ele>
        <time>2020-10-19T12:34:50Z</time>
      </trkpt>
      <trkpt lat="46.12524" lon="4.58951">
        <ele>588.6</ele>
        <time>2020-10-19T12:34:51Z</time>
      </trkpt>
      <trkpt lat="46.12524" lon="4.58951">
        <ele>588.8</ele>
        <time>2020-10-19T12:34:52Z</time>
      </trkpt>
      <trkpt lat="46.12524" lon="4.58951">
        <ele>589.2</ele>
        <time>2020-10-19T12:34:53Z</time>
      </trkpt>
      <trkpt lat="46.12524" lon="4.58947">
        <ele>589.4</ele>
        <time>2020-10-19T12:34:54Z</time>
      </trkpt>
      <trkpt lat="46.12524" lon="4.58947">
        <ele>589.8</ele>
        <time>2020-10-19T12:34:55Z</time>
      </trkpt>
      <trkpt lat="46.12524" lon="4.58947">
        <ele>590.4</ele>
        <time>2020-10-19T12:34:56Z</time>
      </trkpt>
      <trkpt lat="46.12523" lon="4.58944">
        <ele>590.6</ele>
        <time>2020-10-19T12:34:57Z</time>
      </trkpt>
      <trkpt lat="46.12523" lon="4.58944">
        <ele>590.6</ele>
        <time>2020-10-19T12:34:58Z</time>
      </trkpt>
      <trkpt lat="46.12522" lon="4.58942">
        <ele>591</ele>
        <time>2020-10-19T12:34:59Z</time>
      </trkpt>
      <trkpt lat="46.12522" lon="4.58942">
        <ele>591</ele>
        <time>2020-10-19T12:35:00Z</time>
      </trkpt>
      <trkpt lat="46.12521" lon="4.58939">
        <ele>591.4</ele>
        <time>2020-10-19T12:35:01Z</time>
      </trkpt>
      <trkpt lat="46.12521" lon="4.58939">
        <ele>591.6</ele>
        <time>2020-10-19T12:35:02Z</time>
      </trkpt>
      <trkpt lat="46.12521" lon="4.58939">
        <ele>591.8</ele>
        <time>2020-10-19T12:35:03Z</time>
      </trkpt>
      <trkpt lat="46.1252" lon="4.58936">
        <ele>592.4</ele>
        <time>2020-10-19T12:35:04Z</time>
      </trkpt>
      <trkpt lat="46.1252" lon="4.58936">
        <ele>592.8</ele>
        <time>2020-10-19T12:35:05Z</time>
      </trkpt>
      <trkpt lat="46.1252" lon="4.58936">
        <ele>593</ele>
        <time>2020-10-19T12:35:06Z</time>
      </trkpt>
      <trkpt lat="46.1252" lon="4.58936">
        <ele>593.4</ele>
        <time>2020-10-19T12:35:07Z</time>
      </trkpt>
      <trkpt lat="46.1252" lon="4.58936">
        <ele>593.6</ele>
        <time>2020-10-19T12:35:08Z</time>
      </trkpt>
      <trkpt lat="46.12519" lon="4.58934">
        <ele>593.6</ele>
        <time>2020-10-19T12:35:09Z</time>
      </trkpt>
      <trkpt lat="46.12519" lon="4.58934">
        <ele>594.4</ele>
        <time>2020-10-19T12:35:10Z</time>
      </trkpt>
      <trkpt lat="46.12519" lon="4.58934">
        <ele>594.6</ele>
        <time>2020-10-19T12:35:11Z</time>
      </trkpt>
      <trkpt lat="46.12517" lon="4.58931">
        <ele>595.2</ele>
        <time>2020-10-19T12:35:12Z</time>
      </trkpt>
      <trkpt lat="46.12517" lon="4.58931">
        <ele>595.4</ele>
        <time>2020-10-19T12:35:13Z</time>
      </trkpt>
      <trkpt lat="46.12516" lon="4.58928">
        <ele>595.8</ele>
        <time>2020-10-19T12:35:14Z</time>
      </trkpt>
      <trkpt lat="46.12516" lon="4.58928">
        <ele>596.2</ele>
        <time>2020-10-19T12:35:15Z</time>
      </trkpt>
      <trkpt lat="46.12516" lon="4.58928">
        <ele>596.6</ele>
        <time>2020-10-19T12:35:16Z</time>
      </trkpt>
      <trkpt lat="46.12516" lon="4.58925">
        <ele>596.6</ele>
        <time>2020-10-19T12:35:17Z</time>
      </trkpt>
      <trkpt lat="46.12516" lon="4.58925">
        <ele>597.2</ele>
        <time>2020-10-19T12:35:18Z</time>
      </trkpt>
      <trkpt lat="46.12516" lon="4.58922">
        <ele>597.2</ele>
        <time>2020-10-19T12:35:19Z</time>
      </trkpt>
      <trkpt lat="46.12516" lon="4.58922">
        <ele>597.6</ele>
        <time>2020-10-19T12:35:20Z</time>
      </trkpt>
      <trkpt lat="46.12516" lon="4.58919">
        <ele>598</ele>
        <time>2020-10-19T12:35:21Z</time>
      </trkpt>
      <trkpt lat="46.12516" lon="4.58919">
        <ele>598.2</ele>
        <time>2020-10-19T12:35:22Z</time>
      </trkpt>
      <trkpt lat="46.12516" lon="4.58916">
        <ele>598.8</ele>
        <time>2020-10-19T12:35:23Z</time>
      </trkpt>
      <trkpt lat="46.12516" lon="4.58916">
        <ele>599.4</ele>
        <time>2020-10-19T12:35:24Z</time>
      </trkpt>
      <trkpt lat="46.12516" lon="4.58916">
        <ele>599.6</ele>
        <time>2020-10-19T12:35:25Z</time>
      </trkpt>
      <trkpt lat="46.12516" lon="4.58916">
        <ele>600</ele>
        <time>2020-10-19T12:35:26Z</time>
      </trkpt>
      <trkpt lat="46.12516" lon="4.58916">
        <ele>600.2</ele>
        <time>2020-10-19T12:35:27Z</time>
      </trkpt>
      <trkpt lat="46.12516" lon="4.58916">
        <ele>600.4</ele>
        <time>2020-10-19T12:35:28Z</time>
      </trkpt>
      <trkpt lat="46.12516" lon="4.58916">
        <ele>600.6</ele>
        <time>2020-10-19T12:35:29Z</time>
      </trkpt>
      <trkpt lat="46.12516" lon="4.58916">
        <ele>600.8</ele>
        <time>2020-10-19T12:35:30Z</time>
      </trkpt>
      <trkpt lat="46.12516" lon="4.58916">
        <ele>600.8</ele>
        <time>2020-10-19T12:35:31Z</time>
      </trkpt>
      <trkpt lat="46.12516" lon="4.58916">
        <ele>600.8</ele>
        <time>2020-10-19T12:35:32Z</time>
      </trkpt>
      <trkpt lat="46.12516" lon="4.58916">
        <ele>601</ele>
        <time>2020-10-19T12:35:33Z</time>
      </trkpt>
      <trkpt lat="46.12516" lon="4.58916">
        <ele>600.8</ele>
        <time>2020-10-19T12:35:34Z</time>
      </trkpt>
      <trkpt lat="46.12516" lon="4.58916">
        <ele>601</ele>
        <time>2020-10-19T12:35:35Z</time>
      </trkpt>
      <trkpt lat="46.12516" lon="4.58916">
        <ele>601.4</ele>
        <time>2020-10-19T12:35:36Z</time>
      </trkpt>
      <trkpt lat="46.12516" lon="4.58916">
        <ele>601.4</ele>
        <time>2020-10-19T12:35:37Z</time>
      </trkpt>
      <trkpt lat="46.12516" lon="4.58916">
        <ele>601.4</ele>
        <time>2020-10-19T12:35:38Z</time>
      </trkpt>
      <trkpt lat="46.12516" lon="4.58916">
        <ele>601.4</ele>
        <time>2020-10-19T12:35:39Z</time>
      </trkpt>
      <trkpt lat="46.12516" lon="4.58916">
        <ele>601.6</ele>
        <time>2020-10-19T12:35:40Z</time>
      </trkpt>
      <trkpt lat="46.12516" lon="4.58913">
        <ele>601.6</ele>
        <time>2020-10-19T12:35:41Z</time>
      </trkpt>
      <trkpt lat="46.12516" lon="4.58913">
        <ele>601.4</ele>
        <time>2020-10-19T12:35:42Z</time>
      </trkpt>
      <trkpt lat="46.12516" lon="4.58913">
        <ele>601.2</ele>
        <time>2020-10-19T12:35:43Z</time>
      </trkpt>
      <trkpt lat="46.12516" lon="4.58909">
        <ele>601.4</ele>
        <time>2020-10-19T12:35:44Z</time>
      </trkpt>
      <trkpt lat="46.12516" lon="4.58909">
        <ele>601.6</ele>
        <time>2020-10-19T12:35:45Z</time>
      </trkpt>
      <trkpt lat="46.12516" lon="4.58909">
        <ele>601.8</ele>
        <time>2020-10-19T12:35:46Z</time>
      </trkpt>
      <trkpt lat="46.12517" lon="4.58906">
        <ele>602</ele>
        <time>2020-10-19T12:35:47Z</time>
      </trkpt>
      <trkpt lat="46.12517" lon="4.58906">
        <ele>602.2</ele>
        <time>2020-10-19T12:35:48Z</time>
      </trkpt>
      <trkpt lat="46.12517" lon="4.58903">
        <ele>602.6</ele>
        <time>2020-10-19T12:35:49Z</time>
      </trkpt>
      <trkpt lat="46.12517" lon="4.58903">
        <ele>603</ele>
        <time>2020-10-19T12:35:50Z</time>
      </trkpt>
      <trkpt lat="46.12517" lon="4.589">
        <ele>603.2</ele>
        <time>2020-10-19T12:35:51Z</time>
      </trkpt>
      <trkpt lat="46.12517" lon="4.589">
        <ele>603.2</ele>
        <time>2020-10-19T12:35:52Z</time>
      </trkpt>
      <trkpt lat="46.12516" lon="4.58897">
        <ele>603.6</ele>
        <time>2020-10-19T12:35:53Z</time>
      </trkpt>
      <trkpt lat="46.12516" lon="4.58897">
        <ele>604</ele>
        <time>2020-10-19T12:35:54Z</time>
      </trkpt>
      <trkpt lat="46.12516" lon="4.58893">
        <ele>604.2</ele>
        <time>2020-10-19T12:35:55Z</time>
      </trkpt>
      <trkpt lat="46.12516" lon="4.58893">
        <ele>604.6</ele>
        <time>2020-10-19T12:35:56Z</time>
      </trkpt>
      <trkpt lat="46.12516" lon="4.5889">
        <ele>604.8</ele>
        <time>2020-10-19T12:35:57Z</time>
      </trkpt>
      <trkpt lat="46.12516" lon="4.5889">
        <ele>605.2</ele>
        <time>2020-10-19T12:35:58Z</time>
      </trkpt>
      <trkpt lat="46.12516" lon="4.58887">
        <ele>605.4</ele>
        <time>2020-10-19T12:35:59Z</time>
      </trkpt>
      <trkpt lat="46.12516" lon="4.58887">
        <ele>605.8</ele>
        <time>2020-10-19T12:36:00Z</time>
      </trkpt>
      <trkpt lat="46.12516" lon="4.58887">
        <ele>606.2</ele>
        <time>2020-10-19T12:36:01Z</time>
      </trkpt>
      <trkpt lat="46.12515" lon="4.58884">
        <ele>606.4</ele>
        <time>2020-10-19T12:36:02Z</time>
      </trkpt>
      <trkpt lat="46.12515" lon="4.58884">
        <ele>606.6</ele>
        <time>2020-10-19T12:36:03Z</time>
      </trkpt>
      <trkpt lat="46.12515" lon="4.58881">
        <ele>607.2</ele>
        <time>2020-10-19T12:36:04Z</time>
      </trkpt>
      <trkpt lat="46.12515" lon="4.58881">
        <ele>607.2</ele>
        <time>2020-10-19T12:36:05Z</time>
      </trkpt>
      <trkpt lat="46.12515" lon="4.58878">
        <ele>607.6</ele>
        <time>2020-10-19T12:36:06Z</time>
      </trkpt>
      <trkpt lat="46.12515" lon="4.58878">
        <ele>608.2</ele>
        <time>2020-10-19T12:36:07Z</time>
      </trkpt>
      <trkpt lat="46.12516" lon="4.58876">
        <ele>608.2</ele>
        <time>2020-10-19T12:36:08Z</time>
      </trkpt>
      <trkpt lat="46.12516" lon="4.58876">
        <ele>608.2</ele>
        <time>2020-10-19T12:36:09Z</time>
      </trkpt>
      <trkpt lat="46.12516" lon="4.58876">
        <ele>608.8</ele>
        <time>2020-10-19T12:36:10Z</time>
      </trkpt>
      <trkpt lat="46.12517" lon="4.58872">
        <ele>608.8</ele>
        <time>2020-10-19T12:36:11Z</time>
      </trkpt>
      <trkpt lat="46.12517" lon="4.58872">
        <ele>609.2</ele>
        <time>2020-10-19T12:36:12Z</time>
      </trkpt>
      <trkpt lat="46.12517" lon="4.58869">
        <ele>609.4</ele>
        <time>2020-10-19T12:36:13Z</time>
      </trkpt>
      <trkpt lat="46.12517" lon="4.58869">
        <ele>609.6</ele>
        <time>2020-10-19T12:36:14Z</time>
      </trkpt>
      <trkpt lat="46.12518" lon="4.58866">
        <ele>610</ele>
        <time>2020-10-19T12:36:15Z</time>
      </trkpt>
      <trkpt lat="46.12518" lon="4.58866">
        <ele>610</ele>
        <time>2020-10-19T12:36:16Z</time>
      </trkpt>
      <trkpt lat="46.12518" lon="4.58866">
        <ele>610.4</ele>
        <time>2020-10-19T12:36:17Z</time>
      </trkpt>
      <trkpt lat="46.12518" lon="4.58866">
        <ele>610.8</ele>
        <time>2020-10-19T12:36:18Z</time>
      </trkpt>
      <trkpt lat="46.12518" lon="4.58866">
        <ele>611</ele>
        <time>2020-10-19T12:36:19Z</time>
      </trkpt>
      <trkpt lat="46.12518" lon="4.58866">
        <ele>611.2</ele>
        <time>2020-10-19T12:36:20Z</time>
      </trkpt>
      <trkpt lat="46.12517" lon="4.58863">
        <ele>611.2</ele>
        <time>2020-10-19T12:36:21Z</time>
      </trkpt>
      <trkpt lat="46.12517" lon="4.58863">
        <ele>611.4</ele>
        <time>2020-10-19T12:36:22Z</time>
      </trkpt>
      <trkpt lat="46.12517" lon="4.58863">
        <ele>611.6</ele>
        <time>2020-10-19T12:36:23Z</time>
      </trkpt>
      <trkpt lat="46.12517" lon="4.58863">
        <ele>611.4</ele>
        <time>2020-10-19T12:36:24Z</time>
      </trkpt>
      <trkpt lat="46.12518" lon="4.5886">
        <ele>611.4</ele>
        <time>2020-10-19T12:36:25Z</time>
      </trkpt>
      <trkpt lat="46.12518" lon="4.5886">
        <ele>611.8</ele>
        <time>2020-10-19T12:36:26Z</time>
      </trkpt>
      <trkpt lat="46.12518" lon="4.5886">
        <ele>612</ele>
        <time>2020-10-19T12:36:27Z</time>
      </trkpt>
      <trkpt lat="46.12517" lon="4.58856">
        <ele>612.2</ele>
        <time>2020-10-19T12:36:28Z</time>
      </trkpt>
      <trkpt lat="46.12517" lon="4.58856">
        <ele>612.4</ele>
        <time>2020-10-19T12:36:29Z</time>
      </trkpt>
      <trkpt lat="46.12517" lon="4.58856">
        <ele>612.8</ele>
        <time>2020-10-19T12:36:30Z</time>
      </trkpt>
      <trkpt lat="46.12518" lon="4.58853">
        <ele>612.8</ele>
        <time>2020-10-19T12:36:31Z</time>
      </trkpt>
      <trkpt lat="46.12518" lon="4.58853">
        <ele>613.2</ele>
        <time>2020-10-19T12:36:32Z</time>
      </trkpt>
      <trkpt lat="46.12518" lon="4.58853">
        <ele>613.6</ele>
        <time>2020-10-19T12:36:33Z</time>
      </trkpt>
      <trkpt lat="46.12517" lon="4.5885">
        <ele>613.8</ele>
        <time>2020-10-19T12:36:34Z</time>
      </trkpt>
      <trkpt lat="46.12517" lon="4.5885">
        <ele>614.2</ele>
        <time>2020-10-19T12:36:35Z</time>
      </trkpt>
      <trkpt lat="46.12517" lon="4.5885">
        <ele>614.2</ele>
        <time>2020-10-19T12:36:36Z</time>
      </trkpt>
      <trkpt lat="46.12516" lon="4.58848">
        <ele>614.2</ele>
        <time>2020-10-19T12:36:37Z</time>
      </trkpt>
      <trkpt lat="46.12516" lon="4.58848">
        <ele>614</ele>
        <time>2020-10-19T12:36:38Z</time>
      </trkpt>
      <trkpt lat="46.12516" lon="4.58848">
        <ele>614</ele>
        <time>2020-10-19T12:36:39Z</time>
      </trkpt>
      <trkpt lat="46.12516" lon="4.58848">
        <ele>614</ele>
        <time>2020-10-19T12:36:40Z</time>
      </trkpt>
      <trkpt lat="46.12516" lon="4.58848">
        <ele>614</ele>
        <time>2020-10-19T12:36:41Z</time>
      </trkpt>
      <trkpt lat="46.12516" lon="4.58848">
        <ele>614</ele>
        <time>2020-10-19T12:36:42Z</time>
      </trkpt>
      <trkpt lat="46.12516" lon="4.58851">
        <ele>613.8</ele>
        <time>2020-10-19T12:36:43Z</time>
      </trkpt>
      <trkpt lat="46.12516" lon="4.58851">
        <ele>613.8</ele>
        <time>2020-10-19T12:36:44Z</time>
      </trkpt>
      <trkpt lat="46.12516" lon="4.58856">
        <ele>613.8</ele>
        <time>2020-10-19T12:36:45Z</time>
      </trkpt>
      <trkpt lat="46.12516" lon="4.58856">
        <ele>613.8</ele>
        <time>2020-10-19T12:36:46Z</time>
      </trkpt>
      <trkpt lat="46.12516" lon="4.5886">
        <ele>613.8</ele>
        <time>2020-10-19T12:36:47Z</time>
      </trkpt>
      <trkpt lat="46.12516" lon="4.5886">
        <ele>613.6</ele>
        <time>2020-10-19T12:36:48Z</time>
      </trkpt>
      <trkpt lat="46.12516" lon="4.58864">
        <ele>613.4</ele>
        <time>2020-10-19T12:36:49Z</time>
      </trkpt>
      <trkpt lat="46.12516" lon="4.58864">
        <ele>613.2</ele>
        <time>2020-10-19T12:36:50Z</time>
      </trkpt>
      <trkpt lat="46.12516" lon="4.58867">
        <ele>612.8</ele>
        <time>2020-10-19T12:36:51Z</time>
      </trkpt>
      <trkpt lat="46.12516" lon="4.58867">
        <ele>612.6</ele>
        <time>2020-10-19T12:36:52Z</time>
      </trkpt>
      <trkpt lat="46.12515" lon="4.5887">
        <ele>611.8</ele>
        <time>2020-10-19T12:36:53Z</time>
      </trkpt>
      <trkpt lat="46.12515" lon="4.5887">
        <ele>611.2</ele>
        <time>2020-10-19T12:36:54Z</time>
      </trkpt>
      <trkpt lat="46.12515" lon="4.5887">
        <ele>610.6</ele>
        <time>2020-10-19T12:36:55Z</time>
      </trkpt>
      <trkpt lat="46.12515" lon="4.5887">
        <ele>610.4</ele>
        <time>2020-10-19T12:36:56Z</time>
      </trkpt>
      <trkpt lat="46.12515" lon="4.5887">
        <ele>610.2</ele>
        <time>2020-10-19T12:36:57Z</time>
      </trkpt>
      <trkpt lat="46.12515" lon="4.58867">
        <ele>610.4</ele>
        <time>2020-10-19T12:36:58Z</time>
      </trkpt>
      <trkpt lat="46.12515" lon="4.58867">
        <ele>610.2</ele>
        <time>2020-10-19T12:36:59Z</time>
      </trkpt>
      <trkpt lat="46.12515" lon="4.58864">
        <ele>610.6</ele>
        <time>2020-10-19T12:37:00Z</time>
      </trkpt>
      <trkpt lat="46.12515" lon="4.58864">
        <ele>610.6</ele>
        <time>2020-10-19T12:37:01Z</time>
      </trkpt>
      <trkpt lat="46.12516" lon="4.58861">
        <ele>610.8</ele>
        <time>2020-10-19T12:37:02Z</time>
      </trkpt>
      <trkpt lat="46.12516" lon="4.58861">
        <ele>611</ele>
        <time>2020-10-19T12:37:03Z</time>
      </trkpt>
      <trkpt lat="46.12516" lon="4.58857">
        <ele>611.4</ele>
        <time>2020-10-19T12:37:04Z</time>
      </trkpt>
      <trkpt lat="46.12516" lon="4.58857">
        <ele>611.8</ele>
        <time>2020-10-19T12:37:05Z</time>
      </trkpt>
      <trkpt lat="46.12516" lon="4.58854">
        <ele>611.8</ele>
        <time>2020-10-19T12:37:06Z</time>
      </trkpt>
      <trkpt lat="46.12516" lon="4.58854">
        <ele>612.4</ele>
        <time>2020-10-19T12:37:07Z</time>
      </trkpt>
      <trkpt lat="46.12516" lon="4.58851">
        <ele>612.6</ele>
        <time>2020-10-19T12:37:08Z</time>
      </trkpt>
      <trkpt lat="46.12516" lon="4.58851">
        <ele>613</ele>
        <time>2020-10-19T12:37:09Z</time>
      </trkpt>
      <trkpt lat="46.12516" lon="4.58848">
        <ele>613.2</ele>
        <time>2020-10-19T12:37:10Z</time>
      </trkpt>
      <trkpt lat="46.12516" lon="4.58848">
        <ele>613.6</ele>
        <time>2020-10-19T12:37:11Z</time>
      </trkpt>
      <trkpt lat="46.12516" lon="4.58848">
        <ele>614</ele>
        <time>2020-10-19T12:37:12Z</time>
      </trkpt>
      <trkpt lat="46.12516" lon="4.58848">
        <ele>614.4</ele>
        <time>2020-10-19T12:37:13Z</time>
      </trkpt>
      <trkpt lat="46.12516" lon="4.58848">
        <ele>614.4</ele>
        <time>2020-10-19T12:37:14Z</time>
      </trkpt>
      <trkpt lat="46.12516" lon="4.58848">
        <ele>614.2</ele>
        <time>2020-10-19T12:37:15Z</time>
      </trkpt>
      <trkpt lat="46.12516" lon="4.58848">
        <ele>614</ele>
        <time>2020-10-19T12:37:16Z</time>
      </trkpt>
      <trkpt lat="46.12516" lon="4.58848">
        <ele>614</ele>
        <time>2020-10-19T12:37:17Z</time>
      </trkpt>
      <trkpt lat="46.12516" lon="4.58848">
        <ele>613.8</ele>
        <time>2020-10-19T12:37:18Z</time>
      </trkpt>
      <trkpt lat="46.12516" lon="4.58848">
        <ele>613.6</ele>
        <time>2020-10-19T12:37:19Z</time>
      </trkpt>
      <trkpt lat="46.12516" lon="4.58848">
        <ele>613.6</ele>
        <time>2020-10-19T12:37:20Z</time>
      </trkpt>
      <trkpt lat="46.12516" lon="4.58848">
        <ele>613.8</ele>
        <time>2020-10-19T12:37:21Z</time>
      </trkpt>
      <trkpt lat="46.12516" lon="4.58848">
        <ele>614</ele>
        <time>2020-10-19T12:37:22Z</time>
      </trkpt>
      <trkpt lat="46.12515" lon="4.58846">
        <ele>614.4</ele>
        <time>2020-10-19T12:37:23Z</time>
      </trkpt>
      <trkpt lat="46.12515" lon="4.58846">
        <ele>614.2</ele>
        <time>2020-10-19T12:37:24Z</time>
      </trkpt>
      <trkpt lat="46.12515" lon="4.58843">
        <ele>614.2</ele>
        <time>2020-10-19T12:37:25Z</time>
      </trkpt>
      <trkpt lat="46.12515" lon="4.58843">
        <ele>614.2</ele>
        <time>2020-10-19T12:37:26Z</time>
      </trkpt>
      <trkpt lat="46.12516" lon="4.58839">
        <ele>614.8</ele>
        <time>2020-10-19T12:37:27Z</time>
      </trkpt>
      <trkpt lat="46.12516" lon="4.58839">
        <ele>614.8</ele>
        <time>2020-10-19T12:37:28Z</time>
      </trkpt>
      <trkpt lat="46.12516" lon="4.58836">
        <ele>615.4</ele>
        <time>2020-10-19T12:37:29Z</time>
      </trkpt>
      <trkpt lat="46.12516" lon="4.58836">
        <ele>615.6</ele>
        <time>2020-10-19T12:37:30Z</time>
      </trkpt>
      <trkpt lat="46.12516" lon="4.58836">
        <ele>615.6</ele>
        <time>2020-10-19T12:37:31Z</time>
      </trkpt>
      <trkpt lat="46.12516" lon="4.58836">
        <ele>615.8</ele>
        <time>2020-10-19T12:37:32Z</time>
      </trkpt>
      <trkpt lat="46.12516" lon="4.58836">
        <ele>616</ele>
        <time>2020-10-19T12:37:33Z</time>
      </trkpt>
      <trkpt lat="46.12515" lon="4.5884">
        <ele>616</ele>
        <time>2020-10-19T12:37:34Z</time>
      </trkpt>
      <trkpt lat="46.12515" lon="4.5884">
        <ele>616</ele>
        <time>2020-10-19T12:37:35Z</time>
      </trkpt>
      <trkpt lat="46.12515" lon="4.58844">
        <ele>616</ele>
        <time>2020-10-19T12:37:36Z</time>
      </trkpt>
      <trkpt lat="46.12515" lon="4.58844">
        <ele>615.8</ele>
        <time>2020-10-19T12:37:37Z</time>
      </trkpt>
      <trkpt lat="46.12515" lon="4.58844">
        <ele>615.6</ele>
        <time>2020-10-19T12:37:38Z</time>
      </trkpt>
      <trkpt lat="46.12515" lon="4.58844">
        <ele>615.4</ele>
        <time>2020-10-19T12:37:39Z</time>
      </trkpt>
      <trkpt lat="46.12515" lon="4.58844">
        <ele>615</ele>
        <time>2020-10-19T12:37:40Z</time>
      </trkpt>
      <trkpt lat="46.12515" lon="4.58844">
        <ele>615</ele>
        <time>2020-10-19T12:37:41Z</time>
      </trkpt>
      <trkpt lat="46.12515" lon="4.58844">
        <ele>614.8</ele>
        <time>2020-10-19T12:37:42Z</time>
      </trkpt>
      <trkpt lat="46.12515" lon="4.58841">
        <ele>615</ele>
        <time>2020-10-19T12:37:43Z</time>
      </trkpt>
      <trkpt lat="46.12515" lon="4.58841">
        <ele>615</ele>
        <time>2020-10-19T12:37:44Z</time>
      </trkpt>
      <trkpt lat="46.12516" lon="4.58839">
        <ele>615.2</ele>
        <time>2020-10-19T12:37:45Z</time>
      </trkpt>
      <trkpt lat="46.12516" lon="4.58839">
        <ele>615.6</ele>
        <time>2020-10-19T12:37:46Z</time>
      </trkpt>
      <trkpt lat="46.12516" lon="4.58839">
        <ele>615.6</ele>
        <time>2020-10-19T12:37:47Z</time>
      </trkpt>
      <trkpt lat="46.12515" lon="4.58835">
        <ele>615.6</ele>
        <time>2020-10-19T12:37:48Z</time>
      </trkpt>
      <trkpt lat="46.12515" lon="4.58835">
        <ele>615.8</ele>
        <time>2020-10-19T12:37:49Z</time>
      </trkpt>
      <trkpt lat="46.12515" lon="4.58832">
        <ele>616.2</ele>
        <time>2020-10-19T12:37:50Z</time>
      </trkpt>
      <trkpt lat="46.12515" lon="4.58832">
        <ele>616.2</ele>
        <time>2020-10-19T12:37:51Z</time>
      </trkpt>
      <trkpt lat="46.12516" lon="4.58829">
        <ele>616.6</ele>
        <time>2020-10-19T12:37:52Z</time>
      </trkpt>
      <trkpt lat="46.12516" lon="4.58829">
        <ele>616.6</ele>
        <time>2020-10-19T12:37:53Z</time>
      </trkpt>
      <trkpt lat="46.12516" lon="4.58826">
        <ele>616.8</ele>
        <time>2020-10-19T12:37:54Z</time>
      </trkpt>
      <trkpt lat="46.12516" lon="4.58826">
        <ele>617</ele>
        <time>2020-10-19T12:37:55Z</time>
      </trkpt>
      <trkpt lat="46.12516" lon="4.58823">
        <ele>617.2</ele>
        <time>2020-10-19T12:37:56Z</time>
      </trkpt>
      <trkpt lat="46.12516" lon="4.58823">
        <ele>617.8</ele>
        <time>2020-10-19T12:37:57Z</time>
      </trkpt>
      <trkpt lat="46.12517" lon="4.5882">
        <ele>618</ele>
        <time>2020-10-19T12:37:58Z</time>
      </trkpt>
      <trkpt lat="46.12517" lon="4.5882">
        <ele>618.2</ele>
        <time>2020-10-19T12:37:59Z</time>
      </trkpt>
      <trkpt lat="46.12517" lon="4.5882">
        <ele>618.6</ele>
        <time>2020-10-19T12:38:00Z</time>
      </trkpt>
      <trkpt lat="46.12518" lon="4.58817">
        <ele>619</ele>
        <time>2020-10-19T12:38:01Z</time>
      </trkpt>
      <trkpt lat="46.12518" lon="4.58817">
        <ele>619.2</ele>
        <time>2020-10-19T12:38:02Z</time>
      </trkpt>
      <trkpt lat="46.12518" lon="4.58817">
        <ele>619.4</ele>
        <time>2020-10-19T12:38:03Z</time>
      </trkpt>
      <trkpt lat="46.12519" lon="4.58813">
        <ele>619.8</ele>
        <time>2020-10-19T12:38:04Z</time>
      </trkpt>
      <trkpt lat="46.12519" lon="4.58813">
        <ele>620</ele>
        <time>2020-10-19T12:38:05Z</time>
      </trkpt>
      <trkpt lat="46.1252" lon="4.5881">
        <ele>620.2</ele>
        <time>2020-10-19T12:38:06Z</time>
      </trkpt>
      <trkpt lat="46.1252" lon="4.5881">
        <ele>620.4</ele>
        <time>2020-10-19T12:38:07Z</time>
      </trkpt>
      <trkpt lat="46.1252" lon="4.58807">
        <ele>620.8</ele>
        <time>2020-10-19T12:38:08Z</time>
      </trkpt>
      <trkpt lat="46.1252" lon="4.58807">
        <ele>621.2</ele>
        <time>2020-10-19T12:38:09Z</time>
      </trkpt>
      <trkpt lat="46.12521" lon="4.58803">
        <ele>621.2</ele>
        <time>2020-10-19T12:38:10Z</time>
      </trkpt>
      <trkpt lat="46.12521" lon="4.58803">
        <ele>621.4</ele>
        <time>2020-10-19T12:38:11Z</time>
      </trkpt>
      <trkpt lat="46.12522" lon="4.588">
        <ele>621.6</ele>
        <time>2020-10-19T12:38:12Z</time>
      </trkpt>
      <trkpt lat="46.12522" lon="4.588">
        <ele>622</ele>
        <time>2020-10-19T12:38:13Z</time>
      </trkpt>
      <trkpt lat="46.12522" lon="4.58797">
        <ele>622</ele>
        <time>2020-10-19T12:38:14Z</time>
      </trkpt>
      <trkpt lat="46.12522" lon="4.58797">
        <ele>622.4</ele>
        <time>2020-10-19T12:38:15Z</time>
      </trkpt>
      <trkpt lat="46.12523" lon="4.58794">
        <ele>622.6</ele>
        <time>2020-10-19T12:38:16Z</time>
      </trkpt>
      <trkpt lat="46.12523" lon="4.58794">
        <ele>622.8</ele>
        <time>2020-10-19T12:38:17Z</time>
      </trkpt>
      <trkpt lat="46.12523" lon="4.5879">
        <ele>623.2</ele>
        <time>2020-10-19T12:38:18Z</time>
      </trkpt>
      <trkpt lat="46.12523" lon="4.5879">
        <ele>623.2</ele>
        <time>2020-10-19T12:38:19Z</time>
      </trkpt>
      <trkpt lat="46.12523" lon="4.58787">
        <ele>623.6</ele>
        <time>2020-10-19T12:38:20Z</time>
      </trkpt>
      <trkpt lat="46.12523" lon="4.58787">
        <ele>623.8</ele>
        <time>2020-10-19T12:38:21Z</time>
      </trkpt>
      <trkpt lat="46.12524" lon="4.58783">
        <ele>624</ele>
        <time>2020-10-19T12:38:22Z</time>
      </trkpt>
      <trkpt lat="46.12524" lon="4.58783">
        <ele>624.2</ele>
        <time>2020-10-19T12:38:23Z</time>
      </trkpt>
      <trkpt lat="46.12524" lon="4.5878">
        <ele>624.2</ele>
        <time>2020-10-19T12:38:24Z</time>
      </trkpt>
      <trkpt lat="46.12524" lon="4.5878">
        <ele>624.6</ele>
        <time>2020-10-19T12:38:25Z</time>
      </trkpt>
      <trkpt lat="46.12525" lon="4.58777">
        <ele>624.6</ele>
        <time>2020-10-19T12:38:26Z</time>
      </trkpt>
      <trkpt lat="46.12525" lon="4.58777">
        <ele>624.8</ele>
        <time>2020-10-19T12:38:27Z</time>
      </trkpt>
      <trkpt lat="46.12525" lon="4.58774">
        <ele>625</ele>
        <time>2020-10-19T12:38:28Z</time>
      </trkpt>
      <trkpt lat="46.12525" lon="4.58774">
        <ele>625</ele>
        <time>2020-10-19T12:38:29Z</time>
      </trkpt>
      <trkpt lat="46.12526" lon="4.5877">
        <ele>625.4</ele>
        <time>2020-10-19T12:38:30Z</time>
      </trkpt>
      <trkpt lat="46.12526" lon="4.5877">
        <ele>625.4</ele>
        <time>2020-10-19T12:38:31Z</time>
      </trkpt>
      <trkpt lat="46.12526" lon="4.58766">
        <ele>625.4</ele>
        <time>2020-10-19T12:38:32Z</time>
      </trkpt>
      <trkpt lat="46.12526" lon="4.58766">
        <ele>625.8</ele>
        <time>2020-10-19T12:38:33Z</time>
      </trkpt>
      <trkpt lat="46.12525" lon="4.58763">
        <ele>625.8</ele>
        <time>2020-10-19T12:38:34Z</time>
      </trkpt>
      <trkpt lat="46.12525" lon="4.58763">
        <ele>626</ele>
        <time>2020-10-19T12:38:35Z</time>
      </trkpt>
      <trkpt lat="46.12525" lon="4.5876">
        <ele>626.2</ele>
        <time>2020-10-19T12:38:36Z</time>
      </trkpt>
      <trkpt lat="46.12525" lon="4.5876">
        <ele>626.6</ele>
        <time>2020-10-19T12:38:37Z</time>
      </trkpt>
      <trkpt lat="46.12525" lon="4.58757">
        <ele>626.6</ele>
        <time>2020-10-19T12:38:38Z</time>
      </trkpt>
      <trkpt lat="46.12525" lon="4.58757">
        <ele>627</ele>
        <time>2020-10-19T12:38:39Z</time>
      </trkpt>
      <trkpt lat="46.12525" lon="4.58754">
        <ele>627.4</ele>
        <time>2020-10-19T12:38:40Z</time>
      </trkpt>
      <trkpt lat="46.12525" lon="4.58754">
        <ele>627</ele>
        <time>2020-10-19T12:38:41Z</time>
      </trkpt>
      <trkpt lat="46.12525" lon="4.5875">
        <ele>627.4</ele>
        <time>2020-10-19T12:38:42Z</time>
      </trkpt>
      <trkpt lat="46.12525" lon="4.5875">
        <ele>627.6</ele>
        <time>2020-10-19T12:38:43Z</time>
      </trkpt>
      <trkpt lat="46.12525" lon="4.58747">
        <ele>627.8</ele>
        <time>2020-10-19T12:38:44Z</time>
      </trkpt>
      <trkpt lat="46.12525" lon="4.58747">
        <ele>627.8</ele>
        <time>2020-10-19T12:38:45Z</time>
      </trkpt>
      <trkpt lat="46.12526" lon="4.58744">
        <ele>628</ele>
        <time>2020-10-19T12:38:46Z</time>
      </trkpt>
      <trkpt lat="46.12526" lon="4.58744">
        <ele>628.2</ele>
        <time>2020-10-19T12:38:47Z</time>
      </trkpt>
      <trkpt lat="46.12526" lon="4.58741">
        <ele>628.4</ele>
        <time>2020-10-19T12:38:48Z</time>
      </trkpt>
      <trkpt lat="46.12526" lon="4.58741">
        <ele>628.4</ele>
        <time>2020-10-19T12:38:49Z</time>
      </trkpt>
      <trkpt lat="46.12526" lon="4.58737">
        <ele>628.8</ele>
        <time>2020-10-19T12:38:50Z</time>
      </trkpt>
      <trkpt lat="46.12526" lon="4.58737">
        <ele>629</ele>
        <time>2020-10-19T12:38:51Z</time>
      </trkpt>
      <trkpt lat="46.12527" lon="4.58733">
        <ele>629.2</ele>
        <time>2020-10-19T12:38:52Z</time>
      </trkpt>
      <trkpt lat="46.12527" lon="4.58733">
        <ele>629.4</ele>
        <time>2020-10-19T12:38:53Z</time>
      </trkpt>
      <trkpt lat="46.12528" lon="4.58729">
        <ele>629.4</ele>
        <time>2020-10-19T12:38:54Z</time>
      </trkpt>
      <trkpt lat="46.12528" lon="4.58729">
        <ele>629.2</ele>
        <time>2020-10-19T12:38:55Z</time>
      </trkpt>
      <trkpt lat="46.1253" lon="4.58725">
        <ele>629.2</ele>
        <time>2020-10-19T12:38:56Z</time>
      </trkpt>
      <trkpt lat="46.1253" lon="4.58725">
        <ele>629.2</ele>
        <time>2020-10-19T12:38:57Z</time>
      </trkpt>
      <trkpt lat="46.12531" lon="4.58721">
        <ele>629.4</ele>
        <time>2020-10-19T12:38:58Z</time>
      </trkpt>
      <trkpt lat="46.12531" lon="4.58721">
        <ele>629.6</ele>
        <time>2020-10-19T12:38:59Z</time>
      </trkpt>
      <trkpt lat="46.1253" lon="4.58717">
        <ele>629.6</ele>
        <time>2020-10-19T12:39:00Z</time>
      </trkpt>
      <trkpt lat="46.1253" lon="4.58717">
        <ele>629.4</ele>
        <time>2020-10-19T12:39:01Z</time>
      </trkpt>
      <trkpt lat="46.1253" lon="4.58713">
        <ele>629.6</ele>
        <time>2020-10-19T12:39:02Z</time>
      </trkpt>
      <trkpt lat="46.1253" lon="4.58713">
        <ele>629.8</ele>
        <time>2020-10-19T12:39:03Z</time>
      </trkpt>
      <trkpt lat="46.1253" lon="4.58708">
        <ele>629.8</ele>
        <time>2020-10-19T12:39:04Z</time>
      </trkpt>
      <trkpt lat="46.1253" lon="4.58708">
        <ele>629.6</ele>
        <time>2020-10-19T12:39:05Z</time>
      </trkpt>
      <trkpt lat="46.1253" lon="4.58705">
        <ele>629.4</ele>
        <time>2020-10-19T12:39:06Z</time>
      </trkpt>
      <trkpt lat="46.1253" lon="4.58705">
        <ele>629.4</ele>
        <time>2020-10-19T12:39:07Z</time>
      </trkpt>
      <trkpt lat="46.12531" lon="4.58701">
        <ele>629.4</ele>
        <time>2020-10-19T12:39:08Z</time>
      </trkpt>
      <trkpt lat="46.12531" lon="4.58701">
        <ele>629.4</ele>
        <time>2020-10-19T12:39:09Z</time>
      </trkpt>
      <trkpt lat="46.12531" lon="4.58701">
        <ele>629.4</ele>
        <time>2020-10-19T12:39:10Z</time>
      </trkpt>
      <trkpt lat="46.12531" lon="4.58704">
        <ele>629.4</ele>
        <time>2020-10-19T12:39:11Z</time>
      </trkpt>
      <trkpt lat="46.12531" lon="4.58704">
        <ele>629</ele>
        <time>2020-10-19T12:39:12Z</time>
      </trkpt>
      <trkpt lat="46.12531" lon="4.58708">
        <ele>629</ele>
        <time>2020-10-19T12:39:13Z</time>
      </trkpt>
      <trkpt lat="46.12531" lon="4.58708">
        <ele>629</ele>
        <time>2020-10-19T12:39:14Z</time>
      </trkpt>
      <trkpt lat="46.12531" lon="4.58713">
        <ele>629</ele>
        <time>2020-10-19T12:39:15Z</time>
      </trkpt>
      <trkpt lat="46.12531" lon="4.58713">
        <ele>629.2</ele>
        <time>2020-10-19T12:39:16Z</time>
      </trkpt>
      <trkpt lat="46.12531" lon="4.58717">
        <ele>629</ele>
        <time>2020-10-19T12:39:17Z</time>
      </trkpt>
      <trkpt lat="46.12531" lon="4.58717">
        <ele>628.8</ele>
        <time>2020-10-19T12:39:18Z</time>
      </trkpt>
      <trkpt lat="46.12532" lon="4.58721">
        <ele>628.6</ele>
        <time>2020-10-19T12:39:19Z</time>
      </trkpt>
      <trkpt lat="46.12532" lon="4.58721">
        <ele>628.2</ele>
        <time>2020-10-19T12:39:20Z</time>
      </trkpt>
      <trkpt lat="46.12531" lon="4.58725">
        <ele>627.8</ele>
        <time>2020-10-19T12:39:21Z</time>
      </trkpt>
      <trkpt lat="46.12531" lon="4.58725">
        <ele>627.8</ele>
        <time>2020-10-19T12:39:22Z</time>
      </trkpt>
      <trkpt lat="46.1253" lon="4.58728">
        <ele>627.6</ele>
        <time>2020-10-19T12:39:23Z</time>
      </trkpt>
      <trkpt lat="46.1253" lon="4.58728">
        <ele>627.6</ele>
        <time>2020-10-19T12:39:24Z</time>
      </trkpt>
      <trkpt lat="46.12528" lon="4.58732">
        <ele>627.6</ele>
        <time>2020-10-19T12:39:25Z</time>
      </trkpt>
      <trkpt lat="46.12528" lon="4.58732">
        <ele>627.8</ele>
        <time>2020-10-19T12:39:26Z</time>
      </trkpt>
      <trkpt lat="46.12527" lon="4.58736">
        <ele>627.8</ele>
        <time>2020-10-19T12:39:27Z</time>
      </trkpt>
      <trkpt lat="46.12527" lon="4.58736">
        <ele>627.8</ele>
        <time>2020-10-19T12:39:28Z</time>
      </trkpt>
      <trkpt lat="46.12526" lon="4.5874">
        <ele>628</ele>
        <time>2020-10-19T12:39:29Z</time>
      </trkpt>
      <trkpt lat="46.12526" lon="4.5874">
        <ele>628</ele>
        <time>2020-10-19T12:39:30Z</time>
      </trkpt>
      <trkpt lat="46.12526" lon="4.5874">
        <ele>628.2</ele>
        <time>2020-10-19T12:39:31Z</time>
      </trkpt>
      <trkpt lat="46.12526" lon="4.58743">
        <ele>628.2</ele>
        <time>2020-10-19T12:39:32Z</time>
      </trkpt>
      <trkpt lat="46.12526" lon="4.58743">
        <ele>627.8</ele>
        <time>2020-10-19T12:39:33Z</time>
      </trkpt>
      <trkpt lat="46.12526" lon="4.58743">
        <ele>627.8</ele>
        <time>2020-10-19T12:39:34Z</time>
      </trkpt>
      <trkpt lat="46.12526" lon="4.58743">
        <ele>627.6</ele>
        <time>2020-10-19T12:39:35Z</time>
      </trkpt>
      <trkpt lat="46.12526" lon="4.58743">
        <ele>627.6</ele>
        <time>2020-10-19T12:39:36Z</time>
      </trkpt>
      <trkpt lat="46.12526" lon="4.5874">
        <ele>627.6</ele>
        <time>2020-10-19T12:39:37Z</time>
      </trkpt>
      <trkpt lat="46.12526" lon="4.5874">
        <ele>627.4</ele>
        <time>2020-10-19T12:39:38Z</time>
      </trkpt>
      <trkpt lat="46.12527" lon="4.58736">
        <ele>627.2</ele>
        <time>2020-10-19T12:39:39Z</time>
      </trkpt>
      <trkpt lat="46.12527" lon="4.58736">
        <ele>627.4</ele>
        <time>2020-10-19T12:39:40Z</time>
      </trkpt>
      <trkpt lat="46.12528" lon="4.58731">
        <ele>627.4</ele>
        <time>2020-10-19T12:39:41Z</time>
      </trkpt>
      <trkpt lat="46.12528" lon="4.58731">
        <ele>627.4</ele>
        <time>2020-10-19T12:39:42Z</time>
      </trkpt>
      <trkpt lat="46.12529" lon="4.58727">
        <ele>627.6</ele>
        <time>2020-10-19T12:39:43Z</time>
      </trkpt>
      <trkpt lat="46.12529" lon="4.58727">
        <ele>627.6</ele>
        <time>2020-10-19T12:39:44Z</time>
      </trkpt>
      <trkpt lat="46.1253" lon="4.58723">
        <ele>627.6</ele>
        <time>2020-10-19T12:39:45Z</time>
      </trkpt>
      <trkpt lat="46.1253" lon="4.58723">
        <ele>627.4</ele>
        <time>2020-10-19T12:39:46Z</time>
      </trkpt>
      <trkpt lat="46.1253" lon="4.58718">
        <ele>627.4</ele>
        <time>2020-10-19T12:39:47Z</time>
      </trkpt>
      <trkpt lat="46.1253" lon="4.58718">
        <ele>627.4</ele>
        <time>2020-10-19T12:39:48Z</time>
      </trkpt>
      <trkpt lat="46.1253" lon="4.58714">
        <ele>627.4</ele>
        <time>2020-10-19T12:39:49Z</time>
      </trkpt>
      <trkpt lat="46.1253" lon="4.58714">
        <ele>627.2</ele>
        <time>2020-10-19T12:39:50Z</time>
      </trkpt>
      <trkpt lat="46.1253" lon="4.58709">
        <ele>627.2</ele>
        <time>2020-10-19T12:39:51Z</time>
      </trkpt>
      <trkpt lat="46.1253" lon="4.58709">
        <ele>627</ele>
        <time>2020-10-19T12:39:52Z</time>
      </trkpt>
      <trkpt lat="46.1253" lon="4.58705">
        <ele>626.8</ele>
        <time>2020-10-19T12:39:53Z</time>
      </trkpt>
      <trkpt lat="46.1253" lon="4.58705">
        <ele>627.2</ele>
        <time>2020-10-19T12:39:54Z</time>
      </trkpt>
      <trkpt lat="46.12529" lon="4.587">
        <ele>627</ele>
        <time>2020-10-19T12:39:55Z</time>
      </trkpt>
      <trkpt lat="46.12529" lon="4.587">
        <ele>627</ele>
        <time>2020-10-19T12:39:56Z</time>
      </trkpt>
      <trkpt lat="46.12529" lon="4.58695">
        <ele>626.8</ele>
        <time>2020-10-19T12:39:57Z</time>
      </trkpt>
      <trkpt lat="46.12529" lon="4.58695">
        <ele>626.8</ele>
        <time>2020-10-19T12:39:58Z</time>
      </trkpt>
      <trkpt lat="46.12529" lon="4.58691">
        <ele>626.8</ele>
        <time>2020-10-19T12:39:59Z</time>
      </trkpt>
      <trkpt lat="46.1253" lon="4.58687">
        <ele>626.8</ele>
        <time>2020-10-19T12:40:01Z</time>
      </trkpt>
      <trkpt lat="46.1253" lon="4.58687">
        <ele>627</ele>
        <time>2020-10-19T12:40:02Z</time>
      </trkpt>
      <trkpt lat="46.12531" lon="4.58682">
        <ele>627.2</ele>
        <time>2020-10-19T12:40:03Z</time>
      </trkpt>
      <trkpt lat="46.12531" lon="4.58682">
        <ele>627.4</ele>
        <time>2020-10-19T12:40:04Z</time>
      </trkpt>
      <trkpt lat="46.12532" lon="4.58678">
        <ele>627.4</ele>
        <time>2020-10-19T12:40:05Z</time>
      </trkpt>
      <trkpt lat="46.12532" lon="4.58678">
        <ele>627.8</ele>
        <time>2020-10-19T12:40:06Z</time>
      </trkpt>
      <trkpt lat="46.12532" lon="4.58674">
        <ele>627.8</ele>
        <time>2020-10-19T12:40:07Z</time>
      </trkpt>
      <trkpt lat="46.12532" lon="4.58674">
        <ele>628.2</ele>
        <time>2020-10-19T12:40:08Z</time>
      </trkpt>
      <trkpt lat="46.12533" lon="4.58669">
        <ele>628.4</ele>
        <time>2020-10-19T12:40:09Z</time>
      </trkpt>
      <trkpt lat="46.12533" lon="4.58669">
        <ele>628.2</ele>
        <time>2020-10-19T12:40:10Z</time>
      </trkpt>
      <trkpt lat="46.12534" lon="4.58664">
        <ele>628.4</ele>
        <time>2020-10-19T12:40:11Z</time>
      </trkpt>
      <trkpt lat="46.12534" lon="4.58664">
        <ele>628.6</ele>
        <time>2020-10-19T12:40:12Z</time>
      </trkpt>
      <trkpt lat="46.12534" lon="4.5866">
        <ele>628.8</ele>
        <time>2020-10-19T12:40:13Z</time>
      </trkpt>
      <trkpt lat="46.12534" lon="4.5866">
        <ele>629</ele>
        <time>2020-10-19T12:40:14Z</time>
      </trkpt>
      <trkpt lat="46.12535" lon="4.58655">
        <ele>629.2</ele>
        <time>2020-10-19T12:40:15Z</time>
      </trkpt>
      <trkpt lat="46.12535" lon="4.58655">
        <ele>629</ele>
        <time>2020-10-19T12:40:16Z</time>
      </trkpt>
      <trkpt lat="46.12535" lon="4.58651">
        <ele>629.4</ele>
        <time>2020-10-19T12:40:17Z</time>
      </trkpt>
      <trkpt lat="46.12535" lon="4.58651">
        <ele>629.6</ele>
        <time>2020-10-19T12:40:18Z</time>
      </trkpt>
      <trkpt lat="46.12536" lon="4.58647">
        <ele>629.6</ele>
        <time>2020-10-19T12:40:19Z</time>
      </trkpt>
      <trkpt lat="46.12536" lon="4.58647">
        <ele>629.6</ele>
        <time>2020-10-19T12:40:20Z</time>
      </trkpt>
      <trkpt lat="46.12536" lon="4.58643">
        <ele>629.8</ele>
        <time>2020-10-19T12:40:21Z</time>
      </trkpt>
      <trkpt lat="46.12536" lon="4.58643">
        <ele>629.8</ele>
        <time>2020-10-19T12:40:22Z</time>
      </trkpt>
      <trkpt lat="46.12537" lon="4.58639">
        <ele>629.8</ele>
        <time>2020-10-19T12:40:23Z</time>
      </trkpt>
      <trkpt lat="46.12537" lon="4.58639">
        <ele>630</ele>
        <time>2020-10-19T12:40:24Z</time>
      </trkpt>
      <trkpt lat="46.12537" lon="4.58635">
        <ele>630.2</ele>
        <time>2020-10-19T12:40:25Z</time>
      </trkpt>
      <trkpt lat="46.12537" lon="4.58635">
        <ele>630.2</ele>
        <time>2020-10-19T12:40:26Z</time>
      </trkpt>
      <trkpt lat="46.12538" lon="4.5863">
        <ele>630.4</ele>
        <time>2020-10-19T12:40:27Z</time>
      </trkpt>
      <trkpt lat="46.12538" lon="4.5863">
        <ele>630.4</ele>
        <time>2020-10-19T12:40:28Z</time>
      </trkpt>
      <trkpt lat="46.12538" lon="4.58626">
        <ele>630.4</ele>
        <time>2020-10-19T12:40:29Z</time>
      </trkpt>
      <trkpt lat="46.12538" lon="4.58626">
        <ele>630.4</ele>
        <time>2020-10-19T12:40:30Z</time>
      </trkpt>
      <trkpt lat="46.12538" lon="4.58622">
        <ele>630.4</ele>
        <time>2020-10-19T12:40:31Z</time>
      </trkpt>
      <trkpt lat="46.12538" lon="4.58622">
        <ele>630.6</ele>
        <time>2020-10-19T12:40:32Z</time>
      </trkpt>
      <trkpt lat="46.12538" lon="4.58618">
        <ele>630.8</ele>
        <time>2020-10-19T12:40:33Z</time>
      </trkpt>
      <trkpt lat="46.12538" lon="4.58618">
        <ele>630.8</ele>
        <time>2020-10-19T12:40:34Z</time>
      </trkpt>
      <trkpt lat="46.12538" lon="4.58614">
        <ele>631.2</ele>
        <time>2020-10-19T12:40:35Z</time>
      </trkpt>
      <trkpt lat="46.12538" lon="4.58614">
        <ele>631.2</ele>
        <time>2020-10-19T12:40:36Z</time>
      </trkpt>
      <trkpt lat="46.12539" lon="4.5861">
        <ele>631.4</ele>
        <time>2020-10-19T12:40:37Z</time>
      </trkpt>
      <trkpt lat="46.12539" lon="4.5861">
        <ele>631.6</ele>
        <time>2020-10-19T12:40:38Z</time>
      </trkpt>
      <trkpt lat="46.12539" lon="4.58606">
        <ele>631.6</ele>
        <time>2020-10-19T12:40:39Z</time>
      </trkpt>
      <trkpt lat="46.12539" lon="4.58606">
        <ele>631.6</ele>
        <time>2020-10-19T12:40:40Z</time>
      </trkpt>
      <trkpt lat="46.12539" lon="4.58602">
        <ele>631.8</ele>
        <time>2020-10-19T12:40:41Z</time>
      </trkpt>
      <trkpt lat="46.12539" lon="4.58602">
        <ele>631.6</ele>
        <time>2020-10-19T12:40:42Z</time>
      </trkpt>
      <trkpt lat="46.12539" lon="4.58598">
        <ele>631.8</ele>
        <time>2020-10-19T12:40:43Z</time>
      </trkpt>
      <trkpt lat="46.12539" lon="4.58598">
        <ele>632.2</ele>
        <time>2020-10-19T12:40:44Z</time>
      </trkpt>
      <trkpt lat="46.12539" lon="4.58594">
        <ele>632.6</ele>
        <time>2020-10-19T12:40:45Z</time>
      </trkpt>
      <trkpt lat="46.12539" lon="4.58594">
        <ele>632.8</ele>
        <time>2020-10-19T12:40:46Z</time>
      </trkpt>
      <trkpt lat="46.12539" lon="4.58589">
        <ele>633</ele>
        <time>2020-10-19T12:40:47Z</time>
      </trkpt>
      <trkpt lat="46.12539" lon="4.58589">
        <ele>633</ele>
        <time>2020-10-19T12:40:48Z</time>
      </trkpt>
      <trkpt lat="46.12539" lon="4.58586">
        <ele>633.2</ele>
        <time>2020-10-19T12:40:49Z</time>
      </trkpt>
      <trkpt lat="46.12539" lon="4.58586">
        <ele>633.6</ele>
        <time>2020-10-19T12:40:50Z</time>
      </trkpt>
      <trkpt lat="46.12539" lon="4.58582">
        <ele>633.6</ele>
        <time>2020-10-19T12:40:51Z</time>
      </trkpt>
      <trkpt lat="46.12539" lon="4.58582">
        <ele>634</ele>
        <time>2020-10-19T12:40:52Z</time>
      </trkpt>
      <trkpt lat="46.1254" lon="4.58578">
        <ele>634</ele>
        <time>2020-10-19T12:40:53Z</time>
      </trkpt>
      <trkpt lat="46.1254" lon="4.58578">
        <ele>634.2</ele>
        <time>2020-10-19T12:40:54Z</time>
      </trkpt>
      <trkpt lat="46.1254" lon="4.58574">
        <ele>634.4</ele>
        <time>2020-10-19T12:40:55Z</time>
      </trkpt>
      <trkpt lat="46.1254" lon="4.58574">
        <ele>634.6</ele>
        <time>2020-10-19T12:40:56Z</time>
      </trkpt>
      <trkpt lat="46.1254" lon="4.5857">
        <ele>634.8</ele>
        <time>2020-10-19T12:40:57Z</time>
      </trkpt>
      <trkpt lat="46.1254" lon="4.5857">
        <ele>634.8</ele>
        <time>2020-10-19T12:40:58Z</time>
      </trkpt>
      <trkpt lat="46.1254" lon="4.58567">
        <ele>634.8</ele>
        <time>2020-10-19T12:40:59Z</time>
      </trkpt>
      <trkpt lat="46.1254" lon="4.58567">
        <ele>635</ele>
        <time>2020-10-19T12:41:00Z</time>
      </trkpt>
      <trkpt lat="46.12541" lon="4.58563">
        <ele>635.2</ele>
        <time>2020-10-19T12:41:01Z</time>
      </trkpt>
      <trkpt lat="46.12541" lon="4.58563">
        <ele>635</ele>
        <time>2020-10-19T12:41:02Z</time>
      </trkpt>
      <trkpt lat="46.12541" lon="4.58559">
        <ele>635.2</ele>
        <time>2020-10-19T12:41:03Z</time>
      </trkpt>
      <trkpt lat="46.12541" lon="4.58559">
        <ele>635.2</ele>
        <time>2020-10-19T12:41:04Z</time>
      </trkpt>
      <trkpt lat="46.12542" lon="4.58555">
        <ele>635.4</ele>
        <time>2020-10-19T12:41:05Z</time>
      </trkpt>
      <trkpt lat="46.12542" lon="4.58555">
        <ele>635.4</ele>
        <time>2020-10-19T12:41:06Z</time>
      </trkpt>
      <trkpt lat="46.12543" lon="4.58551">
        <ele>635.6</ele>
        <time>2020-10-19T12:41:07Z</time>
      </trkpt>
      <trkpt lat="46.12543" lon="4.58551">
        <ele>635.8</ele>
        <time>2020-10-19T12:41:08Z</time>
      </trkpt>
      <trkpt lat="46.12544" lon="4.58547">
        <ele>635.8</ele>
        <time>2020-10-19T12:41:09Z</time>
      </trkpt>
      <trkpt lat="46.12544" lon="4.58547">
        <ele>636</ele>
        <time>2020-10-19T12:41:10Z</time>
      </trkpt>
      <trkpt lat="46.12544" lon="4.58544">
        <ele>636</ele>
        <time>2020-10-19T12:41:11Z</time>
      </trkpt>
      <trkpt lat="46.12544" lon="4.58544">
        <ele>636.2</ele>
        <time>2020-10-19T12:41:12Z</time>
      </trkpt>
      <trkpt lat="46.12544" lon="4.58541">
        <ele>636.2</ele>
        <time>2020-10-19T12:41:13Z</time>
      </trkpt>
      <trkpt lat="46.12544" lon="4.58541">
        <ele>636.4</ele>
        <time>2020-10-19T12:41:14Z</time>
      </trkpt>
      <trkpt lat="46.12545" lon="4.58538">
        <ele>636.2</ele>
        <time>2020-10-19T12:41:15Z</time>
      </trkpt>
      <trkpt lat="46.12545" lon="4.58538">
        <ele>636.4</ele>
        <time>2020-10-19T12:41:16Z</time>
      </trkpt>
      <trkpt lat="46.12545" lon="4.58535">
        <ele>636.8</ele>
        <time>2020-10-19T12:41:17Z</time>
      </trkpt>
      <trkpt lat="46.12545" lon="4.58535">
        <ele>637</ele>
        <time>2020-10-19T12:41:18Z</time>
      </trkpt>
      <trkpt lat="46.12546" lon="4.58531">
        <ele>637.4</ele>
        <time>2020-10-19T12:41:19Z</time>
      </trkpt>
      <trkpt lat="46.12546" lon="4.58531">
        <ele>637.4</ele>
        <time>2020-10-19T12:41:20Z</time>
      </trkpt>
      <trkpt lat="46.12546" lon="4.58527">
        <ele>637.4</ele>
        <time>2020-10-19T12:41:21Z</time>
      </trkpt>
      <trkpt lat="46.12546" lon="4.58527">
        <ele>637.8</ele>
        <time>2020-10-19T12:41:22Z</time>
      </trkpt>
      <trkpt lat="46.12547" lon="4.58524">
        <ele>638</ele>
        <time>2020-10-19T12:41:23Z</time>
      </trkpt>
      <trkpt lat="46.12547" lon="4.58524">
        <ele>638.2</ele>
        <time>2020-10-19T12:41:24Z</time>
      </trkpt>
      <trkpt lat="46.12547" lon="4.5852">
        <ele>638.4</ele>
        <time>2020-10-19T12:41:25Z</time>
      </trkpt>
      <trkpt lat="46.12547" lon="4.5852">
        <ele>638.4</ele>
        <time>2020-10-19T12:41:26Z</time>
      </trkpt>
      <trkpt lat="46.12548" lon="4.58516">
        <ele>638.8</ele>
        <time>2020-10-19T12:41:27Z</time>
      </trkpt>
      <trkpt lat="46.12548" lon="4.58516">
        <ele>638.6</ele>
        <time>2020-10-19T12:41:28Z</time>
      </trkpt>
      <trkpt lat="46.12548" lon="4.58512">
        <ele>639</ele>
        <time>2020-10-19T12:41:29Z</time>
      </trkpt>
      <trkpt lat="46.12548" lon="4.58512">
        <ele>639</ele>
        <time>2020-10-19T12:41:30Z</time>
      </trkpt>
      <trkpt lat="46.12548" lon="4.58508">
        <ele>638.8</ele>
        <time>2020-10-19T12:41:31Z</time>
      </trkpt>
      <trkpt lat="46.12548" lon="4.58508">
        <ele>639.2</ele>
        <time>2020-10-19T12:41:32Z</time>
      </trkpt>
      <trkpt lat="46.12548" lon="4.58505">
        <ele>639.2</ele>
        <time>2020-10-19T12:41:33Z</time>
      </trkpt>
      <trkpt lat="46.12548" lon="4.58505">
        <ele>639.6</ele>
        <time>2020-10-19T12:41:34Z</time>
      </trkpt>
      <trkpt lat="46.12548" lon="4.58501">
        <ele>639.6</ele>
        <time>2020-10-19T12:41:35Z</time>
      </trkpt>
      <trkpt lat="46.12548" lon="4.58501">
        <ele>639.8</ele>
        <time>2020-10-19T12:41:36Z</time>
      </trkpt>
      <trkpt lat="46.12549" lon="4.58497">
        <ele>640.2</ele>
        <time>2020-10-19T12:41:37Z</time>
      </trkpt>
      <trkpt lat="46.12549" lon="4.58497">
        <ele>640.2</ele>
        <time>2020-10-19T12:41:38Z</time>
      </trkpt>
      <trkpt lat="46.12549" lon="4.58494">
        <ele>640.6</ele>
        <time>2020-10-19T12:41:39Z</time>
      </trkpt>
      <trkpt lat="46.12549" lon="4.58494">
        <ele>640.8</ele>
        <time>2020-10-19T12:41:40Z</time>
      </trkpt>
      <trkpt lat="46.12549" lon="4.5849">
        <ele>640.8</ele>
        <time>2020-10-19T12:41:41Z</time>
      </trkpt>
      <trkpt lat="46.12549" lon="4.5849">
        <ele>641.2</ele>
        <time>2020-10-19T12:41:42Z</time>
      </trkpt>
      <trkpt lat="46.12549" lon="4.58487">
        <ele>641.4</ele>
        <time>2020-10-19T12:41:43Z</time>
      </trkpt>
      <trkpt lat="46.12549" lon="4.58487">
        <ele>641.4</ele>
        <time>2020-10-19T12:41:44Z</time>
      </trkpt>
      <trkpt lat="46.1255" lon="4.58484">
        <ele>641.6</ele>
        <time>2020-10-19T12:41:45Z</time>
      </trkpt>
      <trkpt lat="46.1255" lon="4.58484">
        <ele>642</ele>
        <time>2020-10-19T12:41:46Z</time>
      </trkpt>
      <trkpt lat="46.1255" lon="4.58481">
        <ele>642.2</ele>
        <time>2020-10-19T12:41:47Z</time>
      </trkpt>
      <trkpt lat="46.1255" lon="4.58481">
        <ele>642.4</ele>
        <time>2020-10-19T12:41:48Z</time>
      </trkpt>
      <trkpt lat="46.1255" lon="4.58478">
        <ele>643</ele>
        <time>2020-10-19T12:41:49Z</time>
      </trkpt>
      <trkpt lat="46.1255" lon="4.58478">
        <ele>643.4</ele>
        <time>2020-10-19T12:41:50Z</time>
      </trkpt>
      <trkpt lat="46.1255" lon="4.58474">
        <ele>643.6</ele>
        <time>2020-10-19T12:41:51Z</time>
      </trkpt>
      <trkpt lat="46.1255" lon="4.58474">
        <ele>643.8</ele>
        <time>2020-10-19T12:41:52Z</time>
      </trkpt>
      <trkpt lat="46.1255" lon="4.5847">
        <ele>643.8</ele>
        <time>2020-10-19T12:41:53Z</time>
      </trkpt>
      <trkpt lat="46.1255" lon="4.5847">
        <ele>644.4</ele>
        <time>2020-10-19T12:41:54Z</time>
      </trkpt>
      <trkpt lat="46.1255" lon="4.58467">
        <ele>644.8</ele>
        <time>2020-10-19T12:41:55Z</time>
      </trkpt>
      <trkpt lat="46.1255" lon="4.58467">
        <ele>644.6</ele>
        <time>2020-10-19T12:41:56Z</time>
      </trkpt>
      <trkpt lat="46.1255" lon="4.58463">
        <ele>645.2</ele>
        <time>2020-10-19T12:41:57Z</time>
      </trkpt>
      <trkpt lat="46.1255" lon="4.58463">
        <ele>645.4</ele>
        <time>2020-10-19T12:41:58Z</time>
      </trkpt>
      <trkpt lat="46.1255" lon="4.58459">
        <ele>645.4</ele>
        <time>2020-10-19T12:41:59Z</time>
      </trkpt>
      <trkpt lat="46.1255" lon="4.58459">
        <ele>645.8</ele>
        <time>2020-10-19T12:42:00Z</time>
      </trkpt>
      <trkpt lat="46.1255" lon="4.58456">
        <ele>646</ele>
        <time>2020-10-19T12:42:01Z</time>
      </trkpt>
      <trkpt lat="46.1255" lon="4.58456">
        <ele>646.2</ele>
        <time>2020-10-19T12:42:02Z</time>
      </trkpt>
      <trkpt lat="46.12551" lon="4.58453">
        <ele>646.6</ele>
        <time>2020-10-19T12:42:03Z</time>
      </trkpt>
      <trkpt lat="46.12551" lon="4.58453">
        <ele>646.8</ele>
        <time>2020-10-19T12:42:04Z</time>
      </trkpt>
      <trkpt lat="46.12551" lon="4.5845">
        <ele>647.4</ele>
        <time>2020-10-19T12:42:05Z</time>
      </trkpt>
      <trkpt lat="46.12551" lon="4.5845">
        <ele>647.4</ele>
        <time>2020-10-19T12:42:06Z</time>
      </trkpt>
      <trkpt lat="46.12552" lon="4.58446">
        <ele>647.4</ele>
        <time>2020-10-19T12:42:07Z</time>
      </trkpt>
      <trkpt lat="46.12552" lon="4.58446">
        <ele>648.2</ele>
        <time>2020-10-19T12:42:08Z</time>
      </trkpt>
      <trkpt lat="46.12552" lon="4.58443">
        <ele>648.2</ele>
        <time>2020-10-19T12:42:09Z</time>
      </trkpt>
      <trkpt lat="46.12552" lon="4.58443">
        <ele>648.8</ele>
        <time>2020-10-19T12:42:10Z</time>
      </trkpt>
      <trkpt lat="46.12552" lon="4.58443">
        <ele>649.2</ele>
        <time>2020-10-19T12:42:11Z</time>
      </trkpt>
      <trkpt lat="46.12553" lon="4.5844">
        <ele>649.2</ele>
        <time>2020-10-19T12:42:12Z</time>
      </trkpt>
      <trkpt lat="46.12553" lon="4.5844">
        <ele>649.8</ele>
        <time>2020-10-19T12:42:13Z</time>
      </trkpt>
      <trkpt lat="46.12553" lon="4.58436">
        <ele>650</ele>
        <time>2020-10-19T12:42:14Z</time>
      </trkpt>
      <trkpt lat="46.12553" lon="4.58436">
        <ele>650.4</ele>
        <time>2020-10-19T12:42:15Z</time>
      </trkpt>
      <trkpt lat="46.12554" lon="4.58433">
        <ele>650.6</ele>
        <time>2020-10-19T12:42:16Z</time>
      </trkpt>
      <trkpt lat="46.12554" lon="4.58433">
        <ele>651</ele>
        <time>2020-10-19T12:42:17Z</time>
      </trkpt>
      <trkpt lat="46.12554" lon="4.5843">
        <ele>651.2</ele>
        <time>2020-10-19T12:42:18Z</time>
      </trkpt>
      <trkpt lat="46.12554" lon="4.5843">
        <ele>651.6</ele>
        <time>2020-10-19T12:42:19Z</time>
      </trkpt>
      <trkpt lat="46.12554" lon="4.58427">
        <ele>651.8</ele>
        <time>2020-10-19T12:42:20Z</time>
      </trkpt>
      <trkpt lat="46.12554" lon="4.58427">
        <ele>651.8</ele>
        <time>2020-10-19T12:42:21Z</time>
      </trkpt>
      <trkpt lat="46.12554" lon="4.58424">
        <ele>652.6</ele>
        <time>2020-10-19T12:42:22Z</time>
      </trkpt>
      <trkpt lat="46.12554" lon="4.58424">
        <ele>652.8</ele>
        <time>2020-10-19T12:42:23Z</time>
      </trkpt>
      <trkpt lat="46.12554" lon="4.5842">
        <ele>653</ele>
        <time>2020-10-19T12:42:24Z</time>
      </trkpt>
      <trkpt lat="46.12554" lon="4.5842">
        <ele>653.6</ele>
        <time>2020-10-19T12:42:25Z</time>
      </trkpt>
      <trkpt lat="46.12554" lon="4.58417">
        <ele>654</ele>
        <time>2020-10-19T12:42:26Z</time>
      </trkpt>
      <trkpt lat="46.12554" lon="4.58417">
        <ele>654.4</ele>
        <time>2020-10-19T12:42:27Z</time>
      </trkpt>
      <trkpt lat="46.12554" lon="4.58413">
        <ele>654.6</ele>
        <time>2020-10-19T12:42:28Z</time>
      </trkpt>
      <trkpt lat="46.12554" lon="4.58413">
        <ele>654.8</ele>
        <time>2020-10-19T12:42:29Z</time>
      </trkpt>
      <trkpt lat="46.12554" lon="4.5841">
        <ele>655.4</ele>
        <time>2020-10-19T12:42:30Z</time>
      </trkpt>
      <trkpt lat="46.12554" lon="4.5841">
        <ele>655.6</ele>
        <time>2020-10-19T12:42:31Z</time>
      </trkpt>
      <trkpt lat="46.12554" lon="4.58406">
        <ele>656.2</ele>
        <time>2020-10-19T12:42:32Z</time>
      </trkpt>
      <trkpt lat="46.12554" lon="4.58406">
        <ele>656.4</ele>
        <time>2020-10-19T12:42:33Z</time>
      </trkpt>
      <trkpt lat="46.12554" lon="4.58403">
        <ele>656.4</ele>
        <time>2020-10-19T12:42:34Z</time>
      </trkpt>
      <trkpt lat="46.12554" lon="4.58403">
        <ele>656.8</ele>
        <time>2020-10-19T12:42:35Z</time>
      </trkpt>
      <trkpt lat="46.12555" lon="4.584">
        <ele>657</ele>
        <time>2020-10-19T12:42:36Z</time>
      </trkpt>
      <trkpt lat="46.12555" lon="4.584">
        <ele>657.4</ele>
        <time>2020-10-19T12:42:37Z</time>
      </trkpt>
      <trkpt lat="46.12555" lon="4.58396">
        <ele>657.8</ele>
        <time>2020-10-19T12:42:38Z</time>
      </trkpt>
      <trkpt lat="46.12555" lon="4.58396">
        <ele>657.8</ele>
        <time>2020-10-19T12:42:39Z</time>
      </trkpt>
      <trkpt lat="46.12555" lon="4.58392">
        <ele>658</ele>
        <time>2020-10-19T12:42:40Z</time>
      </trkpt>
      <trkpt lat="46.12555" lon="4.58392">
        <ele>658.4</ele>
        <time>2020-10-19T12:42:41Z</time>
      </trkpt>
      <trkpt lat="46.12555" lon="4.58388">
        <ele>658.6</ele>
        <time>2020-10-19T12:42:42Z</time>
      </trkpt>
      <trkpt lat="46.12555" lon="4.58388">
        <ele>658.8</ele>
        <time>2020-10-19T12:42:43Z</time>
      </trkpt>
      <trkpt lat="46.12555" lon="4.58385">
        <ele>658.6</ele>
        <time>2020-10-19T12:42:44Z</time>
      </trkpt>
      <trkpt lat="46.12555" lon="4.58385">
        <ele>658.8</ele>
        <time>2020-10-19T12:42:45Z</time>
      </trkpt>
      <trkpt lat="46.12555" lon="4.58381">
        <ele>659.2</ele>
        <time>2020-10-19T12:42:46Z</time>
      </trkpt>
      <trkpt lat="46.12555" lon="4.58381">
        <ele>659.2</ele>
        <time>2020-10-19T12:42:47Z</time>
      </trkpt>
      <trkpt lat="46.12554" lon="4.58378">
        <ele>659.4</ele>
        <time>2020-10-19T12:42:48Z</time>
      </trkpt>
      <trkpt lat="46.12554" lon="4.58378">
        <ele>659.8</ele>
        <time>2020-10-19T12:42:49Z</time>
      </trkpt>
      <trkpt lat="46.12555" lon="4.58375">
        <ele>659.8</ele>
        <time>2020-10-19T12:42:50Z</time>
      </trkpt>
      <trkpt lat="46.12555" lon="4.58375">
        <ele>660.4</ele>
        <time>2020-10-19T12:42:51Z</time>
      </trkpt>
      <trkpt lat="46.12555" lon="4.58371">
        <ele>660.6</ele>
        <time>2020-10-19T12:42:52Z</time>
      </trkpt>
      <trkpt lat="46.12555" lon="4.58371">
        <ele>660.8</ele>
        <time>2020-10-19T12:42:53Z</time>
      </trkpt>
      <trkpt lat="46.12555" lon="4.58368">
        <ele>661.2</ele>
        <time>2020-10-19T12:42:54Z</time>
      </trkpt>
      <trkpt lat="46.12555" lon="4.58368">
        <ele>661.4</ele>
        <time>2020-10-19T12:42:55Z</time>
      </trkpt>
      <trkpt lat="46.12556" lon="4.58364">
        <ele>661.2</ele>
        <time>2020-10-19T12:42:56Z</time>
      </trkpt>
      <trkpt lat="46.12556" lon="4.58364">
        <ele>661.8</ele>
        <time>2020-10-19T12:42:57Z</time>
      </trkpt>
      <trkpt lat="46.12556" lon="4.5836">
        <ele>662</ele>
        <time>2020-10-19T12:42:58Z</time>
      </trkpt>
      <trkpt lat="46.12556" lon="4.5836">
        <ele>662.2</ele>
        <time>2020-10-19T12:42:59Z</time>
      </trkpt>
      <trkpt lat="46.12556" lon="4.58357">
        <ele>662.6</ele>
        <time>2020-10-19T12:43:00Z</time>
      </trkpt>
      <trkpt lat="46.12556" lon="4.58357">
        <ele>662.8</ele>
        <time>2020-10-19T12:43:01Z</time>
      </trkpt>
      <trkpt lat="46.12556" lon="4.58354">
        <ele>663.4</ele>
        <time>2020-10-19T12:43:02Z</time>
      </trkpt>
      <trkpt lat="46.12556" lon="4.58354">
        <ele>663.6</ele>
        <time>2020-10-19T12:43:03Z</time>
      </trkpt>
      <trkpt lat="46.12555" lon="4.58349">
        <ele>663.6</ele>
        <time>2020-10-19T12:43:04Z</time>
      </trkpt>
      <trkpt lat="46.12555" lon="4.58349">
        <ele>664.2</ele>
        <time>2020-10-19T12:43:05Z</time>
      </trkpt>
      <trkpt lat="46.12555" lon="4.58345">
        <ele>664.2</ele>
        <time>2020-10-19T12:43:06Z</time>
      </trkpt>
      <trkpt lat="46.12555" lon="4.58345">
        <ele>664.2</ele>
        <time>2020-10-19T12:43:07Z</time>
      </trkpt>
      <trkpt lat="46.12555" lon="4.58342">
        <ele>665</ele>
        <time>2020-10-19T12:43:08Z</time>
      </trkpt>
      <trkpt lat="46.12555" lon="4.58342">
        <ele>665.2</ele>
        <time>2020-10-19T12:43:09Z</time>
      </trkpt>
      <trkpt lat="46.12555" lon="4.58338">
        <ele>665.2</ele>
        <time>2020-10-19T12:43:10Z</time>
      </trkpt>
      <trkpt lat="46.12555" lon="4.58338">
        <ele>665.8</ele>
        <time>2020-10-19T12:43:11Z</time>
      </trkpt>
      <trkpt lat="46.12555" lon="4.58338">
        <ele>666</ele>
        <time>2020-10-19T12:43:12Z</time>
      </trkpt>
      <trkpt lat="46.12555" lon="4.58334">
        <ele>666.4</ele>
        <time>2020-10-19T12:43:13Z</time>
      </trkpt>
      <trkpt lat="46.12555" lon="4.58334">
        <ele>666.8</ele>
        <time>2020-10-19T12:43:14Z</time>
      </trkpt>
      <trkpt lat="46.12555" lon="4.58334">
        <ele>667.2</ele>
        <time>2020-10-19T12:43:15Z</time>
      </trkpt>
      <trkpt lat="46.12555" lon="4.5833">
        <ele>667.6</ele>
        <time>2020-10-19T12:43:16Z</time>
      </trkpt>
      <trkpt lat="46.12555" lon="4.5833">
        <ele>668</ele>
        <time>2020-10-19T12:43:17Z</time>
      </trkpt>
      <trkpt lat="46.12556" lon="4.58327">
        <ele>668.2</ele>
        <time>2020-10-19T12:43:18Z</time>
      </trkpt>
      <trkpt lat="46.12556" lon="4.58327">
        <ele>668.4</ele>
        <time>2020-10-19T12:43:19Z</time>
      </trkpt>
      <trkpt lat="46.12556" lon="4.58327">
        <ele>669</ele>
        <time>2020-10-19T12:43:20Z</time>
      </trkpt>
      <trkpt lat="46.12557" lon="4.58323">
        <ele>669.2</ele>
        <time>2020-10-19T12:43:21Z</time>
      </trkpt>
      <trkpt lat="46.12557" lon="4.58323">
        <ele>669.8</ele>
        <time>2020-10-19T12:43:22Z</time>
      </trkpt>
      <trkpt lat="46.12558" lon="4.5832">
        <ele>670.2</ele>
        <time>2020-10-19T12:43:23Z</time>
      </trkpt>
      <trkpt lat="46.12558" lon="4.5832">
        <ele>670.2</ele>
        <time>2020-10-19T12:43:24Z</time>
      </trkpt>
      <trkpt lat="46.12559" lon="4.58317">
        <ele>670.8</ele>
        <time>2020-10-19T12:43:25Z</time>
      </trkpt>
      <trkpt lat="46.12559" lon="4.58317">
        <ele>670.8</ele>
        <time>2020-10-19T12:43:26Z</time>
      </trkpt>
      <trkpt lat="46.12559" lon="4.58314">
        <ele>671.2</ele>
        <time>2020-10-19T12:43:27Z</time>
      </trkpt>
      <trkpt lat="46.12559" lon="4.58314">
        <ele>671.8</ele>
        <time>2020-10-19T12:43:28Z</time>
      </trkpt>
      <trkpt lat="46.12559" lon="4.5831">
        <ele>672.2</ele>
        <time>2020-10-19T12:43:29Z</time>
      </trkpt>
      <trkpt lat="46.12559" lon="4.5831">
        <ele>672.4</ele>
        <time>2020-10-19T12:43:30Z</time>
      </trkpt>
      <trkpt lat="46.12558" lon="4.58307">
        <ele>672.6</ele>
        <time>2020-10-19T12:43:31Z</time>
      </trkpt>
      <trkpt lat="46.12558" lon="4.58307">
        <ele>672.6</ele>
        <time>2020-10-19T12:43:32Z</time>
      </trkpt>
      <trkpt lat="46.12558" lon="4.58303">
        <ele>673</ele>
        <time>2020-10-19T12:43:33Z</time>
      </trkpt>
      <trkpt lat="46.12558" lon="4.58303">
        <ele>673.2</ele>
        <time>2020-10-19T12:43:34Z</time>
      </trkpt>
      <trkpt lat="46.12558" lon="4.583">
        <ele>673.6</ele>
        <time>2020-10-19T12:43:35Z</time>
      </trkpt>
      <trkpt lat="46.12558" lon="4.583">
        <ele>674</ele>
        <time>2020-10-19T12:43:36Z</time>
      </trkpt>
      <trkpt lat="46.12561" lon="4.58297">
        <ele>674</ele>
        <time>2020-10-19T12:43:37Z</time>
      </trkpt>
      <trkpt lat="46.12561" lon="4.58297">
        <ele>674.6</ele>
        <time>2020-10-19T12:43:38Z</time>
      </trkpt>
      <trkpt lat="46.12562" lon="4.58295">
        <ele>674.8</ele>
        <time>2020-10-19T12:43:39Z</time>
      </trkpt>
      <trkpt lat="46.12562" lon="4.58295">
        <ele>674.8</ele>
        <time>2020-10-19T12:43:40Z</time>
      </trkpt>
      <trkpt lat="46.12562" lon="4.58295">
        <ele>675.2</ele>
        <time>2020-10-19T12:43:41Z</time>
      </trkpt>
      <trkpt lat="46.12563" lon="4.58291">
        <ele>675.6</ele>
        <time>2020-10-19T12:43:42Z</time>
      </trkpt>
      <trkpt lat="46.12563" lon="4.58291">
        <ele>676</ele>
        <time>2020-10-19T12:43:43Z</time>
      </trkpt>
      <trkpt lat="46.12564" lon="4.58288">
        <ele>676.2</ele>
        <time>2020-10-19T12:43:44Z</time>
      </trkpt>
      <trkpt lat="46.12564" lon="4.58288">
        <ele>676</ele>
        <time>2020-10-19T12:43:45Z</time>
      </trkpt>
      <trkpt lat="46.12564" lon="4.58288">
        <ele>676.6</ele>
        <time>2020-10-19T12:43:46Z</time>
      </trkpt>
      <trkpt lat="46.12564" lon="4.58284">
        <ele>676.6</ele>
        <time>2020-10-19T12:43:47Z</time>
      </trkpt>
      <trkpt lat="46.12564" lon="4.58284">
        <ele>677</ele>
        <time>2020-10-19T12:43:48Z</time>
      </trkpt>
      <trkpt lat="46.12565" lon="4.58281">
        <ele>677</ele>
        <time>2020-10-19T12:43:49Z</time>
      </trkpt>
      <trkpt lat="46.12565" lon="4.58281">
        <ele>677.2</ele>
        <time>2020-10-19T12:43:50Z</time>
      </trkpt>
      <trkpt lat="46.12565" lon="4.58279">
        <ele>677.6</ele>
        <time>2020-10-19T12:43:51Z</time>
      </trkpt>
      <trkpt lat="46.12565" lon="4.58279">
        <ele>677.8</ele>
        <time>2020-10-19T12:43:52Z</time>
      </trkpt>
      <trkpt lat="46.12565" lon="4.58279">
        <ele>678</ele>
        <time>2020-10-19T12:43:53Z</time>
      </trkpt>
      <trkpt lat="46.12565" lon="4.58275">
        <ele>678.6</ele>
        <time>2020-10-19T12:43:54Z</time>
      </trkpt>
      <trkpt lat="46.12565" lon="4.58275">
        <ele>678.8</ele>
        <time>2020-10-19T12:43:55Z</time>
      </trkpt>
      <trkpt lat="46.12566" lon="4.58273">
        <ele>679.2</ele>
        <time>2020-10-19T12:43:56Z</time>
      </trkpt>
      <trkpt lat="46.12566" lon="4.58273">
        <ele>679.4</ele>
        <time>2020-10-19T12:43:57Z</time>
      </trkpt>
      <trkpt lat="46.12566" lon="4.5827">
        <ele>679.4</ele>
        <time>2020-10-19T12:43:58Z</time>
      </trkpt>
      <trkpt lat="46.12566" lon="4.5827">
        <ele>679.6</ele>
        <time>2020-10-19T12:43:59Z</time>
      </trkpt>
      <trkpt lat="46.12567" lon="4.58267">
        <ele>679.8</ele>
        <time>2020-10-19T12:44:00Z</time>
      </trkpt>
      <trkpt lat="46.12567" lon="4.58267">
        <ele>679.8</ele>
        <time>2020-10-19T12:44:01Z</time>
      </trkpt>
      <trkpt lat="46.12567" lon="4.58264">
        <ele>679.8</ele>
        <time>2020-10-19T12:44:02Z</time>
      </trkpt>
      <trkpt lat="46.12567" lon="4.58264">
        <ele>680</ele>
        <time>2020-10-19T12:44:03Z</time>
      </trkpt>
      <trkpt lat="46.12568" lon="4.5826">
        <ele>680.4</ele>
        <time>2020-10-19T12:44:04Z</time>
      </trkpt>
      <trkpt lat="46.12568" lon="4.5826">
        <ele>680.8</ele>
        <time>2020-10-19T12:44:05Z</time>
      </trkpt>
      <trkpt lat="46.12567" lon="4.58257">
        <ele>680.8</ele>
        <time>2020-10-19T12:44:06Z</time>
      </trkpt>
      <trkpt lat="46.12567" lon="4.58257">
        <ele>681</ele>
        <time>2020-10-19T12:44:07Z</time>
      </trkpt>
      <trkpt lat="46.12568" lon="4.58254">
        <ele>681.2</ele>
        <time>2020-10-19T12:44:08Z</time>
      </trkpt>
      <trkpt lat="46.12568" lon="4.58254">
        <ele>681</ele>
        <time>2020-10-19T12:44:09Z</time>
      </trkpt>
      <trkpt lat="46.12568" lon="4.58251">
        <ele>681.2</ele>
        <time>2020-10-19T12:44:10Z</time>
      </trkpt>
      <trkpt lat="46.12568" lon="4.58251">
        <ele>681.4</ele>
        <time>2020-10-19T12:44:11Z</time>
      </trkpt>
      <trkpt lat="46.12568" lon="4.58248">
        <ele>681.6</ele>
        <time>2020-10-19T12:44:12Z</time>
      </trkpt>
      <trkpt lat="46.12568" lon="4.58248">
        <ele>682</ele>
        <time>2020-10-19T12:44:13Z</time>
      </trkpt>
      <trkpt lat="46.12567" lon="4.58245">
        <ele>682</ele>
        <time>2020-10-19T12:44:14Z</time>
      </trkpt>
      <trkpt lat="46.12567" lon="4.58245">
        <ele>682.4</ele>
        <time>2020-10-19T12:44:15Z</time>
      </trkpt>
      <trkpt lat="46.12566" lon="4.58242">
        <ele>682.6</ele>
        <time>2020-10-19T12:44:16Z</time>
      </trkpt>
      <trkpt lat="46.12566" lon="4.58242">
        <ele>682.8</ele>
        <time>2020-10-19T12:44:17Z</time>
      </trkpt>
      <trkpt lat="46.12565" lon="4.5824">
        <ele>683.2</ele>
        <time>2020-10-19T12:44:18Z</time>
      </trkpt>
      <trkpt lat="46.12565" lon="4.5824">
        <ele>683.4</ele>
        <time>2020-10-19T12:44:19Z</time>
      </trkpt>
      <trkpt lat="46.12565" lon="4.58236">
        <ele>683.6</ele>
        <time>2020-10-19T12:44:20Z</time>
      </trkpt>
      <trkpt lat="46.12565" lon="4.58236">
        <ele>683.8</ele>
        <time>2020-10-19T12:44:21Z</time>
      </trkpt>
      <trkpt lat="46.12566" lon="4.58233">
        <ele>683.8</ele>
        <time>2020-10-19T12:44:22Z</time>
      </trkpt>
      <trkpt lat="46.12566" lon="4.58233">
        <ele>684</ele>
        <time>2020-10-19T12:44:23Z</time>
      </trkpt>
      <trkpt lat="46.12566" lon="4.58229">
        <ele>684.2</ele>
        <time>2020-10-19T12:44:24Z</time>
      </trkpt>
      <trkpt lat="46.12566" lon="4.58229">
        <ele>684.2</ele>
        <time>2020-10-19T12:44:25Z</time>
      </trkpt>
      <trkpt lat="46.12566" lon="4.58226">
        <ele>684.2</ele>
        <time>2020-10-19T12:44:26Z</time>
      </trkpt>
      <trkpt lat="46.12566" lon="4.58226">
        <ele>684</ele>
        <time>2020-10-19T12:44:27Z</time>
      </trkpt>
      <trkpt lat="46.12567" lon="4.58223">
        <ele>684.2</ele>
        <time>2020-10-19T12:44:28Z</time>
      </trkpt>
      <trkpt lat="46.12567" lon="4.58223">
        <ele>684.6</ele>
        <time>2020-10-19T12:44:29Z</time>
      </trkpt>
      <trkpt lat="46.12567" lon="4.58219">
        <ele>684.6</ele>
        <time>2020-10-19T12:44:30Z</time>
      </trkpt>
      <trkpt lat="46.12567" lon="4.58219">
        <ele>685</ele>
        <time>2020-10-19T12:44:31Z</time>
      </trkpt>
      <trkpt lat="46.12567" lon="4.58216">
        <ele>685.2</ele>
        <time>2020-10-19T12:44:32Z</time>
      </trkpt>
      <trkpt lat="46.12567" lon="4.58216">
        <ele>685.4</ele>
        <time>2020-10-19T12:44:33Z</time>
      </trkpt>
      <trkpt lat="46.12568" lon="4.58213">
        <ele>685.4</ele>
        <time>2020-10-19T12:44:34Z</time>
      </trkpt>
      <trkpt lat="46.12568" lon="4.58213">
        <ele>685.6</ele>
        <time>2020-10-19T12:44:35Z</time>
      </trkpt>
      <trkpt lat="46.12569" lon="4.58211">
        <ele>685.6</ele>
        <time>2020-10-19T12:44:36Z</time>
      </trkpt>
      <trkpt lat="46.12569" lon="4.58211">
        <ele>686</ele>
        <time>2020-10-19T12:44:37Z</time>
      </trkpt>
      <trkpt lat="46.12569" lon="4.58211">
        <ele>686.2</ele>
        <time>2020-10-19T12:44:38Z</time>
      </trkpt>
      <trkpt lat="46.12569" lon="4.58211">
        <ele>686.2</ele>
        <time>2020-10-19T12:44:39Z</time>
      </trkpt>
      <trkpt lat="46.1257" lon="4.58209">
        <ele>686.2</ele>
        <time>2020-10-19T12:44:40Z</time>
      </trkpt>
      <trkpt lat="46.1257" lon="4.58209">
        <ele>686</ele>
        <time>2020-10-19T12:44:41Z</time>
      </trkpt>
      <trkpt lat="46.1257" lon="4.58209">
        <ele>686</ele>
        <time>2020-10-19T12:44:42Z</time>
      </trkpt>
      <trkpt lat="46.1257" lon="4.58209">
        <ele>686.2</ele>
        <time>2020-10-19T12:44:43Z</time>
      </trkpt>
      <trkpt lat="46.1257" lon="4.58209">
        <ele>686.2</ele>
        <time>2020-10-19T12:44:44Z</time>
      </trkpt>
      <trkpt lat="46.1257" lon="4.58209">
        <ele>686.2</ele>
        <time>2020-10-19T12:44:45Z</time>
      </trkpt>
      <trkpt lat="46.1257" lon="4.58209">
        <ele>686</ele>
        <time>2020-10-19T12:44:46Z</time>
      </trkpt>
      <trkpt lat="46.1257" lon="4.58209">
        <ele>686</ele>
        <time>2020-10-19T12:44:47Z</time>
      </trkpt>
      <trkpt lat="46.1257" lon="4.58209">
        <ele>686</ele>
        <time>2020-10-19T12:44:48Z</time>
      </trkpt>
      <trkpt lat="46.1257" lon="4.58209">
        <ele>685.8</ele>
        <time>2020-10-19T12:44:49Z</time>
      </trkpt>
      <trkpt lat="46.1257" lon="4.58209">
        <ele>685.8</ele>
        <time>2020-10-19T12:44:50Z</time>
      </trkpt>
      <trkpt lat="46.1257" lon="4.58209">
        <ele>685.8</ele>
        <time>2020-10-19T12:44:51Z</time>
      </trkpt>
      <trkpt lat="46.1257" lon="4.58209">
        <ele>685.8</ele>
        <time>2020-10-19T12:44:52Z</time>
      </trkpt>
      <trkpt lat="46.1257" lon="4.58209">
        <ele>685.6</ele>
        <time>2020-10-19T12:44:53Z</time>
      </trkpt>
      <trkpt lat="46.1257" lon="4.58209">
        <ele>685.6</ele>
        <time>2020-10-19T12:44:54Z</time>
      </trkpt>
      <trkpt lat="46.1257" lon="4.58205">
        <ele>685.4</ele>
        <time>2020-10-19T12:44:55Z</time>
      </trkpt>
      <trkpt lat="46.1257" lon="4.58205">
        <ele>685.4</ele>
        <time>2020-10-19T12:44:56Z</time>
      </trkpt>
      <trkpt lat="46.1257" lon="4.58201">
        <ele>685.4</ele>
        <time>2020-10-19T12:44:57Z</time>
      </trkpt>
      <trkpt lat="46.1257" lon="4.58201">
        <ele>685</ele>
        <time>2020-10-19T12:44:58Z</time>
      </trkpt>
      <trkpt lat="46.1257" lon="4.58197">
        <ele>684.8</ele>
        <time>2020-10-19T12:44:59Z</time>
      </trkpt>
      <trkpt lat="46.1257" lon="4.58197">
        <ele>684.6</ele>
        <time>2020-10-19T12:45:00Z</time>
      </trkpt>
      <trkpt lat="46.12571" lon="4.58193">
        <ele>684.6</ele>
        <time>2020-10-19T12:45:01Z</time>
      </trkpt>
      <trkpt lat="46.12571" lon="4.58193">
        <ele>684.8</ele>
        <time>2020-10-19T12:45:02Z</time>
      </trkpt>
      <trkpt lat="46.12571" lon="4.58189">
        <ele>685</ele>
        <time>2020-10-19T12:45:03Z</time>
      </trkpt>
      <trkpt lat="46.12571" lon="4.58189">
        <ele>685.2</ele>
        <time>2020-10-19T12:45:04Z</time>
      </trkpt>
      <trkpt lat="46.12571" lon="4.58185">
        <ele>685.4</ele>
        <time>2020-10-19T12:45:05Z</time>
      </trkpt>
      <trkpt lat="46.12571" lon="4.58185">
        <ele>685.4</ele>
        <time>2020-10-19T12:45:06Z</time>
      </trkpt>
      <trkpt lat="46.12571" lon="4.58181">
        <ele>685.6</ele>
        <time>2020-10-19T12:45:07Z</time>
      </trkpt>
      <trkpt lat="46.12571" lon="4.58181">
        <ele>685.6</ele>
        <time>2020-10-19T12:45:08Z</time>
      </trkpt>
      <trkpt lat="46.12571" lon="4.58178">
        <ele>685.8</ele>
        <time>2020-10-19T12:45:09Z</time>
      </trkpt>
      <trkpt lat="46.12571" lon="4.58178">
        <ele>685.8</ele>
        <time>2020-10-19T12:45:10Z</time>
      </trkpt>
      <trkpt lat="46.12571" lon="4.58174">
        <ele>685.8</ele>
        <time>2020-10-19T12:45:11Z</time>
      </trkpt>
      <trkpt lat="46.12571" lon="4.58174">
        <ele>686</ele>
        <time>2020-10-19T12:45:12Z</time>
      </trkpt>
      <trkpt lat="46.12572" lon="4.5817">
        <ele>686.2</ele>
        <time>2020-10-19T12:45:13Z</time>
      </trkpt>
      <trkpt lat="46.12572" lon="4.5817">
        <ele>686.4</ele>
        <time>2020-10-19T12:45:14Z</time>
      </trkpt>
      <trkpt lat="46.12572" lon="4.58166">
        <ele>686.4</ele>
        <time>2020-10-19T12:45:15Z</time>
      </trkpt>
      <trkpt lat="46.12572" lon="4.58166">
        <ele>686.6</ele>
        <time>2020-10-19T12:45:16Z</time>
      </trkpt>
      <trkpt lat="46.12572" lon="4.58162">
        <ele>686.6</ele>
        <time>2020-10-19T12:45:17Z</time>
      </trkpt>
      <trkpt lat="46.12572" lon="4.58162">
        <ele>686.8</ele>
        <time>2020-10-19T12:45:18Z</time>
      </trkpt>
      <trkpt lat="46.12573" lon="4.58158">
        <ele>687</ele>
        <time>2020-10-19T12:45:19Z</time>
      </trkpt>
      <trkpt lat="46.12573" lon="4.58158">
        <ele>687</ele>
        <time>2020-10-19T12:45:20Z</time>
      </trkpt>
      <trkpt lat="46.12574" lon="4.58154">
        <ele>687</ele>
        <time>2020-10-19T12:45:21Z</time>
      </trkpt>
      <trkpt lat="46.12574" lon="4.58154">
        <ele>687.2</ele>
        <time>2020-10-19T12:45:22Z</time>
      </trkpt>
      <trkpt lat="46.12574" lon="4.5815">
        <ele>687.6</ele>
        <time>2020-10-19T12:45:23Z</time>
      </trkpt>
      <trkpt lat="46.12574" lon="4.5815">
        <ele>688</ele>
        <time>2020-10-19T12:45:24Z</time>
      </trkpt>
      <trkpt lat="46.12574" lon="4.58146">
        <ele>688.2</ele>
        <time>2020-10-19T12:45:25Z</time>
      </trkpt>
      <trkpt lat="46.12574" lon="4.58146">
        <ele>688.2</ele>
        <time>2020-10-19T12:45:26Z</time>
      </trkpt>
      <trkpt lat="46.12574" lon="4.58142">
        <ele>688.4</ele>
        <time>2020-10-19T12:45:27Z</time>
      </trkpt>
      <trkpt lat="46.12574" lon="4.58142">
        <ele>688.6</ele>
        <time>2020-10-19T12:45:28Z</time>
      </trkpt>
      <trkpt lat="46.12574" lon="4.58138">
        <ele>689</ele>
        <time>2020-10-19T12:45:29Z</time>
      </trkpt>
      <trkpt lat="46.12574" lon="4.58138">
        <ele>689</ele>
        <time>2020-10-19T12:45:30Z</time>
      </trkpt>
      <trkpt lat="46.12575" lon="4.58134">
        <ele>689.2</ele>
        <time>2020-10-19T12:45:31Z</time>
      </trkpt>
      <trkpt lat="46.12575" lon="4.58134">
        <ele>689.6</ele>
        <time>2020-10-19T12:45:32Z</time>
      </trkpt>
      <trkpt lat="46.12575" lon="4.58131">
        <ele>689.8</ele>
        <time>2020-10-19T12:45:33Z</time>
      </trkpt>
      <trkpt lat="46.12575" lon="4.58131">
        <ele>690.2</ele>
        <time>2020-10-19T12:45:34Z</time>
      </trkpt>
      <trkpt lat="46.12575" lon="4.58127">
        <ele>690.2</ele>
        <time>2020-10-19T12:45:35Z</time>
      </trkpt>
      <trkpt lat="46.12575" lon="4.58127">
        <ele>690.2</ele>
        <time>2020-10-19T12:45:36Z</time>
      </trkpt>
      <trkpt lat="46.12575" lon="4.58124">
        <ele>690.4</ele>
        <time>2020-10-19T12:45:37Z</time>
      </trkpt>
      <trkpt lat="46.12575" lon="4.58124">
        <ele>690.4</ele>
        <time>2020-10-19T12:45:38Z</time>
      </trkpt>
      <trkpt lat="46.12574" lon="4.58119">
        <ele>690.4</ele>
        <time>2020-10-19T12:45:39Z</time>
      </trkpt>
      <trkpt lat="46.12574" lon="4.58119">
        <ele>690.4</ele>
        <time>2020-10-19T12:45:40Z</time>
      </trkpt>
      <trkpt lat="46.12574" lon="4.58116">
        <ele>690.4</ele>
        <time>2020-10-19T12:45:41Z</time>
      </trkpt>
      <trkpt lat="46.12574" lon="4.58116">
        <ele>690.6</ele>
        <time>2020-10-19T12:45:42Z</time>
      </trkpt>
      <trkpt lat="46.12573" lon="4.58112">
        <ele>690.6</ele>
        <time>2020-10-19T12:45:43Z</time>
      </trkpt>
      <trkpt lat="46.12573" lon="4.58112">
        <ele>690.6</ele>
        <time>2020-10-19T12:45:44Z</time>
      </trkpt>
      <trkpt lat="46.12573" lon="4.58108">
        <ele>690.8</ele>
        <time>2020-10-19T12:45:45Z</time>
      </trkpt>
      <trkpt lat="46.12573" lon="4.58108">
        <ele>691</ele>
        <time>2020-10-19T12:45:46Z</time>
      </trkpt>
      <trkpt lat="46.12573" lon="4.58105">
        <ele>691</ele>
        <time>2020-10-19T12:45:47Z</time>
      </trkpt>
      <trkpt lat="46.12573" lon="4.58105">
        <ele>691</ele>
        <time>2020-10-19T12:45:48Z</time>
      </trkpt>
      <trkpt lat="46.12571" lon="4.58101">
        <ele>691.2</ele>
        <time>2020-10-19T12:45:49Z</time>
      </trkpt>
      <trkpt lat="46.12571" lon="4.58101">
        <ele>691.2</ele>
        <time>2020-10-19T12:45:50Z</time>
      </trkpt>
      <trkpt lat="46.1257" lon="4.58097">
        <ele>691.2</ele>
        <time>2020-10-19T12:45:51Z</time>
      </trkpt>
      <trkpt lat="46.1257" lon="4.58097">
        <ele>691.4</ele>
        <time>2020-10-19T12:45:52Z</time>
      </trkpt>
      <trkpt lat="46.12568" lon="4.58093">
        <ele>691.2</ele>
        <time>2020-10-19T12:45:53Z</time>
      </trkpt>
      <trkpt lat="46.12568" lon="4.58093">
        <ele>691.4</ele>
        <time>2020-10-19T12:45:54Z</time>
      </trkpt>
      <trkpt lat="46.12567" lon="4.5809">
        <ele>691.4</ele>
        <time>2020-10-19T12:45:55Z</time>
      </trkpt>
      <trkpt lat="46.12567" lon="4.5809">
        <ele>691.4</ele>
        <time>2020-10-19T12:45:56Z</time>
      </trkpt>
      <trkpt lat="46.12566" lon="4.58086">
        <ele>691</ele>
        <time>2020-10-19T12:45:57Z</time>
      </trkpt>
      <trkpt lat="46.12566" lon="4.58086">
        <ele>691</ele>
        <time>2020-10-19T12:45:58Z</time>
      </trkpt>
      <trkpt lat="46.12565" lon="4.58082">
        <ele>690.8</ele>
        <time>2020-10-19T12:45:59Z</time>
      </trkpt>
      <trkpt lat="46.12565" lon="4.58082">
        <ele>690.6</ele>
        <time>2020-10-19T12:46:00Z</time>
      </trkpt>
      <trkpt lat="46.12563" lon="4.58078">
        <ele>690.6</ele>
        <time>2020-10-19T12:46:01Z</time>
      </trkpt>
      <trkpt lat="46.12563" lon="4.58078">
        <ele>690.6</ele>
        <time>2020-10-19T12:46:02Z</time>
      </trkpt>
      <trkpt lat="46.12561" lon="4.58074">
        <ele>690.6</ele>
        <time>2020-10-19T12:46:03Z</time>
      </trkpt>
      <trkpt lat="46.12561" lon="4.58074">
        <ele>690.8</ele>
        <time>2020-10-19T12:46:04Z</time>
      </trkpt>
      <trkpt lat="46.12559" lon="4.58071">
        <ele>691</ele>
        <time>2020-10-19T12:46:05Z</time>
      </trkpt>
      <trkpt lat="46.12559" lon="4.58071">
        <ele>691</ele>
        <time>2020-10-19T12:46:06Z</time>
      </trkpt>
      <trkpt lat="46.12557" lon="4.58067">
        <ele>691.2</ele>
        <time>2020-10-19T12:46:07Z</time>
      </trkpt>
      <trkpt lat="46.12557" lon="4.58067">
        <ele>691</ele>
        <time>2020-10-19T12:46:08Z</time>
      </trkpt>
      <trkpt lat="46.12555" lon="4.58064">
        <ele>691</ele>
        <time>2020-10-19T12:46:09Z</time>
      </trkpt>
      <trkpt lat="46.12555" lon="4.58064">
        <ele>691</ele>
        <time>2020-10-19T12:46:10Z</time>
      </trkpt>
      <trkpt lat="46.12553" lon="4.58061">
        <ele>691</ele>
        <time>2020-10-19T12:46:11Z</time>
      </trkpt>
      <trkpt lat="46.12553" lon="4.58061">
        <ele>691.2</ele>
        <time>2020-10-19T12:46:12Z</time>
      </trkpt>
      <trkpt lat="46.12551" lon="4.58058">
        <ele>691.2</ele>
        <time>2020-10-19T12:46:13Z</time>
      </trkpt>
      <trkpt lat="46.12551" lon="4.58058">
        <ele>691.2</ele>
        <time>2020-10-19T12:46:14Z</time>
      </trkpt>
      <trkpt lat="46.12548" lon="4.58055">
        <ele>691.4</ele>
        <time>2020-10-19T12:46:15Z</time>
      </trkpt>
      <trkpt lat="46.12548" lon="4.58055">
        <ele>691.6</ele>
        <time>2020-10-19T12:46:16Z</time>
      </trkpt>
      <trkpt lat="46.12547" lon="4.58052">
        <ele>691.6</ele>
        <time>2020-10-19T12:46:17Z</time>
      </trkpt>
      <trkpt lat="46.12547" lon="4.58052">
        <ele>691.4</ele>
        <time>2020-10-19T12:46:18Z</time>
      </trkpt>
      <trkpt lat="46.12545" lon="4.58049">
        <ele>691.4</ele>
        <time>2020-10-19T12:46:19Z</time>
      </trkpt>
      <trkpt lat="46.12545" lon="4.58049">
        <ele>691.2</ele>
        <time>2020-10-19T12:46:20Z</time>
      </trkpt>
      <trkpt lat="46.12543" lon="4.58046">
        <ele>691.2</ele>
        <time>2020-10-19T12:46:21Z</time>
      </trkpt>
      <trkpt lat="46.12543" lon="4.58046">
        <ele>691</ele>
        <time>2020-10-19T12:46:22Z</time>
      </trkpt>
      <trkpt lat="46.12541" lon="4.58043">
        <ele>691.2</ele>
        <time>2020-10-19T12:46:23Z</time>
      </trkpt>
      <trkpt lat="46.12541" lon="4.58043">
        <ele>691.2</ele>
        <time>2020-10-19T12:46:24Z</time>
      </trkpt>
      <trkpt lat="46.1254" lon="4.58039">
        <ele>691</ele>
        <time>2020-10-19T12:46:25Z</time>
      </trkpt>
      <trkpt lat="46.1254" lon="4.58039">
        <ele>691.2</ele>
        <time>2020-10-19T12:46:26Z</time>
      </trkpt>
      <trkpt lat="46.12538" lon="4.58035">
        <ele>691.2</ele>
        <time>2020-10-19T12:46:27Z</time>
      </trkpt>
      <trkpt lat="46.12538" lon="4.58035">
        <ele>691.2</ele>
        <time>2020-10-19T12:46:28Z</time>
      </trkpt>
      <trkpt lat="46.12536" lon="4.58032">
        <ele>691</ele>
        <time>2020-10-19T12:46:29Z</time>
      </trkpt>
      <trkpt lat="46.12536" lon="4.58032">
        <ele>690.8</ele>
        <time>2020-10-19T12:46:30Z</time>
      </trkpt>
      <trkpt lat="46.12534" lon="4.58029">
        <ele>690.6</ele>
        <time>2020-10-19T12:46:31Z</time>
      </trkpt>
      <trkpt lat="46.12534" lon="4.58029">
        <ele>690.8</ele>
        <time>2020-10-19T12:46:32Z</time>
      </trkpt>
      <trkpt lat="46.12532" lon="4.58025">
        <ele>690.8</ele>
        <time>2020-10-19T12:46:33Z</time>
      </trkpt>
      <trkpt lat="46.12532" lon="4.58025">
        <ele>690.8</ele>
        <time>2020-10-19T12:46:34Z</time>
      </trkpt>
      <trkpt lat="46.1253" lon="4.58022">
        <ele>690.6</ele>
        <time>2020-10-19T12:46:35Z</time>
      </trkpt>
      <trkpt lat="46.1253" lon="4.58022">
        <ele>690.6</ele>
        <time>2020-10-19T12:46:36Z</time>
      </trkpt>
      <trkpt lat="46.12528" lon="4.5802">
        <ele>690.6</ele>
        <time>2020-10-19T12:46:37Z</time>
      </trkpt>
      <trkpt lat="46.12528" lon="4.5802">
        <ele>690.4</ele>
        <time>2020-10-19T12:46:38Z</time>
      </trkpt>
      <trkpt lat="46.12525" lon="4.58016">
        <ele>690.2</ele>
        <time>2020-10-19T12:46:39Z</time>
      </trkpt>
      <trkpt lat="46.12525" lon="4.58016">
        <ele>690.2</ele>
        <time>2020-10-19T12:46:40Z</time>
      </trkpt>
      <trkpt lat="46.12523" lon="4.58013">
        <ele>690</ele>
        <time>2020-10-19T12:46:41Z</time>
      </trkpt>
      <trkpt lat="46.12523" lon="4.58013">
        <ele>690.2</ele>
        <time>2020-10-19T12:46:42Z</time>
      </trkpt>
      <trkpt lat="46.12521" lon="4.58009">
        <ele>690</ele>
        <time>2020-10-19T12:46:43Z</time>
      </trkpt>
      <trkpt lat="46.12521" lon="4.58009">
        <ele>690</ele>
        <time>2020-10-19T12:46:44Z</time>
      </trkpt>
      <trkpt lat="46.12519" lon="4.58006">
        <ele>690</ele>
        <time>2020-10-19T12:46:45Z</time>
      </trkpt>
      <trkpt lat="46.12519" lon="4.58006">
        <ele>690</ele>
        <time>2020-10-19T12:46:46Z</time>
      </trkpt>
      <trkpt lat="46.12517" lon="4.58003">
        <ele>689.8</ele>
        <time>2020-10-19T12:46:47Z</time>
      </trkpt>
      <trkpt lat="46.12517" lon="4.58003">
        <ele>689.8</ele>
        <time>2020-10-19T12:46:48Z</time>
      </trkpt>
      <trkpt lat="46.12515" lon="4.57999">
        <ele>689.6</ele>
        <time>2020-10-19T12:46:49Z</time>
      </trkpt>
      <trkpt lat="46.12515" lon="4.57999">
        <ele>689.6</ele>
        <time>2020-10-19T12:46:50Z</time>
      </trkpt>
      <trkpt lat="46.12513" lon="4.57996">
        <ele>689.6</ele>
        <time>2020-10-19T12:46:51Z</time>
      </trkpt>
      <trkpt lat="46.12513" lon="4.57996">
        <ele>689.4</ele>
        <time>2020-10-19T12:46:52Z</time>
      </trkpt>
      <trkpt lat="46.12512" lon="4.57992">
        <ele>689.2</ele>
        <time>2020-10-19T12:46:53Z</time>
      </trkpt>
      <trkpt lat="46.12512" lon="4.57992">
        <ele>689.2</ele>
        <time>2020-10-19T12:46:54Z</time>
      </trkpt>
      <trkpt lat="46.1251" lon="4.57989">
        <ele>689.2</ele>
        <time>2020-10-19T12:46:55Z</time>
      </trkpt>
      <trkpt lat="46.1251" lon="4.57989">
        <ele>689</ele>
        <time>2020-10-19T12:46:56Z</time>
      </trkpt>
      <trkpt lat="46.12508" lon="4.57985">
        <ele>689</ele>
        <time>2020-10-19T12:46:57Z</time>
      </trkpt>
      <trkpt lat="46.12508" lon="4.57985">
        <ele>689</ele>
        <time>2020-10-19T12:46:58Z</time>
      </trkpt>
      <trkpt lat="46.12506" lon="4.57981">
        <ele>688.8</ele>
        <time>2020-10-19T12:46:59Z</time>
      </trkpt>
      <trkpt lat="46.12506" lon="4.57981">
        <ele>688.8</ele>
        <time>2020-10-19T12:47:00Z</time>
      </trkpt>
      <trkpt lat="46.12505" lon="4.57977">
        <ele>688.8</ele>
        <time>2020-10-19T12:47:01Z</time>
      </trkpt>
      <trkpt lat="46.12505" lon="4.57977">
        <ele>688.8</ele>
        <time>2020-10-19T12:47:02Z</time>
      </trkpt>
      <trkpt lat="46.12504" lon="4.57973">
        <ele>688.6</ele>
        <time>2020-10-19T12:47:03Z</time>
      </trkpt>
      <trkpt lat="46.12504" lon="4.57973">
        <ele>688.6</ele>
        <time>2020-10-19T12:47:04Z</time>
      </trkpt>
      <trkpt lat="46.12503" lon="4.57969">
        <ele>688.6</ele>
        <time>2020-10-19T12:47:05Z</time>
      </trkpt>
      <trkpt lat="46.12503" lon="4.57969">
        <ele>688.4</ele>
        <time>2020-10-19T12:47:06Z</time>
      </trkpt>
      <trkpt lat="46.125" lon="4.57966">
        <ele>688.2</ele>
        <time>2020-10-19T12:47:07Z</time>
      </trkpt>
      <trkpt lat="46.125" lon="4.57966">
        <ele>688.4</ele>
        <time>2020-10-19T12:47:08Z</time>
      </trkpt>
      <trkpt lat="46.12498" lon="4.57962">
        <ele>688.2</ele>
        <time>2020-10-19T12:47:09Z</time>
      </trkpt>
      <trkpt lat="46.12498" lon="4.57962">
        <ele>687.8</ele>
        <time>2020-10-19T12:47:10Z</time>
      </trkpt>
      <trkpt lat="46.12497" lon="4.57959">
        <ele>687.4</ele>
        <time>2020-10-19T12:47:11Z</time>
      </trkpt>
      <trkpt lat="46.12497" lon="4.57959">
        <ele>687.4</ele>
        <time>2020-10-19T12:47:12Z</time>
      </trkpt>
      <trkpt lat="46.12495" lon="4.57955">
        <ele>687.4</ele>
        <time>2020-10-19T12:47:13Z</time>
      </trkpt>
      <trkpt lat="46.12495" lon="4.57955">
        <ele>687.2</ele>
        <time>2020-10-19T12:47:14Z</time>
      </trkpt>
      <trkpt lat="46.12493" lon="4.57952">
        <ele>687.4</ele>
        <time>2020-10-19T12:47:15Z</time>
      </trkpt>
      <trkpt lat="46.12493" lon="4.57952">
        <ele>687.8</ele>
        <time>2020-10-19T12:47:16Z</time>
      </trkpt>
      <trkpt lat="46.12491" lon="4.57948">
        <ele>687.8</ele>
        <time>2020-10-19T12:47:17Z</time>
      </trkpt>
      <trkpt lat="46.12491" lon="4.57948">
        <ele>687.6</ele>
        <time>2020-10-19T12:47:18Z</time>
      </trkpt>
      <trkpt lat="46.12488" lon="4.57946">
        <ele>687.6</ele>
        <time>2020-10-19T12:47:19Z</time>
      </trkpt>
      <trkpt lat="46.12488" lon="4.57946">
        <ele>687.4</ele>
        <time>2020-10-19T12:47:20Z</time>
      </trkpt>
      <trkpt lat="46.12486" lon="4.57942">
        <ele>687.4</ele>
        <time>2020-10-19T12:47:21Z</time>
      </trkpt>
      <trkpt lat="46.12485" lon="4.5794">
        <ele>687.2</ele>
        <time>2020-10-19T12:47:22Z</time>
      </trkpt>
      <trkpt lat="46.12485" lon="4.5794">
        <ele>687</ele>
        <time>2020-10-19T12:47:23Z</time>
      </trkpt>
      <trkpt lat="46.12483" lon="4.57936">
        <ele>687</ele>
        <time>2020-10-19T12:47:24Z</time>
      </trkpt>
      <trkpt lat="46.12483" lon="4.57936">
        <ele>686.6</ele>
        <time>2020-10-19T12:47:25Z</time>
      </trkpt>
      <trkpt lat="46.12481" lon="4.57933">
        <ele>686.6</ele>
        <time>2020-10-19T12:47:26Z</time>
      </trkpt>
      <trkpt lat="46.1248" lon="4.57931">
        <ele>686.2</ele>
        <time>2020-10-19T12:47:27Z</time>
      </trkpt>
      <trkpt lat="46.1248" lon="4.57931">
        <ele>686</ele>
        <time>2020-10-19T12:47:28Z</time>
      </trkpt>
      <trkpt lat="46.12477" lon="4.57927">
        <ele>685.8</ele>
        <time>2020-10-19T12:47:29Z</time>
      </trkpt>
      <trkpt lat="46.12477" lon="4.57927">
        <ele>685.4</ele>
        <time>2020-10-19T12:47:30Z</time>
      </trkpt>
      <trkpt lat="46.12475" lon="4.57923">
        <ele>685.4</ele>
        <time>2020-10-19T12:47:31Z</time>
      </trkpt>
      <trkpt lat="46.12475" lon="4.57923">
        <ele>685.4</ele>
        <time>2020-10-19T12:47:32Z</time>
      </trkpt>
      <trkpt lat="46.12473" lon="4.57919">
        <ele>685.2</ele>
        <time>2020-10-19T12:47:33Z</time>
      </trkpt>
      <trkpt lat="46.12473" lon="4.57919">
        <ele>684.8</ele>
        <time>2020-10-19T12:47:34Z</time>
      </trkpt>
      <trkpt lat="46.12471" lon="4.57916">
        <ele>684.6</ele>
        <time>2020-10-19T12:47:35Z</time>
      </trkpt>
      <trkpt lat="46.12471" lon="4.57916">
        <ele>684.6</ele>
        <time>2020-10-19T12:47:36Z</time>
      </trkpt>
      <trkpt lat="46.12469" lon="4.57912">
        <ele>684.6</ele>
        <time>2020-10-19T12:47:37Z</time>
      </trkpt>
      <trkpt lat="46.12469" lon="4.57912">
        <ele>684.4</ele>
        <time>2020-10-19T12:47:38Z</time>
      </trkpt>
      <trkpt lat="46.12467" lon="4.57909">
        <ele>684.2</ele>
        <time>2020-10-19T12:47:39Z</time>
      </trkpt>
      <trkpt lat="46.12467" lon="4.57909">
        <ele>684</ele>
        <time>2020-10-19T12:47:40Z</time>
      </trkpt>
      <trkpt lat="46.12465" lon="4.57906">
        <ele>683.8</ele>
        <time>2020-10-19T12:47:41Z</time>
      </trkpt>
      <trkpt lat="46.12465" lon="4.57906">
        <ele>683.8</ele>
        <time>2020-10-19T12:47:42Z</time>
      </trkpt>
      <trkpt lat="46.12464" lon="4.57903">
        <ele>683.6</ele>
        <time>2020-10-19T12:47:43Z</time>
      </trkpt>
      <trkpt lat="46.12464" lon="4.57903">
        <ele>683.6</ele>
        <time>2020-10-19T12:47:44Z</time>
      </trkpt>
      <trkpt lat="46.12462" lon="4.579">
        <ele>683.6</ele>
        <time>2020-10-19T12:47:45Z</time>
      </trkpt>
      <trkpt lat="46.12462" lon="4.579">
        <ele>683.4</ele>
        <time>2020-10-19T12:47:46Z</time>
      </trkpt>
      <trkpt lat="46.12461" lon="4.57897">
        <ele>683.6</ele>
        <time>2020-10-19T12:47:47Z</time>
      </trkpt>
      <trkpt lat="46.12461" lon="4.57897">
        <ele>683.2</ele>
        <time>2020-10-19T12:47:48Z</time>
      </trkpt>
      <trkpt lat="46.12459" lon="4.57893">
        <ele>683</ele>
        <time>2020-10-19T12:47:49Z</time>
      </trkpt>
      <trkpt lat="46.12459" lon="4.57893">
        <ele>683</ele>
        <time>2020-10-19T12:47:50Z</time>
      </trkpt>
      <trkpt lat="46.12458" lon="4.5789">
        <ele>683</ele>
        <time>2020-10-19T12:47:51Z</time>
      </trkpt>
      <trkpt lat="46.12458" lon="4.5789">
        <ele>682.8</ele>
        <time>2020-10-19T12:47:52Z</time>
      </trkpt>
      <trkpt lat="46.12456" lon="4.57886">
        <ele>683</ele>
        <time>2020-10-19T12:47:53Z</time>
      </trkpt>
      <trkpt lat="46.12456" lon="4.57886">
        <ele>683.2</ele>
        <time>2020-10-19T12:47:54Z</time>
      </trkpt>
      <trkpt lat="46.12454" lon="4.57882">
        <ele>683.2</ele>
        <time>2020-10-19T12:47:55Z</time>
      </trkpt>
      <trkpt lat="46.12454" lon="4.57882">
        <ele>683</ele>
        <time>2020-10-19T12:47:56Z</time>
      </trkpt>
      <trkpt lat="46.12454" lon="4.57877">
        <ele>683</ele>
        <time>2020-10-19T12:47:57Z</time>
      </trkpt>
      <trkpt lat="46.12454" lon="4.57877">
        <ele>683</ele>
        <time>2020-10-19T12:47:58Z</time>
      </trkpt>
      <trkpt lat="46.12454" lon="4.57873">
        <ele>682.6</ele>
        <time>2020-10-19T12:47:59Z</time>
      </trkpt>
      <trkpt lat="46.12454" lon="4.57873">
        <ele>682.6</ele>
        <time>2020-10-19T12:48:00Z</time>
      </trkpt>
      <trkpt lat="46.12454" lon="4.57869">
        <ele>682.8</ele>
        <time>2020-10-19T12:48:01Z</time>
      </trkpt>
      <trkpt lat="46.12454" lon="4.57866">
        <ele>683</ele>
        <time>2020-10-19T12:48:02Z</time>
      </trkpt>
      <trkpt lat="46.12454" lon="4.57866">
        <ele>683.2</ele>
        <time>2020-10-19T12:48:03Z</time>
      </trkpt>
      <trkpt lat="46.12454" lon="4.57861">
        <ele>683.4</ele>
        <time>2020-10-19T12:48:04Z</time>
      </trkpt>
      <trkpt lat="46.12454" lon="4.57861">
        <ele>683.4</ele>
        <time>2020-10-19T12:48:05Z</time>
      </trkpt>
      <trkpt lat="46.12454" lon="4.57857">
        <ele>683.6</ele>
        <time>2020-10-19T12:48:06Z</time>
      </trkpt>
      <trkpt lat="46.12454" lon="4.57857">
        <ele>683.6</ele>
        <time>2020-10-19T12:48:07Z</time>
      </trkpt>
      <trkpt lat="46.12454" lon="4.57852">
        <ele>683.8</ele>
        <time>2020-10-19T12:48:08Z</time>
      </trkpt>
      <trkpt lat="46.12454" lon="4.57852">
        <ele>684.2</ele>
        <time>2020-10-19T12:48:09Z</time>
      </trkpt>
      <trkpt lat="46.12455" lon="4.57848">
        <ele>684</ele>
        <time>2020-10-19T12:48:10Z</time>
      </trkpt>
      <trkpt lat="46.12455" lon="4.57848">
        <ele>683.8</ele>
        <time>2020-10-19T12:48:11Z</time>
      </trkpt>
      <trkpt lat="46.12455" lon="4.57844">
        <ele>683.6</ele>
        <time>2020-10-19T12:48:12Z</time>
      </trkpt>
      <trkpt lat="46.12455" lon="4.57844">
        <ele>683.6</ele>
        <time>2020-10-19T12:48:13Z</time>
      </trkpt>
      <trkpt lat="46.12455" lon="4.57839">
        <ele>684.2</ele>
        <time>2020-10-19T12:48:14Z</time>
      </trkpt>
      <trkpt lat="46.12455" lon="4.57839">
        <ele>684.4</ele>
        <time>2020-10-19T12:48:15Z</time>
      </trkpt>
      <trkpt lat="46.12455" lon="4.57835">
        <ele>684.2</ele>
        <time>2020-10-19T12:48:16Z</time>
      </trkpt>
      <trkpt lat="46.12455" lon="4.57835">
        <ele>684.2</ele>
        <time>2020-10-19T12:48:17Z</time>
      </trkpt>
      <trkpt lat="46.12456" lon="4.57831">
        <ele>684</ele>
        <time>2020-10-19T12:48:18Z</time>
      </trkpt>
      <trkpt lat="46.12456" lon="4.57831">
        <ele>683.8</ele>
        <time>2020-10-19T12:48:19Z</time>
      </trkpt>
      <trkpt lat="46.12456" lon="4.57828">
        <ele>683.6</ele>
        <time>2020-10-19T12:48:20Z</time>
      </trkpt>
      <trkpt lat="46.12456" lon="4.57828">
        <ele>683.6</ele>
        <time>2020-10-19T12:48:21Z</time>
      </trkpt>
      <trkpt lat="46.12456" lon="4.57824">
        <ele>683.6</ele>
        <time>2020-10-19T12:48:22Z</time>
      </trkpt>
      <trkpt lat="46.12457" lon="4.5782">
        <ele>683.4</ele>
        <time>2020-10-19T12:48:23Z</time>
      </trkpt>
      <trkpt lat="46.12457" lon="4.57818">
        <ele>683.4</ele>
        <time>2020-10-19T12:48:24Z</time>
      </trkpt>
      <trkpt lat="46.12457" lon="4.57818">
        <ele>683.4</ele>
        <time>2020-10-19T12:48:25Z</time>
      </trkpt>
      <trkpt lat="46.12457" lon="4.57813">
        <ele>683.2</ele>
        <time>2020-10-19T12:48:26Z</time>
      </trkpt>
      <trkpt lat="46.12457" lon="4.57813">
        <ele>683</ele>
        <time>2020-10-19T12:48:27Z</time>
      </trkpt>
      <trkpt lat="46.12457" lon="4.5781">
        <ele>682.8</ele>
        <time>2020-10-19T12:48:28Z</time>
      </trkpt>
      <trkpt lat="46.12457" lon="4.5781">
        <ele>682.6</ele>
        <time>2020-10-19T12:48:29Z</time>
      </trkpt>
      <trkpt lat="46.12457" lon="4.57805">
        <ele>682.2</ele>
        <time>2020-10-19T12:48:30Z</time>
      </trkpt>
      <trkpt lat="46.12457" lon="4.57805">
        <ele>682</ele>
        <time>2020-10-19T12:48:31Z</time>
      </trkpt>
      <trkpt lat="46.12458" lon="4.57802">
        <ele>681.8</ele>
        <time>2020-10-19T12:48:32Z</time>
      </trkpt>
      <trkpt lat="46.12458" lon="4.57802">
        <ele>681.8</ele>
        <time>2020-10-19T12:48:33Z</time>
      </trkpt>
      <trkpt lat="46.12458" lon="4.57797">
        <ele>681.8</ele>
        <time>2020-10-19T12:48:34Z</time>
      </trkpt>
      <trkpt lat="46.12458" lon="4.57797">
        <ele>681.6</ele>
        <time>2020-10-19T12:48:35Z</time>
      </trkpt>
      <trkpt lat="46.12459" lon="4.57793">
        <ele>681.6</ele>
        <time>2020-10-19T12:48:36Z</time>
      </trkpt>
      <trkpt lat="46.12459" lon="4.57793">
        <ele>681.4</ele>
        <time>2020-10-19T12:48:37Z</time>
      </trkpt>
      <trkpt lat="46.12459" lon="4.57789">
        <ele>681.4</ele>
        <time>2020-10-19T12:48:38Z</time>
      </trkpt>
      <trkpt lat="46.12459" lon="4.57789">
        <ele>681</ele>
        <time>2020-10-19T12:48:39Z</time>
      </trkpt>
      <trkpt lat="46.12459" lon="4.57785">
        <ele>681</ele>
        <time>2020-10-19T12:48:40Z</time>
      </trkpt>
      <trkpt lat="46.12459" lon="4.57785">
        <ele>680.8</ele>
        <time>2020-10-19T12:48:41Z</time>
      </trkpt>
      <trkpt lat="46.12459" lon="4.57781">
        <ele>680.6</ele>
        <time>2020-10-19T12:48:42Z</time>
      </trkpt>
      <trkpt lat="46.12459" lon="4.57781">
        <ele>680.4</ele>
        <time>2020-10-19T12:48:43Z</time>
      </trkpt>
      <trkpt lat="46.12459" lon="4.57777">
        <ele>680.2</ele>
        <time>2020-10-19T12:48:44Z</time>
      </trkpt>
      <trkpt lat="46.12459" lon="4.57777">
        <ele>680</ele>
        <time>2020-10-19T12:48:45Z</time>
      </trkpt>
      <trkpt lat="46.12459" lon="4.57773">
        <ele>679.8</ele>
        <time>2020-10-19T12:48:46Z</time>
      </trkpt>
      <trkpt lat="46.12459" lon="4.57773">
        <ele>679.6</ele>
        <time>2020-10-19T12:48:47Z</time>
      </trkpt>
      <trkpt lat="46.12459" lon="4.57768">
        <ele>679.4</ele>
        <time>2020-10-19T12:48:48Z</time>
      </trkpt>
      <trkpt lat="46.12459" lon="4.57768">
        <ele>679</ele>
        <time>2020-10-19T12:48:49Z</time>
      </trkpt>
      <trkpt lat="46.1246" lon="4.57762">
        <ele>679</ele>
        <time>2020-10-19T12:48:50Z</time>
      </trkpt>
      <trkpt lat="46.1246" lon="4.57762">
        <ele>678.8</ele>
        <time>2020-10-19T12:48:51Z</time>
      </trkpt>
      <trkpt lat="46.12459" lon="4.57757">
        <ele>679</ele>
        <time>2020-10-19T12:48:52Z</time>
      </trkpt>
      <trkpt lat="46.12459" lon="4.57757">
        <ele>679</ele>
        <time>2020-10-19T12:48:53Z</time>
      </trkpt>
      <trkpt lat="46.12459" lon="4.57753">
        <ele>679</ele>
        <time>2020-10-19T12:48:54Z</time>
      </trkpt>
      <trkpt lat="46.12459" lon="4.57753">
        <ele>679</ele>
        <time>2020-10-19T12:48:55Z</time>
      </trkpt>
      <trkpt lat="46.12459" lon="4.57749">
        <ele>679</ele>
        <time>2020-10-19T12:48:56Z</time>
      </trkpt>
      <trkpt lat="46.12459" lon="4.57749">
        <ele>679</ele>
        <time>2020-10-19T12:48:57Z</time>
      </trkpt>
      <trkpt lat="46.12458" lon="4.57745">
        <ele>678.8</ele>
        <time>2020-10-19T12:48:58Z</time>
      </trkpt>
      <trkpt lat="46.12458" lon="4.57745">
        <ele>678.8</ele>
        <time>2020-10-19T12:48:59Z</time>
      </trkpt>
      <trkpt lat="46.12458" lon="4.57741">
        <ele>678.8</ele>
        <time>2020-10-19T12:49:00Z</time>
      </trkpt>
      <trkpt lat="46.12458" lon="4.57741">
        <ele>678.8</ele>
        <time>2020-10-19T12:49:01Z</time>
      </trkpt>
      <trkpt lat="46.12457" lon="4.57737">
        <ele>678.8</ele>
        <time>2020-10-19T12:49:02Z</time>
      </trkpt>
      <trkpt lat="46.12457" lon="4.57737">
        <ele>678.8</ele>
        <time>2020-10-19T12:49:03Z</time>
      </trkpt>
      <trkpt lat="46.12457" lon="4.57733">
        <ele>679</ele>
        <time>2020-10-19T12:49:04Z</time>
      </trkpt>
      <trkpt lat="46.12457" lon="4.57733">
        <ele>679</ele>
        <time>2020-10-19T12:49:05Z</time>
      </trkpt>
      <trkpt lat="46.12459" lon="4.57729">
        <ele>679</ele>
        <time>2020-10-19T12:49:06Z</time>
      </trkpt>
      <trkpt lat="46.12459" lon="4.57727">
        <ele>679.2</ele>
        <time>2020-10-19T12:49:07Z</time>
      </trkpt>
      <trkpt lat="46.12459" lon="4.57727">
        <ele>679.4</ele>
        <time>2020-10-19T12:49:08Z</time>
      </trkpt>
      <trkpt lat="46.1246" lon="4.57722">
        <ele>679.6</ele>
        <time>2020-10-19T12:49:09Z</time>
      </trkpt>
      <trkpt lat="46.1246" lon="4.57722">
        <ele>679.6</ele>
        <time>2020-10-19T12:49:10Z</time>
      </trkpt>
      <trkpt lat="46.1246" lon="4.57717">
        <ele>679.6</ele>
        <time>2020-10-19T12:49:11Z</time>
      </trkpt>
      <trkpt lat="46.1246" lon="4.57717">
        <ele>679.6</ele>
        <time>2020-10-19T12:49:12Z</time>
      </trkpt>
      <trkpt lat="46.1246" lon="4.57713">
        <ele>679.6</ele>
        <time>2020-10-19T12:49:13Z</time>
      </trkpt>
      <trkpt lat="46.12461" lon="4.57711">
        <ele>679.6</ele>
        <time>2020-10-19T12:49:14Z</time>
      </trkpt>
      <trkpt lat="46.12461" lon="4.57711">
        <ele>679.8</ele>
        <time>2020-10-19T12:49:15Z</time>
      </trkpt>
      <trkpt lat="46.12463" lon="4.57708">
        <ele>680</ele>
        <time>2020-10-19T12:49:16Z</time>
      </trkpt>
      <trkpt lat="46.12463" lon="4.57708">
        <ele>680</ele>
        <time>2020-10-19T12:49:17Z</time>
      </trkpt>
      <trkpt lat="46.12463" lon="4.57708">
        <ele>680.2</ele>
        <time>2020-10-19T12:49:18Z</time>
      </trkpt>
      <trkpt lat="46.12463" lon="4.57708">
        <ele>680.2</ele>
        <time>2020-10-19T12:49:19Z</time>
      </trkpt>
      <trkpt lat="46.12464" lon="4.57712">
        <ele>680.2</ele>
        <time>2020-10-19T12:49:20Z</time>
      </trkpt>
      <trkpt lat="46.12464" lon="4.57712">
        <ele>680.4</ele>
        <time>2020-10-19T12:49:21Z</time>
      </trkpt>
      <trkpt lat="46.12463" lon="4.57716">
        <ele>680.4</ele>
        <time>2020-10-19T12:49:22Z</time>
      </trkpt>
      <trkpt lat="46.12463" lon="4.57716">
        <ele>680.6</ele>
        <time>2020-10-19T12:49:23Z</time>
      </trkpt>
      <trkpt lat="46.12463" lon="4.5772">
        <ele>680.4</ele>
        <time>2020-10-19T12:49:24Z</time>
      </trkpt>
      <trkpt lat="46.12463" lon="4.5772">
        <ele>680.2</ele>
        <time>2020-10-19T12:49:25Z</time>
      </trkpt>
      <trkpt lat="46.12463" lon="4.57723">
        <ele>680</ele>
        <time>2020-10-19T12:49:26Z</time>
      </trkpt>
      <trkpt lat="46.12463" lon="4.57723">
        <ele>680</ele>
        <time>2020-10-19T12:49:27Z</time>
      </trkpt>
      <trkpt lat="46.12463" lon="4.57726">
        <ele>679.8</ele>
        <time>2020-10-19T12:49:28Z</time>
      </trkpt>
      <trkpt lat="46.12463" lon="4.57726">
        <ele>680</ele>
        <time>2020-10-19T12:49:29Z</time>
      </trkpt>
      <trkpt lat="46.12463" lon="4.57726">
        <ele>679.6</ele>
        <time>2020-10-19T12:49:30Z</time>
      </trkpt>
      <trkpt lat="46.12463" lon="4.57726">
        <ele>679.4</ele>
        <time>2020-10-19T12:49:31Z</time>
      </trkpt>
      <trkpt lat="46.12463" lon="4.57726">
        <ele>679.4</ele>
        <time>2020-10-19T12:49:32Z</time>
      </trkpt>
      <trkpt lat="46.12463" lon="4.57726">
        <ele>679.4</ele>
        <time>2020-10-19T12:49:33Z</time>
      </trkpt>
      <trkpt lat="46.12463" lon="4.57726">
        <ele>679.4</ele>
        <time>2020-10-19T12:49:34Z</time>
      </trkpt>
      <trkpt lat="46.12463" lon="4.57726">
        <ele>679.4</ele>
        <time>2020-10-19T12:49:35Z</time>
      </trkpt>
      <trkpt lat="46.12463" lon="4.57722">
        <ele>679.4</ele>
        <time>2020-10-19T12:49:36Z</time>
      </trkpt>
      <trkpt lat="46.12463" lon="4.57722">
        <ele>679.8</ele>
        <time>2020-10-19T12:49:37Z</time>
      </trkpt>
      <trkpt lat="46.12464" lon="4.57718">
        <ele>679.8</ele>
        <time>2020-10-19T12:49:38Z</time>
      </trkpt>
      <trkpt lat="46.12464" lon="4.57718">
        <ele>679.8</ele>
        <time>2020-10-19T12:49:39Z</time>
      </trkpt>
      <trkpt lat="46.12464" lon="4.57715">
        <ele>679.8</ele>
        <time>2020-10-19T12:49:40Z</time>
      </trkpt>
      <trkpt lat="46.12464" lon="4.57715">
        <ele>680.2</ele>
        <time>2020-10-19T12:49:41Z</time>
      </trkpt>
      <trkpt lat="46.12464" lon="4.5771">
        <ele>680.4</ele>
        <time>2020-10-19T12:49:42Z</time>
      </trkpt>
      <trkpt lat="46.12464" lon="4.5771">
        <ele>680.6</ele>
        <time>2020-10-19T12:49:43Z</time>
      </trkpt>
      <trkpt lat="46.12464" lon="4.57706">
        <ele>680.8</ele>
        <time>2020-10-19T12:49:44Z</time>
      </trkpt>
      <trkpt lat="46.12464" lon="4.57706">
        <ele>680.8</ele>
        <time>2020-10-19T12:49:45Z</time>
      </trkpt>
      <trkpt lat="46.12464" lon="4.57701">
        <ele>681.2</ele>
        <time>2020-10-19T12:49:46Z</time>
      </trkpt>
      <trkpt lat="46.12464" lon="4.57701">
        <ele>681.4</ele>
        <time>2020-10-19T12:49:47Z</time>
      </trkpt>
      <trkpt lat="46.12464" lon="4.57697">
        <ele>681.6</ele>
        <time>2020-10-19T12:49:48Z</time>
      </trkpt>
      <trkpt lat="46.12464" lon="4.57697">
        <ele>681.6</ele>
        <time>2020-10-19T12:49:49Z</time>
      </trkpt>
      <trkpt lat="46.12464" lon="4.57693">
        <ele>681.2</ele>
        <time>2020-10-19T12:49:50Z</time>
      </trkpt>
      <trkpt lat="46.12464" lon="4.57693">
        <ele>681.2</ele>
        <time>2020-10-19T12:49:51Z</time>
      </trkpt>
      <trkpt lat="46.12463" lon="4.57689">
        <ele>681.4</ele>
        <time>2020-10-19T12:49:52Z</time>
      </trkpt>
      <trkpt lat="46.12463" lon="4.57689">
        <ele>681.2</ele>
        <time>2020-10-19T12:49:53Z</time>
      </trkpt>
      <trkpt lat="46.12463" lon="4.57685">
        <ele>681.4</ele>
        <time>2020-10-19T12:49:54Z</time>
      </trkpt>
      <trkpt lat="46.12463" lon="4.57685">
        <ele>681.8</ele>
        <time>2020-10-19T12:49:55Z</time>
      </trkpt>
      <trkpt lat="46.12463" lon="4.5768">
        <ele>681.8</ele>
        <time>2020-10-19T12:49:56Z</time>
      </trkpt>
      <trkpt lat="46.12463" lon="4.57677">
        <ele>682</ele>
        <time>2020-10-19T12:49:57Z</time>
      </trkpt>
      <trkpt lat="46.12463" lon="4.57677">
        <ele>682</ele>
        <time>2020-10-19T12:49:58Z</time>
      </trkpt>
      <trkpt lat="46.12463" lon="4.57673">
        <ele>682.4</ele>
        <time>2020-10-19T12:49:59Z</time>
      </trkpt>
      <trkpt lat="46.12463" lon="4.57669">
        <ele>682.4</ele>
        <time>2020-10-19T12:50:01Z</time>
      </trkpt>
      <trkpt lat="46.12463" lon="4.57669">
        <ele>682.6</ele>
        <time>2020-10-19T12:50:02Z</time>
      </trkpt>
      <trkpt lat="46.12463" lon="4.57665">
        <ele>682.6</ele>
        <time>2020-10-19T12:50:03Z</time>
      </trkpt>
      <trkpt lat="46.12463" lon="4.57665">
        <ele>682.4</ele>
        <time>2020-10-19T12:50:04Z</time>
      </trkpt>
      <trkpt lat="46.12463" lon="4.57661">
        <ele>682.6</ele>
        <time>2020-10-19T12:50:05Z</time>
      </trkpt>
      <trkpt lat="46.12463" lon="4.57661">
        <ele>682.6</ele>
        <time>2020-10-19T12:50:06Z</time>
      </trkpt>
      <trkpt lat="46.12463" lon="4.57657">
        <ele>682.6</ele>
        <time>2020-10-19T12:50:07Z</time>
      </trkpt>
      <trkpt lat="46.12463" lon="4.57657">
        <ele>682.6</ele>
        <time>2020-10-19T12:50:08Z</time>
      </trkpt>
      <trkpt lat="46.12463" lon="4.57652">
        <ele>682.6</ele>
        <time>2020-10-19T12:50:09Z</time>
      </trkpt>
      <trkpt lat="46.12463" lon="4.57652">
        <ele>682.2</ele>
        <time>2020-10-19T12:50:10Z</time>
      </trkpt>
      <trkpt lat="46.12463" lon="4.57648">
        <ele>682.2</ele>
        <time>2020-10-19T12:50:11Z</time>
      </trkpt>
      <trkpt lat="46.12463" lon="4.57648">
        <ele>682</ele>
        <time>2020-10-19T12:50:12Z</time>
      </trkpt>
      <trkpt lat="46.12463" lon="4.57644">
        <ele>682</ele>
        <time>2020-10-19T12:50:13Z</time>
      </trkpt>
      <trkpt lat="46.12463" lon="4.57644">
        <ele>682.2</ele>
        <time>2020-10-19T12:50:14Z</time>
      </trkpt>
      <trkpt lat="46.12463" lon="4.5764">
        <ele>682.4</ele>
        <time>2020-10-19T12:50:15Z</time>
      </trkpt>
      <trkpt lat="46.12463" lon="4.5764">
        <ele>682.2</ele>
        <time>2020-10-19T12:50:16Z</time>
      </trkpt>
      <trkpt lat="46.12462" lon="4.57636">
        <ele>682.2</ele>
        <time>2020-10-19T12:50:17Z</time>
      </trkpt>
      <trkpt lat="46.12462" lon="4.57636">
        <ele>682</ele>
        <time>2020-10-19T12:50:18Z</time>
      </trkpt>
      <trkpt lat="46.12462" lon="4.57631">
        <ele>682.2</ele>
        <time>2020-10-19T12:50:19Z</time>
      </trkpt>
      <trkpt lat="46.12462" lon="4.57628">
        <ele>682</ele>
        <time>2020-10-19T12:50:20Z</time>
      </trkpt>
      <trkpt lat="46.12462" lon="4.57628">
        <ele>682.2</ele>
        <time>2020-10-19T12:50:21Z</time>
      </trkpt>
      <trkpt lat="46.12462" lon="4.57623">
        <ele>682</ele>
        <time>2020-10-19T12:50:22Z</time>
      </trkpt>
      <trkpt lat="46.12462" lon="4.57623">
        <ele>682.2</ele>
        <time>2020-10-19T12:50:23Z</time>
      </trkpt>
      <trkpt lat="46.12463" lon="4.57618">
        <ele>682</ele>
        <time>2020-10-19T12:50:24Z</time>
      </trkpt>
      <trkpt lat="46.12463" lon="4.57618">
        <ele>682</ele>
        <time>2020-10-19T12:50:25Z</time>
      </trkpt>
      <trkpt lat="46.12463" lon="4.57614">
        <ele>682</ele>
        <time>2020-10-19T12:50:26Z</time>
      </trkpt>
      <trkpt lat="46.12463" lon="4.57614">
        <ele>681.8</ele>
        <time>2020-10-19T12:50:27Z</time>
      </trkpt>
      <trkpt lat="46.12464" lon="4.5761">
        <ele>681.6</ele>
        <time>2020-10-19T12:50:28Z</time>
      </trkpt>
      <trkpt lat="46.12464" lon="4.5761">
        <ele>681.8</ele>
        <time>2020-10-19T12:50:29Z</time>
      </trkpt>
      <trkpt lat="46.12465" lon="4.57605">
        <ele>681.8</ele>
        <time>2020-10-19T12:50:30Z</time>
      </trkpt>
      <trkpt lat="46.12465" lon="4.57605">
        <ele>681.6</ele>
        <time>2020-10-19T12:50:31Z</time>
      </trkpt>
      <trkpt lat="46.12466" lon="4.576">
        <ele>681.8</ele>
        <time>2020-10-19T12:50:32Z</time>
      </trkpt>
      <trkpt lat="46.12466" lon="4.576">
        <ele>681.8</ele>
        <time>2020-10-19T12:50:33Z</time>
      </trkpt>
      <trkpt lat="46.12466" lon="4.57595">
        <ele>681.6</ele>
        <time>2020-10-19T12:50:34Z</time>
      </trkpt>
      <trkpt lat="46.12466" lon="4.57595">
        <ele>681.4</ele>
        <time>2020-10-19T12:50:35Z</time>
      </trkpt>
      <trkpt lat="46.12467" lon="4.57591">
        <ele>681.2</ele>
        <time>2020-10-19T12:50:36Z</time>
      </trkpt>
      <trkpt lat="46.12467" lon="4.57591">
        <ele>680.8</ele>
        <time>2020-10-19T12:50:37Z</time>
      </trkpt>
      <trkpt lat="46.12468" lon="4.57588">
        <ele>680.6</ele>
        <time>2020-10-19T12:50:38Z</time>
      </trkpt>
      <trkpt lat="46.12469" lon="4.57585">
        <ele>680.2</ele>
        <time>2020-10-19T12:50:39Z</time>
      </trkpt>
      <trkpt lat="46.1247" lon="4.57582">
        <ele>679.8</ele>
        <time>2020-10-19T12:50:40Z</time>
      </trkpt>
      <trkpt lat="46.1247" lon="4.5758">
        <ele>679.8</ele>
        <time>2020-10-19T12:50:41Z</time>
      </trkpt>
      <trkpt lat="46.12471" lon="4.57577">
        <ele>679.6</ele>
        <time>2020-10-19T12:50:42Z</time>
      </trkpt>
      <trkpt lat="46.12472" lon="4.57574">
        <ele>679.4</ele>
        <time>2020-10-19T12:50:43Z</time>
      </trkpt>
      <trkpt lat="46.12473" lon="4.57571">
        <ele>679.2</ele>
        <time>2020-10-19T12:50:44Z</time>
      </trkpt>
      <trkpt lat="46.12474" lon="4.57569">
        <ele>678.8</ele>
        <time>2020-10-19T12:50:45Z</time>
      </trkpt>
      <trkpt lat="46.12475" lon="4.57566">
        <ele>678.2</ele>
        <time>2020-10-19T12:50:46Z</time>
      </trkpt>
      <trkpt lat="46.12476" lon="4.57564">
        <ele>678.2</ele>
        <time>2020-10-19T12:50:47Z</time>
      </trkpt>
      <trkpt lat="46.12476" lon="4.57564">
        <ele>677.6</ele>
        <time>2020-10-19T12:50:48Z</time>
      </trkpt>
      <trkpt lat="46.12477" lon="4.57559">
        <ele>677.4</ele>
        <time>2020-10-19T12:50:49Z</time>
      </trkpt>
      <trkpt lat="46.12478" lon="4.57556">
        <ele>677.4</ele>
        <time>2020-10-19T12:50:50Z</time>
      </trkpt>
      <trkpt lat="46.12479" lon="4.57553">
        <ele>676.8</ele>
        <time>2020-10-19T12:50:51Z</time>
      </trkpt>
      <trkpt lat="46.12479" lon="4.5755">
        <ele>676.4</ele>
        <time>2020-10-19T12:50:52Z</time>
      </trkpt>
      <trkpt lat="46.1248" lon="4.57548">
        <ele>676.2</ele>
        <time>2020-10-19T12:50:53Z</time>
      </trkpt>
      <trkpt lat="46.1248" lon="4.57545">
        <ele>675.8</ele>
        <time>2020-10-19T12:50:54Z</time>
      </trkpt>
      <trkpt lat="46.12481" lon="4.57542">
        <ele>675.4</ele>
        <time>2020-10-19T12:50:55Z</time>
      </trkpt>
      <trkpt lat="46.12482" lon="4.5754">
        <ele>675.2</ele>
        <time>2020-10-19T12:50:56Z</time>
      </trkpt>
      <trkpt lat="46.12483" lon="4.57537">
        <ele>674.8</ele>
        <time>2020-10-19T12:50:57Z</time>
      </trkpt>
      <trkpt lat="46.12483" lon="4.57537">
        <ele>674.4</ele>
        <time>2020-10-19T12:50:58Z</time>
      </trkpt>
      <trkpt lat="46.12484" lon="4.57532">
        <ele>674</ele>
        <time>2020-10-19T12:50:59Z</time>
      </trkpt>
      <trkpt lat="46.12485" lon="4.5753">
        <ele>673.8</ele>
        <time>2020-10-19T12:51:00Z</time>
      </trkpt>
      <trkpt lat="46.12487" lon="4.57528">
        <ele>673.6</ele>
        <time>2020-10-19T12:51:01Z</time>
      </trkpt>
      <trkpt lat="46.12487" lon="4.57528">
        <ele>673</ele>
        <time>2020-10-19T12:51:02Z</time>
      </trkpt>
      <trkpt lat="46.12489" lon="4.57524">
        <ele>672.6</ele>
        <time>2020-10-19T12:51:03Z</time>
      </trkpt>
      <trkpt lat="46.12489" lon="4.57522">
        <ele>672</ele>
        <time>2020-10-19T12:51:04Z</time>
      </trkpt>
      <trkpt lat="46.12491" lon="4.57519">
        <ele>671.6</ele>
        <time>2020-10-19T12:51:05Z</time>
      </trkpt>
      <trkpt lat="46.12492" lon="4.57516">
        <ele>671.4</ele>
        <time>2020-10-19T12:51:06Z</time>
      </trkpt>
      <trkpt lat="46.12493" lon="4.57513">
        <ele>670.4</ele>
        <time>2020-10-19T12:51:07Z</time>
      </trkpt>
      <trkpt lat="46.12495" lon="4.57511">
        <ele>670.4</ele>
        <time>2020-10-19T12:51:08Z</time>
      </trkpt>
      <trkpt lat="46.12496" lon="4.57508">
        <ele>670.2</ele>
        <time>2020-10-19T12:51:09Z</time>
      </trkpt>
      <trkpt lat="46.12497" lon="4.57504">
        <ele>669.6</ele>
        <time>2020-10-19T12:51:10Z</time>
      </trkpt>
      <trkpt lat="46.12498" lon="4.57501">
        <ele>669.2</ele>
        <time>2020-10-19T12:51:11Z</time>
      </trkpt>
      <trkpt lat="46.12499" lon="4.57498">
        <ele>669</ele>
        <time>2020-10-19T12:51:12Z</time>
      </trkpt>
      <trkpt lat="46.125" lon="4.57495">
        <ele>668.6</ele>
        <time>2020-10-19T12:51:13Z</time>
      </trkpt>
      <trkpt lat="46.12501" lon="4.57493">
        <ele>668.6</ele>
        <time>2020-10-19T12:51:14Z</time>
      </trkpt>
      <trkpt lat="46.12502" lon="4.5749">
        <ele>668.4</ele>
        <time>2020-10-19T12:51:15Z</time>
      </trkpt>
      <trkpt lat="46.12503" lon="4.57487">
        <ele>668.2</ele>
        <time>2020-10-19T12:51:16Z</time>
      </trkpt>
      <trkpt lat="46.12504" lon="4.57484">
        <ele>667.8</ele>
        <time>2020-10-19T12:51:17Z</time>
      </trkpt>
      <trkpt lat="46.12505" lon="4.57481">
        <ele>667.2</ele>
        <time>2020-10-19T12:51:18Z</time>
      </trkpt>
      <trkpt lat="46.12506" lon="4.57478">
        <ele>666.8</ele>
        <time>2020-10-19T12:51:19Z</time>
      </trkpt>
      <trkpt lat="46.12507" lon="4.57475">
        <ele>666.4</ele>
        <time>2020-10-19T12:51:20Z</time>
      </trkpt>
      <trkpt lat="46.12508" lon="4.57472">
        <ele>666</ele>
        <time>2020-10-19T12:51:21Z</time>
      </trkpt>
      <trkpt lat="46.12509" lon="4.57469">
        <ele>666</ele>
        <time>2020-10-19T12:51:22Z</time>
      </trkpt>
      <trkpt lat="46.12509" lon="4.57466">
        <ele>665.2</ele>
        <time>2020-10-19T12:51:23Z</time>
      </trkpt>
      <trkpt lat="46.1251" lon="4.57463">
        <ele>665.2</ele>
        <time>2020-10-19T12:51:24Z</time>
      </trkpt>
      <trkpt lat="46.1251" lon="4.5746">
        <ele>665.2</ele>
        <time>2020-10-19T12:51:25Z</time>
      </trkpt>
      <trkpt lat="46.12511" lon="4.57457">
        <ele>664.6</ele>
        <time>2020-10-19T12:51:26Z</time>
      </trkpt>
      <trkpt lat="46.12511" lon="4.57455">
        <ele>664.2</ele>
        <time>2020-10-19T12:51:27Z</time>
      </trkpt>
      <trkpt lat="46.12513" lon="4.57452">
        <ele>664</ele>
        <time>2020-10-19T12:51:28Z</time>
      </trkpt>
      <trkpt lat="46.12514" lon="4.5745">
        <ele>663.6</ele>
        <time>2020-10-19T12:51:29Z</time>
      </trkpt>
      <trkpt lat="46.12515" lon="4.57447">
        <ele>663.4</ele>
        <time>2020-10-19T12:51:30Z</time>
      </trkpt>
      <trkpt lat="46.12517" lon="4.57444">
        <ele>663.4</ele>
        <time>2020-10-19T12:51:31Z</time>
      </trkpt>
      <trkpt lat="46.12518" lon="4.57442">
        <ele>662.8</ele>
        <time>2020-10-19T12:51:32Z</time>
      </trkpt>
      <trkpt lat="46.12519" lon="4.57439">
        <ele>662.6</ele>
        <time>2020-10-19T12:51:33Z</time>
      </trkpt>
      <trkpt lat="46.1252" lon="4.57436">
        <ele>662.2</ele>
        <time>2020-10-19T12:51:34Z</time>
      </trkpt>
      <trkpt lat="46.12522" lon="4.57433">
        <ele>662</ele>
        <time>2020-10-19T12:51:35Z</time>
      </trkpt>
      <trkpt lat="46.12523" lon="4.5743">
        <ele>661.6</ele>
        <time>2020-10-19T12:51:36Z</time>
      </trkpt>
      <trkpt lat="46.12524" lon="4.57427">
        <ele>661</ele>
        <time>2020-10-19T12:51:37Z</time>
      </trkpt>
      <trkpt lat="46.12525" lon="4.57424">
        <ele>661</ele>
        <time>2020-10-19T12:51:38Z</time>
      </trkpt>
      <trkpt lat="46.12527" lon="4.57421">
        <ele>660.8</ele>
        <time>2020-10-19T12:51:39Z</time>
      </trkpt>
      <trkpt lat="46.12528" lon="4.57418">
        <ele>660.6</ele>
        <time>2020-10-19T12:51:40Z</time>
      </trkpt>
      <trkpt lat="46.12529" lon="4.57415">
        <ele>660.6</ele>
        <time>2020-10-19T12:51:41Z</time>
      </trkpt>
      <trkpt lat="46.12531" lon="4.57412">
        <ele>660.2</ele>
        <time>2020-10-19T12:51:42Z</time>
      </trkpt>
      <trkpt lat="46.12533" lon="4.57409">
        <ele>659.8</ele>
        <time>2020-10-19T12:51:43Z</time>
      </trkpt>
      <trkpt lat="46.12534" lon="4.57405">
        <ele>659.2</ele>
        <time>2020-10-19T12:51:44Z</time>
      </trkpt>
      <trkpt lat="46.12535" lon="4.57402">
        <ele>659</ele>
        <time>2020-10-19T12:51:45Z</time>
      </trkpt>
      <trkpt lat="46.12536" lon="4.574">
        <ele>659</ele>
        <time>2020-10-19T12:51:46Z</time>
      </trkpt>
      <trkpt lat="46.12537" lon="4.57397">
        <ele>659</ele>
        <time>2020-10-19T12:51:47Z</time>
      </trkpt>
      <trkpt lat="46.12539" lon="4.57394">
        <ele>658.8</ele>
        <time>2020-10-19T12:51:48Z</time>
      </trkpt>
      <trkpt lat="46.1254" lon="4.57391">
        <ele>658.6</ele>
        <time>2020-10-19T12:51:49Z</time>
      </trkpt>
      <trkpt lat="46.12541" lon="4.57389">
        <ele>658</ele>
        <time>2020-10-19T12:51:50Z</time>
      </trkpt>
      <trkpt lat="46.12542" lon="4.57386">
        <ele>658</ele>
        <time>2020-10-19T12:51:51Z</time>
      </trkpt>
      <trkpt lat="46.12544" lon="4.57383">
        <ele>657.2</ele>
        <time>2020-10-19T12:51:52Z</time>
      </trkpt>
      <trkpt lat="46.12546" lon="4.5738">
        <ele>656.8</ele>
        <time>2020-10-19T12:51:53Z</time>
      </trkpt>
      <trkpt lat="46.12547" lon="4.57376">
        <ele>656.8</ele>
        <time>2020-10-19T12:51:54Z</time>
      </trkpt>
      <trkpt lat="46.12548" lon="4.57374">
        <ele>656.4</ele>
        <time>2020-10-19T12:51:55Z</time>
      </trkpt>
      <trkpt lat="46.1255" lon="4.57371">
        <ele>656.2</ele>
        <time>2020-10-19T12:51:56Z</time>
      </trkpt>
      <trkpt lat="46.12552" lon="4.57368">
        <ele>655.8</ele>
        <time>2020-10-19T12:51:57Z</time>
      </trkpt>
      <trkpt lat="46.12553" lon="4.57365">
        <ele>655.6</ele>
        <time>2020-10-19T12:51:58Z</time>
      </trkpt>
      <trkpt lat="46.12554" lon="4.57363">
        <ele>655.4</ele>
        <time>2020-10-19T12:51:59Z</time>
      </trkpt>
      <trkpt lat="46.12556" lon="4.57359">
        <ele>654.6</ele>
        <time>2020-10-19T12:52:00Z</time>
      </trkpt>
      <trkpt lat="46.12558" lon="4.57355">
        <ele>654.2</ele>
        <time>2020-10-19T12:52:01Z</time>
      </trkpt>
      <trkpt lat="46.12559" lon="4.57352">
        <ele>653.8</ele>
        <time>2020-10-19T12:52:02Z</time>
      </trkpt>
      <trkpt lat="46.1256" lon="4.57349">
        <ele>653.6</ele>
        <time>2020-10-19T12:52:03Z</time>
      </trkpt>
      <trkpt lat="46.12561" lon="4.57345">
        <ele>653.2</ele>
        <time>2020-10-19T12:52:04Z</time>
      </trkpt>
      <trkpt lat="46.12562" lon="4.57342">
        <ele>652.8</ele>
        <time>2020-10-19T12:52:05Z</time>
      </trkpt>
      <trkpt lat="46.12563" lon="4.57339">
        <ele>652.2</ele>
        <time>2020-10-19T12:52:06Z</time>
      </trkpt>
      <trkpt lat="46.12564" lon="4.57335">
        <ele>652.4</ele>
        <time>2020-10-19T12:52:07Z</time>
      </trkpt>
      <trkpt lat="46.12564" lon="4.57332">
        <ele>651.6</ele>
        <time>2020-10-19T12:52:08Z</time>
      </trkpt>
      <trkpt lat="46.12566" lon="4.57329">
        <ele>650.8</ele>
        <time>2020-10-19T12:52:09Z</time>
      </trkpt>
      <trkpt lat="46.12567" lon="4.57326">
        <ele>650.8</ele>
        <time>2020-10-19T12:52:10Z</time>
      </trkpt>
      <trkpt lat="46.12568" lon="4.57323">
        <ele>650.6</ele>
        <time>2020-10-19T12:52:11Z</time>
      </trkpt>
      <trkpt lat="46.12569" lon="4.57321">
        <ele>650.4</ele>
        <time>2020-10-19T12:52:12Z</time>
      </trkpt>
      <trkpt lat="46.1257" lon="4.57317">
        <ele>650.4</ele>
        <time>2020-10-19T12:52:13Z</time>
      </trkpt>
      <trkpt lat="46.1257" lon="4.57313">
        <ele>650</ele>
        <time>2020-10-19T12:52:14Z</time>
      </trkpt>
      <trkpt lat="46.1257" lon="4.57309">
        <ele>649.6</ele>
        <time>2020-10-19T12:52:15Z</time>
      </trkpt>
      <trkpt lat="46.12572" lon="4.57306">
        <ele>649.8</ele>
        <time>2020-10-19T12:52:16Z</time>
      </trkpt>
      <trkpt lat="46.12573" lon="4.57302">
        <ele>649.4</ele>
        <time>2020-10-19T12:52:17Z</time>
      </trkpt>
      <trkpt lat="46.12574" lon="4.57299">
        <ele>649.4</ele>
        <time>2020-10-19T12:52:18Z</time>
      </trkpt>
      <trkpt lat="46.12576" lon="4.57296">
        <ele>649</ele>
        <time>2020-10-19T12:52:19Z</time>
      </trkpt>
      <trkpt lat="46.12577" lon="4.57293">
        <ele>648.4</ele>
        <time>2020-10-19T12:52:20Z</time>
      </trkpt>
      <trkpt lat="46.12578" lon="4.57289">
        <ele>648.4</ele>
        <time>2020-10-19T12:52:21Z</time>
      </trkpt>
      <trkpt lat="46.12579" lon="4.57285">
        <ele>647.8</ele>
        <time>2020-10-19T12:52:22Z</time>
      </trkpt>
      <trkpt lat="46.12581" lon="4.57282">
        <ele>647.4</ele>
        <time>2020-10-19T12:52:23Z</time>
      </trkpt>
      <trkpt lat="46.12582" lon="4.57278">
        <ele>647.6</ele>
        <time>2020-10-19T12:52:24Z</time>
      </trkpt>
      <trkpt lat="46.12583" lon="4.57275">
        <ele>647.2</ele>
        <time>2020-10-19T12:52:25Z</time>
      </trkpt>
      <trkpt lat="46.12584" lon="4.57271">
        <ele>647</ele>
        <time>2020-10-19T12:52:26Z</time>
      </trkpt>
      <trkpt lat="46.12585" lon="4.57268">
        <ele>647.2</ele>
        <time>2020-10-19T12:52:27Z</time>
      </trkpt>
      <trkpt lat="46.12585" lon="4.57265">
        <ele>647</ele>
        <time>2020-10-19T12:52:28Z</time>
      </trkpt>
      <trkpt lat="46.12586" lon="4.57262">
        <ele>646.8</ele>
        <time>2020-10-19T12:52:29Z</time>
      </trkpt>
      <trkpt lat="46.12587" lon="4.5726">
        <ele>646.6</ele>
        <time>2020-10-19T12:52:30Z</time>
      </trkpt>
      <trkpt lat="46.12588" lon="4.57257">
        <ele>646.2</ele>
        <time>2020-10-19T12:52:31Z</time>
      </trkpt>
      <trkpt lat="46.12588" lon="4.57257">
        <ele>646</ele>
        <time>2020-10-19T12:52:32Z</time>
      </trkpt>
      <trkpt lat="46.1259" lon="4.57253">
        <ele>646</ele>
        <time>2020-10-19T12:52:33Z</time>
      </trkpt>
      <trkpt lat="46.12592" lon="4.57251">
        <ele>645.6</ele>
        <time>2020-10-19T12:52:34Z</time>
      </trkpt>
      <trkpt lat="46.12592" lon="4.57251">
        <ele>645.4</ele>
        <time>2020-10-19T12:52:35Z</time>
      </trkpt>
      <trkpt lat="46.12595" lon="4.57248">
        <ele>645.4</ele>
        <time>2020-10-19T12:52:36Z</time>
      </trkpt>
      <trkpt lat="46.12595" lon="4.57248">
        <ele>645.2</ele>
        <time>2020-10-19T12:52:37Z</time>
      </trkpt>
      <trkpt lat="46.12597" lon="4.57245">
        <ele>645</ele>
        <time>2020-10-19T12:52:38Z</time>
      </trkpt>
      <trkpt lat="46.12597" lon="4.57245">
        <ele>645.2</ele>
        <time>2020-10-19T12:52:39Z</time>
      </trkpt>
      <trkpt lat="46.12598" lon="4.57241">
        <ele>645</ele>
        <time>2020-10-19T12:52:40Z</time>
      </trkpt>
      <trkpt lat="46.12598" lon="4.57241">
        <ele>645</ele>
        <time>2020-10-19T12:52:41Z</time>
      </trkpt>
      <trkpt lat="46.12599" lon="4.57237">
        <ele>645</ele>
        <time>2020-10-19T12:52:42Z</time>
      </trkpt>
      <trkpt lat="46.12599" lon="4.57235">
        <ele>645</ele>
        <time>2020-10-19T12:52:43Z</time>
      </trkpt>
      <trkpt lat="46.12599" lon="4.57232">
        <ele>645</ele>
        <time>2020-10-19T12:52:44Z</time>
      </trkpt>
      <trkpt lat="46.12599" lon="4.57229">
        <ele>645</ele>
        <time>2020-10-19T12:52:45Z</time>
      </trkpt>
      <trkpt lat="46.12599" lon="4.57229">
        <ele>644.8</ele>
        <time>2020-10-19T12:52:46Z</time>
      </trkpt>
      <trkpt lat="46.12599" lon="4.57225">
        <ele>645.2</ele>
        <time>2020-10-19T12:52:47Z</time>
      </trkpt>
      <trkpt lat="46.12599" lon="4.57225">
        <ele>645.2</ele>
        <time>2020-10-19T12:52:48Z</time>
      </trkpt>
      <trkpt lat="46.12599" lon="4.57222">
        <ele>645.2</ele>
        <time>2020-10-19T12:52:49Z</time>
      </trkpt>
      <trkpt lat="46.12599" lon="4.57222">
        <ele>645.4</ele>
        <time>2020-10-19T12:52:50Z</time>
      </trkpt>
      <trkpt lat="46.126" lon="4.57219">
        <ele>645.6</ele>
        <time>2020-10-19T12:52:51Z</time>
      </trkpt>
      <trkpt lat="46.126" lon="4.57219">
        <ele>645.6</ele>
        <time>2020-10-19T12:52:52Z</time>
      </trkpt>
      <trkpt lat="46.12602" lon="4.57215">
        <ele>645.4</ele>
        <time>2020-10-19T12:52:53Z</time>
      </trkpt>
      <trkpt lat="46.12602" lon="4.57215">
        <ele>645.4</ele>
        <time>2020-10-19T12:52:54Z</time>
      </trkpt>
      <trkpt lat="46.12603" lon="4.57212">
        <ele>645.4</ele>
        <time>2020-10-19T12:52:55Z</time>
      </trkpt>
      <trkpt lat="46.12603" lon="4.57212">
        <ele>645.4</ele>
        <time>2020-10-19T12:52:56Z</time>
      </trkpt>
      <trkpt lat="46.12604" lon="4.57208">
        <ele>645.2</ele>
        <time>2020-10-19T12:52:57Z</time>
      </trkpt>
      <trkpt lat="46.12606" lon="4.57206">
        <ele>645.4</ele>
        <time>2020-10-19T12:52:58Z</time>
      </trkpt>
      <trkpt lat="46.12607" lon="4.57204">
        <ele>645.2</ele>
        <time>2020-10-19T12:52:59Z</time>
      </trkpt>
      <trkpt lat="46.12608" lon="4.57202">
        <ele>645</ele>
        <time>2020-10-19T12:53:00Z</time>
      </trkpt>
      <trkpt lat="46.12608" lon="4.57202">
        <ele>645</ele>
        <time>2020-10-19T12:53:01Z</time>
      </trkpt>
      <trkpt lat="46.1261" lon="4.57199">
        <ele>645.2</ele>
        <time>2020-10-19T12:53:02Z</time>
      </trkpt>
      <trkpt lat="46.1261" lon="4.57199">
        <ele>645.4</ele>
        <time>2020-10-19T12:53:03Z</time>
      </trkpt>
      <trkpt lat="46.12612" lon="4.57196">
        <ele>645.6</ele>
        <time>2020-10-19T12:53:04Z</time>
      </trkpt>
      <trkpt lat="46.12612" lon="4.57196">
        <ele>645.8</ele>
        <time>2020-10-19T12:53:05Z</time>
      </trkpt>
      <trkpt lat="46.12613" lon="4.57193">
        <ele>645.6</ele>
        <time>2020-10-19T12:53:06Z</time>
      </trkpt>
      <trkpt lat="46.12613" lon="4.57193">
        <ele>645.6</ele>
        <time>2020-10-19T12:53:07Z</time>
      </trkpt>
      <trkpt lat="46.12615" lon="4.5719">
        <ele>645.4</ele>
        <time>2020-10-19T12:53:08Z</time>
      </trkpt>
      <trkpt lat="46.12615" lon="4.5719">
        <ele>645.4</ele>
        <time>2020-10-19T12:53:09Z</time>
      </trkpt>
      <trkpt lat="46.12616" lon="4.57186">
        <ele>645.8</ele>
        <time>2020-10-19T12:53:10Z</time>
      </trkpt>
      <trkpt lat="46.12616" lon="4.57186">
        <ele>645.8</ele>
        <time>2020-10-19T12:53:11Z</time>
      </trkpt>
      <trkpt lat="46.12617" lon="4.57183">
        <ele>645.6</ele>
        <time>2020-10-19T12:53:12Z</time>
      </trkpt>
      <trkpt lat="46.12617" lon="4.57183">
        <ele>645.6</ele>
        <time>2020-10-19T12:53:13Z</time>
      </trkpt>
      <trkpt lat="46.12618" lon="4.57179">
        <ele>645.8</ele>
        <time>2020-10-19T12:53:14Z</time>
      </trkpt>
      <trkpt lat="46.12618" lon="4.57179">
        <ele>645.8</ele>
        <time>2020-10-19T12:53:15Z</time>
      </trkpt>
      <trkpt lat="46.12619" lon="4.57174">
        <ele>646</ele>
        <time>2020-10-19T12:53:16Z</time>
      </trkpt>
      <trkpt lat="46.12619" lon="4.57174">
        <ele>646</ele>
        <time>2020-10-19T12:53:17Z</time>
      </trkpt>
      <trkpt lat="46.12619" lon="4.5717">
        <ele>646.2</ele>
        <time>2020-10-19T12:53:18Z</time>
      </trkpt>
      <trkpt lat="46.12619" lon="4.5717">
        <ele>646.4</ele>
        <time>2020-10-19T12:53:19Z</time>
      </trkpt>
      <trkpt lat="46.12619" lon="4.57167">
        <ele>646.6</ele>
        <time>2020-10-19T12:53:20Z</time>
      </trkpt>
      <trkpt lat="46.12619" lon="4.57167">
        <ele>646.4</ele>
        <time>2020-10-19T12:53:21Z</time>
      </trkpt>
      <trkpt lat="46.12619" lon="4.57163">
        <ele>646.6</ele>
        <time>2020-10-19T12:53:22Z</time>
      </trkpt>
      <trkpt lat="46.12619" lon="4.57163">
        <ele>646.8</ele>
        <time>2020-10-19T12:53:23Z</time>
      </trkpt>
      <trkpt lat="46.12619" lon="4.5716">
        <ele>646.8</ele>
        <time>2020-10-19T12:53:24Z</time>
      </trkpt>
      <trkpt lat="46.12619" lon="4.5716">
        <ele>647</ele>
        <time>2020-10-19T12:53:25Z</time>
      </trkpt>
      <trkpt lat="46.12619" lon="4.57156">
        <ele>647</ele>
        <time>2020-10-19T12:53:26Z</time>
      </trkpt>
      <trkpt lat="46.12619" lon="4.57156">
        <ele>647</ele>
        <time>2020-10-19T12:53:27Z</time>
      </trkpt>
      <trkpt lat="46.1262" lon="4.57151">
        <ele>646.8</ele>
        <time>2020-10-19T12:53:28Z</time>
      </trkpt>
      <trkpt lat="46.1262" lon="4.57151">
        <ele>646.8</ele>
        <time>2020-10-19T12:53:29Z</time>
      </trkpt>
      <trkpt lat="46.12619" lon="4.57147">
        <ele>647</ele>
        <time>2020-10-19T12:53:30Z</time>
      </trkpt>
      <trkpt lat="46.12619" lon="4.57147">
        <ele>647.2</ele>
        <time>2020-10-19T12:53:31Z</time>
      </trkpt>
      <trkpt lat="46.12619" lon="4.57144">
        <ele>647.6</ele>
        <time>2020-10-19T12:53:32Z</time>
      </trkpt>
      <trkpt lat="46.12619" lon="4.57144">
        <ele>647.8</ele>
        <time>2020-10-19T12:53:33Z</time>
      </trkpt>
      <trkpt lat="46.12618" lon="4.57141">
        <ele>647.8</ele>
        <time>2020-10-19T12:53:34Z</time>
      </trkpt>
      <trkpt lat="46.12618" lon="4.57141">
        <ele>648</ele>
        <time>2020-10-19T12:53:35Z</time>
      </trkpt>
      <trkpt lat="46.12618" lon="4.57137">
        <ele>648</ele>
        <time>2020-10-19T12:53:36Z</time>
      </trkpt>
      <trkpt lat="46.12618" lon="4.57137">
        <ele>648.2</ele>
        <time>2020-10-19T12:53:37Z</time>
      </trkpt>
      <trkpt lat="46.12617" lon="4.57133">
        <ele>648.2</ele>
        <time>2020-10-19T12:53:38Z</time>
      </trkpt>
      <trkpt lat="46.12617" lon="4.57133">
        <ele>648</ele>
        <time>2020-10-19T12:53:39Z</time>
      </trkpt>
      <trkpt lat="46.12617" lon="4.57129">
        <ele>648.2</ele>
        <time>2020-10-19T12:53:40Z</time>
      </trkpt>
      <trkpt lat="46.12617" lon="4.57129">
        <ele>648.2</ele>
        <time>2020-10-19T12:53:41Z</time>
      </trkpt>
      <trkpt lat="46.12616" lon="4.57126">
        <ele>648.2</ele>
        <time>2020-10-19T12:53:42Z</time>
      </trkpt>
      <trkpt lat="46.12616" lon="4.57126">
        <ele>648.2</ele>
        <time>2020-10-19T12:53:43Z</time>
      </trkpt>
      <trkpt lat="46.12614" lon="4.57123">
        <ele>648.2</ele>
        <time>2020-10-19T12:53:44Z</time>
      </trkpt>
      <trkpt lat="46.12614" lon="4.57123">
        <ele>648.2</ele>
        <time>2020-10-19T12:53:45Z</time>
      </trkpt>
      <trkpt lat="46.12612" lon="4.5712">
        <ele>648.2</ele>
        <time>2020-10-19T12:53:46Z</time>
      </trkpt>
      <trkpt lat="46.12612" lon="4.5712">
        <ele>648.4</ele>
        <time>2020-10-19T12:53:47Z</time>
      </trkpt>
      <trkpt lat="46.1261" lon="4.57117">
        <ele>648.6</ele>
        <time>2020-10-19T12:53:48Z</time>
      </trkpt>
      <trkpt lat="46.1261" lon="4.57117">
        <ele>648.6</ele>
        <time>2020-10-19T12:53:49Z</time>
      </trkpt>
      <trkpt lat="46.12608" lon="4.57113">
        <ele>648.6</ele>
        <time>2020-10-19T12:53:50Z</time>
      </trkpt>
      <trkpt lat="46.12608" lon="4.57113">
        <ele>648.6</ele>
        <time>2020-10-19T12:53:51Z</time>
      </trkpt>
      <trkpt lat="46.12607" lon="4.5711">
        <ele>648.6</ele>
        <time>2020-10-19T12:53:52Z</time>
      </trkpt>
      <trkpt lat="46.12607" lon="4.5711">
        <ele>648.8</ele>
        <time>2020-10-19T12:53:53Z</time>
      </trkpt>
      <trkpt lat="46.12606" lon="4.57107">
        <ele>648.6</ele>
        <time>2020-10-19T12:53:54Z</time>
      </trkpt>
      <trkpt lat="46.12606" lon="4.57107">
        <ele>648.6</ele>
        <time>2020-10-19T12:53:55Z</time>
      </trkpt>
      <trkpt lat="46.12604" lon="4.57103">
        <ele>648.4</ele>
        <time>2020-10-19T12:53:56Z</time>
      </trkpt>
      <trkpt lat="46.12604" lon="4.57103">
        <ele>648.4</ele>
        <time>2020-10-19T12:53:57Z</time>
      </trkpt>
      <trkpt lat="46.12602" lon="4.571">
        <ele>648.4</ele>
        <time>2020-10-19T12:53:58Z</time>
      </trkpt>
      <trkpt lat="46.12602" lon="4.571">
        <ele>648.6</ele>
        <time>2020-10-19T12:53:59Z</time>
      </trkpt>
      <trkpt lat="46.12601" lon="4.57097">
        <ele>648.6</ele>
        <time>2020-10-19T12:54:00Z</time>
      </trkpt>
      <trkpt lat="46.12601" lon="4.57097">
        <ele>648.8</ele>
        <time>2020-10-19T12:54:01Z</time>
      </trkpt>
      <trkpt lat="46.12599" lon="4.57094">
        <ele>648.8</ele>
        <time>2020-10-19T12:54:02Z</time>
      </trkpt>
      <trkpt lat="46.12599" lon="4.57094">
        <ele>649</ele>
        <time>2020-10-19T12:54:03Z</time>
      </trkpt>
      <trkpt lat="46.12598" lon="4.57091">
        <ele>648.8</ele>
        <time>2020-10-19T12:54:04Z</time>
      </trkpt>
      <trkpt lat="46.12598" lon="4.57091">
        <ele>648.8</ele>
        <time>2020-10-19T12:54:05Z</time>
      </trkpt>
      <trkpt lat="46.12597" lon="4.57087">
        <ele>648.8</ele>
        <time>2020-10-19T12:54:06Z</time>
      </trkpt>
      <trkpt lat="46.12597" lon="4.57087">
        <ele>648.8</ele>
        <time>2020-10-19T12:54:07Z</time>
      </trkpt>
      <trkpt lat="46.12595" lon="4.57084">
        <ele>649</ele>
        <time>2020-10-19T12:54:08Z</time>
      </trkpt>
      <trkpt lat="46.12595" lon="4.57084">
        <ele>649</ele>
        <time>2020-10-19T12:54:09Z</time>
      </trkpt>
      <trkpt lat="46.12594" lon="4.57081">
        <ele>648.8</ele>
        <time>2020-10-19T12:54:10Z</time>
      </trkpt>
      <trkpt lat="46.12594" lon="4.57081">
        <ele>649</ele>
        <time>2020-10-19T12:54:11Z</time>
      </trkpt>
      <trkpt lat="46.12592" lon="4.57078">
        <ele>649.2</ele>
        <time>2020-10-19T12:54:12Z</time>
      </trkpt>
      <trkpt lat="46.12592" lon="4.57078">
        <ele>649</ele>
        <time>2020-10-19T12:54:13Z</time>
      </trkpt>
      <trkpt lat="46.12591" lon="4.57075">
        <ele>649.4</ele>
        <time>2020-10-19T12:54:14Z</time>
      </trkpt>
      <trkpt lat="46.12591" lon="4.57075">
        <ele>649.6</ele>
        <time>2020-10-19T12:54:15Z</time>
      </trkpt>
      <trkpt lat="46.12589" lon="4.57072">
        <ele>649.6</ele>
        <time>2020-10-19T12:54:16Z</time>
      </trkpt>
      <trkpt lat="46.12589" lon="4.57072">
        <ele>649.8</ele>
        <time>2020-10-19T12:54:17Z</time>
      </trkpt>
      <trkpt lat="46.12588" lon="4.57069">
        <ele>650</ele>
        <time>2020-10-19T12:54:18Z</time>
      </trkpt>
      <trkpt lat="46.12588" lon="4.57069">
        <ele>650</ele>
        <time>2020-10-19T12:54:19Z</time>
      </trkpt>
      <trkpt lat="46.12586" lon="4.57066">
        <ele>650.2</ele>
        <time>2020-10-19T12:54:20Z</time>
      </trkpt>
      <trkpt lat="46.12586" lon="4.57066">
        <ele>650.2</ele>
        <time>2020-10-19T12:54:21Z</time>
      </trkpt>
      <trkpt lat="46.12585" lon="4.57063">
        <ele>650.4</ele>
        <time>2020-10-19T12:54:22Z</time>
      </trkpt>
      <trkpt lat="46.12585" lon="4.57063">
        <ele>650.4</ele>
        <time>2020-10-19T12:54:23Z</time>
      </trkpt>
      <trkpt lat="46.12584" lon="4.57059">
        <ele>650.6</ele>
        <time>2020-10-19T12:54:24Z</time>
      </trkpt>
      <trkpt lat="46.12584" lon="4.57059">
        <ele>650.8</ele>
        <time>2020-10-19T12:54:25Z</time>
      </trkpt>
      <trkpt lat="46.12583" lon="4.57056">
        <ele>650.8</ele>
        <time>2020-10-19T12:54:26Z</time>
      </trkpt>
      <trkpt lat="46.12583" lon="4.57056">
        <ele>651</ele>
        <time>2020-10-19T12:54:27Z</time>
      </trkpt>
      <trkpt lat="46.12583" lon="4.57053">
        <ele>651.2</ele>
        <time>2020-10-19T12:54:28Z</time>
      </trkpt>
      <trkpt lat="46.12583" lon="4.57053">
        <ele>651.2</ele>
        <time>2020-10-19T12:54:29Z</time>
      </trkpt>
      <trkpt lat="46.12581" lon="4.5705">
        <ele>651.2</ele>
        <time>2020-10-19T12:54:30Z</time>
      </trkpt>
      <trkpt lat="46.12581" lon="4.5705">
        <ele>651.4</ele>
        <time>2020-10-19T12:54:31Z</time>
      </trkpt>
      <trkpt lat="46.1258" lon="4.57047">
        <ele>651.6</ele>
        <time>2020-10-19T12:54:32Z</time>
      </trkpt>
      <trkpt lat="46.1258" lon="4.57047">
        <ele>651.8</ele>
        <time>2020-10-19T12:54:33Z</time>
      </trkpt>
      <trkpt lat="46.12579" lon="4.57043">
        <ele>651.8</ele>
        <time>2020-10-19T12:54:34Z</time>
      </trkpt>
      <trkpt lat="46.12579" lon="4.57043">
        <ele>652.2</ele>
        <time>2020-10-19T12:54:35Z</time>
      </trkpt>
      <trkpt lat="46.12578" lon="4.57041">
        <ele>652.4</ele>
        <time>2020-10-19T12:54:36Z</time>
      </trkpt>
      <trkpt lat="46.12578" lon="4.57041">
        <ele>652.4</ele>
        <time>2020-10-19T12:54:37Z</time>
      </trkpt>
      <trkpt lat="46.12576" lon="4.57038">
        <ele>652.6</ele>
        <time>2020-10-19T12:54:38Z</time>
      </trkpt>
      <trkpt lat="46.12576" lon="4.57038">
        <ele>653</ele>
        <time>2020-10-19T12:54:39Z</time>
      </trkpt>
      <trkpt lat="46.12575" lon="4.57035">
        <ele>653.2</ele>
        <time>2020-10-19T12:54:40Z</time>
      </trkpt>
      <trkpt lat="46.12575" lon="4.57035">
        <ele>653.2</ele>
        <time>2020-10-19T12:54:41Z</time>
      </trkpt>
      <trkpt lat="46.12573" lon="4.57032">
        <ele>653.6</ele>
        <time>2020-10-19T12:54:42Z</time>
      </trkpt>
      <trkpt lat="46.12573" lon="4.57032">
        <ele>653.6</ele>
        <time>2020-10-19T12:54:43Z</time>
      </trkpt>
      <trkpt lat="46.12571" lon="4.5703">
        <ele>653.8</ele>
        <time>2020-10-19T12:54:44Z</time>
      </trkpt>
      <trkpt lat="46.12571" lon="4.5703">
        <ele>653.8</ele>
        <time>2020-10-19T12:54:45Z</time>
      </trkpt>
      <trkpt lat="46.1257" lon="4.57027">
        <ele>654.2</ele>
        <time>2020-10-19T12:54:46Z</time>
      </trkpt>
      <trkpt lat="46.1257" lon="4.57027">
        <ele>654.2</ele>
        <time>2020-10-19T12:54:47Z</time>
      </trkpt>
      <trkpt lat="46.12569" lon="4.57023">
        <ele>654.2</ele>
        <time>2020-10-19T12:54:48Z</time>
      </trkpt>
      <trkpt lat="46.12569" lon="4.57023">
        <ele>654</ele>
        <time>2020-10-19T12:54:49Z</time>
      </trkpt>
      <trkpt lat="46.12568" lon="4.5702">
        <ele>654</ele>
        <time>2020-10-19T12:54:50Z</time>
      </trkpt>
      <trkpt lat="46.12568" lon="4.5702">
        <ele>654</ele>
        <time>2020-10-19T12:54:51Z</time>
      </trkpt>
      <trkpt lat="46.12566" lon="4.57017">
        <ele>653.8</ele>
        <time>2020-10-19T12:54:52Z</time>
      </trkpt>
      <trkpt lat="46.12566" lon="4.57017">
        <ele>653.8</ele>
        <time>2020-10-19T12:54:53Z</time>
      </trkpt>
      <trkpt lat="46.12564" lon="4.57013">
        <ele>654</ele>
        <time>2020-10-19T12:54:54Z</time>
      </trkpt>
      <trkpt lat="46.12564" lon="4.57013">
        <ele>653.8</ele>
        <time>2020-10-19T12:54:55Z</time>
      </trkpt>
      <trkpt lat="46.12563" lon="4.5701">
        <ele>653.8</ele>
        <time>2020-10-19T12:54:56Z</time>
      </trkpt>
      <trkpt lat="46.12563" lon="4.5701">
        <ele>653.6</ele>
        <time>2020-10-19T12:54:57Z</time>
      </trkpt>
      <trkpt lat="46.12561" lon="4.57007">
        <ele>653.4</ele>
        <time>2020-10-19T12:54:58Z</time>
      </trkpt>
      <trkpt lat="46.12561" lon="4.57007">
        <ele>653.4</ele>
        <time>2020-10-19T12:54:59Z</time>
      </trkpt>
      <trkpt lat="46.1256" lon="4.57004">
        <ele>653.6</ele>
        <time>2020-10-19T12:55:00Z</time>
      </trkpt>
      <trkpt lat="46.1256" lon="4.57004">
        <ele>653.8</ele>
        <time>2020-10-19T12:55:01Z</time>
      </trkpt>
      <trkpt lat="46.12558" lon="4.57001">
        <ele>654</ele>
        <time>2020-10-19T12:55:02Z</time>
      </trkpt>
      <trkpt lat="46.12558" lon="4.57001">
        <ele>654</ele>
        <time>2020-10-19T12:55:03Z</time>
      </trkpt>
      <trkpt lat="46.12556" lon="4.56997">
        <ele>654.2</ele>
        <time>2020-10-19T12:55:04Z</time>
      </trkpt>
      <trkpt lat="46.12556" lon="4.56997">
        <ele>654.2</ele>
        <time>2020-10-19T12:55:05Z</time>
      </trkpt>
      <trkpt lat="46.12555" lon="4.56994">
        <ele>654.4</ele>
        <time>2020-10-19T12:55:06Z</time>
      </trkpt>
      <trkpt lat="46.12555" lon="4.56994">
        <ele>654.2</ele>
        <time>2020-10-19T12:55:07Z</time>
      </trkpt>
      <trkpt lat="46.12553" lon="4.56991">
        <ele>654.2</ele>
        <time>2020-10-19T12:55:08Z</time>
      </trkpt>
      <trkpt lat="46.12553" lon="4.56991">
        <ele>654.2</ele>
        <time>2020-10-19T12:55:09Z</time>
      </trkpt>
      <trkpt lat="46.12552" lon="4.56987">
        <ele>654.4</ele>
        <time>2020-10-19T12:55:10Z</time>
      </trkpt>
      <trkpt lat="46.12552" lon="4.56987">
        <ele>654.8</ele>
        <time>2020-10-19T12:55:11Z</time>
      </trkpt>
      <trkpt lat="46.12551" lon="4.56984">
        <ele>655.2</ele>
        <time>2020-10-19T12:55:12Z</time>
      </trkpt>
      <trkpt lat="46.12551" lon="4.56984">
        <ele>655.4</ele>
        <time>2020-10-19T12:55:13Z</time>
      </trkpt>
      <trkpt lat="46.12549" lon="4.56981">
        <ele>655.8</ele>
        <time>2020-10-19T12:55:14Z</time>
      </trkpt>
      <trkpt lat="46.12549" lon="4.56981">
        <ele>655.6</ele>
        <time>2020-10-19T12:55:15Z</time>
      </trkpt>
      <trkpt lat="46.12548" lon="4.56978">
        <ele>655.8</ele>
        <time>2020-10-19T12:55:16Z</time>
      </trkpt>
      <trkpt lat="46.12548" lon="4.56978">
        <ele>656</ele>
        <time>2020-10-19T12:55:17Z</time>
      </trkpt>
      <trkpt lat="46.12546" lon="4.56975">
        <ele>656</ele>
        <time>2020-10-19T12:55:18Z</time>
      </trkpt>
      <trkpt lat="46.12546" lon="4.56975">
        <ele>656</ele>
        <time>2020-10-19T12:55:19Z</time>
      </trkpt>
      <trkpt lat="46.12545" lon="4.56972">
        <ele>656.4</ele>
        <time>2020-10-19T12:55:20Z</time>
      </trkpt>
      <trkpt lat="46.12545" lon="4.56972">
        <ele>656.6</ele>
        <time>2020-10-19T12:55:21Z</time>
      </trkpt>
      <trkpt lat="46.12543" lon="4.56968">
        <ele>656.8</ele>
        <time>2020-10-19T12:55:22Z</time>
      </trkpt>
      <trkpt lat="46.12543" lon="4.56968">
        <ele>657</ele>
        <time>2020-10-19T12:55:23Z</time>
      </trkpt>
      <trkpt lat="46.12542" lon="4.56965">
        <ele>657</ele>
        <time>2020-10-19T12:55:24Z</time>
      </trkpt>
      <trkpt lat="46.12542" lon="4.56965">
        <ele>657.4</ele>
        <time>2020-10-19T12:55:25Z</time>
      </trkpt>
      <trkpt lat="46.1254" lon="4.56962">
        <ele>657.4</ele>
        <time>2020-10-19T12:55:26Z</time>
      </trkpt>
      <trkpt lat="46.1254" lon="4.56962">
        <ele>657.6</ele>
        <time>2020-10-19T12:55:27Z</time>
      </trkpt>
      <trkpt lat="46.12539" lon="4.56958">
        <ele>657.8</ele>
        <time>2020-10-19T12:55:28Z</time>
      </trkpt>
      <trkpt lat="46.12539" lon="4.56958">
        <ele>658.2</ele>
        <time>2020-10-19T12:55:29Z</time>
      </trkpt>
      <trkpt lat="46.12537" lon="4.56956">
        <ele>658.6</ele>
        <time>2020-10-19T12:55:30Z</time>
      </trkpt>
      <trkpt lat="46.12537" lon="4.56956">
        <ele>658.4</ele>
        <time>2020-10-19T12:55:31Z</time>
      </trkpt>
      <trkpt lat="46.12536" lon="4.56952">
        <ele>658.4</ele>
        <time>2020-10-19T12:55:32Z</time>
      </trkpt>
      <trkpt lat="46.12536" lon="4.56952">
        <ele>658.6</ele>
        <time>2020-10-19T12:55:33Z</time>
      </trkpt>
      <trkpt lat="46.12535" lon="4.56949">
        <ele>659</ele>
        <time>2020-10-19T12:55:34Z</time>
      </trkpt>
      <trkpt lat="46.12535" lon="4.56949">
        <ele>659.6</ele>
        <time>2020-10-19T12:55:35Z</time>
      </trkpt>
      <trkpt lat="46.12533" lon="4.56946">
        <ele>660</ele>
        <time>2020-10-19T12:55:36Z</time>
      </trkpt>
      <trkpt lat="46.12533" lon="4.56946">
        <ele>660.2</ele>
        <time>2020-10-19T12:55:37Z</time>
      </trkpt>
      <trkpt lat="46.12532" lon="4.56943">
        <ele>660.4</ele>
        <time>2020-10-19T12:55:38Z</time>
      </trkpt>
      <trkpt lat="46.12532" lon="4.56943">
        <ele>661</ele>
        <time>2020-10-19T12:55:39Z</time>
      </trkpt>
      <trkpt lat="46.12531" lon="4.5694">
        <ele>661.6</ele>
        <time>2020-10-19T12:55:40Z</time>
      </trkpt>
      <trkpt lat="46.12531" lon="4.5694">
        <ele>662.4</ele>
        <time>2020-10-19T12:55:41Z</time>
      </trkpt>
      <trkpt lat="46.1253" lon="4.56937">
        <ele>663</ele>
        <time>2020-10-19T12:55:42Z</time>
      </trkpt>
      <trkpt lat="46.1253" lon="4.56937">
        <ele>663.4</ele>
        <time>2020-10-19T12:55:43Z</time>
      </trkpt>
      <trkpt lat="46.12529" lon="4.56934">
        <ele>664</ele>
        <time>2020-10-19T12:55:44Z</time>
      </trkpt>
      <trkpt lat="46.12529" lon="4.56934">
        <ele>664.4</ele>
        <time>2020-10-19T12:55:45Z</time>
      </trkpt>
      <trkpt lat="46.12528" lon="4.56931">
        <ele>664.6</ele>
        <time>2020-10-19T12:55:46Z</time>
      </trkpt>
      <trkpt lat="46.12528" lon="4.56931">
        <ele>665.4</ele>
        <time>2020-10-19T12:55:47Z</time>
      </trkpt>
      <trkpt lat="46.12527" lon="4.56928">
        <ele>666</ele>
        <time>2020-10-19T12:55:48Z</time>
      </trkpt>
      <trkpt lat="46.12527" lon="4.56928">
        <ele>666.6</ele>
        <time>2020-10-19T12:55:49Z</time>
      </trkpt>
      <trkpt lat="46.12526" lon="4.56925">
        <ele>667.2</ele>
        <time>2020-10-19T12:55:50Z</time>
      </trkpt>
      <trkpt lat="46.12526" lon="4.56925">
        <ele>667.4</ele>
        <time>2020-10-19T12:55:51Z</time>
      </trkpt>
      <trkpt lat="46.12525" lon="4.56922">
        <ele>667.8</ele>
        <time>2020-10-19T12:55:52Z</time>
      </trkpt>
      <trkpt lat="46.12525" lon="4.56922">
        <ele>668.2</ele>
        <time>2020-10-19T12:55:53Z</time>
      </trkpt>
      <trkpt lat="46.12524" lon="4.56918">
        <ele>668.4</ele>
        <time>2020-10-19T12:55:54Z</time>
      </trkpt>
      <trkpt lat="46.12524" lon="4.56918">
        <ele>668.6</ele>
        <time>2020-10-19T12:55:55Z</time>
      </trkpt>
      <trkpt lat="46.12525" lon="4.56915">
        <ele>668.6</ele>
        <time>2020-10-19T12:55:56Z</time>
      </trkpt>
      <trkpt lat="46.12525" lon="4.56915">
        <ele>668.4</ele>
        <time>2020-10-19T12:55:57Z</time>
      </trkpt>
      <trkpt lat="46.12525" lon="4.56912">
        <ele>668.6</ele>
        <time>2020-10-19T12:55:58Z</time>
      </trkpt>
      <trkpt lat="46.12525" lon="4.56912">
        <ele>668.8</ele>
        <time>2020-10-19T12:55:59Z</time>
      </trkpt>
      <trkpt lat="46.12525" lon="4.56909">
        <ele>668.8</ele>
        <time>2020-10-19T12:56:00Z</time>
      </trkpt>
      <trkpt lat="46.12525" lon="4.56909">
        <ele>668.8</ele>
        <time>2020-10-19T12:56:01Z</time>
      </trkpt>
      <trkpt lat="46.12524" lon="4.56905">
        <ele>669</ele>
        <time>2020-10-19T12:56:02Z</time>
      </trkpt>
      <trkpt lat="46.12524" lon="4.56905">
        <ele>669.2</ele>
        <time>2020-10-19T12:56:03Z</time>
      </trkpt>
      <trkpt lat="46.12525" lon="4.56902">
        <ele>669</ele>
        <time>2020-10-19T12:56:04Z</time>
      </trkpt>
      <trkpt lat="46.12525" lon="4.56902">
        <ele>669.2</ele>
        <time>2020-10-19T12:56:05Z</time>
      </trkpt>
      <trkpt lat="46.12525" lon="4.56899">
        <ele>669.6</ele>
        <time>2020-10-19T12:56:06Z</time>
      </trkpt>
      <trkpt lat="46.12525" lon="4.56899">
        <ele>669.8</ele>
        <time>2020-10-19T12:56:07Z</time>
      </trkpt>
      <trkpt lat="46.12525" lon="4.56899">
        <ele>669.8</ele>
        <time>2020-10-19T12:56:08Z</time>
      </trkpt>
      <trkpt lat="46.12524" lon="4.56896">
        <ele>670</ele>
        <time>2020-10-19T12:56:09Z</time>
      </trkpt>
      <trkpt lat="46.12524" lon="4.56896">
        <ele>670</ele>
        <time>2020-10-19T12:56:10Z</time>
      </trkpt>
      <trkpt lat="46.12524" lon="4.56896">
        <ele>670</ele>
        <time>2020-10-19T12:56:11Z</time>
      </trkpt>
      <trkpt lat="46.12522" lon="4.56894">
        <ele>670.2</ele>
        <time>2020-10-19T12:56:12Z</time>
      </trkpt>
      <trkpt lat="46.12522" lon="4.56894">
        <ele>670.2</ele>
        <time>2020-10-19T12:56:13Z</time>
      </trkpt>
      <trkpt lat="46.12522" lon="4.56894">
        <ele>670.2</ele>
        <time>2020-10-19T12:56:14Z</time>
      </trkpt>
      <trkpt lat="46.12521" lon="4.56892">
        <ele>670.6</ele>
        <time>2020-10-19T12:56:15Z</time>
      </trkpt>
      <trkpt lat="46.12521" lon="4.56892">
        <ele>670.6</ele>
        <time>2020-10-19T12:56:16Z</time>
      </trkpt>
      <trkpt lat="46.12521" lon="4.56892">
        <ele>670.8</ele>
        <time>2020-10-19T12:56:17Z</time>
      </trkpt>
      <trkpt lat="46.12521" lon="4.56892">
        <ele>671</ele>
        <time>2020-10-19T12:56:18Z</time>
      </trkpt>
      <trkpt lat="46.12521" lon="4.56892">
        <ele>671.2</ele>
        <time>2020-10-19T12:56:19Z</time>
      </trkpt>
      <trkpt lat="46.12521" lon="4.56892">
        <ele>671.4</ele>
        <time>2020-10-19T12:56:20Z</time>
      </trkpt>
      <trkpt lat="46.12521" lon="4.56892">
        <ele>671.4</ele>
        <time>2020-10-19T12:56:21Z</time>
      </trkpt>
      <trkpt lat="46.12521" lon="4.56892">
        <ele>671.6</ele>
        <time>2020-10-19T12:56:22Z</time>
      </trkpt>
      <trkpt lat="46.12521" lon="4.56892">
        <ele>671.8</ele>
        <time>2020-10-19T12:56:23Z</time>
      </trkpt>
      <trkpt lat="46.12521" lon="4.56892">
        <ele>671.8</ele>
        <time>2020-10-19T12:56:24Z</time>
      </trkpt>
      <trkpt lat="46.12521" lon="4.56892">
        <ele>671.8</ele>
        <time>2020-10-19T12:56:25Z</time>
      </trkpt>
      <trkpt lat="46.12521" lon="4.56892">
        <ele>671.8</ele>
        <time>2020-10-19T12:56:26Z</time>
      </trkpt>
      <trkpt lat="46.12521" lon="4.56892">
        <ele>671.6</ele>
        <time>2020-10-19T12:56:27Z</time>
      </trkpt>
      <trkpt lat="46.12521" lon="4.56892">
        <ele>671.2</ele>
        <time>2020-10-19T12:56:28Z</time>
      </trkpt>
      <trkpt lat="46.12521" lon="4.56892">
        <ele>671.2</ele>
        <time>2020-10-19T12:56:29Z</time>
      </trkpt>
      <trkpt lat="46.12521" lon="4.56892">
        <ele>671.2</ele>
        <time>2020-10-19T12:56:30Z</time>
      </trkpt>
      <trkpt lat="46.12521" lon="4.56892">
        <ele>671</ele>
        <time>2020-10-19T12:56:31Z</time>
      </trkpt>
      <trkpt lat="46.12521" lon="4.56892">
        <ele>671</ele>
        <time>2020-10-19T12:56:32Z</time>
      </trkpt>
      <trkpt lat="46.12521" lon="4.56892">
        <ele>671.2</ele>
        <time>2020-10-19T12:56:33Z</time>
      </trkpt>
      <trkpt lat="46.12521" lon="4.56892">
        <ele>671.2</ele>
        <time>2020-10-19T12:56:34Z</time>
      </trkpt>
      <trkpt lat="46.12521" lon="4.56892">
        <ele>671.2</ele>
        <time>2020-10-19T12:56:35Z</time>
      </trkpt>
      <trkpt lat="46.12521" lon="4.56892">
        <ele>671.4</ele>
        <time>2020-10-19T12:56:36Z</time>
      </trkpt>
      <trkpt lat="46.12521" lon="4.56892">
        <ele>671.4</ele>
        <time>2020-10-19T12:56:37Z</time>
      </trkpt>
      <trkpt lat="46.12521" lon="4.56892">
        <ele>671.4</ele>
        <time>2020-10-19T12:56:38Z</time>
      </trkpt>
      <trkpt lat="46.12521" lon="4.56892">
        <ele>671.6</ele>
        <time>2020-10-19T12:56:39Z</time>
      </trkpt>
      <trkpt lat="46.12521" lon="4.56892">
        <ele>671.8</ele>
        <time>2020-10-19T12:56:40Z</time>
      </trkpt>
      <trkpt lat="46.12521" lon="4.56892">
        <ele>672</ele>
        <time>2020-10-19T12:56:41Z</time>
      </trkpt>
      <trkpt lat="46.12521" lon="4.56892">
        <ele>671.8</ele>
        <time>2020-10-19T12:56:42Z</time>
      </trkpt>
      <trkpt lat="46.12521" lon="4.56892">
        <ele>671.8</ele>
        <time>2020-10-19T12:56:43Z</time>
      </trkpt>
      <trkpt lat="46.12521" lon="4.56892">
        <ele>671.8</ele>
        <time>2020-10-19T12:56:44Z</time>
      </trkpt>
      <trkpt lat="46.12521" lon="4.56892">
        <ele>671.6</ele>
        <time>2020-10-19T12:56:45Z</time>
      </trkpt>
      <trkpt lat="46.12521" lon="4.56892">
        <ele>671.6</ele>
        <time>2020-10-19T12:56:46Z</time>
      </trkpt>
      <trkpt lat="46.12521" lon="4.56892">
        <ele>671.8</ele>
        <time>2020-10-19T12:56:47Z</time>
      </trkpt>
      <trkpt lat="46.12521" lon="4.56892">
        <ele>671.8</ele>
        <time>2020-10-19T12:56:48Z</time>
      </trkpt>
      <trkpt lat="46.12521" lon="4.56892">
        <ele>671.8</ele>
        <time>2020-10-19T12:56:49Z</time>
      </trkpt>
      <trkpt lat="46.12521" lon="4.56892">
        <ele>671.8</ele>
        <time>2020-10-19T12:56:50Z</time>
      </trkpt>
      <trkpt lat="46.12521" lon="4.56892">
        <ele>671.6</ele>
        <time>2020-10-19T12:56:51Z</time>
      </trkpt>
      <trkpt lat="46.12521" lon="4.56892">
        <ele>671.6</ele>
        <time>2020-10-19T12:56:52Z</time>
      </trkpt>
      <trkpt lat="46.12521" lon="4.56892">
        <ele>671.4</ele>
        <time>2020-10-19T12:56:53Z</time>
      </trkpt>
      <trkpt lat="46.12521" lon="4.56892">
        <ele>671.6</ele>
        <time>2020-10-19T12:56:54Z</time>
      </trkpt>
      <trkpt lat="46.12521" lon="4.56892">
        <ele>671.4</ele>
        <time>2020-10-19T12:56:55Z</time>
      </trkpt>
      <trkpt lat="46.12521" lon="4.56892">
        <ele>671.6</ele>
        <time>2020-10-19T12:56:56Z</time>
      </trkpt>
      <trkpt lat="46.12521" lon="4.56892">
        <ele>671.6</ele>
        <time>2020-10-19T12:56:57Z</time>
      </trkpt>
      <trkpt lat="46.12521" lon="4.56892">
        <ele>672</ele>
        <time>2020-10-19T12:56:58Z</time>
      </trkpt>
      <trkpt lat="46.12521" lon="4.56892">
        <ele>671.8</ele>
        <time>2020-10-19T12:56:59Z</time>
      </trkpt>
      <trkpt lat="46.12521" lon="4.56892">
        <ele>671.8</ele>
        <time>2020-10-19T12:57:00Z</time>
      </trkpt>
      <trkpt lat="46.12521" lon="4.56892">
        <ele>672</ele>
        <time>2020-10-19T12:57:01Z</time>
      </trkpt>
      <trkpt lat="46.12521" lon="4.56892">
        <ele>672</ele>
        <time>2020-10-19T12:57:02Z</time>
      </trkpt>
      <trkpt lat="46.12521" lon="4.56892">
        <ele>672</ele>
        <time>2020-10-19T12:57:03Z</time>
      </trkpt>
      <trkpt lat="46.12521" lon="4.56892">
        <ele>672</ele>
        <time>2020-10-19T12:57:04Z</time>
      </trkpt>
      <trkpt lat="46.12521" lon="4.56892">
        <ele>672</ele>
        <time>2020-10-19T12:57:05Z</time>
      </trkpt>
      <trkpt lat="46.12521" lon="4.56892">
        <ele>671.8</ele>
        <time>2020-10-19T12:57:06Z</time>
      </trkpt>
      <trkpt lat="46.12521" lon="4.56892">
        <ele>671.8</ele>
        <time>2020-10-19T12:57:07Z</time>
      </trkpt>
      <trkpt lat="46.12521" lon="4.56892">
        <ele>671.8</ele>
        <time>2020-10-19T12:57:08Z</time>
      </trkpt>
      <trkpt lat="46.12521" lon="4.56892">
        <ele>671.8</ele>
        <time>2020-10-19T12:57:09Z</time>
      </trkpt>
      <trkpt lat="46.12521" lon="4.56892">
        <ele>671.8</ele>
        <time>2020-10-19T12:57:10Z</time>
      </trkpt>
      <trkpt lat="46.12521" lon="4.56892">
        <ele>671.6</ele>
        <time>2020-10-19T12:57:11Z</time>
      </trkpt>
      <trkpt lat="46.12521" lon="4.56892">
        <ele>671.6</ele>
        <time>2020-10-19T12:57:12Z</time>
      </trkpt>
      <trkpt lat="46.12521" lon="4.56892">
        <ele>671.6</ele>
        <time>2020-10-19T12:57:13Z</time>
      </trkpt>
      <trkpt lat="46.12521" lon="4.56892">
        <ele>671.8</ele>
        <time>2020-10-19T12:57:14Z</time>
      </trkpt>
      <trkpt lat="46.12521" lon="4.56892">
        <ele>671.6</ele>
        <time>2020-10-19T12:57:15Z</time>
      </trkpt>
      <trkpt lat="46.12521" lon="4.56892">
        <ele>671.6</ele>
        <time>2020-10-19T12:57:16Z</time>
      </trkpt>
      <trkpt lat="46.12521" lon="4.56892">
        <ele>671.4</ele>
        <time>2020-10-19T12:57:17Z</time>
      </trkpt>
      <trkpt lat="46.12521" lon="4.56892">
        <ele>671.2</ele>
        <time>2020-10-19T12:57:18Z</time>
      </trkpt>
      <trkpt lat="46.12521" lon="4.56892">
        <ele>671.2</ele>
        <time>2020-10-19T12:57:19Z</time>
      </trkpt>
      <trkpt lat="46.12521" lon="4.56892">
        <ele>671</ele>
        <time>2020-10-19T12:57:20Z</time>
      </trkpt>
      <trkpt lat="46.12521" lon="4.56892">
        <ele>670.8</ele>
        <time>2020-10-19T12:57:21Z</time>
      </trkpt>
      <trkpt lat="46.12521" lon="4.56892">
        <ele>670.8</ele>
        <time>2020-10-19T12:57:22Z</time>
      </trkpt>
      <trkpt lat="46.12521" lon="4.56892">
        <ele>671</ele>
        <time>2020-10-19T12:57:23Z</time>
      </trkpt>
      <trkpt lat="46.12521" lon="4.56892">
        <ele>671</ele>
        <time>2020-10-19T12:57:24Z</time>
      </trkpt>
      <trkpt lat="46.12521" lon="4.56892">
        <ele>671</ele>
        <time>2020-10-19T12:57:25Z</time>
      </trkpt>
      <trkpt lat="46.12521" lon="4.56892">
        <ele>671</ele>
        <time>2020-10-19T12:57:26Z</time>
      </trkpt>
      <trkpt lat="46.12521" lon="4.56892">
        <ele>671</ele>
        <time>2020-10-19T12:57:27Z</time>
      </trkpt>
      <trkpt lat="46.12521" lon="4.56892">
        <ele>671</ele>
        <time>2020-10-19T12:57:28Z</time>
      </trkpt>
      <trkpt lat="46.12521" lon="4.56892">
        <ele>670.6</ele>
        <time>2020-10-19T12:57:29Z</time>
      </trkpt>
      <trkpt lat="46.12521" lon="4.56892">
        <ele>670.8</ele>
        <time>2020-10-19T12:57:30Z</time>
      </trkpt>
      <trkpt lat="46.12521" lon="4.56892">
        <ele>670.8</ele>
        <time>2020-10-19T12:57:31Z</time>
      </trkpt>
      <trkpt lat="46.12521" lon="4.56892">
        <ele>670.8</ele>
        <time>2020-10-19T12:57:32Z</time>
      </trkpt>
      <trkpt lat="46.12521" lon="4.56892">
        <ele>670.4</ele>
        <time>2020-10-19T12:57:33Z</time>
      </trkpt>
      <trkpt lat="46.12521" lon="4.56892">
        <ele>670.4</ele>
        <time>2020-10-19T12:57:34Z</time>
      </trkpt>
      <trkpt lat="46.12521" lon="4.56892">
        <ele>670.4</ele>
        <time>2020-10-19T12:57:35Z</time>
      </trkpt>
      <trkpt lat="46.12521" lon="4.56892">
        <ele>670.4</ele>
        <time>2020-10-19T12:57:36Z</time>
      </trkpt>
      <trkpt lat="46.12522" lon="4.56894">
        <ele>670.6</ele>
        <time>2020-10-19T12:57:37Z</time>
      </trkpt>
      <trkpt lat="46.12522" lon="4.56894">
        <ele>670.4</ele>
        <time>2020-10-19T12:57:38Z</time>
      </trkpt>
      <trkpt lat="46.12522" lon="4.56894">
        <ele>670.2</ele>
        <time>2020-10-19T12:57:39Z</time>
      </trkpt>
      <trkpt lat="46.12522" lon="4.56898">
        <ele>670.2</ele>
        <time>2020-10-19T12:57:40Z</time>
      </trkpt>
      <trkpt lat="46.12522" lon="4.56898">
        <ele>670.2</ele>
        <time>2020-10-19T12:57:41Z</time>
      </trkpt>
      <trkpt lat="46.1252" lon="4.569">
        <ele>670.4</ele>
        <time>2020-10-19T12:57:42Z</time>
      </trkpt>
      <trkpt lat="46.1252" lon="4.569">
        <ele>670.6</ele>
        <time>2020-10-19T12:57:43Z</time>
      </trkpt>
      <trkpt lat="46.12517" lon="4.56897">
        <ele>670.8</ele>
        <time>2020-10-19T12:57:44Z</time>
      </trkpt>
      <trkpt lat="46.12517" lon="4.56897">
        <ele>670.6</ele>
        <time>2020-10-19T12:57:45Z</time>
      </trkpt>
      <trkpt lat="46.12516" lon="4.56893">
        <ele>671</ele>
        <time>2020-10-19T12:57:46Z</time>
      </trkpt>
      <trkpt lat="46.12516" lon="4.56893">
        <ele>671.2</ele>
        <time>2020-10-19T12:57:47Z</time>
      </trkpt>
      <trkpt lat="46.12515" lon="4.56889">
        <ele>671.2</ele>
        <time>2020-10-19T12:57:48Z</time>
      </trkpt>
      <trkpt lat="46.12515" lon="4.56889">
        <ele>671</ele>
        <time>2020-10-19T12:57:49Z</time>
      </trkpt>
      <trkpt lat="46.12514" lon="4.56885">
        <ele>670.8</ele>
        <time>2020-10-19T12:57:50Z</time>
      </trkpt>
      <trkpt lat="46.12514" lon="4.56885">
        <ele>670.6</ele>
        <time>2020-10-19T12:57:51Z</time>
      </trkpt>
      <trkpt lat="46.12514" lon="4.5688">
        <ele>670.6</ele>
        <time>2020-10-19T12:57:52Z</time>
      </trkpt>
      <trkpt lat="46.12514" lon="4.5688">
        <ele>670.4</ele>
        <time>2020-10-19T12:57:53Z</time>
      </trkpt>
      <trkpt lat="46.12514" lon="4.56876">
        <ele>670.4</ele>
        <time>2020-10-19T12:57:54Z</time>
      </trkpt>
      <trkpt lat="46.12514" lon="4.56876">
        <ele>670.2</ele>
        <time>2020-10-19T12:57:55Z</time>
      </trkpt>
      <trkpt lat="46.12515" lon="4.56872">
        <ele>669.8</ele>
        <time>2020-10-19T12:57:56Z</time>
      </trkpt>
      <trkpt lat="46.12515" lon="4.56872">
        <ele>669.8</ele>
        <time>2020-10-19T12:57:57Z</time>
      </trkpt>
      <trkpt lat="46.12516" lon="4.56868">
        <ele>669.4</ele>
        <time>2020-10-19T12:57:58Z</time>
      </trkpt>
      <trkpt lat="46.12516" lon="4.56868">
        <ele>669.2</ele>
        <time>2020-10-19T12:57:59Z</time>
      </trkpt>
      <trkpt lat="46.12516" lon="4.56864">
        <ele>669</ele>
        <time>2020-10-19T12:58:00Z</time>
      </trkpt>
      <trkpt lat="46.12516" lon="4.56864">
        <ele>669</ele>
        <time>2020-10-19T12:58:01Z</time>
      </trkpt>
      <trkpt lat="46.12516" lon="4.5686">
        <ele>668.8</ele>
        <time>2020-10-19T12:58:02Z</time>
      </trkpt>
      <trkpt lat="46.12516" lon="4.5686">
        <ele>668.6</ele>
        <time>2020-10-19T12:58:03Z</time>
      </trkpt>
      <trkpt lat="46.12517" lon="4.56856">
        <ele>668.2</ele>
        <time>2020-10-19T12:58:04Z</time>
      </trkpt>
      <trkpt lat="46.12517" lon="4.56856">
        <ele>668.2</ele>
        <time>2020-10-19T12:58:05Z</time>
      </trkpt>
      <trkpt lat="46.12518" lon="4.56852">
        <ele>667.8</ele>
        <time>2020-10-19T12:58:06Z</time>
      </trkpt>
      <trkpt lat="46.12518" lon="4.56852">
        <ele>667.2</ele>
        <time>2020-10-19T12:58:07Z</time>
      </trkpt>
      <trkpt lat="46.12518" lon="4.56848">
        <ele>666.6</ele>
        <time>2020-10-19T12:58:08Z</time>
      </trkpt>
      <trkpt lat="46.12518" lon="4.56848">
        <ele>666.2</ele>
        <time>2020-10-19T12:58:09Z</time>
      </trkpt>
      <trkpt lat="46.12519" lon="4.56844">
        <ele>665.8</ele>
        <time>2020-10-19T12:58:10Z</time>
      </trkpt>
      <trkpt lat="46.12519" lon="4.56844">
        <ele>665.4</ele>
        <time>2020-10-19T12:58:11Z</time>
      </trkpt>
      <trkpt lat="46.12519" lon="4.5684">
        <ele>665</ele>
        <time>2020-10-19T12:58:12Z</time>
      </trkpt>
      <trkpt lat="46.12519" lon="4.5684">
        <ele>664.6</ele>
        <time>2020-10-19T12:58:13Z</time>
      </trkpt>
      <trkpt lat="46.1252" lon="4.56836">
        <ele>664.2</ele>
        <time>2020-10-19T12:58:14Z</time>
      </trkpt>
      <trkpt lat="46.1252" lon="4.56836">
        <ele>664.2</ele>
        <time>2020-10-19T12:58:15Z</time>
      </trkpt>
      <trkpt lat="46.1252" lon="4.56831">
        <ele>663.8</ele>
        <time>2020-10-19T12:58:16Z</time>
      </trkpt>
      <trkpt lat="46.1252" lon="4.56831">
        <ele>663.6</ele>
        <time>2020-10-19T12:58:17Z</time>
      </trkpt>
      <trkpt lat="46.12521" lon="4.56827">
        <ele>663.2</ele>
        <time>2020-10-19T12:58:18Z</time>
      </trkpt>
      <trkpt lat="46.12521" lon="4.56827">
        <ele>662.8</ele>
        <time>2020-10-19T12:58:19Z</time>
      </trkpt>
      <trkpt lat="46.12521" lon="4.56824">
        <ele>662.4</ele>
        <time>2020-10-19T12:58:20Z</time>
      </trkpt>
      <trkpt lat="46.12521" lon="4.56824">
        <ele>662.2</ele>
        <time>2020-10-19T12:58:21Z</time>
      </trkpt>
      <trkpt lat="46.12521" lon="4.56824">
        <ele>661.8</ele>
        <time>2020-10-19T12:58:22Z</time>
      </trkpt>
      <trkpt lat="46.12521" lon="4.56824">
        <ele>661.8</ele>
        <time>2020-10-19T12:58:23Z</time>
      </trkpt>
      <trkpt lat="46.12521" lon="4.56824">
        <ele>661.8</ele>
        <time>2020-10-19T12:58:24Z</time>
      </trkpt>
      <trkpt lat="46.12521" lon="4.56824">
        <ele>661.6</ele>
        <time>2020-10-19T12:58:25Z</time>
      </trkpt>
      <trkpt lat="46.12522" lon="4.56821">
        <ele>661.2</ele>
        <time>2020-10-19T12:58:26Z</time>
      </trkpt>
      <trkpt lat="46.12522" lon="4.56821">
        <ele>661</ele>
        <time>2020-10-19T12:58:27Z</time>
      </trkpt>
      <trkpt lat="46.12522" lon="4.56817">
        <ele>660.6</ele>
        <time>2020-10-19T12:58:28Z</time>
      </trkpt>
      <trkpt lat="46.12522" lon="4.56817">
        <ele>660.2</ele>
        <time>2020-10-19T12:58:29Z</time>
      </trkpt>
      <trkpt lat="46.12523" lon="4.56813">
        <ele>660</ele>
        <time>2020-10-19T12:58:30Z</time>
      </trkpt>
      <trkpt lat="46.12523" lon="4.56813">
        <ele>659.6</ele>
        <time>2020-10-19T12:58:31Z</time>
      </trkpt>
      <trkpt lat="46.12523" lon="4.56809">
        <ele>659.2</ele>
        <time>2020-10-19T12:58:32Z</time>
      </trkpt>
      <trkpt lat="46.12523" lon="4.56809">
        <ele>658.6</ele>
        <time>2020-10-19T12:58:33Z</time>
      </trkpt>
      <trkpt lat="46.12524" lon="4.56805">
        <ele>658.2</ele>
        <time>2020-10-19T12:58:34Z</time>
      </trkpt>
      <trkpt lat="46.12524" lon="4.56805">
        <ele>657.6</ele>
        <time>2020-10-19T12:58:35Z</time>
      </trkpt>
      <trkpt lat="46.12525" lon="4.56801">
        <ele>657.2</ele>
        <time>2020-10-19T12:58:36Z</time>
      </trkpt>
      <trkpt lat="46.12525" lon="4.56801">
        <ele>656.8</ele>
        <time>2020-10-19T12:58:37Z</time>
      </trkpt>
      <trkpt lat="46.12525" lon="4.56798">
        <ele>656.2</ele>
        <time>2020-10-19T12:58:38Z</time>
      </trkpt>
      <trkpt lat="46.12525" lon="4.56798">
        <ele>656</ele>
        <time>2020-10-19T12:58:39Z</time>
      </trkpt>
      <trkpt lat="46.12525" lon="4.56793">
        <ele>655.2</ele>
        <time>2020-10-19T12:58:40Z</time>
      </trkpt>
      <trkpt lat="46.12525" lon="4.56793">
        <ele>655</ele>
        <time>2020-10-19T12:58:41Z</time>
      </trkpt>
      <trkpt lat="46.12525" lon="4.56788">
        <ele>654.6</ele>
        <time>2020-10-19T12:58:42Z</time>
      </trkpt>
      <trkpt lat="46.12525" lon="4.56788">
        <ele>654.2</ele>
        <time>2020-10-19T12:58:43Z</time>
      </trkpt>
      <trkpt lat="46.12526" lon="4.56783">
        <ele>653.6</ele>
        <time>2020-10-19T12:58:44Z</time>
      </trkpt>
      <trkpt lat="46.12526" lon="4.56783">
        <ele>653</ele>
        <time>2020-10-19T12:58:45Z</time>
      </trkpt>
      <trkpt lat="46.12526" lon="4.56778">
        <ele>652.8</ele>
        <time>2020-10-19T12:58:46Z</time>
      </trkpt>
      <trkpt lat="46.12526" lon="4.56778">
        <ele>652.4</ele>
        <time>2020-10-19T12:58:47Z</time>
      </trkpt>
      <trkpt lat="46.12526" lon="4.56773">
        <ele>652.2</ele>
        <time>2020-10-19T12:58:48Z</time>
      </trkpt>
      <trkpt lat="46.12526" lon="4.56773">
        <ele>652</ele>
        <time>2020-10-19T12:58:49Z</time>
      </trkpt>
      <trkpt lat="46.12527" lon="4.56769">
        <ele>651.6</ele>
        <time>2020-10-19T12:58:50Z</time>
      </trkpt>
      <trkpt lat="46.12527" lon="4.56769">
        <ele>650.8</ele>
        <time>2020-10-19T12:58:51Z</time>
      </trkpt>
      <trkpt lat="46.12528" lon="4.56765">
        <ele>650.4</ele>
        <time>2020-10-19T12:58:52Z</time>
      </trkpt>
      <trkpt lat="46.12528" lon="4.56765">
        <ele>650.2</ele>
        <time>2020-10-19T12:58:53Z</time>
      </trkpt>
      <trkpt lat="46.12528" lon="4.56762">
        <ele>649.8</ele>
        <time>2020-10-19T12:58:54Z</time>
      </trkpt>
      <trkpt lat="46.12528" lon="4.56762">
        <ele>649.4</ele>
        <time>2020-10-19T12:58:55Z</time>
      </trkpt>
      <trkpt lat="46.12529" lon="4.56758">
        <ele>649</ele>
        <time>2020-10-19T12:58:56Z</time>
      </trkpt>
      <trkpt lat="46.12529" lon="4.56758">
        <ele>648.6</ele>
        <time>2020-10-19T12:58:57Z</time>
      </trkpt>
      <trkpt lat="46.1253" lon="4.56754">
        <ele>648.4</ele>
        <time>2020-10-19T12:58:58Z</time>
      </trkpt>
      <trkpt lat="46.1253" lon="4.56754">
        <ele>648.2</ele>
        <time>2020-10-19T12:58:59Z</time>
      </trkpt>
      <trkpt lat="46.1253" lon="4.56749">
        <ele>647.8</ele>
        <time>2020-10-19T12:59:00Z</time>
      </trkpt>
      <trkpt lat="46.1253" lon="4.56749">
        <ele>647.6</ele>
        <time>2020-10-19T12:59:01Z</time>
      </trkpt>
      <trkpt lat="46.1253" lon="4.56745">
        <ele>647</ele>
        <time>2020-10-19T12:59:02Z</time>
      </trkpt>
      <trkpt lat="46.1253" lon="4.56745">
        <ele>646.6</ele>
        <time>2020-10-19T12:59:03Z</time>
      </trkpt>
      <trkpt lat="46.12531" lon="4.56742">
        <ele>646.4</ele>
        <time>2020-10-19T12:59:04Z</time>
      </trkpt>
      <trkpt lat="46.12531" lon="4.56742">
        <ele>646</ele>
        <time>2020-10-19T12:59:05Z</time>
      </trkpt>
      <trkpt lat="46.12531" lon="4.56738">
        <ele>645.8</ele>
        <time>2020-10-19T12:59:06Z</time>
      </trkpt>
      <trkpt lat="46.12531" lon="4.56738">
        <ele>645.6</ele>
        <time>2020-10-19T12:59:07Z</time>
      </trkpt>
      <trkpt lat="46.12531" lon="4.56734">
        <ele>645.2</ele>
        <time>2020-10-19T12:59:08Z</time>
      </trkpt>
      <trkpt lat="46.12531" lon="4.56734">
        <ele>645</ele>
        <time>2020-10-19T12:59:09Z</time>
      </trkpt>
      <trkpt lat="46.12532" lon="4.5673">
        <ele>644.6</ele>
        <time>2020-10-19T12:59:10Z</time>
      </trkpt>
      <trkpt lat="46.12532" lon="4.5673">
        <ele>644.4</ele>
        <time>2020-10-19T12:59:11Z</time>
      </trkpt>
      <trkpt lat="46.12533" lon="4.56726">
        <ele>644.2</ele>
        <time>2020-10-19T12:59:12Z</time>
      </trkpt>
      <trkpt lat="46.12533" lon="4.56723">
        <ele>644.2</ele>
        <time>2020-10-19T12:59:13Z</time>
      </trkpt>
      <trkpt lat="46.12533" lon="4.5672">
        <ele>644.2</ele>
        <time>2020-10-19T12:59:14Z</time>
      </trkpt>
      <trkpt lat="46.12534" lon="4.56717">
        <ele>643.8</ele>
        <time>2020-10-19T12:59:15Z</time>
      </trkpt>
      <trkpt lat="46.12534" lon="4.56717">
        <ele>643.4</ele>
        <time>2020-10-19T12:59:16Z</time>
      </trkpt>
      <trkpt lat="46.12534" lon="4.56713">
        <ele>642.8</ele>
        <time>2020-10-19T12:59:17Z</time>
      </trkpt>
      <trkpt lat="46.12534" lon="4.56713">
        <ele>642.4</ele>
        <time>2020-10-19T12:59:18Z</time>
      </trkpt>
      <trkpt lat="46.12534" lon="4.56708">
        <ele>642</ele>
        <time>2020-10-19T12:59:19Z</time>
      </trkpt>
      <trkpt lat="46.12534" lon="4.56708">
        <ele>641.4</ele>
        <time>2020-10-19T12:59:20Z</time>
      </trkpt>
      <trkpt lat="46.12534" lon="4.56702">
        <ele>641</ele>
        <time>2020-10-19T12:59:21Z</time>
      </trkpt>
      <trkpt lat="46.12534" lon="4.56699">
        <ele>641</ele>
        <time>2020-10-19T12:59:22Z</time>
      </trkpt>
      <trkpt lat="46.12534" lon="4.56699">
        <ele>640.8</ele>
        <time>2020-10-19T12:59:23Z</time>
      </trkpt>
      <trkpt lat="46.12534" lon="4.56699">
        <ele>640.6</ele>
        <time>2020-10-19T12:59:24Z</time>
      </trkpt>
      <trkpt lat="46.12534" lon="4.56699">
        <ele>640.4</ele>
        <time>2020-10-19T12:59:25Z</time>
      </trkpt>
      <trkpt lat="46.12536" lon="4.56695">
        <ele>640</ele>
        <time>2020-10-19T12:59:26Z</time>
      </trkpt>
      <trkpt lat="46.12537" lon="4.56692">
        <ele>640</ele>
        <time>2020-10-19T12:59:27Z</time>
      </trkpt>
      <trkpt lat="46.12538" lon="4.5669">
        <ele>640</ele>
        <time>2020-10-19T12:59:28Z</time>
      </trkpt>
      <trkpt lat="46.12538" lon="4.56687">
        <ele>639.8</ele>
        <time>2020-10-19T12:59:29Z</time>
      </trkpt>
      <trkpt lat="46.12538" lon="4.56684">
        <ele>639.2</ele>
        <time>2020-10-19T12:59:30Z</time>
      </trkpt>
      <trkpt lat="46.12539" lon="4.56682">
        <ele>639.2</ele>
        <time>2020-10-19T12:59:31Z</time>
      </trkpt>
      <trkpt lat="46.12539" lon="4.56679">
        <ele>639</ele>
        <time>2020-10-19T12:59:32Z</time>
      </trkpt>
      <trkpt lat="46.12539" lon="4.56676">
        <ele>638.8</ele>
        <time>2020-10-19T12:59:33Z</time>
      </trkpt>
      <trkpt lat="46.12539" lon="4.56676">
        <ele>638.6</ele>
        <time>2020-10-19T12:59:34Z</time>
      </trkpt>
      <trkpt lat="46.1254" lon="4.56671">
        <ele>638.2</ele>
        <time>2020-10-19T12:59:35Z</time>
      </trkpt>
      <trkpt lat="46.12541" lon="4.56669">
        <ele>638.2</ele>
        <time>2020-10-19T12:59:36Z</time>
      </trkpt>
      <trkpt lat="46.12541" lon="4.56666">
        <ele>638.2</ele>
        <time>2020-10-19T12:59:37Z</time>
      </trkpt>
      <trkpt lat="46.12541" lon="4.56663">
        <ele>638</ele>
        <time>2020-10-19T12:59:38Z</time>
      </trkpt>
      <trkpt lat="46.12542" lon="4.5666">
        <ele>638</ele>
        <time>2020-10-19T12:59:39Z</time>
      </trkpt>
      <trkpt lat="46.12542" lon="4.56657">
        <ele>638</ele>
        <time>2020-10-19T12:59:40Z</time>
      </trkpt>
      <trkpt lat="46.12542" lon="4.56655">
        <ele>638</ele>
        <time>2020-10-19T12:59:41Z</time>
      </trkpt>
      <trkpt lat="46.12542" lon="4.56652">
        <ele>638</ele>
        <time>2020-10-19T12:59:42Z</time>
      </trkpt>
      <trkpt lat="46.12542" lon="4.56652">
        <ele>638</ele>
        <time>2020-10-19T12:59:43Z</time>
      </trkpt>
      <trkpt lat="46.12543" lon="4.56647">
        <ele>638.2</ele>
        <time>2020-10-19T12:59:44Z</time>
      </trkpt>
      <trkpt lat="46.12544" lon="4.56645">
        <ele>638.4</ele>
        <time>2020-10-19T12:59:45Z</time>
      </trkpt>
      <trkpt lat="46.12544" lon="4.56645">
        <ele>638.4</ele>
        <time>2020-10-19T12:59:46Z</time>
      </trkpt>
      <trkpt lat="46.12544" lon="4.5664">
        <ele>638.4</ele>
        <time>2020-10-19T12:59:47Z</time>
      </trkpt>
      <trkpt lat="46.12544" lon="4.5664">
        <ele>638.2</ele>
        <time>2020-10-19T12:59:48Z</time>
      </trkpt>
      <trkpt lat="46.12546" lon="4.56636">
        <ele>638.2</ele>
        <time>2020-10-19T12:59:49Z</time>
      </trkpt>
      <trkpt lat="46.12546" lon="4.56636">
        <ele>638.2</ele>
        <time>2020-10-19T12:59:50Z</time>
      </trkpt>
      <trkpt lat="46.12547" lon="4.56632">
        <ele>638.2</ele>
        <time>2020-10-19T12:59:51Z</time>
      </trkpt>
      <trkpt lat="46.12547" lon="4.56632">
        <ele>638.2</ele>
        <time>2020-10-19T12:59:52Z</time>
      </trkpt>
      <trkpt lat="46.12547" lon="4.56628">
        <ele>638</ele>
        <time>2020-10-19T12:59:53Z</time>
      </trkpt>
      <trkpt lat="46.12547" lon="4.56628">
        <ele>638</ele>
        <time>2020-10-19T12:59:54Z</time>
      </trkpt>
      <trkpt lat="46.12548" lon="4.56624">
        <ele>638</ele>
        <time>2020-10-19T12:59:55Z</time>
      </trkpt>
      <trkpt lat="46.12548" lon="4.56624">
        <ele>638</ele>
        <time>2020-10-19T12:59:56Z</time>
      </trkpt>
      <trkpt lat="46.12549" lon="4.56621">
        <ele>637.8</ele>
        <time>2020-10-19T12:59:57Z</time>
      </trkpt>
      <trkpt lat="46.12549" lon="4.56621">
        <ele>637.6</ele>
        <time>2020-10-19T12:59:58Z</time>
      </trkpt>
      <trkpt lat="46.1255" lon="4.56617">
        <ele>637.8</ele>
        <time>2020-10-19T12:59:59Z</time>
      </trkpt>
      <trkpt lat="46.12551" lon="4.56614">
        <ele>637.8</ele>
        <time>2020-10-19T13:00:01Z</time>
      </trkpt>
      <trkpt lat="46.12551" lon="4.56614">
        <ele>637.6</ele>
        <time>2020-10-19T13:00:02Z</time>
      </trkpt>
      <trkpt lat="46.12552" lon="4.56611">
        <ele>637.2</ele>
        <time>2020-10-19T13:00:03Z</time>
      </trkpt>
      <trkpt lat="46.12552" lon="4.56611">
        <ele>637.2</ele>
        <time>2020-10-19T13:00:04Z</time>
      </trkpt>
      <trkpt lat="46.12553" lon="4.56607">
        <ele>637</ele>
        <time>2020-10-19T13:00:05Z</time>
      </trkpt>
      <trkpt lat="46.12553" lon="4.56607">
        <ele>636.8</ele>
        <time>2020-10-19T13:00:06Z</time>
      </trkpt>
      <trkpt lat="46.12554" lon="4.56603">
        <ele>636.6</ele>
        <time>2020-10-19T13:00:07Z</time>
      </trkpt>
      <trkpt lat="46.12554" lon="4.56603">
        <ele>636.2</ele>
        <time>2020-10-19T13:00:08Z</time>
      </trkpt>
      <trkpt lat="46.12555" lon="4.566">
        <ele>635.8</ele>
        <time>2020-10-19T13:00:09Z</time>
      </trkpt>
      <trkpt lat="46.12555" lon="4.566">
        <ele>635.8</ele>
        <time>2020-10-19T13:00:10Z</time>
      </trkpt>
      <trkpt lat="46.12556" lon="4.56596">
        <ele>635.4</ele>
        <time>2020-10-19T13:00:11Z</time>
      </trkpt>
      <trkpt lat="46.12556" lon="4.56596">
        <ele>635.2</ele>
        <time>2020-10-19T13:00:12Z</time>
      </trkpt>
      <trkpt lat="46.12557" lon="4.56592">
        <ele>635.2</ele>
        <time>2020-10-19T13:00:13Z</time>
      </trkpt>
      <trkpt lat="46.12557" lon="4.56592">
        <ele>635</ele>
        <time>2020-10-19T13:00:14Z</time>
      </trkpt>
      <trkpt lat="46.12559" lon="4.56589">
        <ele>634.8</ele>
        <time>2020-10-19T13:00:15Z</time>
      </trkpt>
      <trkpt lat="46.12559" lon="4.56589">
        <ele>634.4</ele>
        <time>2020-10-19T13:00:16Z</time>
      </trkpt>
      <trkpt lat="46.1256" lon="4.56586">
        <ele>634.2</ele>
        <time>2020-10-19T13:00:17Z</time>
      </trkpt>
      <trkpt lat="46.1256" lon="4.56586">
        <ele>634</ele>
        <time>2020-10-19T13:00:18Z</time>
      </trkpt>
      <trkpt lat="46.12561" lon="4.56584">
        <ele>633.8</ele>
        <time>2020-10-19T13:00:19Z</time>
      </trkpt>
      <trkpt lat="46.12561" lon="4.56584">
        <ele>633.8</ele>
        <time>2020-10-19T13:00:20Z</time>
      </trkpt>
      <trkpt lat="46.12562" lon="4.56582">
        <ele>633.4</ele>
        <time>2020-10-19T13:00:21Z</time>
      </trkpt>
      <trkpt lat="46.12562" lon="4.56582">
        <ele>633.4</ele>
        <time>2020-10-19T13:00:22Z</time>
      </trkpt>
      <trkpt lat="46.12563" lon="4.5658">
        <ele>633.2</ele>
        <time>2020-10-19T13:00:23Z</time>
      </trkpt>
      <trkpt lat="46.12563" lon="4.5658">
        <ele>633</ele>
        <time>2020-10-19T13:00:24Z</time>
      </trkpt>
      <trkpt lat="46.12563" lon="4.5658">
        <ele>632.8</ele>
        <time>2020-10-19T13:00:25Z</time>
      </trkpt>
      <trkpt lat="46.12565" lon="4.56576">
        <ele>632.8</ele>
        <time>2020-10-19T13:00:26Z</time>
      </trkpt>
      <trkpt lat="46.12565" lon="4.56576">
        <ele>632.6</ele>
        <time>2020-10-19T13:00:27Z</time>
      </trkpt>
      <trkpt lat="46.12566" lon="4.56573">
        <ele>632.6</ele>
        <time>2020-10-19T13:00:28Z</time>
      </trkpt>
      <trkpt lat="46.12566" lon="4.56573">
        <ele>632.6</ele>
        <time>2020-10-19T13:00:29Z</time>
      </trkpt>
      <trkpt lat="46.12567" lon="4.56569">
        <ele>632.2</ele>
        <time>2020-10-19T13:00:30Z</time>
      </trkpt>
      <trkpt lat="46.12567" lon="4.56569">
        <ele>632.2</ele>
        <time>2020-10-19T13:00:31Z</time>
      </trkpt>
      <trkpt lat="46.12569" lon="4.56565">
        <ele>631.8</ele>
        <time>2020-10-19T13:00:32Z</time>
      </trkpt>
      <trkpt lat="46.1257" lon="4.56563">
        <ele>631.6</ele>
        <time>2020-10-19T13:00:33Z</time>
      </trkpt>
      <trkpt lat="46.1257" lon="4.56563">
        <ele>631.6</ele>
        <time>2020-10-19T13:00:34Z</time>
      </trkpt>
      <trkpt lat="46.12572" lon="4.56559">
        <ele>631.4</ele>
        <time>2020-10-19T13:00:35Z</time>
      </trkpt>
      <trkpt lat="46.12572" lon="4.56559">
        <ele>631.4</ele>
        <time>2020-10-19T13:00:36Z</time>
      </trkpt>
      <trkpt lat="46.12574" lon="4.56556">
        <ele>631.2</ele>
        <time>2020-10-19T13:00:37Z</time>
      </trkpt>
      <trkpt lat="46.12574" lon="4.56556">
        <ele>631</ele>
        <time>2020-10-19T13:00:38Z</time>
      </trkpt>
      <trkpt lat="46.12576" lon="4.56552">
        <ele>630.8</ele>
        <time>2020-10-19T13:00:39Z</time>
      </trkpt>
      <trkpt lat="46.12576" lon="4.56552">
        <ele>630.6</ele>
        <time>2020-10-19T13:00:40Z</time>
      </trkpt>
      <trkpt lat="46.12577" lon="4.56549">
        <ele>630.4</ele>
        <time>2020-10-19T13:00:41Z</time>
      </trkpt>
      <trkpt lat="46.12577" lon="4.56549">
        <ele>630.2</ele>
        <time>2020-10-19T13:00:42Z</time>
      </trkpt>
      <trkpt lat="46.12578" lon="4.56545">
        <ele>630</ele>
        <time>2020-10-19T13:00:43Z</time>
      </trkpt>
      <trkpt lat="46.12578" lon="4.56545">
        <ele>629</ele>
        <time>2020-10-19T13:00:44Z</time>
      </trkpt>
      <trkpt lat="46.12579" lon="4.56541">
        <ele>628.4</ele>
        <time>2020-10-19T13:00:45Z</time>
      </trkpt>
      <trkpt lat="46.12579" lon="4.56541">
        <ele>628</ele>
        <time>2020-10-19T13:00:46Z</time>
      </trkpt>
      <trkpt lat="46.12581" lon="4.56538">
        <ele>627.6</ele>
        <time>2020-10-19T13:00:47Z</time>
      </trkpt>
      <trkpt lat="46.12582" lon="4.56535">
        <ele>627.4</ele>
        <time>2020-10-19T13:00:48Z</time>
      </trkpt>
      <trkpt lat="46.12582" lon="4.56535">
        <ele>627.4</ele>
        <time>2020-10-19T13:00:49Z</time>
      </trkpt>
      <trkpt lat="46.12584" lon="4.56531">
        <ele>627.2</ele>
        <time>2020-10-19T13:00:50Z</time>
      </trkpt>
      <trkpt lat="46.12584" lon="4.56531">
        <ele>626.8</ele>
        <time>2020-10-19T13:00:51Z</time>
      </trkpt>
      <trkpt lat="46.12585" lon="4.56528">
        <ele>626.2</ele>
        <time>2020-10-19T13:00:52Z</time>
      </trkpt>
      <trkpt lat="46.12585" lon="4.56528">
        <ele>625.8</ele>
        <time>2020-10-19T13:00:53Z</time>
      </trkpt>
      <trkpt lat="46.12587" lon="4.56524">
        <ele>625.6</ele>
        <time>2020-10-19T13:00:54Z</time>
      </trkpt>
      <trkpt lat="46.12588" lon="4.56522">
        <ele>625.2</ele>
        <time>2020-10-19T13:00:55Z</time>
      </trkpt>
      <trkpt lat="46.12588" lon="4.56522">
        <ele>625</ele>
        <time>2020-10-19T13:00:56Z</time>
      </trkpt>
      <trkpt lat="46.1259" lon="4.56518">
        <ele>624.8</ele>
        <time>2020-10-19T13:00:57Z</time>
      </trkpt>
      <trkpt lat="46.12592" lon="4.56516">
        <ele>624.4</ele>
        <time>2020-10-19T13:00:58Z</time>
      </trkpt>
      <trkpt lat="46.12592" lon="4.56516">
        <ele>624.2</ele>
        <time>2020-10-19T13:00:59Z</time>
      </trkpt>
      <trkpt lat="46.12593" lon="4.56511">
        <ele>624.2</ele>
        <time>2020-10-19T13:01:00Z</time>
      </trkpt>
      <trkpt lat="46.12593" lon="4.56511">
        <ele>624</ele>
        <time>2020-10-19T13:01:01Z</time>
      </trkpt>
      <trkpt lat="46.12595" lon="4.56507">
        <ele>623.8</ele>
        <time>2020-10-19T13:01:02Z</time>
      </trkpt>
      <trkpt lat="46.12596" lon="4.56505">
        <ele>623.6</ele>
        <time>2020-10-19T13:01:03Z</time>
      </trkpt>
      <trkpt lat="46.12597" lon="4.56503">
        <ele>623.4</ele>
        <time>2020-10-19T13:01:04Z</time>
      </trkpt>
      <trkpt lat="46.12599" lon="4.565">
        <ele>623</ele>
        <time>2020-10-19T13:01:05Z</time>
      </trkpt>
      <trkpt lat="46.126" lon="4.56498">
        <ele>623.2</ele>
        <time>2020-10-19T13:01:06Z</time>
      </trkpt>
      <trkpt lat="46.12601" lon="4.56495">
        <ele>623.2</ele>
        <time>2020-10-19T13:01:07Z</time>
      </trkpt>
      <trkpt lat="46.12602" lon="4.56493">
        <ele>623.2</ele>
        <time>2020-10-19T13:01:08Z</time>
      </trkpt>
      <trkpt lat="46.12603" lon="4.5649">
        <ele>623.2</ele>
        <time>2020-10-19T13:01:09Z</time>
      </trkpt>
      <trkpt lat="46.12604" lon="4.56488">
        <ele>623.2</ele>
        <time>2020-10-19T13:01:10Z</time>
      </trkpt>
      <trkpt lat="46.12604" lon="4.56488">
        <ele>623.2</ele>
        <time>2020-10-19T13:01:11Z</time>
      </trkpt>
      <trkpt lat="46.12605" lon="4.56484">
        <ele>623.2</ele>
        <time>2020-10-19T13:01:12Z</time>
      </trkpt>
      <trkpt lat="46.12605" lon="4.56484">
        <ele>623.4</ele>
        <time>2020-10-19T13:01:13Z</time>
      </trkpt>
      <trkpt lat="46.12607" lon="4.5648">
        <ele>623.4</ele>
        <time>2020-10-19T13:01:14Z</time>
      </trkpt>
      <trkpt lat="46.12607" lon="4.56478">
        <ele>623.4</ele>
        <time>2020-10-19T13:01:15Z</time>
      </trkpt>
      <trkpt lat="46.12608" lon="4.56475">
        <ele>623.2</ele>
        <time>2020-10-19T13:01:16Z</time>
      </trkpt>
      <trkpt lat="46.12608" lon="4.56475">
        <ele>623</ele>
        <time>2020-10-19T13:01:17Z</time>
      </trkpt>
      <trkpt lat="46.1261" lon="4.56471">
        <ele>622.8</ele>
        <time>2020-10-19T13:01:18Z</time>
      </trkpt>
      <trkpt lat="46.1261" lon="4.56471">
        <ele>622.8</ele>
        <time>2020-10-19T13:01:19Z</time>
      </trkpt>
      <trkpt lat="46.12611" lon="4.56466">
        <ele>622.6</ele>
        <time>2020-10-19T13:01:20Z</time>
      </trkpt>
      <trkpt lat="46.12611" lon="4.56466">
        <ele>622.4</ele>
        <time>2020-10-19T13:01:21Z</time>
      </trkpt>
      <trkpt lat="46.12613" lon="4.56462">
        <ele>622.2</ele>
        <time>2020-10-19T13:01:22Z</time>
      </trkpt>
      <trkpt lat="46.12613" lon="4.56462">
        <ele>622</ele>
        <time>2020-10-19T13:01:23Z</time>
      </trkpt>
      <trkpt lat="46.12615" lon="4.56458">
        <ele>622.2</ele>
        <time>2020-10-19T13:01:24Z</time>
      </trkpt>
      <trkpt lat="46.12615" lon="4.56458">
        <ele>622</ele>
        <time>2020-10-19T13:01:25Z</time>
      </trkpt>
      <trkpt lat="46.12616" lon="4.56454">
        <ele>621.8</ele>
        <time>2020-10-19T13:01:26Z</time>
      </trkpt>
      <trkpt lat="46.12616" lon="4.56454">
        <ele>622</ele>
        <time>2020-10-19T13:01:27Z</time>
      </trkpt>
      <trkpt lat="46.12618" lon="4.5645">
        <ele>622.2</ele>
        <time>2020-10-19T13:01:28Z</time>
      </trkpt>
      <trkpt lat="46.12618" lon="4.5645">
        <ele>622.4</ele>
        <time>2020-10-19T13:01:29Z</time>
      </trkpt>
      <trkpt lat="46.1262" lon="4.56446">
        <ele>622.2</ele>
        <time>2020-10-19T13:01:30Z</time>
      </trkpt>
      <trkpt lat="46.1262" lon="4.56446">
        <ele>622</ele>
        <time>2020-10-19T13:01:31Z</time>
      </trkpt>
      <trkpt lat="46.12621" lon="4.56442">
        <ele>622</ele>
        <time>2020-10-19T13:01:32Z</time>
      </trkpt>
      <trkpt lat="46.12621" lon="4.56442">
        <ele>622</ele>
        <time>2020-10-19T13:01:33Z</time>
      </trkpt>
      <trkpt lat="46.12623" lon="4.56438">
        <ele>622</ele>
        <time>2020-10-19T13:01:34Z</time>
      </trkpt>
      <trkpt lat="46.12623" lon="4.56438">
        <ele>622</ele>
        <time>2020-10-19T13:01:35Z</time>
      </trkpt>
      <trkpt lat="46.12626" lon="4.56435">
        <ele>622</ele>
        <time>2020-10-19T13:01:36Z</time>
      </trkpt>
      <trkpt lat="46.12626" lon="4.56435">
        <ele>622</ele>
        <time>2020-10-19T13:01:37Z</time>
      </trkpt>
      <trkpt lat="46.12628" lon="4.56431">
        <ele>622.2</ele>
        <time>2020-10-19T13:01:38Z</time>
      </trkpt>
      <trkpt lat="46.12628" lon="4.56431">
        <ele>622.2</ele>
        <time>2020-10-19T13:01:39Z</time>
      </trkpt>
      <trkpt lat="46.1263" lon="4.56427">
        <ele>622.2</ele>
        <time>2020-10-19T13:01:40Z</time>
      </trkpt>
      <trkpt lat="46.1263" lon="4.56427">
        <ele>622.4</ele>
        <time>2020-10-19T13:01:41Z</time>
      </trkpt>
      <trkpt lat="46.12632" lon="4.56423">
        <ele>622.8</ele>
        <time>2020-10-19T13:01:42Z</time>
      </trkpt>
      <trkpt lat="46.12632" lon="4.56423">
        <ele>622.4</ele>
        <time>2020-10-19T13:01:43Z</time>
      </trkpt>
      <trkpt lat="46.12634" lon="4.56421">
        <ele>622.4</ele>
        <time>2020-10-19T13:01:44Z</time>
      </trkpt>
      <trkpt lat="46.12634" lon="4.56421">
        <ele>622.4</ele>
        <time>2020-10-19T13:01:45Z</time>
      </trkpt>
      <trkpt lat="46.12637" lon="4.56422">
        <ele>622.4</ele>
        <time>2020-10-19T13:01:46Z</time>
      </trkpt>
      <trkpt lat="46.12637" lon="4.56422">
        <ele>622.4</ele>
        <time>2020-10-19T13:01:47Z</time>
      </trkpt>
      <trkpt lat="46.12637" lon="4.56422">
        <ele>622.2</ele>
        <time>2020-10-19T13:01:48Z</time>
      </trkpt>
      <trkpt lat="46.12637" lon="4.56422">
        <ele>622.2</ele>
        <time>2020-10-19T13:01:49Z</time>
      </trkpt>
      <trkpt lat="46.12637" lon="4.56422">
        <ele>622.2</ele>
        <time>2020-10-19T13:01:50Z</time>
      </trkpt>
      <trkpt lat="46.12639" lon="4.56426">
        <ele>622</ele>
        <time>2020-10-19T13:01:51Z</time>
      </trkpt>
      <trkpt lat="46.12639" lon="4.56426">
        <ele>621.8</ele>
        <time>2020-10-19T13:01:52Z</time>
      </trkpt>
      <trkpt lat="46.1264" lon="4.5643">
        <ele>621.6</ele>
        <time>2020-10-19T13:01:53Z</time>
      </trkpt>
      <trkpt lat="46.1264" lon="4.5643">
        <ele>621.4</ele>
        <time>2020-10-19T13:01:54Z</time>
      </trkpt>
      <trkpt lat="46.12642" lon="4.56433">
        <ele>621.4</ele>
        <time>2020-10-19T13:01:55Z</time>
      </trkpt>
      <trkpt lat="46.12642" lon="4.56433">
        <ele>621.2</ele>
        <time>2020-10-19T13:01:56Z</time>
      </trkpt>
      <trkpt lat="46.12642" lon="4.56433">
        <ele>621</ele>
        <time>2020-10-19T13:01:57Z</time>
      </trkpt>
      <trkpt lat="46.12642" lon="4.56433">
        <ele>621</ele>
        <time>2020-10-19T13:01:58Z</time>
      </trkpt>
      <trkpt lat="46.12642" lon="4.56433">
        <ele>620.8</ele>
        <time>2020-10-19T13:01:59Z</time>
      </trkpt>
      <trkpt lat="46.12642" lon="4.5643">
        <ele>620.8</ele>
        <time>2020-10-19T13:02:00Z</time>
      </trkpt>
      <trkpt lat="46.12642" lon="4.5643">
        <ele>621</ele>
        <time>2020-10-19T13:02:01Z</time>
      </trkpt>
      <trkpt lat="46.12642" lon="4.5643">
        <ele>621.2</ele>
        <time>2020-10-19T13:02:02Z</time>
      </trkpt>
      <trkpt lat="46.12642" lon="4.5643">
        <ele>621.2</ele>
        <time>2020-10-19T13:02:03Z</time>
      </trkpt>
      <trkpt lat="46.12642" lon="4.5643">
        <ele>621.4</ele>
        <time>2020-10-19T13:02:04Z</time>
      </trkpt>
      <trkpt lat="46.12642" lon="4.5643">
        <ele>621.2</ele>
        <time>2020-10-19T13:02:05Z</time>
      </trkpt>
      <trkpt lat="46.12642" lon="4.56426">
        <ele>621.2</ele>
        <time>2020-10-19T13:02:06Z</time>
      </trkpt>
      <trkpt lat="46.12642" lon="4.56426">
        <ele>621.2</ele>
        <time>2020-10-19T13:02:07Z</time>
      </trkpt>
      <trkpt lat="46.12641" lon="4.56422">
        <ele>621.2</ele>
        <time>2020-10-19T13:02:08Z</time>
      </trkpt>
      <trkpt lat="46.12641" lon="4.56422">
        <ele>621.2</ele>
        <time>2020-10-19T13:02:09Z</time>
      </trkpt>
      <trkpt lat="46.12641" lon="4.56418">
        <ele>621</ele>
        <time>2020-10-19T13:02:10Z</time>
      </trkpt>
      <trkpt lat="46.12641" lon="4.56418">
        <ele>621</ele>
        <time>2020-10-19T13:02:11Z</time>
      </trkpt>
      <trkpt lat="46.1264" lon="4.56414">
        <ele>621</ele>
        <time>2020-10-19T13:02:12Z</time>
      </trkpt>
      <trkpt lat="46.1264" lon="4.56414">
        <ele>620.8</ele>
        <time>2020-10-19T13:02:13Z</time>
      </trkpt>
      <trkpt lat="46.1264" lon="4.5641">
        <ele>620.8</ele>
        <time>2020-10-19T13:02:14Z</time>
      </trkpt>
      <trkpt lat="46.1264" lon="4.5641">
        <ele>620.8</ele>
        <time>2020-10-19T13:02:15Z</time>
      </trkpt>
      <trkpt lat="46.12641" lon="4.56406">
        <ele>621</ele>
        <time>2020-10-19T13:02:16Z</time>
      </trkpt>
      <trkpt lat="46.12641" lon="4.56406">
        <ele>620.8</ele>
        <time>2020-10-19T13:02:17Z</time>
      </trkpt>
      <trkpt lat="46.12641" lon="4.56402">
        <ele>620.8</ele>
        <time>2020-10-19T13:02:18Z</time>
      </trkpt>
      <trkpt lat="46.12641" lon="4.56402">
        <ele>620.8</ele>
        <time>2020-10-19T13:02:19Z</time>
      </trkpt>
      <trkpt lat="46.12642" lon="4.56398">
        <ele>620.6</ele>
        <time>2020-10-19T13:02:20Z</time>
      </trkpt>
      <trkpt lat="46.12642" lon="4.56398">
        <ele>620.8</ele>
        <time>2020-10-19T13:02:21Z</time>
      </trkpt>
      <trkpt lat="46.12644" lon="4.56395">
        <ele>621</ele>
        <time>2020-10-19T13:02:22Z</time>
      </trkpt>
      <trkpt lat="46.12644" lon="4.56395">
        <ele>620.8</ele>
        <time>2020-10-19T13:02:23Z</time>
      </trkpt>
      <trkpt lat="46.12646" lon="4.56392">
        <ele>621</ele>
        <time>2020-10-19T13:02:24Z</time>
      </trkpt>
      <trkpt lat="46.12646" lon="4.56392">
        <ele>621</ele>
        <time>2020-10-19T13:02:25Z</time>
      </trkpt>
      <trkpt lat="46.12648" lon="4.56389">
        <ele>621.2</ele>
        <time>2020-10-19T13:02:26Z</time>
      </trkpt>
      <trkpt lat="46.12648" lon="4.56389">
        <ele>621</ele>
        <time>2020-10-19T13:02:27Z</time>
      </trkpt>
      <trkpt lat="46.1265" lon="4.56387">
        <ele>621.2</ele>
        <time>2020-10-19T13:02:28Z</time>
      </trkpt>
    </trkseg>
  </trk>
</gpx>